<?xml version="1.0" encoding="UTF-8" standalone="no" ?>
<gpx xmlns="http://www.topografix.com/GPX/1/1" xmlns:xsi="http://www.w3.org/2001/XMLSchema-instance" xsi:schemaLocation="http://www.topografix.com/GPX/1/1 http://www.topografix.com/GPX/1/1/gpx.xsd" version="1.1" creator="VisuGPX - https://www.visugpx.com">
  <metadata>
    <name>La clusaz initiation</name>
    <desc><![CDATA[Initiation ski de rando à La Clusaz]]></desc>
  </metadata>
  <trk>
    <name><![CDATA[La clusaz initiation_1]]></name>
    <trkseg>
      <trkpt lat="45.89665" lon="6.4254">
        <ele>1062</ele>
        <time>2017-03-17T09:13:47Z</time>
      </trkpt>
      <trkpt lat="45.89673" lon="6.42536">
        <ele>1071.8</ele>
        <time>2017-03-17T09:13:52Z</time>
      </trkpt>
      <trkpt lat="45.89675" lon="6.42534">
        <ele>1076.2</ele>
        <time>2017-03-17T09:13:57Z</time>
      </trkpt>
      <trkpt lat="45.89675" lon="6.42534">
        <ele>1081.6</ele>
        <time>2017-03-17T09:14:02Z</time>
      </trkpt>
      <trkpt lat="45.89679" lon="6.4253">
        <ele>1084.4</ele>
        <time>2017-03-17T09:14:07Z</time>
      </trkpt>
      <trkpt lat="45.89685" lon="6.42526">
        <ele>1087.2</ele>
        <time>2017-03-17T09:14:12Z</time>
      </trkpt>
      <trkpt lat="45.89692" lon="6.42521">
        <ele>1089.4</ele>
        <time>2017-03-17T09:14:17Z</time>
      </trkpt>
      <trkpt lat="45.89697" lon="6.42515">
        <ele>1088.6</ele>
        <time>2017-03-17T09:14:22Z</time>
      </trkpt>
      <trkpt lat="45.89701" lon="6.42507">
        <ele>1089.6</ele>
        <time>2017-03-17T09:14:27Z</time>
      </trkpt>
      <trkpt lat="45.89706" lon="6.425">
        <ele>1092.2</ele>
        <time>2017-03-17T09:14:32Z</time>
      </trkpt>
      <trkpt lat="45.89703" lon="6.42494">
        <ele>1088.8</ele>
        <time>2017-03-17T09:14:37Z</time>
      </trkpt>
      <trkpt lat="45.89696" lon="6.42492">
        <ele>1090.4</ele>
        <time>2017-03-17T09:14:42Z</time>
      </trkpt>
      <trkpt lat="45.89689" lon="6.4249">
        <ele>1090.2</ele>
        <time>2017-03-17T09:14:47Z</time>
      </trkpt>
      <trkpt lat="45.89683" lon="6.4249">
        <ele>1088.8</ele>
        <time>2017-03-17T09:14:52Z</time>
      </trkpt>
      <trkpt lat="45.89676" lon="6.42489">
        <ele>1091.4</ele>
        <time>2017-03-17T09:14:57Z</time>
      </trkpt>
      <trkpt lat="45.8967" lon="6.42489">
        <ele>1089.8</ele>
        <time>2017-03-17T09:15:02Z</time>
      </trkpt>
      <trkpt lat="45.89664" lon="6.42489">
        <ele>1088.4</ele>
        <time>2017-03-17T09:15:07Z</time>
      </trkpt>
      <trkpt lat="45.89658" lon="6.4249">
        <ele>1091.8</ele>
        <time>2017-03-17T09:15:12Z</time>
      </trkpt>
      <trkpt lat="45.89652" lon="6.42491">
        <ele>1092.2</ele>
        <time>2017-03-17T09:15:17Z</time>
      </trkpt>
      <trkpt lat="45.89646" lon="6.42491">
        <ele>1093</ele>
        <time>2017-03-17T09:15:22Z</time>
      </trkpt>
      <trkpt lat="45.89641" lon="6.42489">
        <ele>1090.2</ele>
        <time>2017-03-17T09:15:27Z</time>
      </trkpt>
      <trkpt lat="45.89638" lon="6.42482">
        <ele>1091.4</ele>
        <time>2017-03-17T09:15:32Z</time>
      </trkpt>
      <trkpt lat="45.89637" lon="6.42477">
        <ele>1093.6</ele>
        <time>2017-03-17T09:15:37Z</time>
      </trkpt>
      <trkpt lat="45.89637" lon="6.42471">
        <ele>1093.4</ele>
        <time>2017-03-17T09:15:42Z</time>
      </trkpt>
      <trkpt lat="45.89639" lon="6.42465">
        <ele>1093.4</ele>
        <time>2017-03-17T09:15:47Z</time>
      </trkpt>
      <trkpt lat="45.89641" lon="6.42459">
        <ele>1094.8</ele>
        <time>2017-03-17T09:15:52Z</time>
      </trkpt>
      <trkpt lat="45.89645" lon="6.42455">
        <ele>1095</ele>
        <time>2017-03-17T09:15:57Z</time>
      </trkpt>
      <trkpt lat="45.89649" lon="6.42451">
        <ele>1095.4</ele>
        <time>2017-03-17T09:16:02Z</time>
      </trkpt>
      <trkpt lat="45.89653" lon="6.42449">
        <ele>1095.2</ele>
        <time>2017-03-17T09:16:07Z</time>
      </trkpt>
      <trkpt lat="45.89657" lon="6.42444">
        <ele>1096.6</ele>
        <time>2017-03-17T09:16:12Z</time>
      </trkpt>
      <trkpt lat="45.89661" lon="6.42439">
        <ele>1096.2</ele>
        <time>2017-03-17T09:16:17Z</time>
      </trkpt>
      <trkpt lat="45.89665" lon="6.42435">
        <ele>1097.6</ele>
        <time>2017-03-17T09:16:22Z</time>
      </trkpt>
      <trkpt lat="45.8967" lon="6.4243">
        <ele>1096.8</ele>
        <time>2017-03-17T09:16:28Z</time>
      </trkpt>
      <trkpt lat="45.89674" lon="6.42427">
        <ele>1098.6</ele>
        <time>2017-03-17T09:16:33Z</time>
      </trkpt>
      <trkpt lat="45.89676" lon="6.42425">
        <ele>1098.2</ele>
        <time>2017-03-17T09:16:38Z</time>
      </trkpt>
      <trkpt lat="45.8968" lon="6.42422">
        <ele>1098.6</ele>
        <time>2017-03-17T09:16:43Z</time>
      </trkpt>
      <trkpt lat="45.89684" lon="6.42418">
        <ele>1099.6</ele>
        <time>2017-03-17T09:16:48Z</time>
      </trkpt>
      <trkpt lat="45.89688" lon="6.42414">
        <ele>1099.8</ele>
        <time>2017-03-17T09:16:53Z</time>
      </trkpt>
      <trkpt lat="45.89692" lon="6.42411">
        <ele>1102.4</ele>
        <time>2017-03-17T09:16:58Z</time>
      </trkpt>
      <trkpt lat="45.89696" lon="6.42406">
        <ele>1100.4</ele>
        <time>2017-03-17T09:17:03Z</time>
      </trkpt>
      <trkpt lat="45.89699" lon="6.42403">
        <ele>1104</ele>
        <time>2017-03-17T09:17:08Z</time>
      </trkpt>
      <trkpt lat="45.89703" lon="6.42401">
        <ele>1104.8</ele>
        <time>2017-03-17T09:17:13Z</time>
      </trkpt>
      <trkpt lat="45.89707" lon="6.42399">
        <ele>1104</ele>
        <time>2017-03-17T09:17:18Z</time>
      </trkpt>
      <trkpt lat="45.8971" lon="6.42396">
        <ele>1106.6</ele>
        <time>2017-03-17T09:17:23Z</time>
      </trkpt>
      <trkpt lat="45.89715" lon="6.42394">
        <ele>1108.8</ele>
        <time>2017-03-17T09:17:28Z</time>
      </trkpt>
      <trkpt lat="45.89719" lon="6.42393">
        <ele>1109.4</ele>
        <time>2017-03-17T09:17:33Z</time>
      </trkpt>
      <trkpt lat="45.89722" lon="6.4239">
        <ele>1111.4</ele>
        <time>2017-03-17T09:17:38Z</time>
      </trkpt>
      <trkpt lat="45.89725" lon="6.42386">
        <ele>1113</ele>
        <time>2017-03-17T09:17:43Z</time>
      </trkpt>
      <trkpt lat="45.89729" lon="6.42382">
        <ele>1112.2</ele>
        <time>2017-03-17T09:17:48Z</time>
      </trkpt>
      <trkpt lat="45.89733" lon="6.42377">
        <ele>1114.4</ele>
        <time>2017-03-17T09:17:53Z</time>
      </trkpt>
      <trkpt lat="45.89736" lon="6.42373">
        <ele>1116.2</ele>
        <time>2017-03-17T09:17:58Z</time>
      </trkpt>
      <trkpt lat="45.8974" lon="6.42369">
        <ele>1116.4</ele>
        <time>2017-03-17T09:18:03Z</time>
      </trkpt>
      <trkpt lat="45.89744" lon="6.42364">
        <ele>1118.6</ele>
        <time>2017-03-17T09:18:08Z</time>
      </trkpt>
      <trkpt lat="45.89747" lon="6.42359">
        <ele>1119.8</ele>
        <time>2017-03-17T09:18:13Z</time>
      </trkpt>
      <trkpt lat="45.8975" lon="6.42354">
        <ele>1121</ele>
        <time>2017-03-17T09:18:18Z</time>
      </trkpt>
      <trkpt lat="45.89753" lon="6.4235">
        <ele>1120.6</ele>
        <time>2017-03-17T09:18:23Z</time>
      </trkpt>
      <trkpt lat="45.89756" lon="6.42344">
        <ele>1121.6</ele>
        <time>2017-03-17T09:18:28Z</time>
      </trkpt>
      <trkpt lat="45.89759" lon="6.42341">
        <ele>1122</ele>
        <time>2017-03-17T09:18:33Z</time>
      </trkpt>
      <trkpt lat="45.89757" lon="6.42347">
        <ele>1123.4</ele>
        <time>2017-03-17T09:18:43Z</time>
      </trkpt>
      <trkpt lat="45.89751" lon="6.42356">
        <ele>1122</ele>
        <time>2017-03-17T09:18:48Z</time>
      </trkpt>
      <trkpt lat="45.89748" lon="6.42363">
        <ele>1121.8</ele>
        <time>2017-03-17T09:18:53Z</time>
      </trkpt>
      <trkpt lat="45.89744" lon="6.42369">
        <ele>1119.4</ele>
        <time>2017-03-17T09:18:58Z</time>
      </trkpt>
      <trkpt lat="45.89742" lon="6.42373">
        <ele>1119.8</ele>
        <time>2017-03-17T09:19:03Z</time>
      </trkpt>
      <trkpt lat="45.89736" lon="6.4238">
        <ele>1118.8</ele>
        <time>2017-03-17T09:19:08Z</time>
      </trkpt>
      <trkpt lat="45.89732" lon="6.42384">
        <ele>1119.8</ele>
        <time>2017-03-17T09:19:13Z</time>
      </trkpt>
      <trkpt lat="45.89729" lon="6.4239">
        <ele>1117.8</ele>
        <time>2017-03-17T09:19:18Z</time>
      </trkpt>
      <trkpt lat="45.89729" lon="6.42396">
        <ele>1119.8</ele>
        <time>2017-03-17T09:19:23Z</time>
      </trkpt>
      <trkpt lat="45.89728" lon="6.42395">
        <ele>1118.2</ele>
        <time>2017-03-17T09:19:28Z</time>
      </trkpt>
      <trkpt lat="45.89728" lon="6.42396">
        <ele>1118</ele>
        <time>2017-03-17T09:19:38Z</time>
      </trkpt>
      <trkpt lat="45.89728" lon="6.42395">
        <ele>1117.6</ele>
        <time>2017-03-17T09:19:48Z</time>
      </trkpt>
      <trkpt lat="45.89728" lon="6.42394">
        <ele>1117.4</ele>
        <time>2017-03-17T09:19:53Z</time>
      </trkpt>
      <trkpt lat="45.8973" lon="6.42393">
        <ele>1117.6</ele>
        <time>2017-03-17T09:19:58Z</time>
      </trkpt>
      <trkpt lat="45.8973" lon="6.42393">
        <ele>1119</ele>
        <time>2017-03-17T09:20:13Z</time>
      </trkpt>
      <trkpt lat="45.89728" lon="6.42394">
        <ele>1119.2</ele>
        <time>2017-03-17T09:20:33Z</time>
      </trkpt>
      <trkpt lat="45.89728" lon="6.42395">
        <ele>1119.4</ele>
        <time>2017-03-17T09:20:38Z</time>
      </trkpt>
      <trkpt lat="45.89727" lon="6.42395">
        <ele>1119.6</ele>
        <time>2017-03-17T09:20:48Z</time>
      </trkpt>
      <trkpt lat="45.89728" lon="6.42396">
        <ele>1119.4</ele>
        <time>2017-03-17T09:21:08Z</time>
      </trkpt>
      <trkpt lat="45.89728" lon="6.42397">
        <ele>1118.6</ele>
        <time>2017-03-17T09:21:13Z</time>
      </trkpt>
      <trkpt lat="45.89728" lon="6.42398">
        <ele>1117.8</ele>
        <time>2017-03-17T09:21:18Z</time>
      </trkpt>
      <trkpt lat="45.89729" lon="6.42399">
        <ele>1116.8</ele>
        <time>2017-03-17T09:21:23Z</time>
      </trkpt>
      <trkpt lat="45.8973" lon="6.424">
        <ele>1115.6</ele>
        <time>2017-03-17T09:21:28Z</time>
      </trkpt>
      <trkpt lat="45.8973" lon="6.42401">
        <ele>1114.6</ele>
        <time>2017-03-17T09:21:33Z</time>
      </trkpt>
      <trkpt lat="45.8973" lon="6.42401">
        <ele>1114.2</ele>
        <time>2017-03-17T09:21:38Z</time>
      </trkpt>
      <trkpt lat="45.8973" lon="6.424">
        <ele>1113.8</ele>
        <time>2017-03-17T09:21:43Z</time>
      </trkpt>
      <trkpt lat="45.89729" lon="6.42399">
        <ele>1113.4</ele>
        <time>2017-03-17T09:21:48Z</time>
      </trkpt>
      <trkpt lat="45.89726" lon="6.42398">
        <ele>1113</ele>
        <time>2017-03-17T09:21:53Z</time>
      </trkpt>
      <trkpt lat="45.89726" lon="6.42396">
        <ele>1113</ele>
        <time>2017-03-17T09:21:58Z</time>
      </trkpt>
      <trkpt lat="45.89725" lon="6.42396">
        <ele>1114.8</ele>
        <time>2017-03-17T09:22:08Z</time>
      </trkpt>
      <trkpt lat="45.89725" lon="6.42397">
        <ele>1114.8</ele>
        <time>2017-03-17T09:22:13Z</time>
      </trkpt>
      <trkpt lat="45.89725" lon="6.42397">
        <ele>1115.6</ele>
        <time>2017-03-17T09:22:19Z</time>
      </trkpt>
      <trkpt lat="45.89725" lon="6.42396">
        <ele>1116.2</ele>
        <time>2017-03-17T09:22:29Z</time>
      </trkpt>
      <trkpt lat="45.89725" lon="6.42394">
        <ele>1116.8</ele>
        <time>2017-03-17T09:22:34Z</time>
      </trkpt>
      <trkpt lat="45.89726" lon="6.42392">
        <ele>1121.2</ele>
        <time>2017-03-17T09:22:44Z</time>
      </trkpt>
      <trkpt lat="45.89725" lon="6.42392">
        <ele>1121.4</ele>
        <time>2017-03-17T09:22:49Z</time>
      </trkpt>
      <trkpt lat="45.89721" lon="6.42391">
        <ele>1123</ele>
        <time>2017-03-17T09:22:54Z</time>
      </trkpt>
      <trkpt lat="45.89716" lon="6.42392">
        <ele>1123.6</ele>
        <time>2017-03-17T09:22:59Z</time>
      </trkpt>
      <trkpt lat="45.89712" lon="6.42393">
        <ele>1124.8</ele>
        <time>2017-03-17T09:23:04Z</time>
      </trkpt>
      <trkpt lat="45.89707" lon="6.42394">
        <ele>1119</ele>
        <time>2017-03-17T09:23:09Z</time>
      </trkpt>
      <trkpt lat="45.89701" lon="6.42395">
        <ele>1123.2</ele>
        <time>2017-03-17T09:23:14Z</time>
      </trkpt>
      <trkpt lat="45.89697" lon="6.42397">
        <ele>1120.8</ele>
        <time>2017-03-17T09:23:19Z</time>
      </trkpt>
      <trkpt lat="45.89694" lon="6.42398">
        <ele>1122.2</ele>
        <time>2017-03-17T09:23:24Z</time>
      </trkpt>
      <trkpt lat="45.89689" lon="6.42397">
        <ele>1123</ele>
        <time>2017-03-17T09:23:29Z</time>
      </trkpt>
      <trkpt lat="45.89684" lon="6.424">
        <ele>1122</ele>
        <time>2017-03-17T09:23:34Z</time>
      </trkpt>
      <trkpt lat="45.89678" lon="6.42402">
        <ele>1121.8</ele>
        <time>2017-03-17T09:23:39Z</time>
      </trkpt>
      <trkpt lat="45.89673" lon="6.42405">
        <ele>1123.2</ele>
        <time>2017-03-17T09:23:44Z</time>
      </trkpt>
      <trkpt lat="45.89668" lon="6.42407">
        <ele>1124</ele>
        <time>2017-03-17T09:23:49Z</time>
      </trkpt>
      <trkpt lat="45.89663" lon="6.42409">
        <ele>1124</ele>
        <time>2017-03-17T09:23:54Z</time>
      </trkpt>
      <trkpt lat="45.89659" lon="6.4241">
        <ele>1122</ele>
        <time>2017-03-17T09:23:59Z</time>
      </trkpt>
      <trkpt lat="45.89654" lon="6.42413">
        <ele>1123.4</ele>
        <time>2017-03-17T09:24:04Z</time>
      </trkpt>
      <trkpt lat="45.8965" lon="6.42415">
        <ele>1125.2</ele>
        <time>2017-03-17T09:24:09Z</time>
      </trkpt>
      <trkpt lat="45.89647" lon="6.42418">
        <ele>1123.4</ele>
        <time>2017-03-17T09:24:14Z</time>
      </trkpt>
      <trkpt lat="45.89643" lon="6.42418">
        <ele>1124.6</ele>
        <time>2017-03-17T09:24:19Z</time>
      </trkpt>
      <trkpt lat="45.89638" lon="6.42419">
        <ele>1126</ele>
        <time>2017-03-17T09:24:24Z</time>
      </trkpt>
      <trkpt lat="45.89635" lon="6.42418">
        <ele>1124.6</ele>
        <time>2017-03-17T09:24:29Z</time>
      </trkpt>
      <trkpt lat="45.89632" lon="6.4242">
        <ele>1125</ele>
        <time>2017-03-17T09:24:34Z</time>
      </trkpt>
      <trkpt lat="45.89628" lon="6.42421">
        <ele>1126.2</ele>
        <time>2017-03-17T09:24:39Z</time>
      </trkpt>
      <trkpt lat="45.89624" lon="6.42423">
        <ele>1125</ele>
        <time>2017-03-17T09:24:44Z</time>
      </trkpt>
      <trkpt lat="45.8962" lon="6.42424">
        <ele>1123</ele>
        <time>2017-03-17T09:24:49Z</time>
      </trkpt>
      <trkpt lat="45.89616" lon="6.42426">
        <ele>1122</ele>
        <time>2017-03-17T09:24:54Z</time>
      </trkpt>
      <trkpt lat="45.89612" lon="6.42426">
        <ele>1123.6</ele>
        <time>2017-03-17T09:24:59Z</time>
      </trkpt>
      <trkpt lat="45.89608" lon="6.42428">
        <ele>1119</ele>
        <time>2017-03-17T09:25:04Z</time>
      </trkpt>
      <trkpt lat="45.89605" lon="6.42429">
        <ele>1118.2</ele>
        <time>2017-03-17T09:25:09Z</time>
      </trkpt>
      <trkpt lat="45.89601" lon="6.42429">
        <ele>1119.6</ele>
        <time>2017-03-17T09:25:14Z</time>
      </trkpt>
      <trkpt lat="45.89597" lon="6.4243">
        <ele>1118.6</ele>
        <time>2017-03-17T09:25:19Z</time>
      </trkpt>
      <trkpt lat="45.89591" lon="6.42431">
        <ele>1122</ele>
        <time>2017-03-17T09:25:24Z</time>
      </trkpt>
      <trkpt lat="45.89588" lon="6.42433">
        <ele>1118.4</ele>
        <time>2017-03-17T09:25:29Z</time>
      </trkpt>
      <trkpt lat="45.89584" lon="6.42436">
        <ele>1119</ele>
        <time>2017-03-17T09:25:34Z</time>
      </trkpt>
      <trkpt lat="45.89582" lon="6.42436">
        <ele>1120.4</ele>
        <time>2017-03-17T09:25:39Z</time>
      </trkpt>
      <trkpt lat="45.89578" lon="6.42438">
        <ele>1121.4</ele>
        <time>2017-03-17T09:25:44Z</time>
      </trkpt>
      <trkpt lat="45.89574" lon="6.42439">
        <ele>1119</ele>
        <time>2017-03-17T09:25:49Z</time>
      </trkpt>
      <trkpt lat="45.89569" lon="6.42441">
        <ele>1122</ele>
        <time>2017-03-17T09:25:55Z</time>
      </trkpt>
      <trkpt lat="45.89565" lon="6.42444">
        <ele>1124</ele>
        <time>2017-03-17T09:26:00Z</time>
      </trkpt>
      <trkpt lat="45.89566" lon="6.42447">
        <ele>1123.6</ele>
        <time>2017-03-17T09:26:06Z</time>
      </trkpt>
      <trkpt lat="45.89564" lon="6.42449">
        <ele>1122.2</ele>
        <time>2017-03-17T09:26:11Z</time>
      </trkpt>
      <trkpt lat="45.89557" lon="6.42449">
        <ele>1124.6</ele>
        <time>2017-03-17T09:26:16Z</time>
      </trkpt>
      <trkpt lat="45.89552" lon="6.42449">
        <ele>1123</ele>
        <time>2017-03-17T09:26:21Z</time>
      </trkpt>
      <trkpt lat="45.8955" lon="6.42452">
        <ele>1125</ele>
        <time>2017-03-17T09:26:26Z</time>
      </trkpt>
      <trkpt lat="45.89547" lon="6.42455">
        <ele>1124.6</ele>
        <time>2017-03-17T09:26:31Z</time>
      </trkpt>
      <trkpt lat="45.89545" lon="6.42458">
        <ele>1123.2</ele>
        <time>2017-03-17T09:26:36Z</time>
      </trkpt>
      <trkpt lat="45.89542" lon="6.42459">
        <ele>1127</ele>
        <time>2017-03-17T09:26:41Z</time>
      </trkpt>
      <trkpt lat="45.89539" lon="6.4246">
        <ele>1125</ele>
        <time>2017-03-17T09:26:46Z</time>
      </trkpt>
      <trkpt lat="45.89534" lon="6.42462">
        <ele>1126.2</ele>
        <time>2017-03-17T09:26:51Z</time>
      </trkpt>
      <trkpt lat="45.8953" lon="6.42464">
        <ele>1128</ele>
        <time>2017-03-17T09:26:56Z</time>
      </trkpt>
      <trkpt lat="45.89528" lon="6.42467">
        <ele>1127</ele>
        <time>2017-03-17T09:27:01Z</time>
      </trkpt>
      <trkpt lat="45.89524" lon="6.4247">
        <ele>1128.6</ele>
        <time>2017-03-17T09:27:06Z</time>
      </trkpt>
      <trkpt lat="45.89521" lon="6.42472">
        <ele>1128.4</ele>
        <time>2017-03-17T09:27:11Z</time>
      </trkpt>
      <trkpt lat="45.89517" lon="6.42473">
        <ele>1125.4</ele>
        <time>2017-03-17T09:27:16Z</time>
      </trkpt>
      <trkpt lat="45.89513" lon="6.42474">
        <ele>1129</ele>
        <time>2017-03-17T09:27:21Z</time>
      </trkpt>
      <trkpt lat="45.89508" lon="6.42477">
        <ele>1125.2</ele>
        <time>2017-03-17T09:27:26Z</time>
      </trkpt>
      <trkpt lat="45.89503" lon="6.42478">
        <ele>1123.8</ele>
        <time>2017-03-17T09:27:31Z</time>
      </trkpt>
      <trkpt lat="45.89498" lon="6.42479">
        <ele>1125.6</ele>
        <time>2017-03-17T09:27:36Z</time>
      </trkpt>
      <trkpt lat="45.89495" lon="6.4248">
        <ele>1124.2</ele>
        <time>2017-03-17T09:27:41Z</time>
      </trkpt>
      <trkpt lat="45.8949" lon="6.42481">
        <ele>1121.2</ele>
        <time>2017-03-17T09:27:46Z</time>
      </trkpt>
      <trkpt lat="45.89486" lon="6.42482">
        <ele>1121.6</ele>
        <time>2017-03-17T09:27:51Z</time>
      </trkpt>
      <trkpt lat="45.89482" lon="6.42483">
        <ele>1123.8</ele>
        <time>2017-03-17T09:27:56Z</time>
      </trkpt>
      <trkpt lat="45.89479" lon="6.42484">
        <ele>1120.6</ele>
        <time>2017-03-17T09:28:01Z</time>
      </trkpt>
      <trkpt lat="45.89471" lon="6.42484">
        <ele>1123.8</ele>
        <time>2017-03-17T09:28:11Z</time>
      </trkpt>
      <trkpt lat="45.89469" lon="6.42484">
        <ele>1122.6</ele>
        <time>2017-03-17T09:28:16Z</time>
      </trkpt>
      <trkpt lat="45.89465" lon="6.42484">
        <ele>1121.4</ele>
        <time>2017-03-17T09:28:21Z</time>
      </trkpt>
      <trkpt lat="45.89461" lon="6.42484">
        <ele>1124.4</ele>
        <time>2017-03-17T09:28:26Z</time>
      </trkpt>
      <trkpt lat="45.89458" lon="6.42483">
        <ele>1123.4</ele>
        <time>2017-03-17T09:28:31Z</time>
      </trkpt>
      <trkpt lat="45.89454" lon="6.42484">
        <ele>1124.8</ele>
        <time>2017-03-17T09:28:36Z</time>
      </trkpt>
      <trkpt lat="45.89451" lon="6.42485">
        <ele>1126</ele>
        <time>2017-03-17T09:28:41Z</time>
      </trkpt>
      <trkpt lat="45.89449" lon="6.42484">
        <ele>1126</ele>
        <time>2017-03-17T09:28:46Z</time>
      </trkpt>
      <trkpt lat="45.89447" lon="6.42483">
        <ele>1124.2</ele>
        <time>2017-03-17T09:28:51Z</time>
      </trkpt>
      <trkpt lat="45.89444" lon="6.42482">
        <ele>1126.8</ele>
        <time>2017-03-17T09:28:56Z</time>
      </trkpt>
      <trkpt lat="45.89441" lon="6.4248">
        <ele>1128.2</ele>
        <time>2017-03-17T09:29:01Z</time>
      </trkpt>
      <trkpt lat="45.89439" lon="6.42478">
        <ele>1128.4</ele>
        <time>2017-03-17T09:29:06Z</time>
      </trkpt>
      <trkpt lat="45.89435" lon="6.42475">
        <ele>1127.8</ele>
        <time>2017-03-17T09:29:11Z</time>
      </trkpt>
      <trkpt lat="45.89431" lon="6.42473">
        <ele>1126.6</ele>
        <time>2017-03-17T09:29:16Z</time>
      </trkpt>
      <trkpt lat="45.89427" lon="6.42471">
        <ele>1127.8</ele>
        <time>2017-03-17T09:29:21Z</time>
      </trkpt>
      <trkpt lat="45.89425" lon="6.4247">
        <ele>1132</ele>
        <time>2017-03-17T09:29:26Z</time>
      </trkpt>
      <trkpt lat="45.89422" lon="6.4247">
        <ele>1130.8</ele>
        <time>2017-03-17T09:29:31Z</time>
      </trkpt>
      <trkpt lat="45.89419" lon="6.42469">
        <ele>1134.2</ele>
        <time>2017-03-17T09:29:36Z</time>
      </trkpt>
      <trkpt lat="45.89415" lon="6.4247">
        <ele>1134.4</ele>
        <time>2017-03-17T09:29:41Z</time>
      </trkpt>
      <trkpt lat="45.89413" lon="6.42469">
        <ele>1138.8</ele>
        <time>2017-03-17T09:29:46Z</time>
      </trkpt>
      <trkpt lat="45.89405" lon="6.4247">
        <ele>1138</ele>
        <time>2017-03-17T09:29:56Z</time>
      </trkpt>
      <trkpt lat="45.89403" lon="6.42472">
        <ele>1140</ele>
        <time>2017-03-17T09:30:01Z</time>
      </trkpt>
      <trkpt lat="45.89401" lon="6.42473">
        <ele>1141.2</ele>
        <time>2017-03-17T09:30:06Z</time>
      </trkpt>
      <trkpt lat="45.89398" lon="6.42475">
        <ele>1142.6</ele>
        <time>2017-03-17T09:30:11Z</time>
      </trkpt>
      <trkpt lat="45.89393" lon="6.42477">
        <ele>1145.4</ele>
        <time>2017-03-17T09:30:16Z</time>
      </trkpt>
      <trkpt lat="45.8939" lon="6.42478">
        <ele>1144</ele>
        <time>2017-03-17T09:30:21Z</time>
      </trkpt>
      <trkpt lat="45.89388" lon="6.42481">
        <ele>1144</ele>
        <time>2017-03-17T09:30:26Z</time>
      </trkpt>
      <trkpt lat="45.89384" lon="6.42483">
        <ele>1144.8</ele>
        <time>2017-03-17T09:30:31Z</time>
      </trkpt>
      <trkpt lat="45.8938" lon="6.42484">
        <ele>1146</ele>
        <time>2017-03-17T09:30:36Z</time>
      </trkpt>
      <trkpt lat="45.89374" lon="6.42484">
        <ele>1145.6</ele>
        <time>2017-03-17T09:30:41Z</time>
      </trkpt>
      <trkpt lat="45.89368" lon="6.42483">
        <ele>1145.6</ele>
        <time>2017-03-17T09:30:46Z</time>
      </trkpt>
      <trkpt lat="45.89364" lon="6.42484">
        <ele>1145.4</ele>
        <time>2017-03-17T09:30:51Z</time>
      </trkpt>
      <trkpt lat="45.8936" lon="6.42484">
        <ele>1144.6</ele>
        <time>2017-03-17T09:30:56Z</time>
      </trkpt>
      <trkpt lat="45.89356" lon="6.42485">
        <ele>1143.8</ele>
        <time>2017-03-17T09:31:01Z</time>
      </trkpt>
      <trkpt lat="45.89353" lon="6.42485">
        <ele>1142.8</ele>
        <time>2017-03-17T09:31:06Z</time>
      </trkpt>
      <trkpt lat="45.89349" lon="6.42486">
        <ele>1140.8</ele>
        <time>2017-03-17T09:31:11Z</time>
      </trkpt>
      <trkpt lat="45.89346" lon="6.42487">
        <ele>1140.8</ele>
        <time>2017-03-17T09:31:16Z</time>
      </trkpt>
      <trkpt lat="45.89342" lon="6.42488">
        <ele>1142.4</ele>
        <time>2017-03-17T09:31:21Z</time>
      </trkpt>
      <trkpt lat="45.89339" lon="6.42488">
        <ele>1137.8</ele>
        <time>2017-03-17T09:31:26Z</time>
      </trkpt>
      <trkpt lat="45.89335" lon="6.42489">
        <ele>1138.6</ele>
        <time>2017-03-17T09:31:31Z</time>
      </trkpt>
      <trkpt lat="45.89331" lon="6.42489">
        <ele>1141.6</ele>
        <time>2017-03-17T09:31:36Z</time>
      </trkpt>
      <trkpt lat="45.89327" lon="6.42489">
        <ele>1140</ele>
        <time>2017-03-17T09:31:41Z</time>
      </trkpt>
      <trkpt lat="45.89323" lon="6.42491">
        <ele>1138.8</ele>
        <time>2017-03-17T09:31:46Z</time>
      </trkpt>
      <trkpt lat="45.8932" lon="6.42491">
        <ele>1138.2</ele>
        <time>2017-03-17T09:31:51Z</time>
      </trkpt>
      <trkpt lat="45.89316" lon="6.42492">
        <ele>1140.4</ele>
        <time>2017-03-17T09:31:56Z</time>
      </trkpt>
      <trkpt lat="45.89312" lon="6.42493">
        <ele>1140.8</ele>
        <time>2017-03-17T09:32:01Z</time>
      </trkpt>
      <trkpt lat="45.89309" lon="6.42495">
        <ele>1140.8</ele>
        <time>2017-03-17T09:32:06Z</time>
      </trkpt>
      <trkpt lat="45.89305" lon="6.42496">
        <ele>1140.2</ele>
        <time>2017-03-17T09:32:11Z</time>
      </trkpt>
      <trkpt lat="45.89302" lon="6.42497">
        <ele>1140.2</ele>
        <time>2017-03-17T09:32:16Z</time>
      </trkpt>
      <trkpt lat="45.89298" lon="6.42499">
        <ele>1142.4</ele>
        <time>2017-03-17T09:32:21Z</time>
      </trkpt>
      <trkpt lat="45.89295" lon="6.425">
        <ele>1140.2</ele>
        <time>2017-03-17T09:32:26Z</time>
      </trkpt>
      <trkpt lat="45.89291" lon="6.42501">
        <ele>1143.8</ele>
        <time>2017-03-17T09:32:31Z</time>
      </trkpt>
      <trkpt lat="45.89287" lon="6.42502">
        <ele>1141.4</ele>
        <time>2017-03-17T09:32:36Z</time>
      </trkpt>
      <trkpt lat="45.89284" lon="6.42504">
        <ele>1142.6</ele>
        <time>2017-03-17T09:32:41Z</time>
      </trkpt>
      <trkpt lat="45.8928" lon="6.42506">
        <ele>1143</ele>
        <time>2017-03-17T09:32:46Z</time>
      </trkpt>
      <trkpt lat="45.89277" lon="6.42507">
        <ele>1141.2</ele>
        <time>2017-03-17T09:32:51Z</time>
      </trkpt>
      <trkpt lat="45.89273" lon="6.42509">
        <ele>1143.6</ele>
        <time>2017-03-17T09:32:56Z</time>
      </trkpt>
      <trkpt lat="45.8927" lon="6.42511">
        <ele>1144.2</ele>
        <time>2017-03-17T09:33:01Z</time>
      </trkpt>
      <trkpt lat="45.89266" lon="6.42513">
        <ele>1147.4</ele>
        <time>2017-03-17T09:33:06Z</time>
      </trkpt>
      <trkpt lat="45.89263" lon="6.42515">
        <ele>1146.8</ele>
        <time>2017-03-17T09:33:11Z</time>
      </trkpt>
      <trkpt lat="45.89259" lon="6.42517">
        <ele>1146.8</ele>
        <time>2017-03-17T09:33:16Z</time>
      </trkpt>
      <trkpt lat="45.89256" lon="6.42519">
        <ele>1147.4</ele>
        <time>2017-03-17T09:33:21Z</time>
      </trkpt>
      <trkpt lat="45.89252" lon="6.42521">
        <ele>1147.4</ele>
        <time>2017-03-17T09:33:26Z</time>
      </trkpt>
      <trkpt lat="45.89248" lon="6.42523">
        <ele>1146.8</ele>
        <time>2017-03-17T09:33:31Z</time>
      </trkpt>
      <trkpt lat="45.89244" lon="6.42525">
        <ele>1147.6</ele>
        <time>2017-03-17T09:33:36Z</time>
      </trkpt>
      <trkpt lat="45.89241" lon="6.42527">
        <ele>1151.2</ele>
        <time>2017-03-17T09:33:41Z</time>
      </trkpt>
      <trkpt lat="45.89237" lon="6.42529">
        <ele>1150</ele>
        <time>2017-03-17T09:33:46Z</time>
      </trkpt>
      <trkpt lat="45.89234" lon="6.42531">
        <ele>1149.6</ele>
        <time>2017-03-17T09:33:51Z</time>
      </trkpt>
      <trkpt lat="45.8923" lon="6.42533">
        <ele>1152.4</ele>
        <time>2017-03-17T09:33:56Z</time>
      </trkpt>
      <trkpt lat="45.89226" lon="6.42535">
        <ele>1150.4</ele>
        <time>2017-03-17T09:34:01Z</time>
      </trkpt>
      <trkpt lat="45.89222" lon="6.42537">
        <ele>1151</ele>
        <time>2017-03-17T09:34:06Z</time>
      </trkpt>
      <trkpt lat="45.89218" lon="6.4254">
        <ele>1150</ele>
        <time>2017-03-17T09:34:11Z</time>
      </trkpt>
      <trkpt lat="45.89215" lon="6.42542">
        <ele>1153.8</ele>
        <time>2017-03-17T09:34:16Z</time>
      </trkpt>
      <trkpt lat="45.89211" lon="6.42544">
        <ele>1150.4</ele>
        <time>2017-03-17T09:34:21Z</time>
      </trkpt>
      <trkpt lat="45.89208" lon="6.42546">
        <ele>1153.8</ele>
        <time>2017-03-17T09:34:26Z</time>
      </trkpt>
      <trkpt lat="45.89204" lon="6.42548">
        <ele>1156.2</ele>
        <time>2017-03-17T09:34:31Z</time>
      </trkpt>
      <trkpt lat="45.89201" lon="6.4255">
        <ele>1157.2</ele>
        <time>2017-03-17T09:34:36Z</time>
      </trkpt>
      <trkpt lat="45.89197" lon="6.42552">
        <ele>1156.8</ele>
        <time>2017-03-17T09:34:41Z</time>
      </trkpt>
      <trkpt lat="45.89194" lon="6.42554">
        <ele>1153.8</ele>
        <time>2017-03-17T09:34:46Z</time>
      </trkpt>
      <trkpt lat="45.89189" lon="6.42556">
        <ele>1155.2</ele>
        <time>2017-03-17T09:34:51Z</time>
      </trkpt>
      <trkpt lat="45.89184" lon="6.42557">
        <ele>1157</ele>
        <time>2017-03-17T09:34:56Z</time>
      </trkpt>
      <trkpt lat="45.8918" lon="6.42559">
        <ele>1157.4</ele>
        <time>2017-03-17T09:35:01Z</time>
      </trkpt>
      <trkpt lat="45.89176" lon="6.4256">
        <ele>1157.4</ele>
        <time>2017-03-17T09:35:06Z</time>
      </trkpt>
      <trkpt lat="45.89172" lon="6.42562">
        <ele>1153.6</ele>
        <time>2017-03-17T09:35:11Z</time>
      </trkpt>
      <trkpt lat="45.89168" lon="6.42564">
        <ele>1156.8</ele>
        <time>2017-03-17T09:35:16Z</time>
      </trkpt>
      <trkpt lat="45.89164" lon="6.42565">
        <ele>1157.6</ele>
        <time>2017-03-17T09:35:21Z</time>
      </trkpt>
      <trkpt lat="45.8916" lon="6.42566">
        <ele>1155.4</ele>
        <time>2017-03-17T09:35:26Z</time>
      </trkpt>
      <trkpt lat="45.89158" lon="6.42567">
        <ele>1158.4</ele>
        <time>2017-03-17T09:35:31Z</time>
      </trkpt>
      <trkpt lat="45.89157" lon="6.42566">
        <ele>1158.6</ele>
        <time>2017-03-17T09:35:51Z</time>
      </trkpt>
      <trkpt lat="45.89154" lon="6.42567">
        <ele>1157.2</ele>
        <time>2017-03-17T09:35:56Z</time>
      </trkpt>
      <trkpt lat="45.8915" lon="6.42568">
        <ele>1158.4</ele>
        <time>2017-03-17T09:36:01Z</time>
      </trkpt>
      <trkpt lat="45.89146" lon="6.42569">
        <ele>1156.6</ele>
        <time>2017-03-17T09:36:06Z</time>
      </trkpt>
      <trkpt lat="45.89142" lon="6.4257">
        <ele>1158</ele>
        <time>2017-03-17T09:36:11Z</time>
      </trkpt>
      <trkpt lat="45.89138" lon="6.42571">
        <ele>1155.6</ele>
        <time>2017-03-17T09:36:16Z</time>
      </trkpt>
      <trkpt lat="45.89135" lon="6.42573">
        <ele>1159.4</ele>
        <time>2017-03-17T09:36:21Z</time>
      </trkpt>
      <trkpt lat="45.89131" lon="6.42574">
        <ele>1157.8</ele>
        <time>2017-03-17T09:36:26Z</time>
      </trkpt>
      <trkpt lat="45.89127" lon="6.42576">
        <ele>1156.2</ele>
        <time>2017-03-17T09:36:31Z</time>
      </trkpt>
      <trkpt lat="45.89124" lon="6.42577">
        <ele>1155.2</ele>
        <time>2017-03-17T09:36:36Z</time>
      </trkpt>
      <trkpt lat="45.8912" lon="6.42579">
        <ele>1157.8</ele>
        <time>2017-03-17T09:36:41Z</time>
      </trkpt>
      <trkpt lat="45.89115" lon="6.42581">
        <ele>1157.8</ele>
        <time>2017-03-17T09:36:46Z</time>
      </trkpt>
      <trkpt lat="45.89111" lon="6.42584">
        <ele>1159.4</ele>
        <time>2017-03-17T09:36:51Z</time>
      </trkpt>
      <trkpt lat="45.89107" lon="6.42585">
        <ele>1159.6</ele>
        <time>2017-03-17T09:36:56Z</time>
      </trkpt>
      <trkpt lat="45.89103" lon="6.42587">
        <ele>1159.4</ele>
        <time>2017-03-17T09:37:01Z</time>
      </trkpt>
      <trkpt lat="45.89099" lon="6.42589">
        <ele>1164.4</ele>
        <time>2017-03-17T09:37:06Z</time>
      </trkpt>
      <trkpt lat="45.89095" lon="6.42591">
        <ele>1162.8</ele>
        <time>2017-03-17T09:37:11Z</time>
      </trkpt>
      <trkpt lat="45.8909" lon="6.42593">
        <ele>1160.8</ele>
        <time>2017-03-17T09:37:16Z</time>
      </trkpt>
      <trkpt lat="45.89086" lon="6.42595">
        <ele>1160.8</ele>
        <time>2017-03-17T09:37:21Z</time>
      </trkpt>
      <trkpt lat="45.89082" lon="6.42596">
        <ele>1163</ele>
        <time>2017-03-17T09:37:26Z</time>
      </trkpt>
      <trkpt lat="45.89078" lon="6.42598">
        <ele>1159.2</ele>
        <time>2017-03-17T09:37:31Z</time>
      </trkpt>
      <trkpt lat="45.89074" lon="6.42599">
        <ele>1164.8</ele>
        <time>2017-03-17T09:37:36Z</time>
      </trkpt>
      <trkpt lat="45.89069" lon="6.42601">
        <ele>1168</ele>
        <time>2017-03-17T09:37:41Z</time>
      </trkpt>
      <trkpt lat="45.89065" lon="6.42602">
        <ele>1165.6</ele>
        <time>2017-03-17T09:37:46Z</time>
      </trkpt>
      <trkpt lat="45.89061" lon="6.42604">
        <ele>1164.6</ele>
        <time>2017-03-17T09:37:51Z</time>
      </trkpt>
      <trkpt lat="45.89056" lon="6.42605">
        <ele>1164.4</ele>
        <time>2017-03-17T09:37:56Z</time>
      </trkpt>
      <trkpt lat="45.89053" lon="6.42607">
        <ele>1166.6</ele>
        <time>2017-03-17T09:38:01Z</time>
      </trkpt>
      <trkpt lat="45.89049" lon="6.42609">
        <ele>1162.2</ele>
        <time>2017-03-17T09:38:06Z</time>
      </trkpt>
      <trkpt lat="45.89044" lon="6.42611">
        <ele>1164.6</ele>
        <time>2017-03-17T09:38:11Z</time>
      </trkpt>
      <trkpt lat="45.8904" lon="6.42613">
        <ele>1167</ele>
        <time>2017-03-17T09:38:16Z</time>
      </trkpt>
      <trkpt lat="45.89036" lon="6.42615">
        <ele>1167</ele>
        <time>2017-03-17T09:38:21Z</time>
      </trkpt>
      <trkpt lat="45.89032" lon="6.42618">
        <ele>1167</ele>
        <time>2017-03-17T09:38:26Z</time>
      </trkpt>
      <trkpt lat="45.89028" lon="6.4262">
        <ele>1166.6</ele>
        <time>2017-03-17T09:38:31Z</time>
      </trkpt>
      <trkpt lat="45.89024" lon="6.42622">
        <ele>1168</ele>
        <time>2017-03-17T09:38:36Z</time>
      </trkpt>
      <trkpt lat="45.89021" lon="6.42625">
        <ele>1168.6</ele>
        <time>2017-03-17T09:38:41Z</time>
      </trkpt>
      <trkpt lat="45.89017" lon="6.42627">
        <ele>1169.2</ele>
        <time>2017-03-17T09:38:46Z</time>
      </trkpt>
      <trkpt lat="45.89013" lon="6.42629">
        <ele>1169.2</ele>
        <time>2017-03-17T09:38:51Z</time>
      </trkpt>
      <trkpt lat="45.89009" lon="6.42631">
        <ele>1169.8</ele>
        <time>2017-03-17T09:38:56Z</time>
      </trkpt>
      <trkpt lat="45.89005" lon="6.42634">
        <ele>1171</ele>
        <time>2017-03-17T09:39:01Z</time>
      </trkpt>
      <trkpt lat="45.89001" lon="6.42636">
        <ele>1172.2</ele>
        <time>2017-03-17T09:39:06Z</time>
      </trkpt>
      <trkpt lat="45.88997" lon="6.42638">
        <ele>1170.6</ele>
        <time>2017-03-17T09:39:11Z</time>
      </trkpt>
      <trkpt lat="45.88993" lon="6.4264">
        <ele>1172.2</ele>
        <time>2017-03-17T09:39:16Z</time>
      </trkpt>
      <trkpt lat="45.88989" lon="6.42642">
        <ele>1170.6</ele>
        <time>2017-03-17T09:39:21Z</time>
      </trkpt>
      <trkpt lat="45.88984" lon="6.42644">
        <ele>1174</ele>
        <time>2017-03-17T09:39:26Z</time>
      </trkpt>
      <trkpt lat="45.8898" lon="6.42646">
        <ele>1172.4</ele>
        <time>2017-03-17T09:39:31Z</time>
      </trkpt>
      <trkpt lat="45.88976" lon="6.42648">
        <ele>1171.6</ele>
        <time>2017-03-17T09:39:36Z</time>
      </trkpt>
      <trkpt lat="45.88972" lon="6.4265">
        <ele>1170.8</ele>
        <time>2017-03-17T09:39:41Z</time>
      </trkpt>
      <trkpt lat="45.88967" lon="6.42652">
        <ele>1171.2</ele>
        <time>2017-03-17T09:39:46Z</time>
      </trkpt>
      <trkpt lat="45.88962" lon="6.42654">
        <ele>1170.8</ele>
        <time>2017-03-17T09:39:51Z</time>
      </trkpt>
      <trkpt lat="45.88957" lon="6.42655">
        <ele>1175</ele>
        <time>2017-03-17T09:39:56Z</time>
      </trkpt>
      <trkpt lat="45.88952" lon="6.42657">
        <ele>1169</ele>
        <time>2017-03-17T09:40:01Z</time>
      </trkpt>
      <trkpt lat="45.88948" lon="6.42659">
        <ele>1174.6</ele>
        <time>2017-03-17T09:40:06Z</time>
      </trkpt>
      <trkpt lat="45.88943" lon="6.42661">
        <ele>1172.4</ele>
        <time>2017-03-17T09:40:12Z</time>
      </trkpt>
      <trkpt lat="45.88939" lon="6.42663">
        <ele>1169.8</ele>
        <time>2017-03-17T09:40:17Z</time>
      </trkpt>
      <trkpt lat="45.88934" lon="6.42666">
        <ele>1175.6</ele>
        <time>2017-03-17T09:40:22Z</time>
      </trkpt>
      <trkpt lat="45.88931" lon="6.42669">
        <ele>1172.2</ele>
        <time>2017-03-17T09:40:27Z</time>
      </trkpt>
      <trkpt lat="45.88927" lon="6.42672">
        <ele>1176</ele>
        <time>2017-03-17T09:40:32Z</time>
      </trkpt>
      <trkpt lat="45.88923" lon="6.42675">
        <ele>1173</ele>
        <time>2017-03-17T09:40:37Z</time>
      </trkpt>
      <trkpt lat="45.8892" lon="6.42679">
        <ele>1174.8</ele>
        <time>2017-03-17T09:40:42Z</time>
      </trkpt>
      <trkpt lat="45.88916" lon="6.42682">
        <ele>1174.8</ele>
        <time>2017-03-17T09:40:47Z</time>
      </trkpt>
      <trkpt lat="45.88913" lon="6.42686">
        <ele>1175</ele>
        <time>2017-03-17T09:40:52Z</time>
      </trkpt>
      <trkpt lat="45.88909" lon="6.4269">
        <ele>1176.8</ele>
        <time>2017-03-17T09:40:57Z</time>
      </trkpt>
      <trkpt lat="45.88906" lon="6.42693">
        <ele>1175.6</ele>
        <time>2017-03-17T09:41:02Z</time>
      </trkpt>
      <trkpt lat="45.88902" lon="6.42695">
        <ele>1177.6</ele>
        <time>2017-03-17T09:41:07Z</time>
      </trkpt>
      <trkpt lat="45.88898" lon="6.42696">
        <ele>1175.4</ele>
        <time>2017-03-17T09:41:12Z</time>
      </trkpt>
      <trkpt lat="45.88894" lon="6.42697">
        <ele>1177.6</ele>
        <time>2017-03-17T09:41:17Z</time>
      </trkpt>
      <trkpt lat="45.88894" lon="6.42697">
        <ele>1177.8</ele>
        <time>2017-03-17T09:41:22Z</time>
      </trkpt>
      <trkpt lat="45.88894" lon="6.42697">
        <ele>1178</ele>
        <time>2017-03-17T09:41:27Z</time>
      </trkpt>
      <trkpt lat="45.88894" lon="6.42696">
        <ele>1178.2</ele>
        <time>2017-03-17T09:41:42Z</time>
      </trkpt>
      <trkpt lat="45.88894" lon="6.42696">
        <ele>1178</ele>
        <time>2017-03-17T09:41:47Z</time>
      </trkpt>
      <trkpt lat="45.88894" lon="6.42696">
        <ele>1178</ele>
        <time>2017-03-17T09:41:52Z</time>
      </trkpt>
      <trkpt lat="45.88894" lon="6.42696">
        <ele>1179</ele>
        <time>2017-03-17T09:41:57Z</time>
      </trkpt>
      <trkpt lat="45.88894" lon="6.42696">
        <ele>1178.6</ele>
        <time>2017-03-17T09:42:12Z</time>
      </trkpt>
      <trkpt lat="45.88893" lon="6.42696">
        <ele>1178.8</ele>
        <time>2017-03-17T09:42:17Z</time>
      </trkpt>
      <trkpt lat="45.88894" lon="6.42696">
        <ele>1178.8</ele>
        <time>2017-03-17T09:42:22Z</time>
      </trkpt>
      <trkpt lat="45.88894" lon="6.42696">
        <ele>1179.2</ele>
        <time>2017-03-17T09:42:27Z</time>
      </trkpt>
      <trkpt lat="45.88895" lon="6.42696">
        <ele>1179.6</ele>
        <time>2017-03-17T09:42:32Z</time>
      </trkpt>
      <trkpt lat="45.88895" lon="6.42696">
        <ele>1180</ele>
        <time>2017-03-17T09:42:37Z</time>
      </trkpt>
      <trkpt lat="45.88895" lon="6.42697">
        <ele>1180.6</ele>
        <time>2017-03-17T09:42:42Z</time>
      </trkpt>
      <trkpt lat="45.88895" lon="6.42697">
        <ele>1180.8</ele>
        <time>2017-03-17T09:42:47Z</time>
      </trkpt>
      <trkpt lat="45.88893" lon="6.42698">
        <ele>1178.6</ele>
        <time>2017-03-17T09:42:52Z</time>
      </trkpt>
      <trkpt lat="45.88892" lon="6.42697">
        <ele>1182.4</ele>
        <time>2017-03-17T09:42:57Z</time>
      </trkpt>
      <trkpt lat="45.88887" lon="6.42695">
        <ele>1179.4</ele>
        <time>2017-03-17T09:43:02Z</time>
      </trkpt>
      <trkpt lat="45.88882" lon="6.42693">
        <ele>1183.4</ele>
        <time>2017-03-17T09:43:07Z</time>
      </trkpt>
      <trkpt lat="45.88876" lon="6.42691">
        <ele>1183</ele>
        <time>2017-03-17T09:43:12Z</time>
      </trkpt>
      <trkpt lat="45.88872" lon="6.42688">
        <ele>1183.8</ele>
        <time>2017-03-17T09:43:17Z</time>
      </trkpt>
      <trkpt lat="45.8887" lon="6.42687">
        <ele>1181.2</ele>
        <time>2017-03-17T09:43:22Z</time>
      </trkpt>
      <trkpt lat="45.8887" lon="6.42687">
        <ele>1181.4</ele>
        <time>2017-03-17T09:43:32Z</time>
      </trkpt>
      <trkpt lat="45.88867" lon="6.42684">
        <ele>1180.8</ele>
        <time>2017-03-17T09:43:37Z</time>
      </trkpt>
      <trkpt lat="45.88866" lon="6.42683">
        <ele>1182</ele>
        <time>2017-03-17T09:43:47Z</time>
      </trkpt>
      <trkpt lat="45.88865" lon="6.42682">
        <ele>1182.8</ele>
        <time>2017-03-17T09:43:57Z</time>
      </trkpt>
      <trkpt lat="45.88864" lon="6.42679">
        <ele>1187.2</ele>
        <time>2017-03-17T09:44:02Z</time>
      </trkpt>
      <trkpt lat="45.88864" lon="6.42679">
        <ele>1185.6</ele>
        <time>2017-03-17T09:44:07Z</time>
      </trkpt>
      <trkpt lat="45.88864" lon="6.42678">
        <ele>1184.4</ele>
        <time>2017-03-17T09:44:12Z</time>
      </trkpt>
      <trkpt lat="45.88861" lon="6.42677">
        <ele>1184</ele>
        <time>2017-03-17T09:44:17Z</time>
      </trkpt>
      <trkpt lat="45.88858" lon="6.42677">
        <ele>1184.6</ele>
        <time>2017-03-17T09:44:22Z</time>
      </trkpt>
      <trkpt lat="45.88855" lon="6.42676">
        <ele>1184</ele>
        <time>2017-03-17T09:44:27Z</time>
      </trkpt>
      <trkpt lat="45.88852" lon="6.42675">
        <ele>1184.4</ele>
        <time>2017-03-17T09:44:32Z</time>
      </trkpt>
      <trkpt lat="45.88848" lon="6.42674">
        <ele>1184</ele>
        <time>2017-03-17T09:44:37Z</time>
      </trkpt>
      <trkpt lat="45.88845" lon="6.42674">
        <ele>1186.6</ele>
        <time>2017-03-17T09:44:42Z</time>
      </trkpt>
      <trkpt lat="45.88841" lon="6.42673">
        <ele>1183.8</ele>
        <time>2017-03-17T09:44:47Z</time>
      </trkpt>
      <trkpt lat="45.88838" lon="6.42673">
        <ele>1184.4</ele>
        <time>2017-03-17T09:44:52Z</time>
      </trkpt>
      <trkpt lat="45.88835" lon="6.42673">
        <ele>1182.6</ele>
        <time>2017-03-17T09:44:57Z</time>
      </trkpt>
      <trkpt lat="45.88835" lon="6.42673">
        <ele>1183.2</ele>
        <time>2017-03-17T09:45:02Z</time>
      </trkpt>
      <trkpt lat="45.88835" lon="6.42673">
        <ele>1183.8</ele>
        <time>2017-03-17T09:45:07Z</time>
      </trkpt>
      <trkpt lat="45.88832" lon="6.42674">
        <ele>1184.6</ele>
        <time>2017-03-17T09:45:12Z</time>
      </trkpt>
      <trkpt lat="45.88828" lon="6.42674">
        <ele>1186</ele>
        <time>2017-03-17T09:45:17Z</time>
      </trkpt>
      <trkpt lat="45.88824" lon="6.42675">
        <ele>1183.4</ele>
        <time>2017-03-17T09:45:22Z</time>
      </trkpt>
      <trkpt lat="45.8882" lon="6.42677">
        <ele>1182</ele>
        <time>2017-03-17T09:45:27Z</time>
      </trkpt>
      <trkpt lat="45.88817" lon="6.4268">
        <ele>1184.4</ele>
        <time>2017-03-17T09:45:32Z</time>
      </trkpt>
      <trkpt lat="45.88815" lon="6.42681">
        <ele>1180</ele>
        <time>2017-03-17T09:45:37Z</time>
      </trkpt>
      <trkpt lat="45.88812" lon="6.42685">
        <ele>1184</ele>
        <time>2017-03-17T09:45:42Z</time>
      </trkpt>
      <trkpt lat="45.88808" lon="6.42688">
        <ele>1182</ele>
        <time>2017-03-17T09:45:47Z</time>
      </trkpt>
      <trkpt lat="45.88805" lon="6.42692">
        <ele>1185.4</ele>
        <time>2017-03-17T09:45:52Z</time>
      </trkpt>
      <trkpt lat="45.88801" lon="6.42695">
        <ele>1180.8</ele>
        <time>2017-03-17T09:45:57Z</time>
      </trkpt>
      <trkpt lat="45.88797" lon="6.42699">
        <ele>1183.6</ele>
        <time>2017-03-17T09:46:02Z</time>
      </trkpt>
      <trkpt lat="45.88794" lon="6.42701">
        <ele>1182</ele>
        <time>2017-03-17T09:46:07Z</time>
      </trkpt>
      <trkpt lat="45.88791" lon="6.42704">
        <ele>1182.4</ele>
        <time>2017-03-17T09:46:12Z</time>
      </trkpt>
      <trkpt lat="45.88788" lon="6.42706">
        <ele>1183</ele>
        <time>2017-03-17T09:46:17Z</time>
      </trkpt>
      <trkpt lat="45.88785" lon="6.42709">
        <ele>1186.6</ele>
        <time>2017-03-17T09:46:22Z</time>
      </trkpt>
      <trkpt lat="45.88783" lon="6.42714">
        <ele>1185.4</ele>
        <time>2017-03-17T09:46:27Z</time>
      </trkpt>
      <trkpt lat="45.8878" lon="6.42719">
        <ele>1186.8</ele>
        <time>2017-03-17T09:46:32Z</time>
      </trkpt>
      <trkpt lat="45.88777" lon="6.42724">
        <ele>1188.6</ele>
        <time>2017-03-17T09:46:37Z</time>
      </trkpt>
      <trkpt lat="45.88774" lon="6.42729">
        <ele>1188.8</ele>
        <time>2017-03-17T09:46:42Z</time>
      </trkpt>
      <trkpt lat="45.88772" lon="6.42734">
        <ele>1187.2</ele>
        <time>2017-03-17T09:46:47Z</time>
      </trkpt>
      <trkpt lat="45.8877" lon="6.4274">
        <ele>1187.4</ele>
        <time>2017-03-17T09:46:52Z</time>
      </trkpt>
      <trkpt lat="45.88768" lon="6.42746">
        <ele>1188.8</ele>
        <time>2017-03-17T09:46:58Z</time>
      </trkpt>
      <trkpt lat="45.88765" lon="6.42753">
        <ele>1190.4</ele>
        <time>2017-03-17T09:47:03Z</time>
      </trkpt>
      <trkpt lat="45.88762" lon="6.42758">
        <ele>1189.6</ele>
        <time>2017-03-17T09:47:08Z</time>
      </trkpt>
      <trkpt lat="45.88759" lon="6.42762">
        <ele>1191.2</ele>
        <time>2017-03-17T09:47:13Z</time>
      </trkpt>
      <trkpt lat="45.88755" lon="6.42766">
        <ele>1190.2</ele>
        <time>2017-03-17T09:47:18Z</time>
      </trkpt>
      <trkpt lat="45.88751" lon="6.42769">
        <ele>1188.4</ele>
        <time>2017-03-17T09:47:23Z</time>
      </trkpt>
      <trkpt lat="45.88747" lon="6.4277">
        <ele>1190.8</ele>
        <time>2017-03-17T09:47:28Z</time>
      </trkpt>
      <trkpt lat="45.88742" lon="6.42772">
        <ele>1191.4</ele>
        <time>2017-03-17T09:47:33Z</time>
      </trkpt>
      <trkpt lat="45.88738" lon="6.42773">
        <ele>1189.4</ele>
        <time>2017-03-17T09:47:38Z</time>
      </trkpt>
      <trkpt lat="45.88735" lon="6.42774">
        <ele>1192.4</ele>
        <time>2017-03-17T09:47:43Z</time>
      </trkpt>
      <trkpt lat="45.88732" lon="6.42775">
        <ele>1192</ele>
        <time>2017-03-17T09:47:48Z</time>
      </trkpt>
      <trkpt lat="45.88727" lon="6.42775">
        <ele>1192.4</ele>
        <time>2017-03-17T09:47:53Z</time>
      </trkpt>
      <trkpt lat="45.88725" lon="6.42776">
        <ele>1189</ele>
        <time>2017-03-17T09:47:58Z</time>
      </trkpt>
      <trkpt lat="45.88725" lon="6.42776">
        <ele>1189</ele>
        <time>2017-03-17T09:48:03Z</time>
      </trkpt>
      <trkpt lat="45.88725" lon="6.42777">
        <ele>1189</ele>
        <time>2017-03-17T09:48:13Z</time>
      </trkpt>
      <trkpt lat="45.88725" lon="6.42776">
        <ele>1188.8</ele>
        <time>2017-03-17T09:48:18Z</time>
      </trkpt>
      <trkpt lat="45.88724" lon="6.42776">
        <ele>1190.4</ele>
        <time>2017-03-17T09:48:23Z</time>
      </trkpt>
      <trkpt lat="45.88724" lon="6.42776">
        <ele>1189.8</ele>
        <time>2017-03-17T09:48:28Z</time>
      </trkpt>
      <trkpt lat="45.88724" lon="6.42777">
        <ele>1188.8</ele>
        <time>2017-03-17T09:48:33Z</time>
      </trkpt>
      <trkpt lat="45.88719" lon="6.42777">
        <ele>1188.2</ele>
        <time>2017-03-17T09:48:38Z</time>
      </trkpt>
      <trkpt lat="45.88714" lon="6.42778">
        <ele>1189.2</ele>
        <time>2017-03-17T09:48:43Z</time>
      </trkpt>
      <trkpt lat="45.88709" lon="6.42779">
        <ele>1190.2</ele>
        <time>2017-03-17T09:48:48Z</time>
      </trkpt>
      <trkpt lat="45.88707" lon="6.42779">
        <ele>1187.4</ele>
        <time>2017-03-17T09:48:53Z</time>
      </trkpt>
      <trkpt lat="45.88707" lon="6.4278">
        <ele>1185.8</ele>
        <time>2017-03-17T09:48:58Z</time>
      </trkpt>
      <trkpt lat="45.88707" lon="6.42781">
        <ele>1186.4</ele>
        <time>2017-03-17T09:49:03Z</time>
      </trkpt>
      <trkpt lat="45.88707" lon="6.42781">
        <ele>1187</ele>
        <time>2017-03-17T09:49:08Z</time>
      </trkpt>
      <trkpt lat="45.88707" lon="6.4278">
        <ele>1187.6</ele>
        <time>2017-03-17T09:49:13Z</time>
      </trkpt>
      <trkpt lat="45.88707" lon="6.4278">
        <ele>1188.2</ele>
        <time>2017-03-17T09:49:18Z</time>
      </trkpt>
      <trkpt lat="45.88707" lon="6.4278">
        <ele>1190.2</ele>
        <time>2017-03-17T09:49:28Z</time>
      </trkpt>
      <trkpt lat="45.88706" lon="6.42779">
        <ele>1192.4</ele>
        <time>2017-03-17T09:49:38Z</time>
      </trkpt>
      <trkpt lat="45.88706" lon="6.42779">
        <ele>1191.8</ele>
        <time>2017-03-17T09:49:43Z</time>
      </trkpt>
      <trkpt lat="45.88707" lon="6.42779">
        <ele>1191.2</ele>
        <time>2017-03-17T09:49:48Z</time>
      </trkpt>
      <trkpt lat="45.88706" lon="6.42779">
        <ele>1191.2</ele>
        <time>2017-03-17T09:49:58Z</time>
      </trkpt>
      <trkpt lat="45.88704" lon="6.42778">
        <ele>1191.2</ele>
        <time>2017-03-17T09:50:03Z</time>
      </trkpt>
      <trkpt lat="45.88699" lon="6.42778">
        <ele>1191.4</ele>
        <time>2017-03-17T09:50:08Z</time>
      </trkpt>
      <trkpt lat="45.88694" lon="6.42778">
        <ele>1192.6</ele>
        <time>2017-03-17T09:50:13Z</time>
      </trkpt>
      <trkpt lat="45.8869" lon="6.42781">
        <ele>1194.2</ele>
        <time>2017-03-17T09:50:18Z</time>
      </trkpt>
      <trkpt lat="45.88687" lon="6.42786">
        <ele>1188.4</ele>
        <time>2017-03-17T09:50:23Z</time>
      </trkpt>
      <trkpt lat="45.88683" lon="6.42791">
        <ele>1195.6</ele>
        <time>2017-03-17T09:50:28Z</time>
      </trkpt>
      <trkpt lat="45.88679" lon="6.42797">
        <ele>1192.6</ele>
        <time>2017-03-17T09:50:33Z</time>
      </trkpt>
      <trkpt lat="45.88675" lon="6.428">
        <ele>1195.4</ele>
        <time>2017-03-17T09:50:38Z</time>
      </trkpt>
      <trkpt lat="45.88672" lon="6.42802">
        <ele>1193.8</ele>
        <time>2017-03-17T09:50:43Z</time>
      </trkpt>
      <trkpt lat="45.88669" lon="6.42807">
        <ele>1194.2</ele>
        <time>2017-03-17T09:50:48Z</time>
      </trkpt>
      <trkpt lat="45.88666" lon="6.42809">
        <ele>1197</ele>
        <time>2017-03-17T09:50:53Z</time>
      </trkpt>
      <trkpt lat="45.88663" lon="6.42813">
        <ele>1196</ele>
        <time>2017-03-17T09:50:58Z</time>
      </trkpt>
      <trkpt lat="45.88661" lon="6.42817">
        <ele>1196.4</ele>
        <time>2017-03-17T09:51:03Z</time>
      </trkpt>
      <trkpt lat="45.8866" lon="6.42818">
        <ele>1198.2</ele>
        <time>2017-03-17T09:51:08Z</time>
      </trkpt>
      <trkpt lat="45.8866" lon="6.42818">
        <ele>1197.4</ele>
        <time>2017-03-17T09:51:13Z</time>
      </trkpt>
      <trkpt lat="45.8866" lon="6.42818">
        <ele>1196.6</ele>
        <time>2017-03-17T09:51:18Z</time>
      </trkpt>
      <trkpt lat="45.88659" lon="6.42818">
        <ele>1196</ele>
        <time>2017-03-17T09:51:23Z</time>
      </trkpt>
      <trkpt lat="45.88659" lon="6.42818">
        <ele>1195.4</ele>
        <time>2017-03-17T09:51:28Z</time>
      </trkpt>
      <trkpt lat="45.88659" lon="6.42818">
        <ele>1194.6</ele>
        <time>2017-03-17T09:51:33Z</time>
      </trkpt>
      <trkpt lat="45.88658" lon="6.42818">
        <ele>1194</ele>
        <time>2017-03-17T09:51:38Z</time>
      </trkpt>
      <trkpt lat="45.88658" lon="6.42818">
        <ele>1193.4</ele>
        <time>2017-03-17T09:51:43Z</time>
      </trkpt>
      <trkpt lat="45.88658" lon="6.42818">
        <ele>1193</ele>
        <time>2017-03-17T09:51:48Z</time>
      </trkpt>
      <trkpt lat="45.88658" lon="6.42818">
        <ele>1192.8</ele>
        <time>2017-03-17T09:51:53Z</time>
      </trkpt>
      <trkpt lat="45.88657" lon="6.42817">
        <ele>1192.4</ele>
        <time>2017-03-17T09:51:58Z</time>
      </trkpt>
      <trkpt lat="45.88657" lon="6.42818">
        <ele>1191.8</ele>
        <time>2017-03-17T09:52:13Z</time>
      </trkpt>
      <trkpt lat="45.88655" lon="6.42821">
        <ele>1192.2</ele>
        <time>2017-03-17T09:52:18Z</time>
      </trkpt>
      <trkpt lat="45.88653" lon="6.42826">
        <ele>1192.8</ele>
        <time>2017-03-17T09:52:23Z</time>
      </trkpt>
      <trkpt lat="45.88651" lon="6.42831">
        <ele>1194.4</ele>
        <time>2017-03-17T09:52:28Z</time>
      </trkpt>
      <trkpt lat="45.88648" lon="6.42835">
        <ele>1195</ele>
        <time>2017-03-17T09:52:33Z</time>
      </trkpt>
      <trkpt lat="45.88645" lon="6.42838">
        <ele>1197.8</ele>
        <time>2017-03-17T09:52:38Z</time>
      </trkpt>
      <trkpt lat="45.88643" lon="6.4284">
        <ele>1201</ele>
        <time>2017-03-17T09:52:43Z</time>
      </trkpt>
      <trkpt lat="45.88642" lon="6.4284">
        <ele>1200.8</ele>
        <time>2017-03-17T09:52:48Z</time>
      </trkpt>
      <trkpt lat="45.88638" lon="6.42842">
        <ele>1200.2</ele>
        <time>2017-03-17T09:52:53Z</time>
      </trkpt>
      <trkpt lat="45.88634" lon="6.42843">
        <ele>1201</ele>
        <time>2017-03-17T09:52:58Z</time>
      </trkpt>
      <trkpt lat="45.8863" lon="6.42844">
        <ele>1202</ele>
        <time>2017-03-17T09:53:03Z</time>
      </trkpt>
      <trkpt lat="45.88626" lon="6.42845">
        <ele>1205.4</ele>
        <time>2017-03-17T09:53:08Z</time>
      </trkpt>
      <trkpt lat="45.88623" lon="6.42846">
        <ele>1206.6</ele>
        <time>2017-03-17T09:53:13Z</time>
      </trkpt>
      <trkpt lat="45.88619" lon="6.42848">
        <ele>1203.6</ele>
        <time>2017-03-17T09:53:18Z</time>
      </trkpt>
      <trkpt lat="45.88615" lon="6.4285">
        <ele>1208.4</ele>
        <time>2017-03-17T09:53:23Z</time>
      </trkpt>
      <trkpt lat="45.8861" lon="6.42853">
        <ele>1209.4</ele>
        <time>2017-03-17T09:53:28Z</time>
      </trkpt>
      <trkpt lat="45.88605" lon="6.42856">
        <ele>1211.2</ele>
        <time>2017-03-17T09:53:33Z</time>
      </trkpt>
      <trkpt lat="45.88601" lon="6.42859">
        <ele>1210.2</ele>
        <time>2017-03-17T09:53:38Z</time>
      </trkpt>
      <trkpt lat="45.88596" lon="6.42861">
        <ele>1211.4</ele>
        <time>2017-03-17T09:53:43Z</time>
      </trkpt>
      <trkpt lat="45.88591" lon="6.42863">
        <ele>1212.6</ele>
        <time>2017-03-17T09:53:48Z</time>
      </trkpt>
      <trkpt lat="45.88587" lon="6.42864">
        <ele>1212.6</ele>
        <time>2017-03-17T09:53:53Z</time>
      </trkpt>
      <trkpt lat="45.88582" lon="6.42867">
        <ele>1214.8</ele>
        <time>2017-03-17T09:53:58Z</time>
      </trkpt>
      <trkpt lat="45.88577" lon="6.42869">
        <ele>1214</ele>
        <time>2017-03-17T09:54:03Z</time>
      </trkpt>
      <trkpt lat="45.88577" lon="6.42869">
        <ele>1214.4</ele>
        <time>2017-03-17T09:54:08Z</time>
      </trkpt>
      <trkpt lat="45.88578" lon="6.4287">
        <ele>1214</ele>
        <time>2017-03-17T09:54:13Z</time>
      </trkpt>
      <trkpt lat="45.88578" lon="6.42871">
        <ele>1214</ele>
        <time>2017-03-17T09:54:18Z</time>
      </trkpt>
      <trkpt lat="45.88578" lon="6.42871">
        <ele>1214.2</ele>
        <time>2017-03-17T09:54:23Z</time>
      </trkpt>
      <trkpt lat="45.88576" lon="6.42871">
        <ele>1218.4</ele>
        <time>2017-03-17T09:54:28Z</time>
      </trkpt>
      <trkpt lat="45.88572" lon="6.42871">
        <ele>1215.4</ele>
        <time>2017-03-17T09:54:33Z</time>
      </trkpt>
      <trkpt lat="45.88568" lon="6.42872">
        <ele>1216.2</ele>
        <time>2017-03-17T09:54:38Z</time>
      </trkpt>
      <trkpt lat="45.88564" lon="6.42872">
        <ele>1220.4</ele>
        <time>2017-03-17T09:54:43Z</time>
      </trkpt>
      <trkpt lat="45.8856" lon="6.42873">
        <ele>1217.4</ele>
        <time>2017-03-17T09:54:48Z</time>
      </trkpt>
      <trkpt lat="45.88556" lon="6.42873">
        <ele>1219.4</ele>
        <time>2017-03-17T09:54:53Z</time>
      </trkpt>
      <trkpt lat="45.88553" lon="6.42875">
        <ele>1220.8</ele>
        <time>2017-03-17T09:54:58Z</time>
      </trkpt>
      <trkpt lat="45.88554" lon="6.42874">
        <ele>1220.4</ele>
        <time>2017-03-17T09:55:29Z</time>
      </trkpt>
      <trkpt lat="45.88554" lon="6.42874">
        <ele>1220.6</ele>
        <time>2017-03-17T09:55:34Z</time>
      </trkpt>
      <trkpt lat="45.88555" lon="6.42874">
        <ele>1222</ele>
        <time>2017-03-17T09:55:39Z</time>
      </trkpt>
      <trkpt lat="45.88553" lon="6.42875">
        <ele>1221</ele>
        <time>2017-03-17T09:55:44Z</time>
      </trkpt>
      <trkpt lat="45.88552" lon="6.42875">
        <ele>1221.8</ele>
        <time>2017-03-17T09:55:49Z</time>
      </trkpt>
      <trkpt lat="45.88549" lon="6.42875">
        <ele>1223.8</ele>
        <time>2017-03-17T09:56:04Z</time>
      </trkpt>
      <trkpt lat="45.88547" lon="6.42876">
        <ele>1224.4</ele>
        <time>2017-03-17T09:56:09Z</time>
      </trkpt>
      <trkpt lat="45.88544" lon="6.42877">
        <ele>1223.6</ele>
        <time>2017-03-17T09:56:14Z</time>
      </trkpt>
      <trkpt lat="45.88541" lon="6.42878">
        <ele>1226</ele>
        <time>2017-03-17T09:56:19Z</time>
      </trkpt>
      <trkpt lat="45.88538" lon="6.42879">
        <ele>1226</ele>
        <time>2017-03-17T09:56:24Z</time>
      </trkpt>
      <trkpt lat="45.88535" lon="6.42881">
        <ele>1227.4</ele>
        <time>2017-03-17T09:56:29Z</time>
      </trkpt>
      <trkpt lat="45.88531" lon="6.42881">
        <ele>1229</ele>
        <time>2017-03-17T09:56:34Z</time>
      </trkpt>
      <trkpt lat="45.88528" lon="6.42882">
        <ele>1229.2</ele>
        <time>2017-03-17T09:56:39Z</time>
      </trkpt>
      <trkpt lat="45.88525" lon="6.42883">
        <ele>1228</ele>
        <time>2017-03-17T09:56:44Z</time>
      </trkpt>
      <trkpt lat="45.88522" lon="6.42883">
        <ele>1230</ele>
        <time>2017-03-17T09:56:49Z</time>
      </trkpt>
      <trkpt lat="45.88519" lon="6.42884">
        <ele>1232.8</ele>
        <time>2017-03-17T09:56:54Z</time>
      </trkpt>
      <trkpt lat="45.88516" lon="6.42883">
        <ele>1233</ele>
        <time>2017-03-17T09:56:59Z</time>
      </trkpt>
      <trkpt lat="45.88512" lon="6.42883">
        <ele>1233</ele>
        <time>2017-03-17T09:57:04Z</time>
      </trkpt>
      <trkpt lat="45.88508" lon="6.42882">
        <ele>1235.2</ele>
        <time>2017-03-17T09:57:09Z</time>
      </trkpt>
      <trkpt lat="45.88504" lon="6.42881">
        <ele>1239.4</ele>
        <time>2017-03-17T09:57:14Z</time>
      </trkpt>
      <trkpt lat="45.88501" lon="6.4288">
        <ele>1237.2</ele>
        <time>2017-03-17T09:57:19Z</time>
      </trkpt>
      <trkpt lat="45.88498" lon="6.4288">
        <ele>1238.8</ele>
        <time>2017-03-17T09:57:24Z</time>
      </trkpt>
      <trkpt lat="45.88498" lon="6.4288">
        <ele>1239</ele>
        <time>2017-03-17T09:57:29Z</time>
      </trkpt>
      <trkpt lat="45.88495" lon="6.4288">
        <ele>1239</ele>
        <time>2017-03-17T09:57:34Z</time>
      </trkpt>
      <trkpt lat="45.88492" lon="6.4288">
        <ele>1240.4</ele>
        <time>2017-03-17T09:57:39Z</time>
      </trkpt>
      <trkpt lat="45.88488" lon="6.4288">
        <ele>1239.8</ele>
        <time>2017-03-17T09:57:44Z</time>
      </trkpt>
      <trkpt lat="45.88485" lon="6.4288">
        <ele>1240.8</ele>
        <time>2017-03-17T09:57:49Z</time>
      </trkpt>
      <trkpt lat="45.88482" lon="6.4288">
        <ele>1241.2</ele>
        <time>2017-03-17T09:57:54Z</time>
      </trkpt>
      <trkpt lat="45.88479" lon="6.4288">
        <ele>1244.8</ele>
        <time>2017-03-17T09:57:59Z</time>
      </trkpt>
      <trkpt lat="45.88475" lon="6.42879">
        <ele>1244.2</ele>
        <time>2017-03-17T09:58:04Z</time>
      </trkpt>
      <trkpt lat="45.88472" lon="6.42878">
        <ele>1242.2</ele>
        <time>2017-03-17T09:58:09Z</time>
      </trkpt>
      <trkpt lat="45.8847" lon="6.42877">
        <ele>1244</ele>
        <time>2017-03-17T09:58:14Z</time>
      </trkpt>
      <trkpt lat="45.88467" lon="6.42876">
        <ele>1247</ele>
        <time>2017-03-17T09:58:19Z</time>
      </trkpt>
      <trkpt lat="45.88464" lon="6.42874">
        <ele>1244.4</ele>
        <time>2017-03-17T09:58:24Z</time>
      </trkpt>
      <trkpt lat="45.88461" lon="6.42873">
        <ele>1247</ele>
        <time>2017-03-17T09:58:29Z</time>
      </trkpt>
      <trkpt lat="45.88458" lon="6.42873">
        <ele>1248.4</ele>
        <time>2017-03-17T09:58:34Z</time>
      </trkpt>
      <trkpt lat="45.88455" lon="6.42871">
        <ele>1244.8</ele>
        <time>2017-03-17T09:58:39Z</time>
      </trkpt>
      <trkpt lat="45.88453" lon="6.42869">
        <ele>1248.8</ele>
        <time>2017-03-17T09:58:44Z</time>
      </trkpt>
      <trkpt lat="45.8845" lon="6.42867">
        <ele>1253.6</ele>
        <time>2017-03-17T09:58:49Z</time>
      </trkpt>
      <trkpt lat="45.88447" lon="6.42865">
        <ele>1251.8</ele>
        <time>2017-03-17T09:58:54Z</time>
      </trkpt>
      <trkpt lat="45.88444" lon="6.42864">
        <ele>1252.6</ele>
        <time>2017-03-17T09:58:59Z</time>
      </trkpt>
      <trkpt lat="45.88441" lon="6.42863">
        <ele>1254.8</ele>
        <time>2017-03-17T09:59:04Z</time>
      </trkpt>
      <trkpt lat="45.88438" lon="6.42862">
        <ele>1253.8</ele>
        <time>2017-03-17T09:59:09Z</time>
      </trkpt>
      <trkpt lat="45.88436" lon="6.4286">
        <ele>1257.8</ele>
        <time>2017-03-17T09:59:14Z</time>
      </trkpt>
      <trkpt lat="45.88434" lon="6.42859">
        <ele>1252</ele>
        <time>2017-03-17T09:59:19Z</time>
      </trkpt>
      <trkpt lat="45.88431" lon="6.42858">
        <ele>1254.6</ele>
        <time>2017-03-17T09:59:24Z</time>
      </trkpt>
      <trkpt lat="45.88429" lon="6.42857">
        <ele>1255.4</ele>
        <time>2017-03-17T09:59:29Z</time>
      </trkpt>
      <trkpt lat="45.88427" lon="6.42854">
        <ele>1255.2</ele>
        <time>2017-03-17T09:59:34Z</time>
      </trkpt>
      <trkpt lat="45.88425" lon="6.4285">
        <ele>1252.6</ele>
        <time>2017-03-17T09:59:39Z</time>
      </trkpt>
      <trkpt lat="45.88423" lon="6.42847">
        <ele>1253</ele>
        <time>2017-03-17T09:59:44Z</time>
      </trkpt>
      <trkpt lat="45.88421" lon="6.42843">
        <ele>1253.8</ele>
        <time>2017-03-17T09:59:49Z</time>
      </trkpt>
      <trkpt lat="45.88419" lon="6.4284">
        <ele>1252.6</ele>
        <time>2017-03-17T09:59:54Z</time>
      </trkpt>
      <trkpt lat="45.88418" lon="6.42838">
        <ele>1254.2</ele>
        <time>2017-03-17T09:59:59Z</time>
      </trkpt>
      <trkpt lat="45.88418" lon="6.42837">
        <ele>1251.6</ele>
        <time>2017-03-17T10:00:04Z</time>
      </trkpt>
      <trkpt lat="45.88417" lon="6.42836">
        <ele>1253</ele>
        <time>2017-03-17T10:00:09Z</time>
      </trkpt>
      <trkpt lat="45.88416" lon="6.42833">
        <ele>1252</ele>
        <time>2017-03-17T10:00:14Z</time>
      </trkpt>
      <trkpt lat="45.88414" lon="6.42831">
        <ele>1254.2</ele>
        <time>2017-03-17T10:00:19Z</time>
      </trkpt>
      <trkpt lat="45.88411" lon="6.42828">
        <ele>1254.2</ele>
        <time>2017-03-17T10:00:24Z</time>
      </trkpt>
      <trkpt lat="45.88411" lon="6.42826">
        <ele>1256.4</ele>
        <time>2017-03-17T10:00:29Z</time>
      </trkpt>
      <trkpt lat="45.8841" lon="6.42826">
        <ele>1256.4</ele>
        <time>2017-03-17T10:00:34Z</time>
      </trkpt>
      <trkpt lat="45.8841" lon="6.42824">
        <ele>1256.6</ele>
        <time>2017-03-17T10:00:39Z</time>
      </trkpt>
      <trkpt lat="45.8841" lon="6.42824">
        <ele>1256.6</ele>
        <time>2017-03-17T10:00:44Z</time>
      </trkpt>
      <trkpt lat="45.8841" lon="6.42824">
        <ele>1256.4</ele>
        <time>2017-03-17T10:00:54Z</time>
      </trkpt>
      <trkpt lat="45.8841" lon="6.42824">
        <ele>1256.4</ele>
        <time>2017-03-17T10:00:59Z</time>
      </trkpt>
      <trkpt lat="45.88408" lon="6.42824">
        <ele>1255.4</ele>
        <time>2017-03-17T10:01:04Z</time>
      </trkpt>
      <trkpt lat="45.88406" lon="6.42824">
        <ele>1256.4</ele>
        <time>2017-03-17T10:01:09Z</time>
      </trkpt>
      <trkpt lat="45.88406" lon="6.42824">
        <ele>1257.8</ele>
        <time>2017-03-17T10:01:19Z</time>
      </trkpt>
      <trkpt lat="45.88407" lon="6.42824">
        <ele>1258.2</ele>
        <time>2017-03-17T10:01:24Z</time>
      </trkpt>
      <trkpt lat="45.88407" lon="6.42824">
        <ele>1258.6</ele>
        <time>2017-03-17T10:01:29Z</time>
      </trkpt>
      <trkpt lat="45.88407" lon="6.42825">
        <ele>1258.8</ele>
        <time>2017-03-17T10:01:49Z</time>
      </trkpt>
      <trkpt lat="45.88407" lon="6.42825">
        <ele>1256.4</ele>
        <time>2017-03-17T10:01:54Z</time>
      </trkpt>
      <trkpt lat="45.88408" lon="6.42824">
        <ele>1257</ele>
        <time>2017-03-17T10:02:24Z</time>
      </trkpt>
      <trkpt lat="45.88408" lon="6.42824">
        <ele>1257.2</ele>
        <time>2017-03-17T10:02:29Z</time>
      </trkpt>
      <trkpt lat="45.88408" lon="6.42824">
        <ele>1257.4</ele>
        <time>2017-03-17T10:02:39Z</time>
      </trkpt>
      <trkpt lat="45.88405" lon="6.42824">
        <ele>1258</ele>
        <time>2017-03-17T10:02:44Z</time>
      </trkpt>
      <trkpt lat="45.88404" lon="6.4282">
        <ele>1258</ele>
        <time>2017-03-17T10:02:49Z</time>
      </trkpt>
      <trkpt lat="45.88404" lon="6.42818">
        <ele>1258</ele>
        <time>2017-03-17T10:02:54Z</time>
      </trkpt>
      <trkpt lat="45.88404" lon="6.42818">
        <ele>1258.6</ele>
        <time>2017-03-17T10:03:04Z</time>
      </trkpt>
      <trkpt lat="45.88403" lon="6.42817">
        <ele>1258.2</ele>
        <time>2017-03-17T10:03:09Z</time>
      </trkpt>
      <trkpt lat="45.88402" lon="6.42815">
        <ele>1258.8</ele>
        <time>2017-03-17T10:03:14Z</time>
      </trkpt>
      <trkpt lat="45.88401" lon="6.42815">
        <ele>1259.6</ele>
        <time>2017-03-17T10:03:19Z</time>
      </trkpt>
      <trkpt lat="45.884" lon="6.42816">
        <ele>1258.8</ele>
        <time>2017-03-17T10:03:24Z</time>
      </trkpt>
      <trkpt lat="45.88399" lon="6.42814">
        <ele>1259.2</ele>
        <time>2017-03-17T10:03:29Z</time>
      </trkpt>
      <trkpt lat="45.88399" lon="6.42814">
        <ele>1259.8</ele>
        <time>2017-03-17T10:03:34Z</time>
      </trkpt>
      <trkpt lat="45.88397" lon="6.42811">
        <ele>1261</ele>
        <time>2017-03-17T10:03:44Z</time>
      </trkpt>
      <trkpt lat="45.88394" lon="6.42808">
        <ele>1262.6</ele>
        <time>2017-03-17T10:03:49Z</time>
      </trkpt>
      <trkpt lat="45.88392" lon="6.42805">
        <ele>1264</ele>
        <time>2017-03-17T10:03:54Z</time>
      </trkpt>
      <trkpt lat="45.88389" lon="6.42801">
        <ele>1263.6</ele>
        <time>2017-03-17T10:03:59Z</time>
      </trkpt>
      <trkpt lat="45.88386" lon="6.42797">
        <ele>1267</ele>
        <time>2017-03-17T10:04:04Z</time>
      </trkpt>
      <trkpt lat="45.88383" lon="6.42795">
        <ele>1269</ele>
        <time>2017-03-17T10:04:09Z</time>
      </trkpt>
      <trkpt lat="45.8838" lon="6.42792">
        <ele>1270.2</ele>
        <time>2017-03-17T10:04:14Z</time>
      </trkpt>
      <trkpt lat="45.88377" lon="6.42789">
        <ele>1273.2</ele>
        <time>2017-03-17T10:04:19Z</time>
      </trkpt>
      <trkpt lat="45.88375" lon="6.42788">
        <ele>1273.6</ele>
        <time>2017-03-17T10:04:24Z</time>
      </trkpt>
      <trkpt lat="45.88373" lon="6.42787">
        <ele>1276</ele>
        <time>2017-03-17T10:04:29Z</time>
      </trkpt>
      <trkpt lat="45.8837" lon="6.42787">
        <ele>1277.8</ele>
        <time>2017-03-17T10:04:35Z</time>
      </trkpt>
      <trkpt lat="45.88368" lon="6.42788">
        <ele>1278.6</ele>
        <time>2017-03-17T10:04:40Z</time>
      </trkpt>
      <trkpt lat="45.88368" lon="6.42788">
        <ele>1278.4</ele>
        <time>2017-03-17T10:04:45Z</time>
      </trkpt>
      <trkpt lat="45.88366" lon="6.42788">
        <ele>1276.4</ele>
        <time>2017-03-17T10:04:50Z</time>
      </trkpt>
      <trkpt lat="45.88363" lon="6.42787">
        <ele>1278.2</ele>
        <time>2017-03-17T10:04:55Z</time>
      </trkpt>
      <trkpt lat="45.88361" lon="6.42786">
        <ele>1276.8</ele>
        <time>2017-03-17T10:05:00Z</time>
      </trkpt>
      <trkpt lat="45.88358" lon="6.42785">
        <ele>1280.2</ele>
        <time>2017-03-17T10:05:05Z</time>
      </trkpt>
      <trkpt lat="45.88355" lon="6.42783">
        <ele>1277</ele>
        <time>2017-03-17T10:05:10Z</time>
      </trkpt>
      <trkpt lat="45.88352" lon="6.4278">
        <ele>1277.6</ele>
        <time>2017-03-17T10:05:15Z</time>
      </trkpt>
      <trkpt lat="45.88349" lon="6.42777">
        <ele>1276.4</ele>
        <time>2017-03-17T10:05:20Z</time>
      </trkpt>
      <trkpt lat="45.88347" lon="6.42774">
        <ele>1279.2</ele>
        <time>2017-03-17T10:05:25Z</time>
      </trkpt>
      <trkpt lat="45.88344" lon="6.42772">
        <ele>1276.4</ele>
        <time>2017-03-17T10:05:30Z</time>
      </trkpt>
      <trkpt lat="45.88341" lon="6.42769">
        <ele>1279</ele>
        <time>2017-03-17T10:05:35Z</time>
      </trkpt>
      <trkpt lat="45.88338" lon="6.42766">
        <ele>1279.2</ele>
        <time>2017-03-17T10:05:40Z</time>
      </trkpt>
      <trkpt lat="45.88335" lon="6.42763">
        <ele>1278.4</ele>
        <time>2017-03-17T10:05:45Z</time>
      </trkpt>
      <trkpt lat="45.88332" lon="6.42759">
        <ele>1282</ele>
        <time>2017-03-17T10:05:50Z</time>
      </trkpt>
      <trkpt lat="45.88332" lon="6.42756">
        <ele>1280.6</ele>
        <time>2017-03-17T10:05:55Z</time>
      </trkpt>
      <trkpt lat="45.88331" lon="6.42755">
        <ele>1280.8</ele>
        <time>2017-03-17T10:06:00Z</time>
      </trkpt>
      <trkpt lat="45.88331" lon="6.42755">
        <ele>1280.8</ele>
        <time>2017-03-17T10:06:05Z</time>
      </trkpt>
      <trkpt lat="45.88331" lon="6.42756">
        <ele>1280.8</ele>
        <time>2017-03-17T10:06:10Z</time>
      </trkpt>
      <trkpt lat="45.88333" lon="6.42756">
        <ele>1280.2</ele>
        <time>2017-03-17T10:06:25Z</time>
      </trkpt>
      <trkpt lat="45.88333" lon="6.42756">
        <ele>1280.8</ele>
        <time>2017-03-17T10:06:30Z</time>
      </trkpt>
      <trkpt lat="45.88333" lon="6.42757">
        <ele>1280.6</ele>
        <time>2017-03-17T10:06:35Z</time>
      </trkpt>
      <trkpt lat="45.88334" lon="6.42758">
        <ele>1280.6</ele>
        <time>2017-03-17T10:06:40Z</time>
      </trkpt>
      <trkpt lat="45.88332" lon="6.42757">
        <ele>1281.8</ele>
        <time>2017-03-17T10:06:45Z</time>
      </trkpt>
      <trkpt lat="45.8833" lon="6.42752">
        <ele>1277.2</ele>
        <time>2017-03-17T10:06:50Z</time>
      </trkpt>
      <trkpt lat="45.88329" lon="6.42747">
        <ele>1281</ele>
        <time>2017-03-17T10:06:55Z</time>
      </trkpt>
      <trkpt lat="45.88326" lon="6.42743">
        <ele>1279.4</ele>
        <time>2017-03-17T10:07:00Z</time>
      </trkpt>
      <trkpt lat="45.88325" lon="6.42738">
        <ele>1280</ele>
        <time>2017-03-17T10:07:05Z</time>
      </trkpt>
      <trkpt lat="45.88323" lon="6.42733">
        <ele>1283.2</ele>
        <time>2017-03-17T10:07:10Z</time>
      </trkpt>
      <trkpt lat="45.88322" lon="6.42729">
        <ele>1280.8</ele>
        <time>2017-03-17T10:07:15Z</time>
      </trkpt>
      <trkpt lat="45.8832" lon="6.42725">
        <ele>1281.4</ele>
        <time>2017-03-17T10:07:20Z</time>
      </trkpt>
      <trkpt lat="45.88318" lon="6.42721">
        <ele>1280.4</ele>
        <time>2017-03-17T10:07:25Z</time>
      </trkpt>
      <trkpt lat="45.88316" lon="6.42717">
        <ele>1282.4</ele>
        <time>2017-03-17T10:07:30Z</time>
      </trkpt>
      <trkpt lat="45.88313" lon="6.42713">
        <ele>1281.6</ele>
        <time>2017-03-17T10:07:35Z</time>
      </trkpt>
      <trkpt lat="45.88311" lon="6.4271">
        <ele>1284.2</ele>
        <time>2017-03-17T10:07:40Z</time>
      </trkpt>
      <trkpt lat="45.88308" lon="6.42706">
        <ele>1280.4</ele>
        <time>2017-03-17T10:07:45Z</time>
      </trkpt>
      <trkpt lat="45.88305" lon="6.42702">
        <ele>1281.6</ele>
        <time>2017-03-17T10:07:50Z</time>
      </trkpt>
      <trkpt lat="45.88301" lon="6.42701">
        <ele>1280.6</ele>
        <time>2017-03-17T10:07:55Z</time>
      </trkpt>
      <trkpt lat="45.88298" lon="6.42698">
        <ele>1282.6</ele>
        <time>2017-03-17T10:08:00Z</time>
      </trkpt>
      <trkpt lat="45.88296" lon="6.42694">
        <ele>1283.6</ele>
        <time>2017-03-17T10:08:05Z</time>
      </trkpt>
      <trkpt lat="45.88293" lon="6.42691">
        <ele>1283.6</ele>
        <time>2017-03-17T10:08:10Z</time>
      </trkpt>
      <trkpt lat="45.8829" lon="6.42687">
        <ele>1283.6</ele>
        <time>2017-03-17T10:08:15Z</time>
      </trkpt>
      <trkpt lat="45.88288" lon="6.42684">
        <ele>1282.8</ele>
        <time>2017-03-17T10:08:20Z</time>
      </trkpt>
      <trkpt lat="45.88285" lon="6.42682">
        <ele>1283.6</ele>
        <time>2017-03-17T10:08:25Z</time>
      </trkpt>
      <trkpt lat="45.88282" lon="6.42678">
        <ele>1287.8</ele>
        <time>2017-03-17T10:08:30Z</time>
      </trkpt>
      <trkpt lat="45.88279" lon="6.42675">
        <ele>1285</ele>
        <time>2017-03-17T10:08:35Z</time>
      </trkpt>
      <trkpt lat="45.88276" lon="6.42671">
        <ele>1286.6</ele>
        <time>2017-03-17T10:08:40Z</time>
      </trkpt>
      <trkpt lat="45.88274" lon="6.42669">
        <ele>1285.6</ele>
        <time>2017-03-17T10:08:45Z</time>
      </trkpt>
      <trkpt lat="45.88271" lon="6.42666">
        <ele>1286.6</ele>
        <time>2017-03-17T10:08:50Z</time>
      </trkpt>
      <trkpt lat="45.88268" lon="6.42663">
        <ele>1288.4</ele>
        <time>2017-03-17T10:08:55Z</time>
      </trkpt>
      <trkpt lat="45.88264" lon="6.4266">
        <ele>1289.6</ele>
        <time>2017-03-17T10:09:00Z</time>
      </trkpt>
      <trkpt lat="45.88262" lon="6.42658">
        <ele>1288.2</ele>
        <time>2017-03-17T10:09:05Z</time>
      </trkpt>
      <trkpt lat="45.88258" lon="6.42655">
        <ele>1290.6</ele>
        <time>2017-03-17T10:09:10Z</time>
      </trkpt>
      <trkpt lat="45.88255" lon="6.42652">
        <ele>1290.2</ele>
        <time>2017-03-17T10:09:15Z</time>
      </trkpt>
      <trkpt lat="45.88252" lon="6.42648">
        <ele>1291.4</ele>
        <time>2017-03-17T10:09:20Z</time>
      </trkpt>
      <trkpt lat="45.88248" lon="6.42645">
        <ele>1292.8</ele>
        <time>2017-03-17T10:09:25Z</time>
      </trkpt>
      <trkpt lat="45.88245" lon="6.42642">
        <ele>1292.8</ele>
        <time>2017-03-17T10:09:30Z</time>
      </trkpt>
      <trkpt lat="45.88242" lon="6.42639">
        <ele>1293.8</ele>
        <time>2017-03-17T10:09:35Z</time>
      </trkpt>
      <trkpt lat="45.8824" lon="6.42636">
        <ele>1296</ele>
        <time>2017-03-17T10:09:40Z</time>
      </trkpt>
      <trkpt lat="45.88236" lon="6.42632">
        <ele>1294.6</ele>
        <time>2017-03-17T10:09:45Z</time>
      </trkpt>
      <trkpt lat="45.88234" lon="6.42628">
        <ele>1293.6</ele>
        <time>2017-03-17T10:09:50Z</time>
      </trkpt>
      <trkpt lat="45.88231" lon="6.42625">
        <ele>1294.2</ele>
        <time>2017-03-17T10:09:55Z</time>
      </trkpt>
      <trkpt lat="45.88229" lon="6.42621">
        <ele>1294.2</ele>
        <time>2017-03-17T10:10:00Z</time>
      </trkpt>
      <trkpt lat="45.88227" lon="6.42616">
        <ele>1294.6</ele>
        <time>2017-03-17T10:10:05Z</time>
      </trkpt>
      <trkpt lat="45.88225" lon="6.42611">
        <ele>1294.2</ele>
        <time>2017-03-17T10:10:10Z</time>
      </trkpt>
      <trkpt lat="45.88224" lon="6.42607">
        <ele>1293.6</ele>
        <time>2017-03-17T10:10:15Z</time>
      </trkpt>
      <trkpt lat="45.88222" lon="6.42603">
        <ele>1295.8</ele>
        <time>2017-03-17T10:10:20Z</time>
      </trkpt>
      <trkpt lat="45.88221" lon="6.42598">
        <ele>1294</ele>
        <time>2017-03-17T10:10:25Z</time>
      </trkpt>
      <trkpt lat="45.8822" lon="6.42594">
        <ele>1295.2</ele>
        <time>2017-03-17T10:10:30Z</time>
      </trkpt>
      <trkpt lat="45.8822" lon="6.42589">
        <ele>1292.4</ele>
        <time>2017-03-17T10:10:35Z</time>
      </trkpt>
      <trkpt lat="45.88219" lon="6.42583">
        <ele>1294</ele>
        <time>2017-03-17T10:10:40Z</time>
      </trkpt>
      <trkpt lat="45.88219" lon="6.42576">
        <ele>1294.8</ele>
        <time>2017-03-17T10:10:45Z</time>
      </trkpt>
      <trkpt lat="45.88219" lon="6.42569">
        <ele>1296</ele>
        <time>2017-03-17T10:10:50Z</time>
      </trkpt>
      <trkpt lat="45.88219" lon="6.42563">
        <ele>1295.6</ele>
        <time>2017-03-17T10:10:55Z</time>
      </trkpt>
      <trkpt lat="45.88219" lon="6.42556">
        <ele>1292.8</ele>
        <time>2017-03-17T10:11:00Z</time>
      </trkpt>
      <trkpt lat="45.88219" lon="6.42537">
        <ele>1297</ele>
        <time>2017-03-17T10:11:15Z</time>
      </trkpt>
      <trkpt lat="45.88218" lon="6.4253">
        <ele>1294</ele>
        <time>2017-03-17T10:11:20Z</time>
      </trkpt>
      <trkpt lat="45.88219" lon="6.42523">
        <ele>1295</ele>
        <time>2017-03-17T10:11:25Z</time>
      </trkpt>
      <trkpt lat="45.88219" lon="6.42516">
        <ele>1295.2</ele>
        <time>2017-03-17T10:11:30Z</time>
      </trkpt>
      <trkpt lat="45.88219" lon="6.4251">
        <ele>1296.8</ele>
        <time>2017-03-17T10:11:35Z</time>
      </trkpt>
      <trkpt lat="45.88219" lon="6.42504">
        <ele>1295.8</ele>
        <time>2017-03-17T10:11:40Z</time>
      </trkpt>
      <trkpt lat="45.88219" lon="6.42497">
        <ele>1296.4</ele>
        <time>2017-03-17T10:11:45Z</time>
      </trkpt>
      <trkpt lat="45.88218" lon="6.4249">
        <ele>1293.8</ele>
        <time>2017-03-17T10:11:50Z</time>
      </trkpt>
      <trkpt lat="45.88217" lon="6.42484">
        <ele>1297.4</ele>
        <time>2017-03-17T10:11:55Z</time>
      </trkpt>
      <trkpt lat="45.88215" lon="6.42477">
        <ele>1296.8</ele>
        <time>2017-03-17T10:12:00Z</time>
      </trkpt>
      <trkpt lat="45.88214" lon="6.42471">
        <ele>1299.2</ele>
        <time>2017-03-17T10:12:05Z</time>
      </trkpt>
      <trkpt lat="45.88212" lon="6.42465">
        <ele>1295.4</ele>
        <time>2017-03-17T10:12:10Z</time>
      </trkpt>
      <trkpt lat="45.8821" lon="6.42459">
        <ele>1297.4</ele>
        <time>2017-03-17T10:12:15Z</time>
      </trkpt>
      <trkpt lat="45.88207" lon="6.42455">
        <ele>1298.8</ele>
        <time>2017-03-17T10:12:20Z</time>
      </trkpt>
      <trkpt lat="45.88204" lon="6.42451">
        <ele>1298.2</ele>
        <time>2017-03-17T10:12:25Z</time>
      </trkpt>
      <trkpt lat="45.88201" lon="6.42448">
        <ele>1299.6</ele>
        <time>2017-03-17T10:12:30Z</time>
      </trkpt>
      <trkpt lat="45.88198" lon="6.42445">
        <ele>1299.6</ele>
        <time>2017-03-17T10:12:35Z</time>
      </trkpt>
      <trkpt lat="45.88195" lon="6.4244">
        <ele>1302.6</ele>
        <time>2017-03-17T10:12:40Z</time>
      </trkpt>
      <trkpt lat="45.88193" lon="6.42434">
        <ele>1303.8</ele>
        <time>2017-03-17T10:12:45Z</time>
      </trkpt>
      <trkpt lat="45.8819" lon="6.42429">
        <ele>1303.4</ele>
        <time>2017-03-17T10:12:50Z</time>
      </trkpt>
      <trkpt lat="45.88188" lon="6.42424">
        <ele>1301.4</ele>
        <time>2017-03-17T10:12:55Z</time>
      </trkpt>
      <trkpt lat="45.88186" lon="6.42418">
        <ele>1304</ele>
        <time>2017-03-17T10:13:00Z</time>
      </trkpt>
      <trkpt lat="45.88183" lon="6.42413">
        <ele>1303.6</ele>
        <time>2017-03-17T10:13:05Z</time>
      </trkpt>
      <trkpt lat="45.88182" lon="6.42411">
        <ele>1305.8</ele>
        <time>2017-03-17T10:13:10Z</time>
      </trkpt>
      <trkpt lat="45.8818" lon="6.42406">
        <ele>1303.4</ele>
        <time>2017-03-17T10:13:15Z</time>
      </trkpt>
      <trkpt lat="45.88177" lon="6.42401">
        <ele>1304</ele>
        <time>2017-03-17T10:13:20Z</time>
      </trkpt>
      <trkpt lat="45.88175" lon="6.42396">
        <ele>1305</ele>
        <time>2017-03-17T10:13:25Z</time>
      </trkpt>
      <trkpt lat="45.88172" lon="6.42391">
        <ele>1303.8</ele>
        <time>2017-03-17T10:13:30Z</time>
      </trkpt>
      <trkpt lat="45.88169" lon="6.42387">
        <ele>1305.2</ele>
        <time>2017-03-17T10:13:35Z</time>
      </trkpt>
      <trkpt lat="45.88166" lon="6.42383">
        <ele>1302.6</ele>
        <time>2017-03-17T10:13:40Z</time>
      </trkpt>
      <trkpt lat="45.88162" lon="6.42379">
        <ele>1303.4</ele>
        <time>2017-03-17T10:13:45Z</time>
      </trkpt>
      <trkpt lat="45.88159" lon="6.42374">
        <ele>1302.8</ele>
        <time>2017-03-17T10:13:50Z</time>
      </trkpt>
      <trkpt lat="45.88155" lon="6.42369">
        <ele>1302.4</ele>
        <time>2017-03-17T10:13:55Z</time>
      </trkpt>
      <trkpt lat="45.88153" lon="6.42364">
        <ele>1302.2</ele>
        <time>2017-03-17T10:14:00Z</time>
      </trkpt>
      <trkpt lat="45.88151" lon="6.42361">
        <ele>1300.6</ele>
        <time>2017-03-17T10:14:05Z</time>
      </trkpt>
      <trkpt lat="45.88151" lon="6.42361">
        <ele>1301.4</ele>
        <time>2017-03-17T10:14:20Z</time>
      </trkpt>
      <trkpt lat="45.88151" lon="6.4236">
        <ele>1301.6</ele>
        <time>2017-03-17T10:14:50Z</time>
      </trkpt>
      <trkpt lat="45.88151" lon="6.4236">
        <ele>1301.4</ele>
        <time>2017-03-17T10:15:00Z</time>
      </trkpt>
      <trkpt lat="45.88151" lon="6.4236">
        <ele>1301.2</ele>
        <time>2017-03-17T10:15:05Z</time>
      </trkpt>
      <trkpt lat="45.88151" lon="6.4236">
        <ele>1300.8</ele>
        <time>2017-03-17T10:15:35Z</time>
      </trkpt>
      <trkpt lat="45.88151" lon="6.42359">
        <ele>1300.6</ele>
        <time>2017-03-17T10:15:40Z</time>
      </trkpt>
      <trkpt lat="45.88151" lon="6.42359">
        <ele>1300.6</ele>
        <time>2017-03-17T10:15:45Z</time>
      </trkpt>
      <trkpt lat="45.88152" lon="6.42359">
        <ele>1300.8</ele>
        <time>2017-03-17T10:15:50Z</time>
      </trkpt>
      <trkpt lat="45.88152" lon="6.42358">
        <ele>1301.6</ele>
        <time>2017-03-17T10:16:10Z</time>
      </trkpt>
      <trkpt lat="45.88151" lon="6.42357">
        <ele>1301.6</ele>
        <time>2017-03-17T10:16:15Z</time>
      </trkpt>
      <trkpt lat="45.88151" lon="6.42357">
        <ele>1302</ele>
        <time>2017-03-17T10:16:25Z</time>
      </trkpt>
      <trkpt lat="45.88149" lon="6.42354">
        <ele>1301.6</ele>
        <time>2017-03-17T10:16:30Z</time>
      </trkpt>
      <trkpt lat="45.88146" lon="6.4235">
        <ele>1302.2</ele>
        <time>2017-03-17T10:16:35Z</time>
      </trkpt>
      <trkpt lat="45.88143" lon="6.42347">
        <ele>1299.8</ele>
        <time>2017-03-17T10:16:40Z</time>
      </trkpt>
      <trkpt lat="45.88141" lon="6.42342">
        <ele>1300.8</ele>
        <time>2017-03-17T10:16:45Z</time>
      </trkpt>
      <trkpt lat="45.88139" lon="6.42337">
        <ele>1301</ele>
        <time>2017-03-17T10:16:50Z</time>
      </trkpt>
      <trkpt lat="45.88135" lon="6.42333">
        <ele>1301.2</ele>
        <time>2017-03-17T10:16:55Z</time>
      </trkpt>
      <trkpt lat="45.88132" lon="6.42328">
        <ele>1303.6</ele>
        <time>2017-03-17T10:17:00Z</time>
      </trkpt>
      <trkpt lat="45.88128" lon="6.42323">
        <ele>1302</ele>
        <time>2017-03-17T10:17:05Z</time>
      </trkpt>
      <trkpt lat="45.88124" lon="6.42318">
        <ele>1301.2</ele>
        <time>2017-03-17T10:17:10Z</time>
      </trkpt>
      <trkpt lat="45.88122" lon="6.42313">
        <ele>1304.4</ele>
        <time>2017-03-17T10:17:15Z</time>
      </trkpt>
      <trkpt lat="45.88118" lon="6.42312">
        <ele>1305.8</ele>
        <time>2017-03-17T10:17:20Z</time>
      </trkpt>
      <trkpt lat="45.88116" lon="6.4231">
        <ele>1302.8</ele>
        <time>2017-03-17T10:17:30Z</time>
      </trkpt>
      <trkpt lat="45.88115" lon="6.42305">
        <ele>1302.2</ele>
        <time>2017-03-17T10:17:35Z</time>
      </trkpt>
      <trkpt lat="45.88114" lon="6.42303">
        <ele>1305</ele>
        <time>2017-03-17T10:17:40Z</time>
      </trkpt>
      <trkpt lat="45.88113" lon="6.42298">
        <ele>1304.2</ele>
        <time>2017-03-17T10:17:45Z</time>
      </trkpt>
      <trkpt lat="45.88112" lon="6.42294">
        <ele>1306.8</ele>
        <time>2017-03-17T10:17:50Z</time>
      </trkpt>
      <trkpt lat="45.88111" lon="6.42293">
        <ele>1305.4</ele>
        <time>2017-03-17T10:18:00Z</time>
      </trkpt>
      <trkpt lat="45.88111" lon="6.42293">
        <ele>1305.2</ele>
        <time>2017-03-17T10:18:05Z</time>
      </trkpt>
      <trkpt lat="45.88111" lon="6.42293">
        <ele>1305</ele>
        <time>2017-03-17T10:18:10Z</time>
      </trkpt>
      <trkpt lat="45.88111" lon="6.42293">
        <ele>1304.8</ele>
        <time>2017-03-17T10:18:15Z</time>
      </trkpt>
      <trkpt lat="45.88107" lon="6.42294">
        <ele>1304.8</ele>
        <time>2017-03-17T10:18:20Z</time>
      </trkpt>
      <trkpt lat="45.88103" lon="6.42297">
        <ele>1305</ele>
        <time>2017-03-17T10:18:25Z</time>
      </trkpt>
      <trkpt lat="45.88103" lon="6.42297">
        <ele>1305</ele>
        <time>2017-03-17T10:18:35Z</time>
      </trkpt>
      <trkpt lat="45.88103" lon="6.42297">
        <ele>1304.8</ele>
        <time>2017-03-17T10:18:40Z</time>
      </trkpt>
      <trkpt lat="45.88102" lon="6.42298">
        <ele>1304.6</ele>
        <time>2017-03-17T10:18:45Z</time>
      </trkpt>
      <trkpt lat="45.88103" lon="6.42301">
        <ele>1304.6</ele>
        <time>2017-03-17T10:18:55Z</time>
      </trkpt>
      <trkpt lat="45.88103" lon="6.42303">
        <ele>1304.6</ele>
        <time>2017-03-17T10:19:00Z</time>
      </trkpt>
      <trkpt lat="45.88103" lon="6.42303">
        <ele>1304.4</ele>
        <time>2017-03-17T10:19:06Z</time>
      </trkpt>
      <trkpt lat="45.88103" lon="6.42303">
        <ele>1304.4</ele>
        <time>2017-03-17T10:19:11Z</time>
      </trkpt>
      <trkpt lat="45.88103" lon="6.42305">
        <ele>1305.8</ele>
        <time>2017-03-17T10:19:16Z</time>
      </trkpt>
      <trkpt lat="45.88104" lon="6.42305">
        <ele>1305.4</ele>
        <time>2017-03-17T10:19:26Z</time>
      </trkpt>
      <trkpt lat="45.88103" lon="6.42311">
        <ele>1307.6</ele>
        <time>2017-03-17T10:19:31Z</time>
      </trkpt>
      <trkpt lat="45.88102" lon="6.42317">
        <ele>1305.2</ele>
        <time>2017-03-17T10:19:36Z</time>
      </trkpt>
      <trkpt lat="45.881" lon="6.4232">
        <ele>1306</ele>
        <time>2017-03-17T10:19:41Z</time>
      </trkpt>
      <trkpt lat="45.88096" lon="6.42321">
        <ele>1307</ele>
        <time>2017-03-17T10:19:46Z</time>
      </trkpt>
      <trkpt lat="45.88093" lon="6.42319">
        <ele>1307</ele>
        <time>2017-03-17T10:19:51Z</time>
      </trkpt>
      <trkpt lat="45.8809" lon="6.42317">
        <ele>1306.4</ele>
        <time>2017-03-17T10:19:56Z</time>
      </trkpt>
      <trkpt lat="45.88087" lon="6.42316">
        <ele>1309</ele>
        <time>2017-03-17T10:20:01Z</time>
      </trkpt>
      <trkpt lat="45.88086" lon="6.42315">
        <ele>1307</ele>
        <time>2017-03-17T10:20:06Z</time>
      </trkpt>
      <trkpt lat="45.88086" lon="6.42315">
        <ele>1306.4</ele>
        <time>2017-03-17T10:20:16Z</time>
      </trkpt>
      <trkpt lat="45.88086" lon="6.42315">
        <ele>1306</ele>
        <time>2017-03-17T10:20:26Z</time>
      </trkpt>
      <trkpt lat="45.88086" lon="6.42315">
        <ele>1305.2</ele>
        <time>2017-03-17T10:20:41Z</time>
      </trkpt>
      <trkpt lat="45.88084" lon="6.42314">
        <ele>1305.6</ele>
        <time>2017-03-17T10:20:46Z</time>
      </trkpt>
      <trkpt lat="45.88083" lon="6.42314">
        <ele>1305.4</ele>
        <time>2017-03-17T10:20:51Z</time>
      </trkpt>
      <trkpt lat="45.8808" lon="6.42313">
        <ele>1305</ele>
        <time>2017-03-17T10:20:56Z</time>
      </trkpt>
      <trkpt lat="45.88075" lon="6.42312">
        <ele>1307.8</ele>
        <time>2017-03-17T10:21:01Z</time>
      </trkpt>
      <trkpt lat="45.88071" lon="6.4231">
        <ele>1308</ele>
        <time>2017-03-17T10:21:06Z</time>
      </trkpt>
      <trkpt lat="45.88068" lon="6.42309">
        <ele>1305.2</ele>
        <time>2017-03-17T10:21:11Z</time>
      </trkpt>
      <trkpt lat="45.88064" lon="6.42309">
        <ele>1308.4</ele>
        <time>2017-03-17T10:21:16Z</time>
      </trkpt>
      <trkpt lat="45.88061" lon="6.42308">
        <ele>1310.4</ele>
        <time>2017-03-17T10:21:21Z</time>
      </trkpt>
      <trkpt lat="45.88057" lon="6.42308">
        <ele>1312</ele>
        <time>2017-03-17T10:21:26Z</time>
      </trkpt>
      <trkpt lat="45.88054" lon="6.42308">
        <ele>1308.4</ele>
        <time>2017-03-17T10:21:31Z</time>
      </trkpt>
      <trkpt lat="45.8805" lon="6.42308">
        <ele>1309.6</ele>
        <time>2017-03-17T10:21:36Z</time>
      </trkpt>
      <trkpt lat="45.88047" lon="6.42308">
        <ele>1313.6</ele>
        <time>2017-03-17T10:21:41Z</time>
      </trkpt>
      <trkpt lat="45.88045" lon="6.4231">
        <ele>1311.4</ele>
        <time>2017-03-17T10:21:46Z</time>
      </trkpt>
      <trkpt lat="45.88042" lon="6.42312">
        <ele>1312.4</ele>
        <time>2017-03-17T10:21:51Z</time>
      </trkpt>
      <trkpt lat="45.8804" lon="6.42314">
        <ele>1313.2</ele>
        <time>2017-03-17T10:21:56Z</time>
      </trkpt>
      <trkpt lat="45.88038" lon="6.42317">
        <ele>1312.2</ele>
        <time>2017-03-17T10:22:01Z</time>
      </trkpt>
      <trkpt lat="45.88036" lon="6.42319">
        <ele>1313</ele>
        <time>2017-03-17T10:22:06Z</time>
      </trkpt>
      <trkpt lat="45.88033" lon="6.42322">
        <ele>1314.4</ele>
        <time>2017-03-17T10:22:11Z</time>
      </trkpt>
      <trkpt lat="45.88031" lon="6.42325">
        <ele>1315</ele>
        <time>2017-03-17T10:22:16Z</time>
      </trkpt>
      <trkpt lat="45.88029" lon="6.42328">
        <ele>1315.2</ele>
        <time>2017-03-17T10:22:21Z</time>
      </trkpt>
      <trkpt lat="45.88027" lon="6.42331">
        <ele>1313.8</ele>
        <time>2017-03-17T10:22:26Z</time>
      </trkpt>
      <trkpt lat="45.88024" lon="6.42334">
        <ele>1316</ele>
        <time>2017-03-17T10:22:31Z</time>
      </trkpt>
      <trkpt lat="45.88022" lon="6.42337">
        <ele>1312.4</ele>
        <time>2017-03-17T10:22:36Z</time>
      </trkpt>
      <trkpt lat="45.8802" lon="6.42341">
        <ele>1317</ele>
        <time>2017-03-17T10:22:41Z</time>
      </trkpt>
      <trkpt lat="45.88019" lon="6.42346">
        <ele>1316</ele>
        <time>2017-03-17T10:22:46Z</time>
      </trkpt>
      <trkpt lat="45.88019" lon="6.42347">
        <ele>1316.4</ele>
        <time>2017-03-17T10:22:51Z</time>
      </trkpt>
      <trkpt lat="45.88017" lon="6.42347">
        <ele>1317</ele>
        <time>2017-03-17T10:22:56Z</time>
      </trkpt>
      <trkpt lat="45.88015" lon="6.42346">
        <ele>1316.2</ele>
        <time>2017-03-17T10:23:01Z</time>
      </trkpt>
      <trkpt lat="45.88014" lon="6.42345">
        <ele>1318.2</ele>
        <time>2017-03-17T10:23:21Z</time>
      </trkpt>
      <trkpt lat="45.88012" lon="6.42343">
        <ele>1319</ele>
        <time>2017-03-17T10:23:26Z</time>
      </trkpt>
      <trkpt lat="45.88011" lon="6.42343">
        <ele>1320.2</ele>
        <time>2017-03-17T10:23:31Z</time>
      </trkpt>
      <trkpt lat="45.8801" lon="6.4234">
        <ele>1317.4</ele>
        <time>2017-03-17T10:24:01Z</time>
      </trkpt>
      <trkpt lat="45.88008" lon="6.42336">
        <ele>1318.4</ele>
        <time>2017-03-17T10:24:06Z</time>
      </trkpt>
      <trkpt lat="45.88008" lon="6.42332">
        <ele>1318.4</ele>
        <time>2017-03-17T10:24:11Z</time>
      </trkpt>
      <trkpt lat="45.88009" lon="6.42328">
        <ele>1320.2</ele>
        <time>2017-03-17T10:24:16Z</time>
      </trkpt>
      <trkpt lat="45.8801" lon="6.42325">
        <ele>1322.2</ele>
        <time>2017-03-17T10:24:21Z</time>
      </trkpt>
      <trkpt lat="45.88011" lon="6.42321">
        <ele>1321.4</ele>
        <time>2017-03-17T10:24:26Z</time>
      </trkpt>
      <trkpt lat="45.88012" lon="6.42317">
        <ele>1323.8</ele>
        <time>2017-03-17T10:24:31Z</time>
      </trkpt>
      <trkpt lat="45.88012" lon="6.42313">
        <ele>1323.6</ele>
        <time>2017-03-17T10:24:36Z</time>
      </trkpt>
      <trkpt lat="45.88011" lon="6.42308">
        <ele>1323.2</ele>
        <time>2017-03-17T10:24:41Z</time>
      </trkpt>
      <trkpt lat="45.88009" lon="6.42305">
        <ele>1324.4</ele>
        <time>2017-03-17T10:24:46Z</time>
      </trkpt>
      <trkpt lat="45.88006" lon="6.42302">
        <ele>1324</ele>
        <time>2017-03-17T10:24:51Z</time>
      </trkpt>
      <trkpt lat="45.88002" lon="6.42302">
        <ele>1325</ele>
        <time>2017-03-17T10:24:56Z</time>
      </trkpt>
      <trkpt lat="45.87998" lon="6.42301">
        <ele>1325</ele>
        <time>2017-03-17T10:25:01Z</time>
      </trkpt>
      <trkpt lat="45.87995" lon="6.42301">
        <ele>1326.4</ele>
        <time>2017-03-17T10:25:06Z</time>
      </trkpt>
      <trkpt lat="45.87992" lon="6.42302">
        <ele>1326</ele>
        <time>2017-03-17T10:25:11Z</time>
      </trkpt>
      <trkpt lat="45.87988" lon="6.42304">
        <ele>1326.4</ele>
        <time>2017-03-17T10:25:16Z</time>
      </trkpt>
      <trkpt lat="45.87986" lon="6.42305">
        <ele>1329.6</ele>
        <time>2017-03-17T10:25:21Z</time>
      </trkpt>
      <trkpt lat="45.87986" lon="6.42306">
        <ele>1327</ele>
        <time>2017-03-17T10:25:26Z</time>
      </trkpt>
      <trkpt lat="45.87986" lon="6.42306">
        <ele>1327.8</ele>
        <time>2017-03-17T10:25:41Z</time>
      </trkpt>
      <trkpt lat="45.87983" lon="6.42306">
        <ele>1331</ele>
        <time>2017-03-17T10:25:51Z</time>
      </trkpt>
      <trkpt lat="45.87979" lon="6.42306">
        <ele>1327.4</ele>
        <time>2017-03-17T10:25:56Z</time>
      </trkpt>
      <trkpt lat="45.87974" lon="6.42304">
        <ele>1329.2</ele>
        <time>2017-03-17T10:26:01Z</time>
      </trkpt>
      <trkpt lat="45.87972" lon="6.42302">
        <ele>1327.8</ele>
        <time>2017-03-17T10:26:06Z</time>
      </trkpt>
      <trkpt lat="45.87972" lon="6.42302">
        <ele>1329</ele>
        <time>2017-03-17T10:26:11Z</time>
      </trkpt>
      <trkpt lat="45.87972" lon="6.42302">
        <ele>1329.8</ele>
        <time>2017-03-17T10:26:16Z</time>
      </trkpt>
      <trkpt lat="45.87972" lon="6.42303">
        <ele>1331.2</ele>
        <time>2017-03-17T10:26:26Z</time>
      </trkpt>
      <trkpt lat="45.87972" lon="6.42304">
        <ele>1330.4</ele>
        <time>2017-03-17T10:26:41Z</time>
      </trkpt>
      <trkpt lat="45.87972" lon="6.42304">
        <ele>1330.4</ele>
        <time>2017-03-17T10:26:46Z</time>
      </trkpt>
      <trkpt lat="45.87972" lon="6.42304">
        <ele>1330.2</ele>
        <time>2017-03-17T10:26:51Z</time>
      </trkpt>
      <trkpt lat="45.87972" lon="6.42305">
        <ele>1328.6</ele>
        <time>2017-03-17T10:26:56Z</time>
      </trkpt>
      <trkpt lat="45.87972" lon="6.42306">
        <ele>1329.4</ele>
        <time>2017-03-17T10:27:01Z</time>
      </trkpt>
      <trkpt lat="45.87972" lon="6.42305">
        <ele>1330</ele>
        <time>2017-03-17T10:27:06Z</time>
      </trkpt>
      <trkpt lat="45.87972" lon="6.42305">
        <ele>1330.4</ele>
        <time>2017-03-17T10:27:11Z</time>
      </trkpt>
      <trkpt lat="45.87972" lon="6.42306">
        <ele>1330.6</ele>
        <time>2017-03-17T10:27:16Z</time>
      </trkpt>
      <trkpt lat="45.87972" lon="6.42308">
        <ele>1329.8</ele>
        <time>2017-03-17T10:27:21Z</time>
      </trkpt>
      <trkpt lat="45.87972" lon="6.42311">
        <ele>1330.8</ele>
        <time>2017-03-17T10:27:26Z</time>
      </trkpt>
      <trkpt lat="45.87973" lon="6.42315">
        <ele>1332.8</ele>
        <time>2017-03-17T10:27:31Z</time>
      </trkpt>
      <trkpt lat="45.87973" lon="6.42321">
        <ele>1334</ele>
        <time>2017-03-17T10:27:36Z</time>
      </trkpt>
      <trkpt lat="45.87973" lon="6.42325">
        <ele>1334.8</ele>
        <time>2017-03-17T10:27:41Z</time>
      </trkpt>
      <trkpt lat="45.87973" lon="6.4233">
        <ele>1333.8</ele>
        <time>2017-03-17T10:27:46Z</time>
      </trkpt>
      <trkpt lat="45.87973" lon="6.42335">
        <ele>1334.4</ele>
        <time>2017-03-17T10:27:51Z</time>
      </trkpt>
      <trkpt lat="45.87974" lon="6.42339">
        <ele>1336.4</ele>
        <time>2017-03-17T10:27:56Z</time>
      </trkpt>
      <trkpt lat="45.87974" lon="6.42343">
        <ele>1337.8</ele>
        <time>2017-03-17T10:28:01Z</time>
      </trkpt>
      <trkpt lat="45.87974" lon="6.42344">
        <ele>1337.8</ele>
        <time>2017-03-17T10:28:06Z</time>
      </trkpt>
      <trkpt lat="45.87971" lon="6.42343">
        <ele>1339.4</ele>
        <time>2017-03-17T10:28:11Z</time>
      </trkpt>
      <trkpt lat="45.87967" lon="6.42342">
        <ele>1340.2</ele>
        <time>2017-03-17T10:28:16Z</time>
      </trkpt>
      <trkpt lat="45.87964" lon="6.42343">
        <ele>1336.4</ele>
        <time>2017-03-17T10:28:21Z</time>
      </trkpt>
      <trkpt lat="45.87964" lon="6.42347">
        <ele>1338.4</ele>
        <time>2017-03-17T10:28:26Z</time>
      </trkpt>
      <trkpt lat="45.87965" lon="6.42351">
        <ele>1338.4</ele>
        <time>2017-03-17T10:28:31Z</time>
      </trkpt>
      <trkpt lat="45.87965" lon="6.42355">
        <ele>1338</ele>
        <time>2017-03-17T10:28:36Z</time>
      </trkpt>
      <trkpt lat="45.87965" lon="6.4236">
        <ele>1340</ele>
        <time>2017-03-17T10:28:41Z</time>
      </trkpt>
      <trkpt lat="45.87966" lon="6.42363">
        <ele>1339.8</ele>
        <time>2017-03-17T10:28:46Z</time>
      </trkpt>
      <trkpt lat="45.87966" lon="6.42366">
        <ele>1341.6</ele>
        <time>2017-03-17T10:28:51Z</time>
      </trkpt>
      <trkpt lat="45.87966" lon="6.42371">
        <ele>1341.2</ele>
        <time>2017-03-17T10:28:56Z</time>
      </trkpt>
      <trkpt lat="45.87965" lon="6.42375">
        <ele>1342.6</ele>
        <time>2017-03-17T10:29:01Z</time>
      </trkpt>
      <trkpt lat="45.87961" lon="6.42373">
        <ele>1344.6</ele>
        <time>2017-03-17T10:29:11Z</time>
      </trkpt>
      <trkpt lat="45.87958" lon="6.42371">
        <ele>1345</ele>
        <time>2017-03-17T10:29:16Z</time>
      </trkpt>
      <trkpt lat="45.87955" lon="6.42369">
        <ele>1343</ele>
        <time>2017-03-17T10:29:22Z</time>
      </trkpt>
      <trkpt lat="45.87953" lon="6.42368">
        <ele>1344.8</ele>
        <time>2017-03-17T10:29:27Z</time>
      </trkpt>
      <trkpt lat="45.87951" lon="6.42367">
        <ele>1345</ele>
        <time>2017-03-17T10:29:32Z</time>
      </trkpt>
      <trkpt lat="45.8795" lon="6.4237">
        <ele>1345.8</ele>
        <time>2017-03-17T10:29:37Z</time>
      </trkpt>
      <trkpt lat="45.8795" lon="6.42374">
        <ele>1345.2</ele>
        <time>2017-03-17T10:29:42Z</time>
      </trkpt>
      <trkpt lat="45.8795" lon="6.42378">
        <ele>1345.2</ele>
        <time>2017-03-17T10:29:47Z</time>
      </trkpt>
      <trkpt lat="45.87949" lon="6.42383">
        <ele>1346.6</ele>
        <time>2017-03-17T10:29:52Z</time>
      </trkpt>
      <trkpt lat="45.87949" lon="6.42387">
        <ele>1348.8</ele>
        <time>2017-03-17T10:29:57Z</time>
      </trkpt>
      <trkpt lat="45.87949" lon="6.42391">
        <ele>1346.6</ele>
        <time>2017-03-17T10:30:02Z</time>
      </trkpt>
      <trkpt lat="45.87949" lon="6.42396">
        <ele>1351.6</ele>
        <time>2017-03-17T10:30:07Z</time>
      </trkpt>
      <trkpt lat="45.87948" lon="6.42401">
        <ele>1350.6</ele>
        <time>2017-03-17T10:30:12Z</time>
      </trkpt>
      <trkpt lat="45.87947" lon="6.42406">
        <ele>1348.6</ele>
        <time>2017-03-17T10:30:17Z</time>
      </trkpt>
      <trkpt lat="45.87946" lon="6.42405">
        <ele>1354.4</ele>
        <time>2017-03-17T10:30:22Z</time>
      </trkpt>
      <trkpt lat="45.87944" lon="6.42402">
        <ele>1355.6</ele>
        <time>2017-03-17T10:30:27Z</time>
      </trkpt>
      <trkpt lat="45.87942" lon="6.424">
        <ele>1356.2</ele>
        <time>2017-03-17T10:30:32Z</time>
      </trkpt>
      <trkpt lat="45.8794" lon="6.42397">
        <ele>1355.4</ele>
        <time>2017-03-17T10:30:37Z</time>
      </trkpt>
      <trkpt lat="45.87938" lon="6.42394">
        <ele>1357.4</ele>
        <time>2017-03-17T10:30:42Z</time>
      </trkpt>
      <trkpt lat="45.87936" lon="6.42392">
        <ele>1356</ele>
        <time>2017-03-17T10:30:47Z</time>
      </trkpt>
      <trkpt lat="45.87933" lon="6.4239">
        <ele>1355.4</ele>
        <time>2017-03-17T10:30:52Z</time>
      </trkpt>
      <trkpt lat="45.8793" lon="6.42388">
        <ele>1354</ele>
        <time>2017-03-17T10:30:57Z</time>
      </trkpt>
      <trkpt lat="45.87928" lon="6.42388">
        <ele>1357.4</ele>
        <time>2017-03-17T10:31:02Z</time>
      </trkpt>
      <trkpt lat="45.87925" lon="6.42387">
        <ele>1356.2</ele>
        <time>2017-03-17T10:31:07Z</time>
      </trkpt>
      <trkpt lat="45.87922" lon="6.42385">
        <ele>1356.8</ele>
        <time>2017-03-17T10:31:12Z</time>
      </trkpt>
      <trkpt lat="45.87919" lon="6.42383">
        <ele>1361.2</ele>
        <time>2017-03-17T10:31:17Z</time>
      </trkpt>
      <trkpt lat="45.87917" lon="6.42381">
        <ele>1359.2</ele>
        <time>2017-03-17T10:31:22Z</time>
      </trkpt>
      <trkpt lat="45.87916" lon="6.42383">
        <ele>1357.4</ele>
        <time>2017-03-17T10:31:27Z</time>
      </trkpt>
      <trkpt lat="45.87915" lon="6.42387">
        <ele>1358.2</ele>
        <time>2017-03-17T10:31:32Z</time>
      </trkpt>
      <trkpt lat="45.87915" lon="6.42387">
        <ele>1359</ele>
        <time>2017-03-17T10:31:37Z</time>
      </trkpt>
      <trkpt lat="45.87915" lon="6.42389">
        <ele>1360.6</ele>
        <time>2017-03-17T10:31:42Z</time>
      </trkpt>
      <trkpt lat="45.87915" lon="6.4239">
        <ele>1359.4</ele>
        <time>2017-03-17T10:31:47Z</time>
      </trkpt>
      <trkpt lat="45.87915" lon="6.4239">
        <ele>1359.8</ele>
        <time>2017-03-17T10:31:52Z</time>
      </trkpt>
      <trkpt lat="45.87916" lon="6.4239">
        <ele>1360.2</ele>
        <time>2017-03-17T10:31:57Z</time>
      </trkpt>
      <trkpt lat="45.87916" lon="6.42389">
        <ele>1360.6</ele>
        <time>2017-03-17T10:32:02Z</time>
      </trkpt>
      <trkpt lat="45.87917" lon="6.42389">
        <ele>1361</ele>
        <time>2017-03-17T10:32:07Z</time>
      </trkpt>
      <trkpt lat="45.87917" lon="6.42389">
        <ele>1361.2</ele>
        <time>2017-03-17T10:32:12Z</time>
      </trkpt>
      <trkpt lat="45.87917" lon="6.42389">
        <ele>1361.4</ele>
        <time>2017-03-17T10:32:22Z</time>
      </trkpt>
      <trkpt lat="45.87917" lon="6.42389">
        <ele>1361.6</ele>
        <time>2017-03-17T10:32:27Z</time>
      </trkpt>
      <trkpt lat="45.87917" lon="6.42388">
        <ele>1362</ele>
        <time>2017-03-17T10:32:42Z</time>
      </trkpt>
      <trkpt lat="45.87917" lon="6.42389">
        <ele>1362</ele>
        <time>2017-03-17T10:32:52Z</time>
      </trkpt>
      <trkpt lat="45.87917" lon="6.42393">
        <ele>1363.4</ele>
        <time>2017-03-17T10:32:57Z</time>
      </trkpt>
      <trkpt lat="45.87916" lon="6.42396">
        <ele>1364</ele>
        <time>2017-03-17T10:33:02Z</time>
      </trkpt>
      <trkpt lat="45.87914" lon="6.42396">
        <ele>1364</ele>
        <time>2017-03-17T10:33:07Z</time>
      </trkpt>
      <trkpt lat="45.87911" lon="6.42394">
        <ele>1363.2</ele>
        <time>2017-03-17T10:33:12Z</time>
      </trkpt>
      <trkpt lat="45.87908" lon="6.42393">
        <ele>1363.8</ele>
        <time>2017-03-17T10:33:17Z</time>
      </trkpt>
      <trkpt lat="45.87905" lon="6.42391">
        <ele>1363.2</ele>
        <time>2017-03-17T10:33:22Z</time>
      </trkpt>
      <trkpt lat="45.87902" lon="6.4239">
        <ele>1363.6</ele>
        <time>2017-03-17T10:33:27Z</time>
      </trkpt>
      <trkpt lat="45.87899" lon="6.42389">
        <ele>1365</ele>
        <time>2017-03-17T10:33:32Z</time>
      </trkpt>
      <trkpt lat="45.87896" lon="6.42388">
        <ele>1363.8</ele>
        <time>2017-03-17T10:33:37Z</time>
      </trkpt>
      <trkpt lat="45.87893" lon="6.42388">
        <ele>1367.8</ele>
        <time>2017-03-17T10:33:42Z</time>
      </trkpt>
      <trkpt lat="45.8789" lon="6.42387">
        <ele>1366.2</ele>
        <time>2017-03-17T10:33:47Z</time>
      </trkpt>
      <trkpt lat="45.87887" lon="6.42388">
        <ele>1365.6</ele>
        <time>2017-03-17T10:33:52Z</time>
      </trkpt>
      <trkpt lat="45.87884" lon="6.42388">
        <ele>1367.2</ele>
        <time>2017-03-17T10:33:57Z</time>
      </trkpt>
      <trkpt lat="45.87881" lon="6.42388">
        <ele>1365.4</ele>
        <time>2017-03-17T10:34:02Z</time>
      </trkpt>
      <trkpt lat="45.87879" lon="6.42387">
        <ele>1365.2</ele>
        <time>2017-03-17T10:34:07Z</time>
      </trkpt>
      <trkpt lat="45.87876" lon="6.42385">
        <ele>1369</ele>
        <time>2017-03-17T10:34:12Z</time>
      </trkpt>
      <trkpt lat="45.87874" lon="6.42383">
        <ele>1369.8</ele>
        <time>2017-03-17T10:34:17Z</time>
      </trkpt>
      <trkpt lat="45.87871" lon="6.42382">
        <ele>1370.8</ele>
        <time>2017-03-17T10:34:22Z</time>
      </trkpt>
      <trkpt lat="45.87868" lon="6.42381">
        <ele>1373</ele>
        <time>2017-03-17T10:34:27Z</time>
      </trkpt>
      <trkpt lat="45.87865" lon="6.42379">
        <ele>1373.6</ele>
        <time>2017-03-17T10:34:32Z</time>
      </trkpt>
      <trkpt lat="45.87862" lon="6.42377">
        <ele>1372.8</ele>
        <time>2017-03-17T10:34:37Z</time>
      </trkpt>
      <trkpt lat="45.87859" lon="6.42375">
        <ele>1373.6</ele>
        <time>2017-03-17T10:34:42Z</time>
      </trkpt>
      <trkpt lat="45.87856" lon="6.42374">
        <ele>1376</ele>
        <time>2017-03-17T10:34:47Z</time>
      </trkpt>
      <trkpt lat="45.87854" lon="6.42373">
        <ele>1373.6</ele>
        <time>2017-03-17T10:34:52Z</time>
      </trkpt>
      <trkpt lat="45.87851" lon="6.42372">
        <ele>1375.6</ele>
        <time>2017-03-17T10:34:57Z</time>
      </trkpt>
      <trkpt lat="45.87848" lon="6.42371">
        <ele>1376.6</ele>
        <time>2017-03-17T10:35:02Z</time>
      </trkpt>
      <trkpt lat="45.87845" lon="6.4237">
        <ele>1374</ele>
        <time>2017-03-17T10:35:07Z</time>
      </trkpt>
      <trkpt lat="45.87844" lon="6.42373">
        <ele>1376.4</ele>
        <time>2017-03-17T10:35:12Z</time>
      </trkpt>
      <trkpt lat="45.87843" lon="6.42377">
        <ele>1378.4</ele>
        <time>2017-03-17T10:35:17Z</time>
      </trkpt>
      <trkpt lat="45.87842" lon="6.42381">
        <ele>1378.8</ele>
        <time>2017-03-17T10:35:22Z</time>
      </trkpt>
      <trkpt lat="45.87841" lon="6.42386">
        <ele>1377.4</ele>
        <time>2017-03-17T10:35:27Z</time>
      </trkpt>
      <trkpt lat="45.87841" lon="6.4239">
        <ele>1378.4</ele>
        <time>2017-03-17T10:35:32Z</time>
      </trkpt>
      <trkpt lat="45.8784" lon="6.42394">
        <ele>1380.4</ele>
        <time>2017-03-17T10:35:37Z</time>
      </trkpt>
      <trkpt lat="45.87839" lon="6.42397">
        <ele>1381.8</ele>
        <time>2017-03-17T10:35:42Z</time>
      </trkpt>
      <trkpt lat="45.87838" lon="6.424">
        <ele>1382.4</ele>
        <time>2017-03-17T10:35:47Z</time>
      </trkpt>
      <trkpt lat="45.87837" lon="6.42403">
        <ele>1381.8</ele>
        <time>2017-03-17T10:35:52Z</time>
      </trkpt>
      <trkpt lat="45.87837" lon="6.42407">
        <ele>1386</ele>
        <time>2017-03-17T10:35:57Z</time>
      </trkpt>
      <trkpt lat="45.87836" lon="6.4241">
        <ele>1382.2</ele>
        <time>2017-03-17T10:36:02Z</time>
      </trkpt>
      <trkpt lat="45.87836" lon="6.42414">
        <ele>1384</ele>
        <time>2017-03-17T10:36:07Z</time>
      </trkpt>
      <trkpt lat="45.87836" lon="6.42418">
        <ele>1383.2</ele>
        <time>2017-03-17T10:36:12Z</time>
      </trkpt>
      <trkpt lat="45.87836" lon="6.42421">
        <ele>1384.4</ele>
        <time>2017-03-17T10:36:17Z</time>
      </trkpt>
      <trkpt lat="45.87837" lon="6.42429">
        <ele>1387.6</ele>
        <time>2017-03-17T10:36:27Z</time>
      </trkpt>
      <trkpt lat="45.87837" lon="6.42433">
        <ele>1386.8</ele>
        <time>2017-03-17T10:36:32Z</time>
      </trkpt>
      <trkpt lat="45.87837" lon="6.42436">
        <ele>1386.2</ele>
        <time>2017-03-17T10:36:37Z</time>
      </trkpt>
      <trkpt lat="45.87837" lon="6.4244">
        <ele>1389.2</ele>
        <time>2017-03-17T10:36:42Z</time>
      </trkpt>
      <trkpt lat="45.87837" lon="6.42444">
        <ele>1387.8</ele>
        <time>2017-03-17T10:36:47Z</time>
      </trkpt>
      <trkpt lat="45.87835" lon="6.42445">
        <ele>1386.6</ele>
        <time>2017-03-17T10:36:52Z</time>
      </trkpt>
      <trkpt lat="45.87833" lon="6.42444">
        <ele>1390.8</ele>
        <time>2017-03-17T10:36:57Z</time>
      </trkpt>
      <trkpt lat="45.8783" lon="6.42443">
        <ele>1391.8</ele>
        <time>2017-03-17T10:37:02Z</time>
      </trkpt>
      <trkpt lat="45.87828" lon="6.42441">
        <ele>1390.4</ele>
        <time>2017-03-17T10:37:07Z</time>
      </trkpt>
      <trkpt lat="45.87825" lon="6.4244">
        <ele>1393.6</ele>
        <time>2017-03-17T10:37:12Z</time>
      </trkpt>
      <trkpt lat="45.87823" lon="6.42439">
        <ele>1395</ele>
        <time>2017-03-17T10:37:17Z</time>
      </trkpt>
      <trkpt lat="45.87821" lon="6.42437">
        <ele>1392.8</ele>
        <time>2017-03-17T10:37:22Z</time>
      </trkpt>
      <trkpt lat="45.87819" lon="6.42436">
        <ele>1395.2</ele>
        <time>2017-03-17T10:37:27Z</time>
      </trkpt>
      <trkpt lat="45.87816" lon="6.42434">
        <ele>1396</ele>
        <time>2017-03-17T10:37:32Z</time>
      </trkpt>
      <trkpt lat="45.87814" lon="6.42433">
        <ele>1392.6</ele>
        <time>2017-03-17T10:37:37Z</time>
      </trkpt>
      <trkpt lat="45.87811" lon="6.42433">
        <ele>1393.4</ele>
        <time>2017-03-17T10:37:42Z</time>
      </trkpt>
      <trkpt lat="45.87809" lon="6.42433">
        <ele>1395</ele>
        <time>2017-03-17T10:37:47Z</time>
      </trkpt>
      <trkpt lat="45.87803" lon="6.42433">
        <ele>1394.4</ele>
        <time>2017-03-17T10:37:57Z</time>
      </trkpt>
      <trkpt lat="45.87801" lon="6.42431">
        <ele>1393.8</ele>
        <time>2017-03-17T10:38:02Z</time>
      </trkpt>
      <trkpt lat="45.87798" lon="6.42431">
        <ele>1397</ele>
        <time>2017-03-17T10:38:07Z</time>
      </trkpt>
      <trkpt lat="45.87796" lon="6.42429">
        <ele>1399.6</ele>
        <time>2017-03-17T10:38:12Z</time>
      </trkpt>
      <trkpt lat="45.87793" lon="6.42429">
        <ele>1400</ele>
        <time>2017-03-17T10:38:17Z</time>
      </trkpt>
      <trkpt lat="45.87791" lon="6.42427">
        <ele>1399.4</ele>
        <time>2017-03-17T10:38:22Z</time>
      </trkpt>
      <trkpt lat="45.87788" lon="6.42427">
        <ele>1401.4</ele>
        <time>2017-03-17T10:38:27Z</time>
      </trkpt>
      <trkpt lat="45.87786" lon="6.42426">
        <ele>1403.2</ele>
        <time>2017-03-17T10:38:32Z</time>
      </trkpt>
      <trkpt lat="45.87783" lon="6.42426">
        <ele>1403.2</ele>
        <time>2017-03-17T10:38:37Z</time>
      </trkpt>
      <trkpt lat="45.87781" lon="6.42426">
        <ele>1403.4</ele>
        <time>2017-03-17T10:38:42Z</time>
      </trkpt>
      <trkpt lat="45.87776" lon="6.42425">
        <ele>1401.2</ele>
        <time>2017-03-17T10:38:52Z</time>
      </trkpt>
      <trkpt lat="45.87773" lon="6.42425">
        <ele>1406.2</ele>
        <time>2017-03-17T10:38:57Z</time>
      </trkpt>
      <trkpt lat="45.87771" lon="6.42427">
        <ele>1403.6</ele>
        <time>2017-03-17T10:39:02Z</time>
      </trkpt>
      <trkpt lat="45.87772" lon="6.42431">
        <ele>1406.2</ele>
        <time>2017-03-17T10:39:07Z</time>
      </trkpt>
      <trkpt lat="45.87772" lon="6.42432">
        <ele>1406.2</ele>
        <time>2017-03-17T10:39:12Z</time>
      </trkpt>
      <trkpt lat="45.87772" lon="6.42432">
        <ele>1406.4</ele>
        <time>2017-03-17T10:39:17Z</time>
      </trkpt>
      <trkpt lat="45.87772" lon="6.42432">
        <ele>1406.2</ele>
        <time>2017-03-17T10:39:22Z</time>
      </trkpt>
      <trkpt lat="45.87772" lon="6.42432">
        <ele>1406</ele>
        <time>2017-03-17T10:39:32Z</time>
      </trkpt>
      <trkpt lat="45.87772" lon="6.42432">
        <ele>1405.8</ele>
        <time>2017-03-17T10:39:37Z</time>
      </trkpt>
      <trkpt lat="45.87772" lon="6.42432">
        <ele>1405.8</ele>
        <time>2017-03-17T10:39:42Z</time>
      </trkpt>
      <trkpt lat="45.87773" lon="6.42432">
        <ele>1405.4</ele>
        <time>2017-03-17T10:39:57Z</time>
      </trkpt>
      <trkpt lat="45.87773" lon="6.42431">
        <ele>1405.2</ele>
        <time>2017-03-17T10:40:32Z</time>
      </trkpt>
      <trkpt lat="45.87773" lon="6.42431">
        <ele>1405</ele>
        <time>2017-03-17T10:40:47Z</time>
      </trkpt>
      <trkpt lat="45.87773" lon="6.42431">
        <ele>1405</ele>
        <time>2017-03-17T10:40:57Z</time>
      </trkpt>
      <trkpt lat="45.87773" lon="6.4243">
        <ele>1404</ele>
        <time>2017-03-17T10:41:22Z</time>
      </trkpt>
      <trkpt lat="45.87772" lon="6.4243">
        <ele>1403.8</ele>
        <time>2017-03-17T10:41:32Z</time>
      </trkpt>
      <trkpt lat="45.87772" lon="6.42429">
        <ele>1403.4</ele>
        <time>2017-03-17T10:41:37Z</time>
      </trkpt>
      <trkpt lat="45.87772" lon="6.4243">
        <ele>1402.8</ele>
        <time>2017-03-17T10:41:52Z</time>
      </trkpt>
      <trkpt lat="45.87772" lon="6.4243">
        <ele>1402.4</ele>
        <time>2017-03-17T10:42:02Z</time>
      </trkpt>
      <trkpt lat="45.87772" lon="6.4243">
        <ele>1402.2</ele>
        <time>2017-03-17T10:42:12Z</time>
      </trkpt>
      <trkpt lat="45.87772" lon="6.4243">
        <ele>1402.2</ele>
        <time>2017-03-17T10:42:17Z</time>
      </trkpt>
      <trkpt lat="45.87773" lon="6.4243">
        <ele>1399.6</ele>
        <time>2017-03-17T10:42:22Z</time>
      </trkpt>
      <trkpt lat="45.87773" lon="6.4243">
        <ele>1400.6</ele>
        <time>2017-03-17T10:42:27Z</time>
      </trkpt>
      <trkpt lat="45.87773" lon="6.42431">
        <ele>1402.4</ele>
        <time>2017-03-17T10:42:42Z</time>
      </trkpt>
      <trkpt lat="45.87773" lon="6.42431">
        <ele>1403.8</ele>
        <time>2017-03-17T10:43:07Z</time>
      </trkpt>
      <trkpt lat="45.87772" lon="6.42431">
        <ele>1403.8</ele>
        <time>2017-03-17T10:43:12Z</time>
      </trkpt>
      <trkpt lat="45.87772" lon="6.42431">
        <ele>1404</ele>
        <time>2017-03-17T10:43:37Z</time>
      </trkpt>
      <trkpt lat="45.87772" lon="6.42432">
        <ele>1403.2</ele>
        <time>2017-03-17T10:43:42Z</time>
      </trkpt>
      <trkpt lat="45.87771" lon="6.42433">
        <ele>1399.8</ele>
        <time>2017-03-17T10:43:52Z</time>
      </trkpt>
      <trkpt lat="45.87771" lon="6.42433">
        <ele>1401.4</ele>
        <time>2017-03-17T10:43:57Z</time>
      </trkpt>
      <trkpt lat="45.8777" lon="6.42436">
        <ele>1403.6</ele>
        <time>2017-03-17T10:44:12Z</time>
      </trkpt>
      <trkpt lat="45.87769" lon="6.4244">
        <ele>1404.6</ele>
        <time>2017-03-17T10:44:17Z</time>
      </trkpt>
      <trkpt lat="45.87768" lon="6.42443">
        <ele>1405.6</ele>
        <time>2017-03-17T10:44:22Z</time>
      </trkpt>
      <trkpt lat="45.87767" lon="6.42447">
        <ele>1407.4</ele>
        <time>2017-03-17T10:44:27Z</time>
      </trkpt>
      <trkpt lat="45.87766" lon="6.4245">
        <ele>1408</ele>
        <time>2017-03-17T10:44:32Z</time>
      </trkpt>
      <trkpt lat="45.87765" lon="6.42454">
        <ele>1410.6</ele>
        <time>2017-03-17T10:44:37Z</time>
      </trkpt>
      <trkpt lat="45.87764" lon="6.42458">
        <ele>1410.8</ele>
        <time>2017-03-17T10:44:42Z</time>
      </trkpt>
      <trkpt lat="45.87764" lon="6.42462">
        <ele>1410.8</ele>
        <time>2017-03-17T10:44:47Z</time>
      </trkpt>
      <trkpt lat="45.87763" lon="6.42465">
        <ele>1412</ele>
        <time>2017-03-17T10:44:52Z</time>
      </trkpt>
      <trkpt lat="45.87762" lon="6.42469">
        <ele>1413</ele>
        <time>2017-03-17T10:44:57Z</time>
      </trkpt>
      <trkpt lat="45.87762" lon="6.42473">
        <ele>1415</ele>
        <time>2017-03-17T10:45:02Z</time>
      </trkpt>
      <trkpt lat="45.87762" lon="6.4248">
        <ele>1413.8</ele>
        <time>2017-03-17T10:45:12Z</time>
      </trkpt>
      <trkpt lat="45.87762" lon="6.42483">
        <ele>1415.6</ele>
        <time>2017-03-17T10:45:17Z</time>
      </trkpt>
      <trkpt lat="45.87762" lon="6.42487">
        <ele>1417</ele>
        <time>2017-03-17T10:45:22Z</time>
      </trkpt>
      <trkpt lat="45.87762" lon="6.42489">
        <ele>1415</ele>
        <time>2017-03-17T10:45:27Z</time>
      </trkpt>
      <trkpt lat="45.87762" lon="6.42495">
        <ele>1418</ele>
        <time>2017-03-17T10:45:33Z</time>
      </trkpt>
      <trkpt lat="45.87763" lon="6.42499">
        <ele>1416.4</ele>
        <time>2017-03-17T10:45:38Z</time>
      </trkpt>
      <trkpt lat="45.87762" lon="6.42508">
        <ele>1417.6</ele>
        <time>2017-03-17T10:45:48Z</time>
      </trkpt>
      <trkpt lat="45.87762" lon="6.42512">
        <ele>1418</ele>
        <time>2017-03-17T10:45:53Z</time>
      </trkpt>
      <trkpt lat="45.87762" lon="6.42515">
        <ele>1419.4</ele>
        <time>2017-03-17T10:45:58Z</time>
      </trkpt>
      <trkpt lat="45.87762" lon="6.42519">
        <ele>1421.2</ele>
        <time>2017-03-17T10:46:03Z</time>
      </trkpt>
      <trkpt lat="45.87761" lon="6.42523">
        <ele>1422.8</ele>
        <time>2017-03-17T10:46:08Z</time>
      </trkpt>
      <trkpt lat="45.8776" lon="6.42526">
        <ele>1422</ele>
        <time>2017-03-17T10:46:13Z</time>
      </trkpt>
      <trkpt lat="45.87759" lon="6.4253">
        <ele>1422</ele>
        <time>2017-03-17T10:46:18Z</time>
      </trkpt>
      <trkpt lat="45.87758" lon="6.42533">
        <ele>1425.2</ele>
        <time>2017-03-17T10:46:23Z</time>
      </trkpt>
      <trkpt lat="45.87757" lon="6.42536">
        <ele>1423.8</ele>
        <time>2017-03-17T10:46:28Z</time>
      </trkpt>
      <trkpt lat="45.87756" lon="6.42539">
        <ele>1426.8</ele>
        <time>2017-03-17T10:46:33Z</time>
      </trkpt>
      <trkpt lat="45.87755" lon="6.42542">
        <ele>1426.4</ele>
        <time>2017-03-17T10:46:38Z</time>
      </trkpt>
      <trkpt lat="45.87755" lon="6.42546">
        <ele>1426.8</ele>
        <time>2017-03-17T10:46:43Z</time>
      </trkpt>
      <trkpt lat="45.87754" lon="6.42549">
        <ele>1428.4</ele>
        <time>2017-03-17T10:46:48Z</time>
      </trkpt>
      <trkpt lat="45.87753" lon="6.42552">
        <ele>1428</ele>
        <time>2017-03-17T10:46:53Z</time>
      </trkpt>
      <trkpt lat="45.87753" lon="6.42556">
        <ele>1428.6</ele>
        <time>2017-03-17T10:46:58Z</time>
      </trkpt>
      <trkpt lat="45.87752" lon="6.42559">
        <ele>1429.2</ele>
        <time>2017-03-17T10:47:03Z</time>
      </trkpt>
      <trkpt lat="45.87752" lon="6.42562">
        <ele>1431</ele>
        <time>2017-03-17T10:47:08Z</time>
      </trkpt>
      <trkpt lat="45.87752" lon="6.42565">
        <ele>1429.8</ele>
        <time>2017-03-17T10:47:33Z</time>
      </trkpt>
      <trkpt lat="45.87754" lon="6.42566">
        <ele>1430</ele>
        <time>2017-03-17T10:47:38Z</time>
      </trkpt>
      <trkpt lat="45.87754" lon="6.42566">
        <ele>1430.2</ele>
        <time>2017-03-17T10:47:43Z</time>
      </trkpt>
      <trkpt lat="45.87754" lon="6.42566">
        <ele>1430.6</ele>
        <time>2017-03-17T10:47:58Z</time>
      </trkpt>
      <trkpt lat="45.87755" lon="6.42568">
        <ele>1430</ele>
        <time>2017-03-17T10:48:03Z</time>
      </trkpt>
      <trkpt lat="45.87756" lon="6.42567">
        <ele>1430</ele>
        <time>2017-03-17T10:48:08Z</time>
      </trkpt>
      <trkpt lat="45.87756" lon="6.42566">
        <ele>1428</ele>
        <time>2017-03-17T10:48:13Z</time>
      </trkpt>
      <trkpt lat="45.87756" lon="6.42565">
        <ele>1429</ele>
        <time>2017-03-17T10:48:18Z</time>
      </trkpt>
      <trkpt lat="45.87755" lon="6.42565">
        <ele>1430.8</ele>
        <time>2017-03-17T10:48:23Z</time>
      </trkpt>
      <trkpt lat="45.87754" lon="6.42564">
        <ele>1433</ele>
        <time>2017-03-17T10:48:34Z</time>
      </trkpt>
      <trkpt lat="45.87754" lon="6.42564">
        <ele>1432.4</ele>
        <time>2017-03-17T10:48:44Z</time>
      </trkpt>
      <trkpt lat="45.87752" lon="6.42566">
        <ele>1432.2</ele>
        <time>2017-03-17T10:48:50Z</time>
      </trkpt>
      <trkpt lat="45.87752" lon="6.42566">
        <ele>1434</ele>
        <time>2017-03-17T10:48:55Z</time>
      </trkpt>
      <trkpt lat="45.87752" lon="6.42566">
        <ele>1433.8</ele>
        <time>2017-03-17T10:49:00Z</time>
      </trkpt>
      <trkpt lat="45.87751" lon="6.42567">
        <ele>1435</ele>
        <time>2017-03-17T10:49:25Z</time>
      </trkpt>
      <trkpt lat="45.87751" lon="6.42567">
        <ele>1433.4</ele>
        <time>2017-03-17T10:50:30Z</time>
      </trkpt>
      <trkpt lat="45.87751" lon="6.42568">
        <ele>1433.2</ele>
        <time>2017-03-17T10:50:35Z</time>
      </trkpt>
      <trkpt lat="45.87751" lon="6.42569">
        <ele>1433.2</ele>
        <time>2017-03-17T10:50:40Z</time>
      </trkpt>
      <trkpt lat="45.8775" lon="6.42568">
        <ele>1432.4</ele>
        <time>2017-03-17T10:50:45Z</time>
      </trkpt>
      <trkpt lat="45.8775" lon="6.42568">
        <ele>1432.4</ele>
        <time>2017-03-17T10:50:50Z</time>
      </trkpt>
      <trkpt lat="45.8775" lon="6.42568">
        <ele>1432.6</ele>
        <time>2017-03-17T10:50:55Z</time>
      </trkpt>
      <trkpt lat="45.87748" lon="6.42567">
        <ele>1436.4</ele>
        <time>2017-03-17T10:51:00Z</time>
      </trkpt>
      <trkpt lat="45.87746" lon="6.42565">
        <ele>1434.8</ele>
        <time>2017-03-17T10:51:05Z</time>
      </trkpt>
      <trkpt lat="45.87743" lon="6.42564">
        <ele>1436.4</ele>
        <time>2017-03-17T10:51:10Z</time>
      </trkpt>
      <trkpt lat="45.8774" lon="6.42562">
        <ele>1435.6</ele>
        <time>2017-03-17T10:51:15Z</time>
      </trkpt>
      <trkpt lat="45.87737" lon="6.42561">
        <ele>1436</ele>
        <time>2017-03-17T10:51:20Z</time>
      </trkpt>
      <trkpt lat="45.87735" lon="6.42559">
        <ele>1435.6</ele>
        <time>2017-03-17T10:51:25Z</time>
      </trkpt>
      <trkpt lat="45.87732" lon="6.42557">
        <ele>1436.6</ele>
        <time>2017-03-17T10:51:30Z</time>
      </trkpt>
      <trkpt lat="45.87729" lon="6.42556">
        <ele>1437.6</ele>
        <time>2017-03-17T10:51:35Z</time>
      </trkpt>
      <trkpt lat="45.87726" lon="6.42555">
        <ele>1437</ele>
        <time>2017-03-17T10:51:40Z</time>
      </trkpt>
      <trkpt lat="45.87723" lon="6.42554">
        <ele>1439.2</ele>
        <time>2017-03-17T10:51:45Z</time>
      </trkpt>
      <trkpt lat="45.8772" lon="6.42553">
        <ele>1439.6</ele>
        <time>2017-03-17T10:51:50Z</time>
      </trkpt>
      <trkpt lat="45.87717" lon="6.42551">
        <ele>1438.6</ele>
        <time>2017-03-17T10:51:55Z</time>
      </trkpt>
      <trkpt lat="45.87714" lon="6.4255">
        <ele>1440.8</ele>
        <time>2017-03-17T10:52:00Z</time>
      </trkpt>
      <trkpt lat="45.87712" lon="6.42549">
        <ele>1440.4</ele>
        <time>2017-03-17T10:52:05Z</time>
      </trkpt>
      <trkpt lat="45.87709" lon="6.42547">
        <ele>1441.6</ele>
        <time>2017-03-17T10:52:10Z</time>
      </trkpt>
      <trkpt lat="45.87706" lon="6.42546">
        <ele>1443</ele>
        <time>2017-03-17T10:52:15Z</time>
      </trkpt>
      <trkpt lat="45.87702" lon="6.42544">
        <ele>1443.8</ele>
        <time>2017-03-17T10:52:20Z</time>
      </trkpt>
      <trkpt lat="45.87699" lon="6.42543">
        <ele>1444.2</ele>
        <time>2017-03-17T10:52:25Z</time>
      </trkpt>
      <trkpt lat="45.87696" lon="6.42541">
        <ele>1445.6</ele>
        <time>2017-03-17T10:52:30Z</time>
      </trkpt>
      <trkpt lat="45.87693" lon="6.4254">
        <ele>1444.4</ele>
        <time>2017-03-17T10:52:35Z</time>
      </trkpt>
      <trkpt lat="45.87691" lon="6.42538">
        <ele>1445.2</ele>
        <time>2017-03-17T10:52:40Z</time>
      </trkpt>
      <trkpt lat="45.87689" lon="6.42537">
        <ele>1446.4</ele>
        <time>2017-03-17T10:52:45Z</time>
      </trkpt>
      <trkpt lat="45.87686" lon="6.42535">
        <ele>1447</ele>
        <time>2017-03-17T10:52:50Z</time>
      </trkpt>
      <trkpt lat="45.87683" lon="6.42534">
        <ele>1446.6</ele>
        <time>2017-03-17T10:52:55Z</time>
      </trkpt>
      <trkpt lat="45.87681" lon="6.42533">
        <ele>1446.4</ele>
        <time>2017-03-17T10:53:00Z</time>
      </trkpt>
      <trkpt lat="45.87678" lon="6.42532">
        <ele>1449.4</ele>
        <time>2017-03-17T10:53:05Z</time>
      </trkpt>
      <trkpt lat="45.87675" lon="6.42531">
        <ele>1449.4</ele>
        <time>2017-03-17T10:53:10Z</time>
      </trkpt>
      <trkpt lat="45.87672" lon="6.4253">
        <ele>1453</ele>
        <time>2017-03-17T10:53:15Z</time>
      </trkpt>
      <trkpt lat="45.8767" lon="6.42529">
        <ele>1452.2</ele>
        <time>2017-03-17T10:53:20Z</time>
      </trkpt>
      <trkpt lat="45.87667" lon="6.42529">
        <ele>1453.6</ele>
        <time>2017-03-17T10:53:25Z</time>
      </trkpt>
      <trkpt lat="45.87665" lon="6.42528">
        <ele>1450.4</ele>
        <time>2017-03-17T10:53:30Z</time>
      </trkpt>
      <trkpt lat="45.87662" lon="6.42527">
        <ele>1453.2</ele>
        <time>2017-03-17T10:53:35Z</time>
      </trkpt>
      <trkpt lat="45.87659" lon="6.42526">
        <ele>1452.8</ele>
        <time>2017-03-17T10:53:40Z</time>
      </trkpt>
      <trkpt lat="45.87656" lon="6.42525">
        <ele>1451.4</ele>
        <time>2017-03-17T10:53:45Z</time>
      </trkpt>
      <trkpt lat="45.87653" lon="6.42524">
        <ele>1453</ele>
        <time>2017-03-17T10:53:50Z</time>
      </trkpt>
      <trkpt lat="45.8765" lon="6.42523">
        <ele>1455.2</ele>
        <time>2017-03-17T10:53:55Z</time>
      </trkpt>
      <trkpt lat="45.87647" lon="6.42523">
        <ele>1452.8</ele>
        <time>2017-03-17T10:54:00Z</time>
      </trkpt>
      <trkpt lat="45.87644" lon="6.42522">
        <ele>1454.4</ele>
        <time>2017-03-17T10:54:05Z</time>
      </trkpt>
      <trkpt lat="45.87641" lon="6.42522">
        <ele>1453.8</ele>
        <time>2017-03-17T10:54:10Z</time>
      </trkpt>
      <trkpt lat="45.87638" lon="6.42522">
        <ele>1453.8</ele>
        <time>2017-03-17T10:54:15Z</time>
      </trkpt>
      <trkpt lat="45.87635" lon="6.42522">
        <ele>1456.4</ele>
        <time>2017-03-17T10:54:20Z</time>
      </trkpt>
      <trkpt lat="45.87632" lon="6.42521">
        <ele>1455.2</ele>
        <time>2017-03-17T10:54:25Z</time>
      </trkpt>
      <trkpt lat="45.87629" lon="6.42521">
        <ele>1455.4</ele>
        <time>2017-03-17T10:54:30Z</time>
      </trkpt>
      <trkpt lat="45.87627" lon="6.42521">
        <ele>1459.8</ele>
        <time>2017-03-17T10:54:35Z</time>
      </trkpt>
      <trkpt lat="45.87623" lon="6.4252">
        <ele>1458.8</ele>
        <time>2017-03-17T10:54:40Z</time>
      </trkpt>
      <trkpt lat="45.8762" lon="6.4252">
        <ele>1458.8</ele>
        <time>2017-03-17T10:54:45Z</time>
      </trkpt>
      <trkpt lat="45.87617" lon="6.42519">
        <ele>1460.8</ele>
        <time>2017-03-17T10:54:50Z</time>
      </trkpt>
      <trkpt lat="45.87614" lon="6.42519">
        <ele>1460.6</ele>
        <time>2017-03-17T10:54:55Z</time>
      </trkpt>
      <trkpt lat="45.87611" lon="6.42518">
        <ele>1460.8</ele>
        <time>2017-03-17T10:55:00Z</time>
      </trkpt>
      <trkpt lat="45.87608" lon="6.42518">
        <ele>1460.8</ele>
        <time>2017-03-17T10:55:05Z</time>
      </trkpt>
      <trkpt lat="45.87605" lon="6.42518">
        <ele>1464.4</ele>
        <time>2017-03-17T10:55:10Z</time>
      </trkpt>
      <trkpt lat="45.87602" lon="6.42518">
        <ele>1462</ele>
        <time>2017-03-17T10:55:15Z</time>
      </trkpt>
      <trkpt lat="45.87599" lon="6.42517">
        <ele>1463</ele>
        <time>2017-03-17T10:55:20Z</time>
      </trkpt>
      <trkpt lat="45.87596" lon="6.42518">
        <ele>1463.6</ele>
        <time>2017-03-17T10:55:25Z</time>
      </trkpt>
      <trkpt lat="45.87593" lon="6.42518">
        <ele>1465</ele>
        <time>2017-03-17T10:55:30Z</time>
      </trkpt>
      <trkpt lat="45.8759" lon="6.42517">
        <ele>1466.6</ele>
        <time>2017-03-17T10:55:35Z</time>
      </trkpt>
      <trkpt lat="45.8758" lon="6.42517">
        <ele>1464.6</ele>
        <time>2017-03-17T10:55:50Z</time>
      </trkpt>
      <trkpt lat="45.87577" lon="6.42517">
        <ele>1466.6</ele>
        <time>2017-03-17T10:55:55Z</time>
      </trkpt>
      <trkpt lat="45.87574" lon="6.42517">
        <ele>1470.2</ele>
        <time>2017-03-17T10:56:00Z</time>
      </trkpt>
      <trkpt lat="45.8757" lon="6.42516">
        <ele>1465</ele>
        <time>2017-03-17T10:56:05Z</time>
      </trkpt>
      <trkpt lat="45.87567" lon="6.42517">
        <ele>1467.6</ele>
        <time>2017-03-17T10:56:10Z</time>
      </trkpt>
      <trkpt lat="45.87564" lon="6.42517">
        <ele>1470.8</ele>
        <time>2017-03-17T10:56:15Z</time>
      </trkpt>
      <trkpt lat="45.8756" lon="6.42517">
        <ele>1469.6</ele>
        <time>2017-03-17T10:56:20Z</time>
      </trkpt>
      <trkpt lat="45.87557" lon="6.42517">
        <ele>1469.6</ele>
        <time>2017-03-17T10:56:25Z</time>
      </trkpt>
      <trkpt lat="45.8755" lon="6.42517">
        <ele>1474.8</ele>
        <time>2017-03-17T10:56:35Z</time>
      </trkpt>
      <trkpt lat="45.87547" lon="6.42517">
        <ele>1472.8</ele>
        <time>2017-03-17T10:56:40Z</time>
      </trkpt>
      <trkpt lat="45.87544" lon="6.42517">
        <ele>1472.4</ele>
        <time>2017-03-17T10:56:45Z</time>
      </trkpt>
      <trkpt lat="45.87543" lon="6.42518">
        <ele>1472.4</ele>
        <time>2017-03-17T10:56:50Z</time>
      </trkpt>
      <trkpt lat="45.87542" lon="6.42517">
        <ele>1469.8</ele>
        <time>2017-03-17T10:56:55Z</time>
      </trkpt>
      <trkpt lat="45.87539" lon="6.42516">
        <ele>1469.8</ele>
        <time>2017-03-17T10:57:00Z</time>
      </trkpt>
      <trkpt lat="45.87536" lon="6.42517">
        <ele>1471</ele>
        <time>2017-03-17T10:57:05Z</time>
      </trkpt>
      <trkpt lat="45.87534" lon="6.42517">
        <ele>1473.6</ele>
        <time>2017-03-17T10:57:10Z</time>
      </trkpt>
      <trkpt lat="45.87531" lon="6.42517">
        <ele>1474.4</ele>
        <time>2017-03-17T10:57:15Z</time>
      </trkpt>
      <trkpt lat="45.87528" lon="6.42518">
        <ele>1475.8</ele>
        <time>2017-03-17T10:57:20Z</time>
      </trkpt>
      <trkpt lat="45.87521" lon="6.42518">
        <ele>1476.8</ele>
        <time>2017-03-17T10:57:30Z</time>
      </trkpt>
      <trkpt lat="45.87519" lon="6.42518">
        <ele>1477.8</ele>
        <time>2017-03-17T10:57:35Z</time>
      </trkpt>
      <trkpt lat="45.87516" lon="6.42517">
        <ele>1477.4</ele>
        <time>2017-03-17T10:57:40Z</time>
      </trkpt>
      <trkpt lat="45.87513" lon="6.42517">
        <ele>1478.8</ele>
        <time>2017-03-17T10:57:45Z</time>
      </trkpt>
      <trkpt lat="45.8751" lon="6.42517">
        <ele>1478.4</ele>
        <time>2017-03-17T10:57:50Z</time>
      </trkpt>
      <trkpt lat="45.87508" lon="6.42516">
        <ele>1480.8</ele>
        <time>2017-03-17T10:57:55Z</time>
      </trkpt>
      <trkpt lat="45.87505" lon="6.42515">
        <ele>1481.6</ele>
        <time>2017-03-17T10:58:00Z</time>
      </trkpt>
      <trkpt lat="45.87503" lon="6.42514">
        <ele>1482.8</ele>
        <time>2017-03-17T10:58:05Z</time>
      </trkpt>
      <trkpt lat="45.875" lon="6.42513">
        <ele>1483.2</ele>
        <time>2017-03-17T10:58:10Z</time>
      </trkpt>
      <trkpt lat="45.87497" lon="6.42513">
        <ele>1483.6</ele>
        <time>2017-03-17T10:58:15Z</time>
      </trkpt>
      <trkpt lat="45.87494" lon="6.42513">
        <ele>1484.2</ele>
        <time>2017-03-17T10:58:25Z</time>
      </trkpt>
      <trkpt lat="45.87493" lon="6.42516">
        <ele>1486.2</ele>
        <time>2017-03-17T10:58:30Z</time>
      </trkpt>
      <trkpt lat="45.87493" lon="6.42519">
        <ele>1488</ele>
        <time>2017-03-17T10:58:35Z</time>
      </trkpt>
      <trkpt lat="45.87494" lon="6.4252">
        <ele>1487.2</ele>
        <time>2017-03-17T10:58:40Z</time>
      </trkpt>
      <trkpt lat="45.87494" lon="6.42521">
        <ele>1487</ele>
        <time>2017-03-17T10:58:45Z</time>
      </trkpt>
      <trkpt lat="45.87493" lon="6.42521">
        <ele>1486.6</ele>
        <time>2017-03-17T10:59:00Z</time>
      </trkpt>
      <trkpt lat="45.87493" lon="6.42521">
        <ele>1486</ele>
        <time>2017-03-17T10:59:25Z</time>
      </trkpt>
      <trkpt lat="45.87493" lon="6.42521">
        <ele>1486</ele>
        <time>2017-03-17T10:59:31Z</time>
      </trkpt>
      <trkpt lat="45.87493" lon="6.42521">
        <ele>1486</ele>
        <time>2017-03-17T10:59:36Z</time>
      </trkpt>
      <trkpt lat="45.87493" lon="6.42521">
        <ele>1486</ele>
        <time>2017-03-17T10:59:46Z</time>
      </trkpt>
      <trkpt lat="45.87493" lon="6.42521">
        <ele>1486</ele>
        <time>2017-03-17T10:59:51Z</time>
      </trkpt>
      <trkpt lat="45.87493" lon="6.42521">
        <ele>1486.2</ele>
        <time>2017-03-17T11:00:26Z</time>
      </trkpt>
      <trkpt lat="45.87493" lon="6.42522">
        <ele>1487.6</ele>
        <time>2017-03-17T11:00:31Z</time>
      </trkpt>
      <trkpt lat="45.87493" lon="6.42524">
        <ele>1486.2</ele>
        <time>2017-03-17T11:00:36Z</time>
      </trkpt>
      <trkpt lat="45.87493" lon="6.42524">
        <ele>1486.4</ele>
        <time>2017-03-17T11:00:41Z</time>
      </trkpt>
      <trkpt lat="45.87492" lon="6.42526">
        <ele>1486</ele>
        <time>2017-03-17T11:00:51Z</time>
      </trkpt>
      <trkpt lat="45.87492" lon="6.42525">
        <ele>1486.4</ele>
        <time>2017-03-17T11:00:56Z</time>
      </trkpt>
      <trkpt lat="45.87492" lon="6.42525">
        <ele>1487</ele>
        <time>2017-03-17T11:01:36Z</time>
      </trkpt>
      <trkpt lat="45.87492" lon="6.42528">
        <ele>1488.2</ele>
        <time>2017-03-17T11:01:41Z</time>
      </trkpt>
      <trkpt lat="45.87491" lon="6.42532">
        <ele>1486.8</ele>
        <time>2017-03-17T11:01:46Z</time>
      </trkpt>
      <trkpt lat="45.87492" lon="6.42536">
        <ele>1489.2</ele>
        <time>2017-03-17T11:01:51Z</time>
      </trkpt>
      <trkpt lat="45.87492" lon="6.4254">
        <ele>1488.2</ele>
        <time>2017-03-17T11:01:56Z</time>
      </trkpt>
      <trkpt lat="45.87492" lon="6.42544">
        <ele>1489.8</ele>
        <time>2017-03-17T11:02:01Z</time>
      </trkpt>
      <trkpt lat="45.87492" lon="6.42548">
        <ele>1491.6</ele>
        <time>2017-03-17T11:02:06Z</time>
      </trkpt>
      <trkpt lat="45.87492" lon="6.42553">
        <ele>1493</ele>
        <time>2017-03-17T11:02:11Z</time>
      </trkpt>
      <trkpt lat="45.87493" lon="6.42556">
        <ele>1491.8</ele>
        <time>2017-03-17T11:02:16Z</time>
      </trkpt>
      <trkpt lat="45.87493" lon="6.42563">
        <ele>1493.4</ele>
        <time>2017-03-17T11:02:26Z</time>
      </trkpt>
      <trkpt lat="45.87493" lon="6.42567">
        <ele>1494.6</ele>
        <time>2017-03-17T11:02:31Z</time>
      </trkpt>
      <trkpt lat="45.87493" lon="6.4257">
        <ele>1497</ele>
        <time>2017-03-17T11:02:36Z</time>
      </trkpt>
      <trkpt lat="45.87493" lon="6.42573">
        <ele>1495.8</ele>
        <time>2017-03-17T11:02:41Z</time>
      </trkpt>
      <trkpt lat="45.87494" lon="6.42577">
        <ele>1497.8</ele>
        <time>2017-03-17T11:02:46Z</time>
      </trkpt>
      <trkpt lat="45.87494" lon="6.42585">
        <ele>1496.6</ele>
        <time>2017-03-17T11:02:57Z</time>
      </trkpt>
      <trkpt lat="45.87494" lon="6.42589">
        <ele>1499</ele>
        <time>2017-03-17T11:03:02Z</time>
      </trkpt>
      <trkpt lat="45.87494" lon="6.42592">
        <ele>1498.6</ele>
        <time>2017-03-17T11:03:07Z</time>
      </trkpt>
      <trkpt lat="45.87494" lon="6.42596">
        <ele>1502</ele>
        <time>2017-03-17T11:03:12Z</time>
      </trkpt>
      <trkpt lat="45.87495" lon="6.426">
        <ele>1498.8</ele>
        <time>2017-03-17T11:03:17Z</time>
      </trkpt>
      <trkpt lat="45.87495" lon="6.42603">
        <ele>1500.2</ele>
        <time>2017-03-17T11:03:22Z</time>
      </trkpt>
      <trkpt lat="45.87495" lon="6.42606">
        <ele>1500</ele>
        <time>2017-03-17T11:03:27Z</time>
      </trkpt>
      <trkpt lat="45.87495" lon="6.4261">
        <ele>1501.8</ele>
        <time>2017-03-17T11:03:32Z</time>
      </trkpt>
      <trkpt lat="45.87496" lon="6.42613">
        <ele>1504.2</ele>
        <time>2017-03-17T11:03:37Z</time>
      </trkpt>
      <trkpt lat="45.87496" lon="6.42616">
        <ele>1499.6</ele>
        <time>2017-03-17T11:03:42Z</time>
      </trkpt>
      <trkpt lat="45.87495" lon="6.42617">
        <ele>1503.6</ele>
        <time>2017-03-17T11:03:47Z</time>
      </trkpt>
      <trkpt lat="45.87493" lon="6.42617">
        <ele>1503.6</ele>
        <time>2017-03-17T11:03:52Z</time>
      </trkpt>
      <trkpt lat="45.87491" lon="6.42618">
        <ele>1504.8</ele>
        <time>2017-03-17T11:03:57Z</time>
      </trkpt>
      <trkpt lat="45.87489" lon="6.42619">
        <ele>1503.8</ele>
        <time>2017-03-17T11:04:02Z</time>
      </trkpt>
      <trkpt lat="45.87489" lon="6.42618">
        <ele>1504</ele>
        <time>2017-03-17T11:04:07Z</time>
      </trkpt>
      <trkpt lat="45.87488" lon="6.42619">
        <ele>1506</ele>
        <time>2017-03-17T11:04:17Z</time>
      </trkpt>
      <trkpt lat="45.87486" lon="6.42619">
        <ele>1508</ele>
        <time>2017-03-17T11:04:22Z</time>
      </trkpt>
      <trkpt lat="45.87477" lon="6.4262">
        <ele>1507.2</ele>
        <time>2017-03-17T11:04:37Z</time>
      </trkpt>
      <trkpt lat="45.87474" lon="6.4262">
        <ele>1507</ele>
        <time>2017-03-17T11:04:42Z</time>
      </trkpt>
      <trkpt lat="45.87471" lon="6.42621">
        <ele>1507.6</ele>
        <time>2017-03-17T11:04:47Z</time>
      </trkpt>
      <trkpt lat="45.87468" lon="6.42621">
        <ele>1507</ele>
        <time>2017-03-17T11:04:52Z</time>
      </trkpt>
      <trkpt lat="45.87466" lon="6.42622">
        <ele>1508.4</ele>
        <time>2017-03-17T11:04:57Z</time>
      </trkpt>
      <trkpt lat="45.87463" lon="6.42624">
        <ele>1511</ele>
        <time>2017-03-17T11:05:02Z</time>
      </trkpt>
      <trkpt lat="45.87461" lon="6.42625">
        <ele>1511.8</ele>
        <time>2017-03-17T11:05:07Z</time>
      </trkpt>
      <trkpt lat="45.87458" lon="6.42626">
        <ele>1512.2</ele>
        <time>2017-03-17T11:05:12Z</time>
      </trkpt>
      <trkpt lat="45.87455" lon="6.42628">
        <ele>1511.2</ele>
        <time>2017-03-17T11:05:17Z</time>
      </trkpt>
      <trkpt lat="45.87452" lon="6.4263">
        <ele>1510.2</ele>
        <time>2017-03-17T11:05:22Z</time>
      </trkpt>
      <trkpt lat="45.87449" lon="6.42631">
        <ele>1513.4</ele>
        <time>2017-03-17T11:05:27Z</time>
      </trkpt>
      <trkpt lat="45.87447" lon="6.42633">
        <ele>1512</ele>
        <time>2017-03-17T11:05:32Z</time>
      </trkpt>
      <trkpt lat="45.87444" lon="6.42633">
        <ele>1514.2</ele>
        <time>2017-03-17T11:05:37Z</time>
      </trkpt>
      <trkpt lat="45.87442" lon="6.42634">
        <ele>1513</ele>
        <time>2017-03-17T11:05:42Z</time>
      </trkpt>
      <trkpt lat="45.87441" lon="6.42634">
        <ele>1514.2</ele>
        <time>2017-03-17T11:05:47Z</time>
      </trkpt>
      <trkpt lat="45.87438" lon="6.42634">
        <ele>1514.6</ele>
        <time>2017-03-17T11:05:52Z</time>
      </trkpt>
      <trkpt lat="45.87435" lon="6.42635">
        <ele>1514.2</ele>
        <time>2017-03-17T11:05:57Z</time>
      </trkpt>
      <trkpt lat="45.87434" lon="6.42639">
        <ele>1516.6</ele>
        <time>2017-03-17T11:06:02Z</time>
      </trkpt>
      <trkpt lat="45.87435" lon="6.42642">
        <ele>1516.6</ele>
        <time>2017-03-17T11:06:07Z</time>
      </trkpt>
      <trkpt lat="45.87436" lon="6.42645">
        <ele>1516.2</ele>
        <time>2017-03-17T11:06:12Z</time>
      </trkpt>
      <trkpt lat="45.87436" lon="6.42648">
        <ele>1518.8</ele>
        <time>2017-03-17T11:06:17Z</time>
      </trkpt>
      <trkpt lat="45.87436" lon="6.42652">
        <ele>1519.6</ele>
        <time>2017-03-17T11:06:22Z</time>
      </trkpt>
      <trkpt lat="45.87436" lon="6.42655">
        <ele>1518.8</ele>
        <time>2017-03-17T11:06:27Z</time>
      </trkpt>
      <trkpt lat="45.87437" lon="6.42658">
        <ele>1520.2</ele>
        <time>2017-03-17T11:06:32Z</time>
      </trkpt>
      <trkpt lat="45.87437" lon="6.42662">
        <ele>1520.2</ele>
        <time>2017-03-17T11:06:37Z</time>
      </trkpt>
      <trkpt lat="45.87438" lon="6.42665">
        <ele>1523.2</ele>
        <time>2017-03-17T11:06:42Z</time>
      </trkpt>
      <trkpt lat="45.87438" lon="6.42669">
        <ele>1520.6</ele>
        <time>2017-03-17T11:06:47Z</time>
      </trkpt>
      <trkpt lat="45.87438" lon="6.42672">
        <ele>1522</ele>
        <time>2017-03-17T11:06:52Z</time>
      </trkpt>
      <trkpt lat="45.87439" lon="6.42676">
        <ele>1524.8</ele>
        <time>2017-03-17T11:06:57Z</time>
      </trkpt>
      <trkpt lat="45.87439" lon="6.42679">
        <ele>1522.6</ele>
        <time>2017-03-17T11:07:02Z</time>
      </trkpt>
      <trkpt lat="45.8744" lon="6.42683">
        <ele>1523</ele>
        <time>2017-03-17T11:07:07Z</time>
      </trkpt>
      <trkpt lat="45.8744" lon="6.42687">
        <ele>1526.2</ele>
        <time>2017-03-17T11:07:12Z</time>
      </trkpt>
      <trkpt lat="45.87441" lon="6.4269">
        <ele>1525.4</ele>
        <time>2017-03-17T11:07:17Z</time>
      </trkpt>
      <trkpt lat="45.87442" lon="6.42694">
        <ele>1526.2</ele>
        <time>2017-03-17T11:07:22Z</time>
      </trkpt>
      <trkpt lat="45.87443" lon="6.42697">
        <ele>1526.6</ele>
        <time>2017-03-17T11:07:27Z</time>
      </trkpt>
      <trkpt lat="45.87444" lon="6.42701">
        <ele>1525.8</ele>
        <time>2017-03-17T11:07:32Z</time>
      </trkpt>
      <trkpt lat="45.87445" lon="6.42704">
        <ele>1527.2</ele>
        <time>2017-03-17T11:07:37Z</time>
      </trkpt>
      <trkpt lat="45.87445" lon="6.42708">
        <ele>1527.2</ele>
        <time>2017-03-17T11:07:42Z</time>
      </trkpt>
      <trkpt lat="45.87445" lon="6.42712">
        <ele>1531.4</ele>
        <time>2017-03-17T11:07:47Z</time>
      </trkpt>
      <trkpt lat="45.87446" lon="6.42716">
        <ele>1531</ele>
        <time>2017-03-17T11:07:52Z</time>
      </trkpt>
      <trkpt lat="45.87446" lon="6.4272">
        <ele>1529.8</ele>
        <time>2017-03-17T11:07:57Z</time>
      </trkpt>
      <trkpt lat="45.87447" lon="6.42724">
        <ele>1533.4</ele>
        <time>2017-03-17T11:08:02Z</time>
      </trkpt>
      <trkpt lat="45.87447" lon="6.42727">
        <ele>1531.2</ele>
        <time>2017-03-17T11:08:07Z</time>
      </trkpt>
      <trkpt lat="45.87446" lon="6.42731">
        <ele>1532.2</ele>
        <time>2017-03-17T11:08:12Z</time>
      </trkpt>
      <trkpt lat="45.87447" lon="6.42739">
        <ele>1532</ele>
        <time>2017-03-17T11:08:22Z</time>
      </trkpt>
      <trkpt lat="45.87446" lon="6.42743">
        <ele>1532.6</ele>
        <time>2017-03-17T11:08:27Z</time>
      </trkpt>
      <trkpt lat="45.87446" lon="6.42747">
        <ele>1533.4</ele>
        <time>2017-03-17T11:08:32Z</time>
      </trkpt>
      <trkpt lat="45.87445" lon="6.42751">
        <ele>1533</ele>
        <time>2017-03-17T11:08:37Z</time>
      </trkpt>
      <trkpt lat="45.87445" lon="6.42756">
        <ele>1535.2</ele>
        <time>2017-03-17T11:08:42Z</time>
      </trkpt>
      <trkpt lat="45.87445" lon="6.4276">
        <ele>1535.6</ele>
        <time>2017-03-17T11:08:47Z</time>
      </trkpt>
      <trkpt lat="45.87444" lon="6.42764">
        <ele>1536.2</ele>
        <time>2017-03-17T11:08:52Z</time>
      </trkpt>
      <trkpt lat="45.87443" lon="6.42768">
        <ele>1537.6</ele>
        <time>2017-03-17T11:08:57Z</time>
      </trkpt>
      <trkpt lat="45.87443" lon="6.42773">
        <ele>1538.4</ele>
        <time>2017-03-17T11:09:02Z</time>
      </trkpt>
      <trkpt lat="45.87442" lon="6.42777">
        <ele>1537</ele>
        <time>2017-03-17T11:09:07Z</time>
      </trkpt>
      <trkpt lat="45.87441" lon="6.42782">
        <ele>1535.8</ele>
        <time>2017-03-17T11:09:12Z</time>
      </trkpt>
      <trkpt lat="45.8744" lon="6.42786">
        <ele>1539</ele>
        <time>2017-03-17T11:09:17Z</time>
      </trkpt>
      <trkpt lat="45.87438" lon="6.4279">
        <ele>1542.2</ele>
        <time>2017-03-17T11:09:22Z</time>
      </trkpt>
      <trkpt lat="45.87436" lon="6.42794">
        <ele>1541.4</ele>
        <time>2017-03-17T11:09:27Z</time>
      </trkpt>
      <trkpt lat="45.87434" lon="6.42798">
        <ele>1540.6</ele>
        <time>2017-03-17T11:09:32Z</time>
      </trkpt>
      <trkpt lat="45.87431" lon="6.42802">
        <ele>1538.8</ele>
        <time>2017-03-17T11:09:37Z</time>
      </trkpt>
      <trkpt lat="45.87429" lon="6.42807">
        <ele>1543.4</ele>
        <time>2017-03-17T11:09:42Z</time>
      </trkpt>
      <trkpt lat="45.87426" lon="6.42811">
        <ele>1540.2</ele>
        <time>2017-03-17T11:09:47Z</time>
      </trkpt>
      <trkpt lat="45.87424" lon="6.42814">
        <ele>1541.2</ele>
        <time>2017-03-17T11:09:52Z</time>
      </trkpt>
      <trkpt lat="45.87423" lon="6.42819">
        <ele>1542.8</ele>
        <time>2017-03-17T11:09:57Z</time>
      </trkpt>
      <trkpt lat="45.87422" lon="6.42825">
        <ele>1540.8</ele>
        <time>2017-03-17T11:10:02Z</time>
      </trkpt>
      <trkpt lat="45.87422" lon="6.42826">
        <ele>1542.2</ele>
        <time>2017-03-17T11:10:07Z</time>
      </trkpt>
      <trkpt lat="45.87421" lon="6.42829">
        <ele>1543.4</ele>
        <time>2017-03-17T11:10:12Z</time>
      </trkpt>
      <trkpt lat="45.8742" lon="6.42835">
        <ele>1542</ele>
        <time>2017-03-17T11:10:17Z</time>
      </trkpt>
      <trkpt lat="45.8742" lon="6.42841">
        <ele>1542.2</ele>
        <time>2017-03-17T11:10:22Z</time>
      </trkpt>
      <trkpt lat="45.87419" lon="6.42847">
        <ele>1537.8</ele>
        <time>2017-03-17T11:10:27Z</time>
      </trkpt>
      <trkpt lat="45.87418" lon="6.42853">
        <ele>1541.6</ele>
        <time>2017-03-17T11:10:32Z</time>
      </trkpt>
      <trkpt lat="45.87416" lon="6.42857">
        <ele>1540.4</ele>
        <time>2017-03-17T11:10:37Z</time>
      </trkpt>
      <trkpt lat="45.87413" lon="6.42861">
        <ele>1540.4</ele>
        <time>2017-03-17T11:10:42Z</time>
      </trkpt>
      <trkpt lat="45.8741" lon="6.42864">
        <ele>1540.6</ele>
        <time>2017-03-17T11:10:47Z</time>
      </trkpt>
      <trkpt lat="45.87407" lon="6.42867">
        <ele>1542.2</ele>
        <time>2017-03-17T11:10:52Z</time>
      </trkpt>
      <trkpt lat="45.87404" lon="6.42869">
        <ele>1542.2</ele>
        <time>2017-03-17T11:10:57Z</time>
      </trkpt>
      <trkpt lat="45.87401" lon="6.42872">
        <ele>1543.4</ele>
        <time>2017-03-17T11:11:02Z</time>
      </trkpt>
      <trkpt lat="45.87398" lon="6.42875">
        <ele>1542</ele>
        <time>2017-03-17T11:11:07Z</time>
      </trkpt>
      <trkpt lat="45.87396" lon="6.42877">
        <ele>1541.2</ele>
        <time>2017-03-17T11:11:12Z</time>
      </trkpt>
      <trkpt lat="45.87393" lon="6.4288">
        <ele>1544.6</ele>
        <time>2017-03-17T11:11:17Z</time>
      </trkpt>
      <trkpt lat="45.87391" lon="6.42882">
        <ele>1545</ele>
        <time>2017-03-17T11:11:22Z</time>
      </trkpt>
      <trkpt lat="45.87388" lon="6.42885">
        <ele>1542.8</ele>
        <time>2017-03-17T11:11:27Z</time>
      </trkpt>
      <trkpt lat="45.87386" lon="6.42887">
        <ele>1544.4</ele>
        <time>2017-03-17T11:11:32Z</time>
      </trkpt>
      <trkpt lat="45.87383" lon="6.42889">
        <ele>1547.6</ele>
        <time>2017-03-17T11:11:37Z</time>
      </trkpt>
      <trkpt lat="45.87382" lon="6.42891">
        <ele>1547.6</ele>
        <time>2017-03-17T11:11:42Z</time>
      </trkpt>
      <trkpt lat="45.87379" lon="6.42893">
        <ele>1547.8</ele>
        <time>2017-03-17T11:11:47Z</time>
      </trkpt>
      <trkpt lat="45.87377" lon="6.42895">
        <ele>1548.4</ele>
        <time>2017-03-17T11:11:52Z</time>
      </trkpt>
      <trkpt lat="45.87374" lon="6.42896">
        <ele>1550</ele>
        <time>2017-03-17T11:11:57Z</time>
      </trkpt>
      <trkpt lat="45.87372" lon="6.42898">
        <ele>1550.2</ele>
        <time>2017-03-17T11:12:02Z</time>
      </trkpt>
      <trkpt lat="45.87372" lon="6.42898">
        <ele>1551.8</ele>
        <time>2017-03-17T11:12:12Z</time>
      </trkpt>
      <trkpt lat="45.8737" lon="6.429">
        <ele>1547.4</ele>
        <time>2017-03-17T11:12:17Z</time>
      </trkpt>
      <trkpt lat="45.87369" lon="6.42902">
        <ele>1551.2</ele>
        <time>2017-03-17T11:12:22Z</time>
      </trkpt>
      <trkpt lat="45.87369" lon="6.42904">
        <ele>1551</ele>
        <time>2017-03-17T11:12:32Z</time>
      </trkpt>
      <trkpt lat="45.8737" lon="6.42911">
        <ele>1555.4</ele>
        <time>2017-03-17T11:12:42Z</time>
      </trkpt>
      <trkpt lat="45.87371" lon="6.42916">
        <ele>1552.4</ele>
        <time>2017-03-17T11:12:47Z</time>
      </trkpt>
      <trkpt lat="45.87372" lon="6.42922">
        <ele>1552.8</ele>
        <time>2017-03-17T11:12:52Z</time>
      </trkpt>
      <trkpt lat="45.87374" lon="6.42927">
        <ele>1552.2</ele>
        <time>2017-03-17T11:12:57Z</time>
      </trkpt>
      <trkpt lat="45.87377" lon="6.42932">
        <ele>1554.4</ele>
        <time>2017-03-17T11:13:02Z</time>
      </trkpt>
      <trkpt lat="45.87379" lon="6.42937">
        <ele>1553.6</ele>
        <time>2017-03-17T11:13:07Z</time>
      </trkpt>
      <trkpt lat="45.87381" lon="6.4294">
        <ele>1552.8</ele>
        <time>2017-03-17T11:13:12Z</time>
      </trkpt>
      <trkpt lat="45.87385" lon="6.42944">
        <ele>1551.4</ele>
        <time>2017-03-17T11:13:17Z</time>
      </trkpt>
      <trkpt lat="45.87388" lon="6.42949">
        <ele>1555.2</ele>
        <time>2017-03-17T11:13:22Z</time>
      </trkpt>
      <trkpt lat="45.8739" lon="6.42955">
        <ele>1552.8</ele>
        <time>2017-03-17T11:13:27Z</time>
      </trkpt>
      <trkpt lat="45.87392" lon="6.4296">
        <ele>1552</ele>
        <time>2017-03-17T11:13:32Z</time>
      </trkpt>
      <trkpt lat="45.87393" lon="6.42966">
        <ele>1554</ele>
        <time>2017-03-17T11:13:37Z</time>
      </trkpt>
      <trkpt lat="45.87393" lon="6.42972">
        <ele>1555</ele>
        <time>2017-03-17T11:13:42Z</time>
      </trkpt>
      <trkpt lat="45.87394" lon="6.42978">
        <ele>1554</ele>
        <time>2017-03-17T11:13:47Z</time>
      </trkpt>
      <trkpt lat="45.87395" lon="6.42984">
        <ele>1555.4</ele>
        <time>2017-03-17T11:13:52Z</time>
      </trkpt>
      <trkpt lat="45.87397" lon="6.4299">
        <ele>1555.4</ele>
        <time>2017-03-17T11:13:57Z</time>
      </trkpt>
      <trkpt lat="45.87398" lon="6.42996">
        <ele>1555.4</ele>
        <time>2017-03-17T11:14:02Z</time>
      </trkpt>
      <trkpt lat="45.874" lon="6.43002">
        <ele>1555.2</ele>
        <time>2017-03-17T11:14:07Z</time>
      </trkpt>
      <trkpt lat="45.87401" lon="6.43008">
        <ele>1557.4</ele>
        <time>2017-03-17T11:14:12Z</time>
      </trkpt>
      <trkpt lat="45.87402" lon="6.43014">
        <ele>1557.2</ele>
        <time>2017-03-17T11:14:17Z</time>
      </trkpt>
      <trkpt lat="45.87404" lon="6.43019">
        <ele>1556.2</ele>
        <time>2017-03-17T11:14:22Z</time>
      </trkpt>
      <trkpt lat="45.87405" lon="6.43025">
        <ele>1555.2</ele>
        <time>2017-03-17T11:14:27Z</time>
      </trkpt>
      <trkpt lat="45.87406" lon="6.43031">
        <ele>1555.4</ele>
        <time>2017-03-17T11:14:32Z</time>
      </trkpt>
      <trkpt lat="45.87408" lon="6.43037">
        <ele>1557</ele>
        <time>2017-03-17T11:14:37Z</time>
      </trkpt>
      <trkpt lat="45.87409" lon="6.43041">
        <ele>1554.6</ele>
        <time>2017-03-17T11:14:42Z</time>
      </trkpt>
      <trkpt lat="45.87412" lon="6.43044">
        <ele>1555.8</ele>
        <time>2017-03-17T11:14:47Z</time>
      </trkpt>
      <trkpt lat="45.87415" lon="6.43049">
        <ele>1556.4</ele>
        <time>2017-03-17T11:14:52Z</time>
      </trkpt>
      <trkpt lat="45.87418" lon="6.43053">
        <ele>1557.2</ele>
        <time>2017-03-17T11:14:57Z</time>
      </trkpt>
      <trkpt lat="45.8742" lon="6.43057">
        <ele>1555.6</ele>
        <time>2017-03-17T11:15:02Z</time>
      </trkpt>
      <trkpt lat="45.87423" lon="6.43061">
        <ele>1556.4</ele>
        <time>2017-03-17T11:15:07Z</time>
      </trkpt>
      <trkpt lat="45.87424" lon="6.43066">
        <ele>1559</ele>
        <time>2017-03-17T11:15:12Z</time>
      </trkpt>
      <trkpt lat="45.87427" lon="6.4307">
        <ele>1558</ele>
        <time>2017-03-17T11:15:17Z</time>
      </trkpt>
      <trkpt lat="45.87428" lon="6.43074">
        <ele>1557.8</ele>
        <time>2017-03-17T11:15:22Z</time>
      </trkpt>
      <trkpt lat="45.87431" lon="6.43078">
        <ele>1557.2</ele>
        <time>2017-03-17T11:15:27Z</time>
      </trkpt>
      <trkpt lat="45.87433" lon="6.43083">
        <ele>1560.4</ele>
        <time>2017-03-17T11:15:32Z</time>
      </trkpt>
      <trkpt lat="45.87435" lon="6.43087">
        <ele>1558.6</ele>
        <time>2017-03-17T11:15:37Z</time>
      </trkpt>
      <trkpt lat="45.87437" lon="6.43091">
        <ele>1559.2</ele>
        <time>2017-03-17T11:15:42Z</time>
      </trkpt>
      <trkpt lat="45.87439" lon="6.43095">
        <ele>1561.8</ele>
        <time>2017-03-17T11:15:47Z</time>
      </trkpt>
      <trkpt lat="45.87441" lon="6.43099">
        <ele>1560.6</ele>
        <time>2017-03-17T11:15:52Z</time>
      </trkpt>
      <trkpt lat="45.87443" lon="6.43103">
        <ele>1559.6</ele>
        <time>2017-03-17T11:15:57Z</time>
      </trkpt>
      <trkpt lat="45.87445" lon="6.43107">
        <ele>1562.2</ele>
        <time>2017-03-17T11:16:02Z</time>
      </trkpt>
      <trkpt lat="45.87447" lon="6.43111">
        <ele>1563.8</ele>
        <time>2017-03-17T11:16:07Z</time>
      </trkpt>
      <trkpt lat="45.87449" lon="6.43115">
        <ele>1562.6</ele>
        <time>2017-03-17T11:16:12Z</time>
      </trkpt>
      <trkpt lat="45.87452" lon="6.43118">
        <ele>1563</ele>
        <time>2017-03-17T11:16:17Z</time>
      </trkpt>
      <trkpt lat="45.87454" lon="6.43121">
        <ele>1562.2</ele>
        <time>2017-03-17T11:16:22Z</time>
      </trkpt>
      <trkpt lat="45.87456" lon="6.43123">
        <ele>1563.4</ele>
        <time>2017-03-17T11:16:27Z</time>
      </trkpt>
      <trkpt lat="45.87457" lon="6.43126">
        <ele>1566.2</ele>
        <time>2017-03-17T11:16:32Z</time>
      </trkpt>
      <trkpt lat="45.87459" lon="6.4313">
        <ele>1565.6</ele>
        <time>2017-03-17T11:16:37Z</time>
      </trkpt>
      <trkpt lat="45.87461" lon="6.43134">
        <ele>1565.2</ele>
        <time>2017-03-17T11:16:42Z</time>
      </trkpt>
      <trkpt lat="45.87462" lon="6.43138">
        <ele>1567.8</ele>
        <time>2017-03-17T11:16:47Z</time>
      </trkpt>
      <trkpt lat="45.87463" lon="6.43142">
        <ele>1566.8</ele>
        <time>2017-03-17T11:16:52Z</time>
      </trkpt>
      <trkpt lat="45.87465" lon="6.43146">
        <ele>1567</ele>
        <time>2017-03-17T11:16:57Z</time>
      </trkpt>
      <trkpt lat="45.87466" lon="6.43151">
        <ele>1567.4</ele>
        <time>2017-03-17T11:17:02Z</time>
      </trkpt>
      <trkpt lat="45.87468" lon="6.43154">
        <ele>1568.4</ele>
        <time>2017-03-17T11:17:07Z</time>
      </trkpt>
      <trkpt lat="45.87469" lon="6.43159">
        <ele>1569.2</ele>
        <time>2017-03-17T11:17:12Z</time>
      </trkpt>
      <trkpt lat="45.8747" lon="6.43163">
        <ele>1568</ele>
        <time>2017-03-17T11:17:17Z</time>
      </trkpt>
      <trkpt lat="45.8747" lon="6.43167">
        <ele>1571</ele>
        <time>2017-03-17T11:17:22Z</time>
      </trkpt>
      <trkpt lat="45.87471" lon="6.43171">
        <ele>1569.8</ele>
        <time>2017-03-17T11:17:27Z</time>
      </trkpt>
      <trkpt lat="45.87472" lon="6.43174">
        <ele>1571</ele>
        <time>2017-03-17T11:17:32Z</time>
      </trkpt>
      <trkpt lat="45.87473" lon="6.43178">
        <ele>1571.2</ele>
        <time>2017-03-17T11:17:37Z</time>
      </trkpt>
      <trkpt lat="45.87473" lon="6.43181">
        <ele>1572.4</ele>
        <time>2017-03-17T11:17:42Z</time>
      </trkpt>
      <trkpt lat="45.87474" lon="6.43184">
        <ele>1574.4</ele>
        <time>2017-03-17T11:17:47Z</time>
      </trkpt>
      <trkpt lat="45.87475" lon="6.43188">
        <ele>1578.4</ele>
        <time>2017-03-17T11:17:52Z</time>
      </trkpt>
      <trkpt lat="45.87475" lon="6.43191">
        <ele>1575.2</ele>
        <time>2017-03-17T11:17:57Z</time>
      </trkpt>
      <trkpt lat="45.87476" lon="6.43194">
        <ele>1574</ele>
        <time>2017-03-17T11:18:02Z</time>
      </trkpt>
      <trkpt lat="45.87477" lon="6.43198">
        <ele>1580</ele>
        <time>2017-03-17T11:18:07Z</time>
      </trkpt>
      <trkpt lat="45.87478" lon="6.43201">
        <ele>1577.4</ele>
        <time>2017-03-17T11:18:12Z</time>
      </trkpt>
      <trkpt lat="45.87478" lon="6.43202">
        <ele>1576.4</ele>
        <time>2017-03-17T11:18:17Z</time>
      </trkpt>
      <trkpt lat="45.87479" lon="6.43202">
        <ele>1576.8</ele>
        <time>2017-03-17T11:18:32Z</time>
      </trkpt>
      <trkpt lat="45.87479" lon="6.43203">
        <ele>1575.8</ele>
        <time>2017-03-17T11:18:37Z</time>
      </trkpt>
      <trkpt lat="45.87479" lon="6.43204">
        <ele>1574.8</ele>
        <time>2017-03-17T11:18:42Z</time>
      </trkpt>
      <trkpt lat="45.8748" lon="6.43209">
        <ele>1575.4</ele>
        <time>2017-03-17T11:18:47Z</time>
      </trkpt>
      <trkpt lat="45.8748" lon="6.43212">
        <ele>1576.8</ele>
        <time>2017-03-17T11:18:52Z</time>
      </trkpt>
      <trkpt lat="45.8748" lon="6.43216">
        <ele>1578.8</ele>
        <time>2017-03-17T11:18:57Z</time>
      </trkpt>
      <trkpt lat="45.8748" lon="6.43218">
        <ele>1579.4</ele>
        <time>2017-03-17T11:19:02Z</time>
      </trkpt>
      <trkpt lat="45.87481" lon="6.43221">
        <ele>1578.8</ele>
        <time>2017-03-17T11:19:17Z</time>
      </trkpt>
      <trkpt lat="45.8748" lon="6.43224">
        <ele>1579.2</ele>
        <time>2017-03-17T11:19:22Z</time>
      </trkpt>
      <trkpt lat="45.87478" lon="6.43224">
        <ele>1583.2</ele>
        <time>2017-03-17T11:19:27Z</time>
      </trkpt>
      <trkpt lat="45.87475" lon="6.43223">
        <ele>1584</ele>
        <time>2017-03-17T11:19:32Z</time>
      </trkpt>
      <trkpt lat="45.87472" lon="6.43223">
        <ele>1583.6</ele>
        <time>2017-03-17T11:19:37Z</time>
      </trkpt>
      <trkpt lat="45.87469" lon="6.43223">
        <ele>1584.6</ele>
        <time>2017-03-17T11:19:42Z</time>
      </trkpt>
      <trkpt lat="45.87466" lon="6.43223">
        <ele>1585.2</ele>
        <time>2017-03-17T11:19:47Z</time>
      </trkpt>
      <trkpt lat="45.87464" lon="6.43222">
        <ele>1582</ele>
        <time>2017-03-17T11:19:52Z</time>
      </trkpt>
      <trkpt lat="45.87461" lon="6.43221">
        <ele>1586.6</ele>
        <time>2017-03-17T11:19:57Z</time>
      </trkpt>
      <trkpt lat="45.87456" lon="6.43221">
        <ele>1588.8</ele>
        <time>2017-03-17T11:20:07Z</time>
      </trkpt>
      <trkpt lat="45.87455" lon="6.43221">
        <ele>1589.8</ele>
        <time>2017-03-17T11:20:12Z</time>
      </trkpt>
      <trkpt lat="45.87456" lon="6.43224">
        <ele>1588.2</ele>
        <time>2017-03-17T11:20:22Z</time>
      </trkpt>
      <trkpt lat="45.87456" lon="6.43224">
        <ele>1588.2</ele>
        <time>2017-03-17T11:20:27Z</time>
      </trkpt>
      <trkpt lat="45.87457" lon="6.43224">
        <ele>1588.2</ele>
        <time>2017-03-17T11:20:47Z</time>
      </trkpt>
      <trkpt lat="45.87457" lon="6.43225">
        <ele>1588</ele>
        <time>2017-03-17T11:21:07Z</time>
      </trkpt>
      <trkpt lat="45.87458" lon="6.43228">
        <ele>1589.2</ele>
        <time>2017-03-17T11:21:12Z</time>
      </trkpt>
      <trkpt lat="45.87459" lon="6.43232">
        <ele>1586.6</ele>
        <time>2017-03-17T11:21:17Z</time>
      </trkpt>
      <trkpt lat="45.8746" lon="6.43236">
        <ele>1588.4</ele>
        <time>2017-03-17T11:21:22Z</time>
      </trkpt>
      <trkpt lat="45.87461" lon="6.4324">
        <ele>1592</ele>
        <time>2017-03-17T11:21:27Z</time>
      </trkpt>
      <trkpt lat="45.87463" lon="6.43244">
        <ele>1588.6</ele>
        <time>2017-03-17T11:21:32Z</time>
      </trkpt>
      <trkpt lat="45.87464" lon="6.43248">
        <ele>1591.2</ele>
        <time>2017-03-17T11:21:37Z</time>
      </trkpt>
      <trkpt lat="45.87465" lon="6.43252">
        <ele>1591.4</ele>
        <time>2017-03-17T11:21:42Z</time>
      </trkpt>
      <trkpt lat="45.87466" lon="6.43256">
        <ele>1590</ele>
        <time>2017-03-17T11:21:47Z</time>
      </trkpt>
      <trkpt lat="45.87467" lon="6.4326">
        <ele>1589.8</ele>
        <time>2017-03-17T11:21:52Z</time>
      </trkpt>
      <trkpt lat="45.87468" lon="6.43263">
        <ele>1591.8</ele>
        <time>2017-03-17T11:21:57Z</time>
      </trkpt>
      <trkpt lat="45.87469" lon="6.43267">
        <ele>1593.2</ele>
        <time>2017-03-17T11:22:02Z</time>
      </trkpt>
      <trkpt lat="45.8747" lon="6.43271">
        <ele>1592.2</ele>
        <time>2017-03-17T11:22:07Z</time>
      </trkpt>
      <trkpt lat="45.87471" lon="6.43275">
        <ele>1594.4</ele>
        <time>2017-03-17T11:22:12Z</time>
      </trkpt>
      <trkpt lat="45.87471" lon="6.43279">
        <ele>1592.6</ele>
        <time>2017-03-17T11:22:17Z</time>
      </trkpt>
      <trkpt lat="45.87471" lon="6.43284">
        <ele>1592.4</ele>
        <time>2017-03-17T11:22:22Z</time>
      </trkpt>
      <trkpt lat="45.8747" lon="6.43288">
        <ele>1594.4</ele>
        <time>2017-03-17T11:22:27Z</time>
      </trkpt>
      <trkpt lat="45.8747" lon="6.43296">
        <ele>1595.6</ele>
        <time>2017-03-17T11:22:37Z</time>
      </trkpt>
      <trkpt lat="45.8747" lon="6.43299">
        <ele>1592.8</ele>
        <time>2017-03-17T11:22:42Z</time>
      </trkpt>
      <trkpt lat="45.87469" lon="6.43307">
        <ele>1599.2</ele>
        <time>2017-03-17T11:22:52Z</time>
      </trkpt>
      <trkpt lat="45.87469" lon="6.4331">
        <ele>1598.4</ele>
        <time>2017-03-17T11:22:57Z</time>
      </trkpt>
      <trkpt lat="45.87469" lon="6.43313">
        <ele>1598.4</ele>
        <time>2017-03-17T11:23:02Z</time>
      </trkpt>
      <trkpt lat="45.87469" lon="6.43316">
        <ele>1598.8</ele>
        <time>2017-03-17T11:23:07Z</time>
      </trkpt>
      <trkpt lat="45.87469" lon="6.43322">
        <ele>1601.6</ele>
        <time>2017-03-17T11:23:17Z</time>
      </trkpt>
      <trkpt lat="45.87469" lon="6.43326">
        <ele>1599.6</ele>
        <time>2017-03-17T11:23:22Z</time>
      </trkpt>
      <trkpt lat="45.87469" lon="6.4333">
        <ele>1602.8</ele>
        <time>2017-03-17T11:23:27Z</time>
      </trkpt>
      <trkpt lat="45.87469" lon="6.43334">
        <ele>1602.8</ele>
        <time>2017-03-17T11:23:32Z</time>
      </trkpt>
      <trkpt lat="45.87468" lon="6.43337">
        <ele>1602.4</ele>
        <time>2017-03-17T11:23:37Z</time>
      </trkpt>
      <trkpt lat="45.87467" lon="6.4334">
        <ele>1602.2</ele>
        <time>2017-03-17T11:23:42Z</time>
      </trkpt>
      <trkpt lat="45.87467" lon="6.43344">
        <ele>1606</ele>
        <time>2017-03-17T11:23:47Z</time>
      </trkpt>
      <trkpt lat="45.87467" lon="6.43345">
        <ele>1605</ele>
        <time>2017-03-17T11:23:52Z</time>
      </trkpt>
      <trkpt lat="45.87467" lon="6.43347">
        <ele>1603.8</ele>
        <time>2017-03-17T11:23:57Z</time>
      </trkpt>
      <trkpt lat="45.87467" lon="6.43349">
        <ele>1603</ele>
        <time>2017-03-17T11:24:07Z</time>
      </trkpt>
      <trkpt lat="45.87465" lon="6.4335">
        <ele>1606.8</ele>
        <time>2017-03-17T11:24:12Z</time>
      </trkpt>
      <trkpt lat="45.87463" lon="6.43349">
        <ele>1607.4</ele>
        <time>2017-03-17T11:24:17Z</time>
      </trkpt>
      <trkpt lat="45.8746" lon="6.43348">
        <ele>1606.6</ele>
        <time>2017-03-17T11:24:22Z</time>
      </trkpt>
      <trkpt lat="45.87459" lon="6.43346">
        <ele>1606</ele>
        <time>2017-03-17T11:24:27Z</time>
      </trkpt>
      <trkpt lat="45.87457" lon="6.43343">
        <ele>1609.2</ele>
        <time>2017-03-17T11:24:32Z</time>
      </trkpt>
      <trkpt lat="45.87456" lon="6.43341">
        <ele>1610</ele>
        <time>2017-03-17T11:24:37Z</time>
      </trkpt>
      <trkpt lat="45.87455" lon="6.43341">
        <ele>1609</ele>
        <time>2017-03-17T11:24:42Z</time>
      </trkpt>
      <trkpt lat="45.87455" lon="6.43347">
        <ele>1606.4</ele>
        <time>2017-03-17T11:25:02Z</time>
      </trkpt>
      <trkpt lat="45.87453" lon="6.4335">
        <ele>1610</ele>
        <time>2017-03-17T11:25:07Z</time>
      </trkpt>
      <trkpt lat="45.87453" lon="6.43354">
        <ele>1610.6</ele>
        <time>2017-03-17T11:25:12Z</time>
      </trkpt>
      <trkpt lat="45.87454" lon="6.43357">
        <ele>1610.4</ele>
        <time>2017-03-17T11:25:17Z</time>
      </trkpt>
      <trkpt lat="45.87455" lon="6.4336">
        <ele>1612.2</ele>
        <time>2017-03-17T11:25:22Z</time>
      </trkpt>
      <trkpt lat="45.87456" lon="6.43361">
        <ele>1612.6</ele>
        <time>2017-03-17T11:25:27Z</time>
      </trkpt>
      <trkpt lat="45.87456" lon="6.43361">
        <ele>1612.6</ele>
        <time>2017-03-17T11:25:32Z</time>
      </trkpt>
      <trkpt lat="45.87456" lon="6.43361">
        <ele>1612.8</ele>
        <time>2017-03-17T11:25:42Z</time>
      </trkpt>
      <trkpt lat="45.87456" lon="6.43361">
        <ele>1613</ele>
        <time>2017-03-17T11:25:52Z</time>
      </trkpt>
      <trkpt lat="45.87453" lon="6.43358">
        <ele>1611.8</ele>
        <time>2017-03-17T11:25:57Z</time>
      </trkpt>
      <trkpt lat="45.8745" lon="6.43356">
        <ele>1611</ele>
        <time>2017-03-17T11:26:02Z</time>
      </trkpt>
      <trkpt lat="45.87448" lon="6.43353">
        <ele>1614.2</ele>
        <time>2017-03-17T11:26:07Z</time>
      </trkpt>
      <trkpt lat="45.87447" lon="6.43351">
        <ele>1611.2</ele>
        <time>2017-03-17T11:26:12Z</time>
      </trkpt>
      <trkpt lat="45.87445" lon="6.43349">
        <ele>1613.6</ele>
        <time>2017-03-17T11:26:17Z</time>
      </trkpt>
      <trkpt lat="45.87443" lon="6.43348">
        <ele>1615.2</ele>
        <time>2017-03-17T11:26:22Z</time>
      </trkpt>
      <trkpt lat="45.87443" lon="6.43348">
        <ele>1614.4</ele>
        <time>2017-03-17T11:26:27Z</time>
      </trkpt>
      <trkpt lat="45.87441" lon="6.43347">
        <ele>1615.8</ele>
        <time>2017-03-17T11:26:42Z</time>
      </trkpt>
      <trkpt lat="45.87439" lon="6.43345">
        <ele>1615.2</ele>
        <time>2017-03-17T11:26:47Z</time>
      </trkpt>
      <trkpt lat="45.87439" lon="6.43346">
        <ele>1613.4</ele>
        <time>2017-03-17T11:26:52Z</time>
      </trkpt>
      <trkpt lat="45.8744" lon="6.43348">
        <ele>1615</ele>
        <time>2017-03-17T11:26:57Z</time>
      </trkpt>
      <trkpt lat="45.87441" lon="6.4335">
        <ele>1616.8</ele>
        <time>2017-03-17T11:27:07Z</time>
      </trkpt>
      <trkpt lat="45.87442" lon="6.43355">
        <ele>1618</ele>
        <time>2017-03-17T11:27:12Z</time>
      </trkpt>
      <trkpt lat="45.87443" lon="6.43359">
        <ele>1619.6</ele>
        <time>2017-03-17T11:27:17Z</time>
      </trkpt>
      <trkpt lat="45.87444" lon="6.43362">
        <ele>1620.6</ele>
        <time>2017-03-17T11:27:22Z</time>
      </trkpt>
      <trkpt lat="45.87445" lon="6.43364">
        <ele>1620.8</ele>
        <time>2017-03-17T11:27:27Z</time>
      </trkpt>
      <trkpt lat="45.87447" lon="6.43367">
        <ele>1620</ele>
        <time>2017-03-17T11:27:32Z</time>
      </trkpt>
      <trkpt lat="45.87448" lon="6.43371">
        <ele>1618.8</ele>
        <time>2017-03-17T11:27:37Z</time>
      </trkpt>
      <trkpt lat="45.87449" lon="6.43374">
        <ele>1620.4</ele>
        <time>2017-03-17T11:27:42Z</time>
      </trkpt>
      <trkpt lat="45.87448" lon="6.43377">
        <ele>1621.2</ele>
        <time>2017-03-17T11:27:47Z</time>
      </trkpt>
      <trkpt lat="45.87445" lon="6.4338">
        <ele>1621.8</ele>
        <time>2017-03-17T11:27:52Z</time>
      </trkpt>
      <trkpt lat="45.87443" lon="6.43383">
        <ele>1623.4</ele>
        <time>2017-03-17T11:27:57Z</time>
      </trkpt>
      <trkpt lat="45.87441" lon="6.43384">
        <ele>1622.6</ele>
        <time>2017-03-17T11:28:02Z</time>
      </trkpt>
      <trkpt lat="45.87438" lon="6.43386">
        <ele>1624.2</ele>
        <time>2017-03-17T11:28:07Z</time>
      </trkpt>
      <trkpt lat="45.87438" lon="6.43386">
        <ele>1624.2</ele>
        <time>2017-03-17T11:28:12Z</time>
      </trkpt>
      <trkpt lat="45.87437" lon="6.43387">
        <ele>1624.4</ele>
        <time>2017-03-17T11:28:17Z</time>
      </trkpt>
      <trkpt lat="45.87437" lon="6.43386">
        <ele>1623.8</ele>
        <time>2017-03-17T11:28:22Z</time>
      </trkpt>
      <trkpt lat="45.87438" lon="6.43385">
        <ele>1624.6</ele>
        <time>2017-03-17T11:28:27Z</time>
      </trkpt>
      <trkpt lat="45.87439" lon="6.43385">
        <ele>1625</ele>
        <time>2017-03-17T11:28:37Z</time>
      </trkpt>
      <trkpt lat="45.87439" lon="6.43384">
        <ele>1624.4</ele>
        <time>2017-03-17T11:28:47Z</time>
      </trkpt>
      <trkpt lat="45.87438" lon="6.43383">
        <ele>1622.2</ele>
        <time>2017-03-17T11:28:52Z</time>
      </trkpt>
      <trkpt lat="45.87438" lon="6.43383">
        <ele>1623.8</ele>
        <time>2017-03-17T11:28:57Z</time>
      </trkpt>
      <trkpt lat="45.87438" lon="6.43383">
        <ele>1623.6</ele>
        <time>2017-03-17T11:29:07Z</time>
      </trkpt>
      <trkpt lat="45.87438" lon="6.43384">
        <ele>1623.4</ele>
        <time>2017-03-17T11:29:12Z</time>
      </trkpt>
      <trkpt lat="45.87439" lon="6.43384">
        <ele>1623</ele>
        <time>2017-03-17T11:29:22Z</time>
      </trkpt>
      <trkpt lat="45.8744" lon="6.43384">
        <ele>1623</ele>
        <time>2017-03-17T11:29:27Z</time>
      </trkpt>
      <trkpt lat="45.8744" lon="6.43384">
        <ele>1623.4</ele>
        <time>2017-03-17T11:29:32Z</time>
      </trkpt>
      <trkpt lat="45.8744" lon="6.43385">
        <ele>1623.6</ele>
        <time>2017-03-17T11:29:37Z</time>
      </trkpt>
      <trkpt lat="45.87439" lon="6.43386">
        <ele>1623.6</ele>
        <time>2017-03-17T11:29:52Z</time>
      </trkpt>
      <trkpt lat="45.87438" lon="6.43387">
        <ele>1622.2</ele>
        <time>2017-03-17T11:29:57Z</time>
      </trkpt>
      <trkpt lat="45.87437" lon="6.43387">
        <ele>1620.8</ele>
        <time>2017-03-17T11:30:02Z</time>
      </trkpt>
      <trkpt lat="45.87436" lon="6.43386">
        <ele>1619.6</ele>
        <time>2017-03-17T11:30:07Z</time>
      </trkpt>
      <trkpt lat="45.87436" lon="6.43386">
        <ele>1619</ele>
        <time>2017-03-17T11:30:12Z</time>
      </trkpt>
      <trkpt lat="45.87436" lon="6.43385">
        <ele>1618.6</ele>
        <time>2017-03-17T11:30:17Z</time>
      </trkpt>
      <trkpt lat="45.87436" lon="6.43385">
        <ele>1618.8</ele>
        <time>2017-03-17T11:30:27Z</time>
      </trkpt>
      <trkpt lat="45.87436" lon="6.43385">
        <ele>1619</ele>
        <time>2017-03-17T11:30:32Z</time>
      </trkpt>
      <trkpt lat="45.87436" lon="6.43385">
        <ele>1619.4</ele>
        <time>2017-03-17T11:30:52Z</time>
      </trkpt>
      <trkpt lat="45.87436" lon="6.43385">
        <ele>1619.4</ele>
        <time>2017-03-17T11:30:57Z</time>
      </trkpt>
      <trkpt lat="45.87437" lon="6.43385">
        <ele>1619.6</ele>
        <time>2017-03-17T11:31:02Z</time>
      </trkpt>
      <trkpt lat="45.87437" lon="6.43385">
        <ele>1620</ele>
        <time>2017-03-17T11:31:22Z</time>
      </trkpt>
      <trkpt lat="45.87437" lon="6.43384">
        <ele>1620.4</ele>
        <time>2017-03-17T11:32:22Z</time>
      </trkpt>
      <trkpt lat="45.87437" lon="6.43384">
        <ele>1620.6</ele>
        <time>2017-03-17T11:34:18Z</time>
      </trkpt>
      <trkpt lat="45.87437" lon="6.43384">
        <ele>1620.8</ele>
        <time>2017-03-17T11:35:18Z</time>
      </trkpt>
      <trkpt lat="45.87438" lon="6.43384">
        <ele>1621</ele>
        <time>2017-03-17T11:37:54Z</time>
      </trkpt>
      <trkpt lat="45.87438" lon="6.43384">
        <ele>1621</ele>
        <time>2017-03-17T11:38:44Z</time>
      </trkpt>
      <trkpt lat="45.87438" lon="6.43384">
        <ele>1621</ele>
        <time>2017-03-17T11:39:34Z</time>
      </trkpt>
      <trkpt lat="45.87438" lon="6.43383">
        <ele>1621.2</ele>
        <time>2017-03-17T11:40:19Z</time>
      </trkpt>
      <trkpt lat="45.87438" lon="6.43383">
        <ele>1621.2</ele>
        <time>2017-03-17T11:41:14Z</time>
      </trkpt>
      <trkpt lat="45.87438" lon="6.43383">
        <ele>1621.2</ele>
        <time>2017-03-17T11:42:49Z</time>
      </trkpt>
      <trkpt lat="45.87438" lon="6.43383">
        <ele>1621.4</ele>
        <time>2017-03-17T11:47:26Z</time>
      </trkpt>
      <trkpt lat="45.87438" lon="6.43383">
        <ele>1621.4</ele>
        <time>2017-03-17T11:51:01Z</time>
      </trkpt>
      <trkpt lat="45.87439" lon="6.43383">
        <ele>1621.6</ele>
        <time>2017-03-17T11:53:36Z</time>
      </trkpt>
      <trkpt lat="45.87439" lon="6.43383">
        <ele>1621.6</ele>
        <time>2017-03-17T11:59:51Z</time>
      </trkpt>
      <trkpt lat="45.87439" lon="6.43383">
        <ele>1621.6</ele>
        <time>2017-03-17T12:02:07Z</time>
      </trkpt>
      <trkpt lat="45.87438" lon="6.43383">
        <ele>1621.6</ele>
        <time>2017-03-17T12:02:12Z</time>
      </trkpt>
      <trkpt lat="45.87438" lon="6.43383">
        <ele>1621.6</ele>
        <time>2017-03-17T12:02:17Z</time>
      </trkpt>
      <trkpt lat="45.87438" lon="6.43382">
        <ele>1621.4</ele>
        <time>2017-03-17T12:03:27Z</time>
      </trkpt>
      <trkpt lat="45.87439" lon="6.43382">
        <ele>1621.4</ele>
        <time>2017-03-17T12:03:32Z</time>
      </trkpt>
      <trkpt lat="45.87438" lon="6.43382">
        <ele>1621.2</ele>
        <time>2017-03-17T12:03:37Z</time>
      </trkpt>
      <trkpt lat="45.87438" lon="6.43382">
        <ele>1621</ele>
        <time>2017-03-17T12:04:12Z</time>
      </trkpt>
      <trkpt lat="45.87438" lon="6.43382">
        <ele>1620.8</ele>
        <time>2017-03-17T12:04:37Z</time>
      </trkpt>
      <trkpt lat="45.87439" lon="6.43382">
        <ele>1620.8</ele>
        <time>2017-03-17T12:04:47Z</time>
      </trkpt>
      <trkpt lat="45.87439" lon="6.43382">
        <ele>1621.2</ele>
        <time>2017-03-17T12:05:07Z</time>
      </trkpt>
      <trkpt lat="45.87439" lon="6.43382">
        <ele>1621.4</ele>
        <time>2017-03-17T12:05:12Z</time>
      </trkpt>
      <trkpt lat="45.87439" lon="6.43384">
        <ele>1621.8</ele>
        <time>2017-03-17T12:05:32Z</time>
      </trkpt>
      <trkpt lat="45.87439" lon="6.43383">
        <ele>1621.8</ele>
        <time>2017-03-17T12:05:42Z</time>
      </trkpt>
      <trkpt lat="45.8744" lon="6.43383">
        <ele>1622.2</ele>
        <time>2017-03-17T12:05:57Z</time>
      </trkpt>
      <trkpt lat="45.8744" lon="6.43383">
        <ele>1621</ele>
        <time>2017-03-17T12:06:02Z</time>
      </trkpt>
      <trkpt lat="45.8744" lon="6.43384">
        <ele>1622</ele>
        <time>2017-03-17T12:06:12Z</time>
      </trkpt>
      <trkpt lat="45.8744" lon="6.43384">
        <ele>1622.2</ele>
        <time>2017-03-17T12:06:17Z</time>
      </trkpt>
      <trkpt lat="45.87439" lon="6.43385">
        <ele>1622.4</ele>
        <time>2017-03-17T12:06:22Z</time>
      </trkpt>
      <trkpt lat="45.87439" lon="6.43385">
        <ele>1622.4</ele>
        <time>2017-03-17T12:06:32Z</time>
      </trkpt>
      <trkpt lat="45.87439" lon="6.43385">
        <ele>1622.4</ele>
        <time>2017-03-17T12:06:37Z</time>
      </trkpt>
      <trkpt lat="45.8744" lon="6.43385">
        <ele>1622.6</ele>
        <time>2017-03-17T12:06:42Z</time>
      </trkpt>
      <trkpt lat="45.8744" lon="6.43385">
        <ele>1621.8</ele>
        <time>2017-03-17T12:06:57Z</time>
      </trkpt>
      <trkpt lat="45.8744" lon="6.43385">
        <ele>1622.2</ele>
        <time>2017-03-17T12:07:02Z</time>
      </trkpt>
      <trkpt lat="45.8744" lon="6.43385">
        <ele>1622.8</ele>
        <time>2017-03-17T12:07:37Z</time>
      </trkpt>
      <trkpt lat="45.8744" lon="6.43384">
        <ele>1623</ele>
        <time>2017-03-17T12:07:52Z</time>
      </trkpt>
      <trkpt lat="45.8744" lon="6.43385">
        <ele>1623</ele>
        <time>2017-03-17T12:08:02Z</time>
      </trkpt>
      <trkpt lat="45.8744" lon="6.43384">
        <ele>1623</ele>
        <time>2017-03-17T12:08:07Z</time>
      </trkpt>
      <trkpt lat="45.8744" lon="6.43385">
        <ele>1623</ele>
        <time>2017-03-17T12:08:12Z</time>
      </trkpt>
      <trkpt lat="45.87439" lon="6.43384">
        <ele>1623</ele>
        <time>2017-03-17T12:08:17Z</time>
      </trkpt>
      <trkpt lat="45.87439" lon="6.43385">
        <ele>1622.8</ele>
        <time>2017-03-17T12:08:23Z</time>
      </trkpt>
      <trkpt lat="45.87439" lon="6.43385">
        <ele>1622.8</ele>
        <time>2017-03-17T12:08:38Z</time>
      </trkpt>
      <trkpt lat="45.87439" lon="6.43384">
        <ele>1622.8</ele>
        <time>2017-03-17T12:09:03Z</time>
      </trkpt>
      <trkpt lat="45.87439" lon="6.43384">
        <ele>1623</ele>
        <time>2017-03-17T12:09:28Z</time>
      </trkpt>
      <trkpt lat="45.87439" lon="6.43384">
        <ele>1623</ele>
        <time>2017-03-17T12:10:23Z</time>
      </trkpt>
      <trkpt lat="45.87439" lon="6.43384">
        <ele>1623</ele>
        <time>2017-03-17T12:10:28Z</time>
      </trkpt>
      <trkpt lat="45.87439" lon="6.43384">
        <ele>1623.2</ele>
        <time>2017-03-17T12:10:48Z</time>
      </trkpt>
      <trkpt lat="45.87439" lon="6.43384">
        <ele>1623.2</ele>
        <time>2017-03-17T12:11:23Z</time>
      </trkpt>
      <trkpt lat="45.87439" lon="6.43384">
        <ele>1623.4</ele>
        <time>2017-03-17T12:11:28Z</time>
      </trkpt>
      <trkpt lat="45.87438" lon="6.43383">
        <ele>1623.6</ele>
        <time>2017-03-17T12:11:38Z</time>
      </trkpt>
      <trkpt lat="45.87435" lon="6.43382">
        <ele>1622.2</ele>
        <time>2017-03-17T12:11:43Z</time>
      </trkpt>
      <trkpt lat="45.87433" lon="6.43381">
        <ele>1626</ele>
        <time>2017-03-17T12:11:48Z</time>
      </trkpt>
      <trkpt lat="45.87431" lon="6.4338">
        <ele>1625.4</ele>
        <time>2017-03-17T12:11:53Z</time>
      </trkpt>
      <trkpt lat="45.87429" lon="6.43379">
        <ele>1625</ele>
        <time>2017-03-17T12:11:58Z</time>
      </trkpt>
      <trkpt lat="45.87426" lon="6.43377">
        <ele>1625.6</ele>
        <time>2017-03-17T12:12:03Z</time>
      </trkpt>
      <trkpt lat="45.87423" lon="6.43376">
        <ele>1629.2</ele>
        <time>2017-03-17T12:12:08Z</time>
      </trkpt>
      <trkpt lat="45.87421" lon="6.43376">
        <ele>1631.4</ele>
        <time>2017-03-17T12:12:13Z</time>
      </trkpt>
      <trkpt lat="45.87418" lon="6.43375">
        <ele>1628.4</ele>
        <time>2017-03-17T12:12:18Z</time>
      </trkpt>
      <trkpt lat="45.87415" lon="6.43376">
        <ele>1630.4</ele>
        <time>2017-03-17T12:12:23Z</time>
      </trkpt>
      <trkpt lat="45.87415" lon="6.43379">
        <ele>1629.4</ele>
        <time>2017-03-17T12:12:28Z</time>
      </trkpt>
      <trkpt lat="45.87415" lon="6.43383">
        <ele>1630.6</ele>
        <time>2017-03-17T12:12:38Z</time>
      </trkpt>
      <trkpt lat="45.87416" lon="6.43386">
        <ele>1631.2</ele>
        <time>2017-03-17T12:12:43Z</time>
      </trkpt>
      <trkpt lat="45.87417" lon="6.4339">
        <ele>1634</ele>
        <time>2017-03-17T12:12:48Z</time>
      </trkpt>
      <trkpt lat="45.87417" lon="6.43392">
        <ele>1635.2</ele>
        <time>2017-03-17T12:12:53Z</time>
      </trkpt>
      <trkpt lat="45.87418" lon="6.43395">
        <ele>1636.6</ele>
        <time>2017-03-17T12:12:58Z</time>
      </trkpt>
      <trkpt lat="45.87419" lon="6.43399">
        <ele>1636.2</ele>
        <time>2017-03-17T12:13:03Z</time>
      </trkpt>
      <trkpt lat="45.8742" lon="6.43402">
        <ele>1637.2</ele>
        <time>2017-03-17T12:13:08Z</time>
      </trkpt>
      <trkpt lat="45.87421" lon="6.43404">
        <ele>1640</ele>
        <time>2017-03-17T12:13:13Z</time>
      </trkpt>
      <trkpt lat="45.87421" lon="6.43405">
        <ele>1640.2</ele>
        <time>2017-03-17T12:13:18Z</time>
      </trkpt>
      <trkpt lat="45.87422" lon="6.43407">
        <ele>1641.4</ele>
        <time>2017-03-17T12:13:23Z</time>
      </trkpt>
      <trkpt lat="45.87421" lon="6.43406">
        <ele>1639.8</ele>
        <time>2017-03-17T12:13:28Z</time>
      </trkpt>
      <trkpt lat="45.87418" lon="6.43405">
        <ele>1642.4</ele>
        <time>2017-03-17T12:13:33Z</time>
      </trkpt>
      <trkpt lat="45.87417" lon="6.43405">
        <ele>1644.2</ele>
        <time>2017-03-17T12:13:38Z</time>
      </trkpt>
      <trkpt lat="45.87417" lon="6.43405">
        <ele>1645</ele>
        <time>2017-03-17T12:13:43Z</time>
      </trkpt>
      <trkpt lat="45.87416" lon="6.43406">
        <ele>1646</ele>
        <time>2017-03-17T12:13:48Z</time>
      </trkpt>
      <trkpt lat="45.87414" lon="6.43406">
        <ele>1643.6</ele>
        <time>2017-03-17T12:13:53Z</time>
      </trkpt>
      <trkpt lat="45.87409" lon="6.43405">
        <ele>1646.4</ele>
        <time>2017-03-17T12:14:03Z</time>
      </trkpt>
      <trkpt lat="45.87407" lon="6.43405">
        <ele>1643</ele>
        <time>2017-03-17T12:14:08Z</time>
      </trkpt>
      <trkpt lat="45.87407" lon="6.43407">
        <ele>1646.8</ele>
        <time>2017-03-17T12:14:13Z</time>
      </trkpt>
      <trkpt lat="45.87407" lon="6.43411">
        <ele>1647.8</ele>
        <time>2017-03-17T12:14:33Z</time>
      </trkpt>
      <trkpt lat="45.87408" lon="6.43415">
        <ele>1647.4</ele>
        <time>2017-03-17T12:14:38Z</time>
      </trkpt>
      <trkpt lat="45.8741" lon="6.43418">
        <ele>1647.6</ele>
        <time>2017-03-17T12:14:43Z</time>
      </trkpt>
      <trkpt lat="45.87411" lon="6.43422">
        <ele>1646.4</ele>
        <time>2017-03-17T12:14:48Z</time>
      </trkpt>
      <trkpt lat="45.87412" lon="6.43425">
        <ele>1651.2</ele>
        <time>2017-03-17T12:14:53Z</time>
      </trkpt>
      <trkpt lat="45.87413" lon="6.43429">
        <ele>1648.8</ele>
        <time>2017-03-17T12:14:58Z</time>
      </trkpt>
      <trkpt lat="45.87414" lon="6.43432">
        <ele>1650.4</ele>
        <time>2017-03-17T12:15:03Z</time>
      </trkpt>
      <trkpt lat="45.87415" lon="6.43434">
        <ele>1649.6</ele>
        <time>2017-03-17T12:15:08Z</time>
      </trkpt>
      <trkpt lat="45.87415" lon="6.43437">
        <ele>1652.2</ele>
        <time>2017-03-17T12:15:13Z</time>
      </trkpt>
      <trkpt lat="45.87416" lon="6.43441">
        <ele>1650</ele>
        <time>2017-03-17T12:15:18Z</time>
      </trkpt>
      <trkpt lat="45.87417" lon="6.43444">
        <ele>1655.4</ele>
        <time>2017-03-17T12:15:23Z</time>
      </trkpt>
      <trkpt lat="45.87417" lon="6.43446">
        <ele>1654.8</ele>
        <time>2017-03-17T12:15:28Z</time>
      </trkpt>
      <trkpt lat="45.87418" lon="6.4345">
        <ele>1657</ele>
        <time>2017-03-17T12:15:33Z</time>
      </trkpt>
      <trkpt lat="45.87419" lon="6.43452">
        <ele>1656.2</ele>
        <time>2017-03-17T12:15:38Z</time>
      </trkpt>
      <trkpt lat="45.87419" lon="6.43456">
        <ele>1657</ele>
        <time>2017-03-17T12:15:43Z</time>
      </trkpt>
      <trkpt lat="45.87419" lon="6.43459">
        <ele>1656</ele>
        <time>2017-03-17T12:15:48Z</time>
      </trkpt>
      <trkpt lat="45.87418" lon="6.43459">
        <ele>1654.4</ele>
        <time>2017-03-17T12:15:53Z</time>
      </trkpt>
      <trkpt lat="45.87417" lon="6.43458">
        <ele>1656.6</ele>
        <time>2017-03-17T12:15:58Z</time>
      </trkpt>
      <trkpt lat="45.87417" lon="6.43458">
        <ele>1655</ele>
        <time>2017-03-17T12:16:04Z</time>
      </trkpt>
      <trkpt lat="45.87415" lon="6.43459">
        <ele>1655.8</ele>
        <time>2017-03-17T12:16:09Z</time>
      </trkpt>
      <trkpt lat="45.87412" lon="6.4346">
        <ele>1656.4</ele>
        <time>2017-03-17T12:16:14Z</time>
      </trkpt>
      <trkpt lat="45.8741" lon="6.43459">
        <ele>1652.6</ele>
        <time>2017-03-17T12:16:19Z</time>
      </trkpt>
      <trkpt lat="45.8741" lon="6.4346">
        <ele>1652.6</ele>
        <time>2017-03-17T12:16:24Z</time>
      </trkpt>
      <trkpt lat="45.8741" lon="6.4346">
        <ele>1652</ele>
        <time>2017-03-17T12:16:29Z</time>
      </trkpt>
      <trkpt lat="45.87408" lon="6.43461">
        <ele>1653</ele>
        <time>2017-03-17T12:16:34Z</time>
      </trkpt>
      <trkpt lat="45.87407" lon="6.43462">
        <ele>1653</ele>
        <time>2017-03-17T12:16:39Z</time>
      </trkpt>
      <trkpt lat="45.87405" lon="6.43464">
        <ele>1654.6</ele>
        <time>2017-03-17T12:16:44Z</time>
      </trkpt>
      <trkpt lat="45.87402" lon="6.43464">
        <ele>1654.4</ele>
        <time>2017-03-17T12:16:49Z</time>
      </trkpt>
      <trkpt lat="45.874" lon="6.43465">
        <ele>1659</ele>
        <time>2017-03-17T12:16:54Z</time>
      </trkpt>
      <trkpt lat="45.87398" lon="6.43465">
        <ele>1658.2</ele>
        <time>2017-03-17T12:16:59Z</time>
      </trkpt>
      <trkpt lat="45.87395" lon="6.43466">
        <ele>1659.6</ele>
        <time>2017-03-17T12:17:04Z</time>
      </trkpt>
      <trkpt lat="45.87392" lon="6.43467">
        <ele>1660.6</ele>
        <time>2017-03-17T12:17:09Z</time>
      </trkpt>
      <trkpt lat="45.87391" lon="6.4347">
        <ele>1658</ele>
        <time>2017-03-17T12:17:14Z</time>
      </trkpt>
      <trkpt lat="45.87393" lon="6.43474">
        <ele>1660.4</ele>
        <time>2017-03-17T12:17:19Z</time>
      </trkpt>
      <trkpt lat="45.87395" lon="6.43477">
        <ele>1661.8</ele>
        <time>2017-03-17T12:17:24Z</time>
      </trkpt>
      <trkpt lat="45.87396" lon="6.4348">
        <ele>1662.6</ele>
        <time>2017-03-17T12:17:29Z</time>
      </trkpt>
      <trkpt lat="45.87397" lon="6.43481">
        <ele>1664.2</ele>
        <time>2017-03-17T12:17:34Z</time>
      </trkpt>
      <trkpt lat="45.87397" lon="6.4348">
        <ele>1663.6</ele>
        <time>2017-03-17T12:18:29Z</time>
      </trkpt>
      <trkpt lat="45.87398" lon="6.43479">
        <ele>1664.6</ele>
        <time>2017-03-17T12:19:09Z</time>
      </trkpt>
      <trkpt lat="45.87398" lon="6.43479">
        <ele>1663.4</ele>
        <time>2017-03-17T12:19:19Z</time>
      </trkpt>
      <trkpt lat="45.87401" lon="6.43482">
        <ele>1664.8</ele>
        <time>2017-03-17T12:19:24Z</time>
      </trkpt>
      <trkpt lat="45.87404" lon="6.43485">
        <ele>1665.6</ele>
        <time>2017-03-17T12:19:29Z</time>
      </trkpt>
      <trkpt lat="45.87406" lon="6.43487">
        <ele>1668</ele>
        <time>2017-03-17T12:19:34Z</time>
      </trkpt>
      <trkpt lat="45.87407" lon="6.4349">
        <ele>1668.8</ele>
        <time>2017-03-17T12:19:39Z</time>
      </trkpt>
      <trkpt lat="45.87408" lon="6.43493">
        <ele>1673.8</ele>
        <time>2017-03-17T12:19:44Z</time>
      </trkpt>
      <trkpt lat="45.87408" lon="6.43497">
        <ele>1672.2</ele>
        <time>2017-03-17T12:19:49Z</time>
      </trkpt>
      <trkpt lat="45.87409" lon="6.43501">
        <ele>1675.2</ele>
        <time>2017-03-17T12:19:54Z</time>
      </trkpt>
      <trkpt lat="45.87409" lon="6.43504">
        <ele>1673.8</ele>
        <time>2017-03-17T12:19:59Z</time>
      </trkpt>
      <trkpt lat="45.87407" lon="6.43504">
        <ele>1673.2</ele>
        <time>2017-03-17T12:20:04Z</time>
      </trkpt>
      <trkpt lat="45.87406" lon="6.43504">
        <ele>1674.6</ele>
        <time>2017-03-17T12:20:09Z</time>
      </trkpt>
      <trkpt lat="45.87404" lon="6.43504">
        <ele>1676.4</ele>
        <time>2017-03-17T12:20:14Z</time>
      </trkpt>
      <trkpt lat="45.87401" lon="6.43505">
        <ele>1672.8</ele>
        <time>2017-03-17T12:20:19Z</time>
      </trkpt>
      <trkpt lat="45.87398" lon="6.43505">
        <ele>1675.4</ele>
        <time>2017-03-17T12:20:24Z</time>
      </trkpt>
      <trkpt lat="45.87395" lon="6.43506">
        <ele>1675.6</ele>
        <time>2017-03-17T12:20:29Z</time>
      </trkpt>
      <trkpt lat="45.87393" lon="6.43507">
        <ele>1673.8</ele>
        <time>2017-03-17T12:20:34Z</time>
      </trkpt>
      <trkpt lat="45.8739" lon="6.43507">
        <ele>1673.4</ele>
        <time>2017-03-17T12:20:39Z</time>
      </trkpt>
      <trkpt lat="45.87387" lon="6.43507">
        <ele>1672.8</ele>
        <time>2017-03-17T12:20:44Z</time>
      </trkpt>
      <trkpt lat="45.87385" lon="6.43507">
        <ele>1677.2</ele>
        <time>2017-03-17T12:20:49Z</time>
      </trkpt>
      <trkpt lat="45.87382" lon="6.43508">
        <ele>1678.2</ele>
        <time>2017-03-17T12:20:55Z</time>
      </trkpt>
      <trkpt lat="45.87379" lon="6.43507">
        <ele>1676.2</ele>
        <time>2017-03-17T12:21:00Z</time>
      </trkpt>
      <trkpt lat="45.87377" lon="6.43506">
        <ele>1677</ele>
        <time>2017-03-17T12:21:05Z</time>
      </trkpt>
      <trkpt lat="45.87372" lon="6.43506">
        <ele>1678</ele>
        <time>2017-03-17T12:21:15Z</time>
      </trkpt>
      <trkpt lat="45.8737" lon="6.43505">
        <ele>1681</ele>
        <time>2017-03-17T12:21:20Z</time>
      </trkpt>
      <trkpt lat="45.87366" lon="6.43504">
        <ele>1682.4</ele>
        <time>2017-03-17T12:21:30Z</time>
      </trkpt>
      <trkpt lat="45.87357" lon="6.43503">
        <ele>1681.2</ele>
        <time>2017-03-17T12:21:45Z</time>
      </trkpt>
      <trkpt lat="45.87354" lon="6.43503">
        <ele>1683.8</ele>
        <time>2017-03-17T12:21:50Z</time>
      </trkpt>
      <trkpt lat="45.87353" lon="6.43503">
        <ele>1684.4</ele>
        <time>2017-03-17T12:21:55Z</time>
      </trkpt>
      <trkpt lat="45.8735" lon="6.43503">
        <ele>1683.6</ele>
        <time>2017-03-17T12:22:00Z</time>
      </trkpt>
      <trkpt lat="45.87348" lon="6.43503">
        <ele>1684.8</ele>
        <time>2017-03-17T12:22:05Z</time>
      </trkpt>
      <trkpt lat="45.87345" lon="6.43503">
        <ele>1686</ele>
        <time>2017-03-17T12:22:10Z</time>
      </trkpt>
      <trkpt lat="45.87345" lon="6.43504">
        <ele>1686</ele>
        <time>2017-03-17T12:22:15Z</time>
      </trkpt>
      <trkpt lat="45.87346" lon="6.43505">
        <ele>1686.2</ele>
        <time>2017-03-17T12:22:20Z</time>
      </trkpt>
      <trkpt lat="45.87346" lon="6.43505">
        <ele>1686.4</ele>
        <time>2017-03-17T12:22:25Z</time>
      </trkpt>
      <trkpt lat="45.87347" lon="6.43505">
        <ele>1686.6</ele>
        <time>2017-03-17T12:22:30Z</time>
      </trkpt>
      <trkpt lat="45.87343" lon="6.43503">
        <ele>1687.6</ele>
        <time>2017-03-17T12:22:40Z</time>
      </trkpt>
      <trkpt lat="45.8734" lon="6.43502">
        <ele>1692.8</ele>
        <time>2017-03-17T12:22:45Z</time>
      </trkpt>
      <trkpt lat="45.87339" lon="6.43503">
        <ele>1689.4</ele>
        <time>2017-03-17T12:22:50Z</time>
      </trkpt>
      <trkpt lat="45.87336" lon="6.43504">
        <ele>1691.6</ele>
        <time>2017-03-17T12:22:55Z</time>
      </trkpt>
      <trkpt lat="45.87334" lon="6.43506">
        <ele>1689.8</ele>
        <time>2017-03-17T12:23:00Z</time>
      </trkpt>
      <trkpt lat="45.87333" lon="6.43507">
        <ele>1689.8</ele>
        <time>2017-03-17T12:23:05Z</time>
      </trkpt>
      <trkpt lat="45.8733" lon="6.43508">
        <ele>1693</ele>
        <time>2017-03-17T12:23:10Z</time>
      </trkpt>
      <trkpt lat="45.87326" lon="6.43509">
        <ele>1694.6</ele>
        <time>2017-03-17T12:23:16Z</time>
      </trkpt>
      <trkpt lat="45.87324" lon="6.43509">
        <ele>1693.6</ele>
        <time>2017-03-17T12:23:21Z</time>
      </trkpt>
      <trkpt lat="45.87321" lon="6.43508">
        <ele>1692</ele>
        <time>2017-03-17T12:23:26Z</time>
      </trkpt>
      <trkpt lat="45.87318" lon="6.43508">
        <ele>1694.4</ele>
        <time>2017-03-17T12:23:31Z</time>
      </trkpt>
      <trkpt lat="45.87315" lon="6.43507">
        <ele>1692.6</ele>
        <time>2017-03-17T12:23:36Z</time>
      </trkpt>
      <trkpt lat="45.87312" lon="6.43506">
        <ele>1694</ele>
        <time>2017-03-17T12:23:41Z</time>
      </trkpt>
      <trkpt lat="45.87309" lon="6.43507">
        <ele>1695.4</ele>
        <time>2017-03-17T12:23:46Z</time>
      </trkpt>
      <trkpt lat="45.87307" lon="6.43507">
        <ele>1700</ele>
        <time>2017-03-17T12:23:51Z</time>
      </trkpt>
      <trkpt lat="45.87305" lon="6.43508">
        <ele>1698.6</ele>
        <time>2017-03-17T12:23:56Z</time>
      </trkpt>
      <trkpt lat="45.87303" lon="6.43508">
        <ele>1697.8</ele>
        <time>2017-03-17T12:24:01Z</time>
      </trkpt>
      <trkpt lat="45.873" lon="6.43509">
        <ele>1698.6</ele>
        <time>2017-03-17T12:24:06Z</time>
      </trkpt>
      <trkpt lat="45.87298" lon="6.4351">
        <ele>1700.4</ele>
        <time>2017-03-17T12:24:11Z</time>
      </trkpt>
      <trkpt lat="45.87296" lon="6.43511">
        <ele>1701</ele>
        <time>2017-03-17T12:24:16Z</time>
      </trkpt>
      <trkpt lat="45.87293" lon="6.43513">
        <ele>1703</ele>
        <time>2017-03-17T12:24:21Z</time>
      </trkpt>
      <trkpt lat="45.8729" lon="6.43513">
        <ele>1701.8</ele>
        <time>2017-03-17T12:24:26Z</time>
      </trkpt>
      <trkpt lat="45.87287" lon="6.43513">
        <ele>1702</ele>
        <time>2017-03-17T12:24:31Z</time>
      </trkpt>
      <trkpt lat="45.87285" lon="6.43513">
        <ele>1701.6</ele>
        <time>2017-03-17T12:24:36Z</time>
      </trkpt>
      <trkpt lat="45.87282" lon="6.43513">
        <ele>1705.6</ele>
        <time>2017-03-17T12:24:41Z</time>
      </trkpt>
      <trkpt lat="45.8728" lon="6.43512">
        <ele>1702.8</ele>
        <time>2017-03-17T12:24:46Z</time>
      </trkpt>
      <trkpt lat="45.87278" lon="6.43512">
        <ele>1704</ele>
        <time>2017-03-17T12:24:51Z</time>
      </trkpt>
      <trkpt lat="45.87278" lon="6.43512">
        <ele>1703.6</ele>
        <time>2017-03-17T12:24:56Z</time>
      </trkpt>
      <trkpt lat="45.87278" lon="6.43512">
        <ele>1703.4</ele>
        <time>2017-03-17T12:25:01Z</time>
      </trkpt>
      <trkpt lat="45.87278" lon="6.43513">
        <ele>1702.6</ele>
        <time>2017-03-17T12:25:06Z</time>
      </trkpt>
      <trkpt lat="45.87277" lon="6.43512">
        <ele>1703</ele>
        <time>2017-03-17T12:25:11Z</time>
      </trkpt>
      <trkpt lat="45.87277" lon="6.43512">
        <ele>1703.4</ele>
        <time>2017-03-17T12:25:16Z</time>
      </trkpt>
      <trkpt lat="45.87277" lon="6.43512">
        <ele>1703.8</ele>
        <time>2017-03-17T12:25:21Z</time>
      </trkpt>
      <trkpt lat="45.87276" lon="6.43513">
        <ele>1703.8</ele>
        <time>2017-03-17T12:25:26Z</time>
      </trkpt>
      <trkpt lat="45.87276" lon="6.43513">
        <ele>1703.6</ele>
        <time>2017-03-17T12:25:31Z</time>
      </trkpt>
      <trkpt lat="45.87277" lon="6.43516">
        <ele>1703.8</ele>
        <time>2017-03-17T12:25:36Z</time>
      </trkpt>
      <trkpt lat="45.87276" lon="6.43516">
        <ele>1703</ele>
        <time>2017-03-17T12:25:46Z</time>
      </trkpt>
      <trkpt lat="45.87277" lon="6.43518">
        <ele>1700.8</ele>
        <time>2017-03-17T12:26:21Z</time>
      </trkpt>
      <trkpt lat="45.8728" lon="6.43522">
        <ele>1700</ele>
        <time>2017-03-17T12:26:26Z</time>
      </trkpt>
      <trkpt lat="45.87283" lon="6.43526">
        <ele>1700.2</ele>
        <time>2017-03-17T12:26:31Z</time>
      </trkpt>
      <trkpt lat="45.87285" lon="6.4353">
        <ele>1702.4</ele>
        <time>2017-03-17T12:26:36Z</time>
      </trkpt>
      <trkpt lat="45.87288" lon="6.43533">
        <ele>1703.2</ele>
        <time>2017-03-17T12:26:41Z</time>
      </trkpt>
      <trkpt lat="45.87291" lon="6.43537">
        <ele>1703.2</ele>
        <time>2017-03-17T12:26:46Z</time>
      </trkpt>
      <trkpt lat="45.87294" lon="6.4354">
        <ele>1704.6</ele>
        <time>2017-03-17T12:26:51Z</time>
      </trkpt>
      <trkpt lat="45.87295" lon="6.43542">
        <ele>1704.8</ele>
        <time>2017-03-17T12:26:56Z</time>
      </trkpt>
      <trkpt lat="45.87295" lon="6.43542">
        <ele>1704.6</ele>
        <time>2017-03-17T12:27:06Z</time>
      </trkpt>
      <trkpt lat="45.87297" lon="6.43545">
        <ele>1703</ele>
        <time>2017-03-17T12:27:11Z</time>
      </trkpt>
      <trkpt lat="45.873" lon="6.43548">
        <ele>1706.6</ele>
        <time>2017-03-17T12:27:16Z</time>
      </trkpt>
      <trkpt lat="45.87304" lon="6.43552">
        <ele>1707.2</ele>
        <time>2017-03-17T12:27:21Z</time>
      </trkpt>
      <trkpt lat="45.87307" lon="6.43555">
        <ele>1707.2</ele>
        <time>2017-03-17T12:27:26Z</time>
      </trkpt>
      <trkpt lat="45.87311" lon="6.43558">
        <ele>1708.6</ele>
        <time>2017-03-17T12:27:31Z</time>
      </trkpt>
      <trkpt lat="45.87314" lon="6.43561">
        <ele>1707.4</ele>
        <time>2017-03-17T12:27:36Z</time>
      </trkpt>
      <trkpt lat="45.87317" lon="6.43563">
        <ele>1708.6</ele>
        <time>2017-03-17T12:27:41Z</time>
      </trkpt>
      <trkpt lat="45.87321" lon="6.43564">
        <ele>1710</ele>
        <time>2017-03-17T12:27:46Z</time>
      </trkpt>
      <trkpt lat="45.87325" lon="6.43566">
        <ele>1709.8</ele>
        <time>2017-03-17T12:27:51Z</time>
      </trkpt>
      <trkpt lat="45.87328" lon="6.43569">
        <ele>1712.4</ele>
        <time>2017-03-17T12:27:56Z</time>
      </trkpt>
      <trkpt lat="45.87331" lon="6.43571">
        <ele>1715.6</ele>
        <time>2017-03-17T12:28:01Z</time>
      </trkpt>
      <trkpt lat="45.87334" lon="6.43574">
        <ele>1714.2</ele>
        <time>2017-03-17T12:28:06Z</time>
      </trkpt>
      <trkpt lat="45.87338" lon="6.43575">
        <ele>1714.4</ele>
        <time>2017-03-17T12:28:11Z</time>
      </trkpt>
      <trkpt lat="45.87341" lon="6.43577">
        <ele>1717.2</ele>
        <time>2017-03-17T12:28:16Z</time>
      </trkpt>
      <trkpt lat="45.87344" lon="6.43579">
        <ele>1719.4</ele>
        <time>2017-03-17T12:28:21Z</time>
      </trkpt>
      <trkpt lat="45.87346" lon="6.43582">
        <ele>1718.6</ele>
        <time>2017-03-17T12:28:26Z</time>
      </trkpt>
      <trkpt lat="45.87349" lon="6.43585">
        <ele>1720.6</ele>
        <time>2017-03-17T12:28:31Z</time>
      </trkpt>
      <trkpt lat="45.87352" lon="6.43587">
        <ele>1719.4</ele>
        <time>2017-03-17T12:28:36Z</time>
      </trkpt>
      <trkpt lat="45.87355" lon="6.4359">
        <ele>1721.4</ele>
        <time>2017-03-17T12:28:41Z</time>
      </trkpt>
      <trkpt lat="45.87357" lon="6.43593">
        <ele>1720.8</ele>
        <time>2017-03-17T12:28:46Z</time>
      </trkpt>
      <trkpt lat="45.87359" lon="6.43596">
        <ele>1722.2</ele>
        <time>2017-03-17T12:28:51Z</time>
      </trkpt>
      <trkpt lat="45.87361" lon="6.43599">
        <ele>1722.2</ele>
        <time>2017-03-17T12:28:56Z</time>
      </trkpt>
      <trkpt lat="45.87363" lon="6.43603">
        <ele>1722.2</ele>
        <time>2017-03-17T12:29:01Z</time>
      </trkpt>
      <trkpt lat="45.87365" lon="6.43607">
        <ele>1723.8</ele>
        <time>2017-03-17T12:29:07Z</time>
      </trkpt>
      <trkpt lat="45.87366" lon="6.43611">
        <ele>1723.8</ele>
        <time>2017-03-17T12:29:12Z</time>
      </trkpt>
      <trkpt lat="45.87368" lon="6.43615">
        <ele>1724.6</ele>
        <time>2017-03-17T12:29:17Z</time>
      </trkpt>
      <trkpt lat="45.87368" lon="6.43618">
        <ele>1725.2</ele>
        <time>2017-03-17T12:29:22Z</time>
      </trkpt>
      <trkpt lat="45.87369" lon="6.43622">
        <ele>1727</ele>
        <time>2017-03-17T12:29:27Z</time>
      </trkpt>
      <trkpt lat="45.8737" lon="6.43627">
        <ele>1727.6</ele>
        <time>2017-03-17T12:29:32Z</time>
      </trkpt>
      <trkpt lat="45.87371" lon="6.43631">
        <ele>1726.8</ele>
        <time>2017-03-17T12:29:37Z</time>
      </trkpt>
      <trkpt lat="45.87372" lon="6.43635">
        <ele>1726.8</ele>
        <time>2017-03-17T12:29:42Z</time>
      </trkpt>
      <trkpt lat="45.87372" lon="6.43638">
        <ele>1726.8</ele>
        <time>2017-03-17T12:29:47Z</time>
      </trkpt>
      <trkpt lat="45.87373" lon="6.43643">
        <ele>1727.2</ele>
        <time>2017-03-17T12:29:52Z</time>
      </trkpt>
      <trkpt lat="45.87373" lon="6.43647">
        <ele>1728.6</ele>
        <time>2017-03-17T12:29:57Z</time>
      </trkpt>
      <trkpt lat="45.87372" lon="6.4365">
        <ele>1731.8</ele>
        <time>2017-03-17T12:30:02Z</time>
      </trkpt>
      <trkpt lat="45.87371" lon="6.43651">
        <ele>1732.4</ele>
        <time>2017-03-17T12:30:07Z</time>
      </trkpt>
      <trkpt lat="45.87369" lon="6.4365">
        <ele>1729.8</ele>
        <time>2017-03-17T12:30:12Z</time>
      </trkpt>
      <trkpt lat="45.87367" lon="6.43649">
        <ele>1729.8</ele>
        <time>2017-03-17T12:30:17Z</time>
      </trkpt>
      <trkpt lat="45.87365" lon="6.43647">
        <ele>1732</ele>
        <time>2017-03-17T12:30:22Z</time>
      </trkpt>
      <trkpt lat="45.87363" lon="6.43645">
        <ele>1732</ele>
        <time>2017-03-17T12:30:27Z</time>
      </trkpt>
      <trkpt lat="45.87361" lon="6.43644">
        <ele>1733</ele>
        <time>2017-03-17T12:30:32Z</time>
      </trkpt>
      <trkpt lat="45.87359" lon="6.43642">
        <ele>1737.2</ele>
        <time>2017-03-17T12:30:37Z</time>
      </trkpt>
      <trkpt lat="45.87356" lon="6.43641">
        <ele>1737.4</ele>
        <time>2017-03-17T12:30:42Z</time>
      </trkpt>
      <trkpt lat="45.87353" lon="6.4364">
        <ele>1740.2</ele>
        <time>2017-03-17T12:30:47Z</time>
      </trkpt>
      <trkpt lat="45.8735" lon="6.43639">
        <ele>1739</ele>
        <time>2017-03-17T12:30:52Z</time>
      </trkpt>
      <trkpt lat="45.87348" lon="6.43639">
        <ele>1740.4</ele>
        <time>2017-03-17T12:30:57Z</time>
      </trkpt>
      <trkpt lat="45.87345" lon="6.43638">
        <ele>1744.6</ele>
        <time>2017-03-17T12:31:02Z</time>
      </trkpt>
      <trkpt lat="45.87343" lon="6.43638">
        <ele>1739.6</ele>
        <time>2017-03-17T12:31:07Z</time>
      </trkpt>
      <trkpt lat="45.8734" lon="6.43638">
        <ele>1741</ele>
        <time>2017-03-17T12:31:12Z</time>
      </trkpt>
      <trkpt lat="45.87336" lon="6.43639">
        <ele>1744.2</ele>
        <time>2017-03-17T12:31:22Z</time>
      </trkpt>
      <trkpt lat="45.87335" lon="6.43638">
        <ele>1744.2</ele>
        <time>2017-03-17T12:31:27Z</time>
      </trkpt>
      <trkpt lat="45.87333" lon="6.43639">
        <ele>1745</ele>
        <time>2017-03-17T12:31:32Z</time>
      </trkpt>
      <trkpt lat="45.87331" lon="6.43641">
        <ele>1745.4</ele>
        <time>2017-03-17T12:31:37Z</time>
      </trkpt>
      <trkpt lat="45.87329" lon="6.43643">
        <ele>1748</ele>
        <time>2017-03-17T12:31:42Z</time>
      </trkpt>
      <trkpt lat="45.87327" lon="6.43646">
        <ele>1744.4</ele>
        <time>2017-03-17T12:31:47Z</time>
      </trkpt>
      <trkpt lat="45.87327" lon="6.4365">
        <ele>1750.2</ele>
        <time>2017-03-17T12:31:52Z</time>
      </trkpt>
      <trkpt lat="45.87326" lon="6.43654">
        <ele>1747.6</ele>
        <time>2017-03-17T12:31:57Z</time>
      </trkpt>
      <trkpt lat="45.87326" lon="6.43657">
        <ele>1748</ele>
        <time>2017-03-17T12:32:02Z</time>
      </trkpt>
      <trkpt lat="45.87326" lon="6.43657">
        <ele>1747.8</ele>
        <time>2017-03-17T12:32:07Z</time>
      </trkpt>
      <trkpt lat="45.87326" lon="6.4366">
        <ele>1749.4</ele>
        <time>2017-03-17T12:32:12Z</time>
      </trkpt>
      <trkpt lat="45.87327" lon="6.43664">
        <ele>1748.6</ele>
        <time>2017-03-17T12:32:17Z</time>
      </trkpt>
      <trkpt lat="45.87327" lon="6.43667">
        <ele>1751.6</ele>
        <time>2017-03-17T12:32:22Z</time>
      </trkpt>
      <trkpt lat="45.87327" lon="6.4367">
        <ele>1751.8</ele>
        <time>2017-03-17T12:32:27Z</time>
      </trkpt>
      <trkpt lat="45.87328" lon="6.43674">
        <ele>1751</ele>
        <time>2017-03-17T12:32:32Z</time>
      </trkpt>
      <trkpt lat="45.87329" lon="6.43677">
        <ele>1752.2</ele>
        <time>2017-03-17T12:32:37Z</time>
      </trkpt>
      <trkpt lat="45.87329" lon="6.43678">
        <ele>1751.4</ele>
        <time>2017-03-17T12:32:42Z</time>
      </trkpt>
      <trkpt lat="45.8733" lon="6.43681">
        <ele>1750.2</ele>
        <time>2017-03-17T12:33:17Z</time>
      </trkpt>
      <trkpt lat="45.87331" lon="6.43686">
        <ele>1752.2</ele>
        <time>2017-03-17T12:33:22Z</time>
      </trkpt>
      <trkpt lat="45.87332" lon="6.4369">
        <ele>1753.2</ele>
        <time>2017-03-17T12:33:27Z</time>
      </trkpt>
      <trkpt lat="45.87332" lon="6.43694">
        <ele>1755.2</ele>
        <time>2017-03-17T12:33:32Z</time>
      </trkpt>
      <trkpt lat="45.87333" lon="6.43699">
        <ele>1758</ele>
        <time>2017-03-17T12:33:37Z</time>
      </trkpt>
      <trkpt lat="45.87334" lon="6.43703">
        <ele>1755.4</ele>
        <time>2017-03-17T12:33:42Z</time>
      </trkpt>
      <trkpt lat="45.87335" lon="6.43707">
        <ele>1759</ele>
        <time>2017-03-17T12:33:47Z</time>
      </trkpt>
      <trkpt lat="45.87335" lon="6.43711">
        <ele>1760.8</ele>
        <time>2017-03-17T12:33:52Z</time>
      </trkpt>
      <trkpt lat="45.87336" lon="6.43715">
        <ele>1761.4</ele>
        <time>2017-03-17T12:33:57Z</time>
      </trkpt>
      <trkpt lat="45.87337" lon="6.43719">
        <ele>1762.2</ele>
        <time>2017-03-17T12:34:07Z</time>
      </trkpt>
      <trkpt lat="45.87339" lon="6.43723">
        <ele>1759.4</ele>
        <time>2017-03-17T12:34:12Z</time>
      </trkpt>
      <trkpt lat="45.87339" lon="6.43727">
        <ele>1761.2</ele>
        <time>2017-03-17T12:34:17Z</time>
      </trkpt>
      <trkpt lat="45.8734" lon="6.43731">
        <ele>1763.4</ele>
        <time>2017-03-17T12:34:22Z</time>
      </trkpt>
      <trkpt lat="45.87341" lon="6.43734">
        <ele>1766.6</ele>
        <time>2017-03-17T12:34:27Z</time>
      </trkpt>
      <trkpt lat="45.87342" lon="6.43737">
        <ele>1761.6</ele>
        <time>2017-03-17T12:34:32Z</time>
      </trkpt>
      <trkpt lat="45.87343" lon="6.43741">
        <ele>1765.6</ele>
        <time>2017-03-17T12:34:37Z</time>
      </trkpt>
      <trkpt lat="45.87344" lon="6.43745">
        <ele>1768.6</ele>
        <time>2017-03-17T12:34:42Z</time>
      </trkpt>
      <trkpt lat="45.87344" lon="6.43749">
        <ele>1764.6</ele>
        <time>2017-03-17T12:34:47Z</time>
      </trkpt>
      <trkpt lat="45.87345" lon="6.43751">
        <ele>1768</ele>
        <time>2017-03-17T12:35:02Z</time>
      </trkpt>
      <trkpt lat="45.87346" lon="6.43756">
        <ele>1770.8</ele>
        <time>2017-03-17T12:35:07Z</time>
      </trkpt>
      <trkpt lat="45.87347" lon="6.43759">
        <ele>1767.4</ele>
        <time>2017-03-17T12:35:12Z</time>
      </trkpt>
      <trkpt lat="45.87347" lon="6.43763">
        <ele>1768.8</ele>
        <time>2017-03-17T12:35:17Z</time>
      </trkpt>
      <trkpt lat="45.87348" lon="6.43766">
        <ele>1769.4</ele>
        <time>2017-03-17T12:35:22Z</time>
      </trkpt>
      <trkpt lat="45.87349" lon="6.4377">
        <ele>1768.4</ele>
        <time>2017-03-17T12:35:27Z</time>
      </trkpt>
      <trkpt lat="45.8735" lon="6.43773">
        <ele>1769.6</ele>
        <time>2017-03-17T12:35:32Z</time>
      </trkpt>
      <trkpt lat="45.87351" lon="6.43777">
        <ele>1767</ele>
        <time>2017-03-17T12:35:37Z</time>
      </trkpt>
      <trkpt lat="45.87352" lon="6.4378">
        <ele>1768.2</ele>
        <time>2017-03-17T12:35:42Z</time>
      </trkpt>
      <trkpt lat="45.87352" lon="6.43783">
        <ele>1769.6</ele>
        <time>2017-03-17T12:35:47Z</time>
      </trkpt>
      <trkpt lat="45.87353" lon="6.43786">
        <ele>1770.4</ele>
        <time>2017-03-17T12:35:52Z</time>
      </trkpt>
      <trkpt lat="45.87354" lon="6.4379">
        <ele>1771</ele>
        <time>2017-03-17T12:35:57Z</time>
      </trkpt>
      <trkpt lat="45.87354" lon="6.43793">
        <ele>1774.4</ele>
        <time>2017-03-17T12:36:02Z</time>
      </trkpt>
      <trkpt lat="45.87354" lon="6.43793">
        <ele>1773.2</ele>
        <time>2017-03-17T12:36:07Z</time>
      </trkpt>
      <trkpt lat="45.87354" lon="6.43794">
        <ele>1772.8</ele>
        <time>2017-03-17T12:36:12Z</time>
      </trkpt>
      <trkpt lat="45.87354" lon="6.43798">
        <ele>1774.8</ele>
        <time>2017-03-17T12:36:17Z</time>
      </trkpt>
      <trkpt lat="45.87354" lon="6.43801">
        <ele>1773.8</ele>
        <time>2017-03-17T12:36:22Z</time>
      </trkpt>
      <trkpt lat="45.87355" lon="6.43805">
        <ele>1776.2</ele>
        <time>2017-03-17T12:36:27Z</time>
      </trkpt>
      <trkpt lat="45.87355" lon="6.43809">
        <ele>1776</ele>
        <time>2017-03-17T12:36:32Z</time>
      </trkpt>
      <trkpt lat="45.87356" lon="6.43813">
        <ele>1776.6</ele>
        <time>2017-03-17T12:36:37Z</time>
      </trkpt>
      <trkpt lat="45.87356" lon="6.43817">
        <ele>1777.6</ele>
        <time>2017-03-17T12:36:42Z</time>
      </trkpt>
      <trkpt lat="45.87356" lon="6.43821">
        <ele>1778.2</ele>
        <time>2017-03-17T12:36:47Z</time>
      </trkpt>
      <trkpt lat="45.87357" lon="6.43825">
        <ele>1778.6</ele>
        <time>2017-03-17T12:36:52Z</time>
      </trkpt>
      <trkpt lat="45.87357" lon="6.43829">
        <ele>1780.8</ele>
        <time>2017-03-17T12:36:57Z</time>
      </trkpt>
      <trkpt lat="45.87358" lon="6.43831">
        <ele>1779.2</ele>
        <time>2017-03-17T12:37:02Z</time>
      </trkpt>
      <trkpt lat="45.87358" lon="6.43834">
        <ele>1777.4</ele>
        <time>2017-03-17T12:37:07Z</time>
      </trkpt>
      <trkpt lat="45.87358" lon="6.43838">
        <ele>1781.4</ele>
        <time>2017-03-17T12:37:12Z</time>
      </trkpt>
      <trkpt lat="45.87359" lon="6.43841">
        <ele>1781.8</ele>
        <time>2017-03-17T12:37:17Z</time>
      </trkpt>
      <trkpt lat="45.87359" lon="6.43845">
        <ele>1783.2</ele>
        <time>2017-03-17T12:37:22Z</time>
      </trkpt>
      <trkpt lat="45.87359" lon="6.43848">
        <ele>1784</ele>
        <time>2017-03-17T12:37:27Z</time>
      </trkpt>
      <trkpt lat="45.87359" lon="6.43852">
        <ele>1787.4</ele>
        <time>2017-03-17T12:37:32Z</time>
      </trkpt>
      <trkpt lat="45.87358" lon="6.43856">
        <ele>1786.6</ele>
        <time>2017-03-17T12:37:37Z</time>
      </trkpt>
      <trkpt lat="45.87357" lon="6.43859">
        <ele>1787.6</ele>
        <time>2017-03-17T12:37:42Z</time>
      </trkpt>
      <trkpt lat="45.87357" lon="6.43862">
        <ele>1788.6</ele>
        <time>2017-03-17T12:37:47Z</time>
      </trkpt>
      <trkpt lat="45.87356" lon="6.43865">
        <ele>1786.8</ele>
        <time>2017-03-17T12:37:52Z</time>
      </trkpt>
      <trkpt lat="45.87355" lon="6.43869">
        <ele>1789.2</ele>
        <time>2017-03-17T12:37:57Z</time>
      </trkpt>
      <trkpt lat="45.87354" lon="6.43872">
        <ele>1789.6</ele>
        <time>2017-03-17T12:38:02Z</time>
      </trkpt>
      <trkpt lat="45.87353" lon="6.43876">
        <ele>1791.6</ele>
        <time>2017-03-17T12:38:07Z</time>
      </trkpt>
      <trkpt lat="45.87352" lon="6.4388">
        <ele>1790.4</ele>
        <time>2017-03-17T12:38:12Z</time>
      </trkpt>
      <trkpt lat="45.87351" lon="6.43883">
        <ele>1792.4</ele>
        <time>2017-03-17T12:38:17Z</time>
      </trkpt>
      <trkpt lat="45.8735" lon="6.43887">
        <ele>1793.4</ele>
        <time>2017-03-17T12:38:22Z</time>
      </trkpt>
      <trkpt lat="45.87349" lon="6.43891">
        <ele>1795.2</ele>
        <time>2017-03-17T12:38:27Z</time>
      </trkpt>
      <trkpt lat="45.87348" lon="6.43894">
        <ele>1794.2</ele>
        <time>2017-03-17T12:38:32Z</time>
      </trkpt>
      <trkpt lat="45.87347" lon="6.43897">
        <ele>1798</ele>
        <time>2017-03-17T12:38:37Z</time>
      </trkpt>
      <trkpt lat="45.87345" lon="6.439">
        <ele>1795.8</ele>
        <time>2017-03-17T12:38:42Z</time>
      </trkpt>
      <trkpt lat="45.87343" lon="6.43902">
        <ele>1795.8</ele>
        <time>2017-03-17T12:38:47Z</time>
      </trkpt>
      <trkpt lat="45.87341" lon="6.43903">
        <ele>1798.2</ele>
        <time>2017-03-17T12:38:52Z</time>
      </trkpt>
      <trkpt lat="45.87338" lon="6.43902">
        <ele>1798.2</ele>
        <time>2017-03-17T12:38:57Z</time>
      </trkpt>
      <trkpt lat="45.87336" lon="6.43901">
        <ele>1796.6</ele>
        <time>2017-03-17T12:39:02Z</time>
      </trkpt>
      <trkpt lat="45.87334" lon="6.43899">
        <ele>1799.6</ele>
        <time>2017-03-17T12:39:07Z</time>
      </trkpt>
      <trkpt lat="45.87332" lon="6.43896">
        <ele>1799.2</ele>
        <time>2017-03-17T12:39:12Z</time>
      </trkpt>
      <trkpt lat="45.8733" lon="6.43894">
        <ele>1804.6</ele>
        <time>2017-03-17T12:39:17Z</time>
      </trkpt>
      <trkpt lat="45.87328" lon="6.43892">
        <ele>1802.4</ele>
        <time>2017-03-17T12:39:22Z</time>
      </trkpt>
      <trkpt lat="45.87326" lon="6.4389">
        <ele>1802</ele>
        <time>2017-03-17T12:39:27Z</time>
      </trkpt>
      <trkpt lat="45.87325" lon="6.43889">
        <ele>1804.8</ele>
        <time>2017-03-17T12:39:32Z</time>
      </trkpt>
      <trkpt lat="45.87322" lon="6.43887">
        <ele>1804.4</ele>
        <time>2017-03-17T12:39:37Z</time>
      </trkpt>
      <trkpt lat="45.8732" lon="6.43886">
        <ele>1804</ele>
        <time>2017-03-17T12:39:42Z</time>
      </trkpt>
      <trkpt lat="45.87318" lon="6.43885">
        <ele>1804.2</ele>
        <time>2017-03-17T12:39:47Z</time>
      </trkpt>
      <trkpt lat="45.87316" lon="6.43884">
        <ele>1803.2</ele>
        <time>2017-03-17T12:39:52Z</time>
      </trkpt>
      <trkpt lat="45.87314" lon="6.43884">
        <ele>1805</ele>
        <time>2017-03-17T12:39:57Z</time>
      </trkpt>
      <trkpt lat="45.87312" lon="6.43883">
        <ele>1808.6</ele>
        <time>2017-03-17T12:40:02Z</time>
      </trkpt>
      <trkpt lat="45.8731" lon="6.43882">
        <ele>1809.4</ele>
        <time>2017-03-17T12:40:07Z</time>
      </trkpt>
      <trkpt lat="45.87308" lon="6.43881">
        <ele>1811</ele>
        <time>2017-03-17T12:40:12Z</time>
      </trkpt>
      <trkpt lat="45.87306" lon="6.43881">
        <ele>1809</ele>
        <time>2017-03-17T12:40:17Z</time>
      </trkpt>
      <trkpt lat="45.87304" lon="6.4388">
        <ele>1813.6</ele>
        <time>2017-03-17T12:40:22Z</time>
      </trkpt>
      <trkpt lat="45.87302" lon="6.43878">
        <ele>1810</ele>
        <time>2017-03-17T12:40:27Z</time>
      </trkpt>
      <trkpt lat="45.873" lon="6.43877">
        <ele>1811.8</ele>
        <time>2017-03-17T12:40:32Z</time>
      </trkpt>
      <trkpt lat="45.873" lon="6.43878">
        <ele>1812.4</ele>
        <time>2017-03-17T12:40:37Z</time>
      </trkpt>
      <trkpt lat="45.87298" lon="6.43877">
        <ele>1813.2</ele>
        <time>2017-03-17T12:40:47Z</time>
      </trkpt>
      <trkpt lat="45.87296" lon="6.43876">
        <ele>1813.8</ele>
        <time>2017-03-17T12:40:52Z</time>
      </trkpt>
      <trkpt lat="45.87293" lon="6.43875">
        <ele>1815.8</ele>
        <time>2017-03-17T12:40:57Z</time>
      </trkpt>
      <trkpt lat="45.87292" lon="6.43874">
        <ele>1815.6</ele>
        <time>2017-03-17T12:41:02Z</time>
      </trkpt>
      <trkpt lat="45.87291" lon="6.43874">
        <ele>1816</ele>
        <time>2017-03-17T12:41:07Z</time>
      </trkpt>
      <trkpt lat="45.8729" lon="6.43874">
        <ele>1815.4</ele>
        <time>2017-03-17T12:41:12Z</time>
      </trkpt>
      <trkpt lat="45.87287" lon="6.43873">
        <ele>1815</ele>
        <time>2017-03-17T12:41:17Z</time>
      </trkpt>
      <trkpt lat="45.87285" lon="6.43871">
        <ele>1816</ele>
        <time>2017-03-17T12:41:22Z</time>
      </trkpt>
      <trkpt lat="45.87283" lon="6.4387">
        <ele>1819.4</ele>
        <time>2017-03-17T12:41:27Z</time>
      </trkpt>
      <trkpt lat="45.8728" lon="6.43868">
        <ele>1822.8</ele>
        <time>2017-03-17T12:41:32Z</time>
      </trkpt>
      <trkpt lat="45.87278" lon="6.43866">
        <ele>1821.8</ele>
        <time>2017-03-17T12:41:37Z</time>
      </trkpt>
      <trkpt lat="45.87275" lon="6.43865">
        <ele>1820.8</ele>
        <time>2017-03-17T12:41:42Z</time>
      </trkpt>
      <trkpt lat="45.87273" lon="6.43863">
        <ele>1823.6</ele>
        <time>2017-03-17T12:41:47Z</time>
      </trkpt>
      <trkpt lat="45.87272" lon="6.4386">
        <ele>1820.8</ele>
        <time>2017-03-17T12:41:52Z</time>
      </trkpt>
      <trkpt lat="45.8727" lon="6.43859">
        <ele>1824.8</ele>
        <time>2017-03-17T12:41:57Z</time>
      </trkpt>
      <trkpt lat="45.87268" lon="6.43863">
        <ele>1824.4</ele>
        <time>2017-03-17T12:42:03Z</time>
      </trkpt>
      <trkpt lat="45.87266" lon="6.43864">
        <ele>1822.2</ele>
        <time>2017-03-17T12:42:08Z</time>
      </trkpt>
      <trkpt lat="45.87265" lon="6.43863">
        <ele>1824</ele>
        <time>2017-03-17T12:42:13Z</time>
      </trkpt>
      <trkpt lat="45.87263" lon="6.4386">
        <ele>1824.4</ele>
        <time>2017-03-17T12:42:19Z</time>
      </trkpt>
      <trkpt lat="45.87262" lon="6.43858">
        <ele>1825</ele>
        <time>2017-03-17T12:42:24Z</time>
      </trkpt>
      <trkpt lat="45.87261" lon="6.43856">
        <ele>1824.2</ele>
        <time>2017-03-17T12:42:29Z</time>
      </trkpt>
      <trkpt lat="45.87259" lon="6.43853">
        <ele>1827.2</ele>
        <time>2017-03-17T12:42:34Z</time>
      </trkpt>
      <trkpt lat="45.87258" lon="6.4385">
        <ele>1826.2</ele>
        <time>2017-03-17T12:42:39Z</time>
      </trkpt>
      <trkpt lat="45.87256" lon="6.43848">
        <ele>1829.6</ele>
        <time>2017-03-17T12:42:44Z</time>
      </trkpt>
      <trkpt lat="45.87254" lon="6.43845">
        <ele>1825.8</ele>
        <time>2017-03-17T12:42:49Z</time>
      </trkpt>
      <trkpt lat="45.87252" lon="6.43843">
        <ele>1829.4</ele>
        <time>2017-03-17T12:42:54Z</time>
      </trkpt>
      <trkpt lat="45.8725" lon="6.43841">
        <ele>1828.4</ele>
        <time>2017-03-17T12:42:59Z</time>
      </trkpt>
      <trkpt lat="45.87248" lon="6.43838">
        <ele>1828</ele>
        <time>2017-03-17T12:43:04Z</time>
      </trkpt>
      <trkpt lat="45.87245" lon="6.43835">
        <ele>1830.6</ele>
        <time>2017-03-17T12:43:09Z</time>
      </trkpt>
      <trkpt lat="45.87242" lon="6.43832">
        <ele>1831.2</ele>
        <time>2017-03-17T12:43:14Z</time>
      </trkpt>
      <trkpt lat="45.87242" lon="6.43835">
        <ele>1832.6</ele>
        <time>2017-03-17T12:43:19Z</time>
      </trkpt>
      <trkpt lat="45.87242" lon="6.43838">
        <ele>1833</ele>
        <time>2017-03-17T12:43:24Z</time>
      </trkpt>
      <trkpt lat="45.87241" lon="6.43841">
        <ele>1832.8</ele>
        <time>2017-03-17T12:43:29Z</time>
      </trkpt>
      <trkpt lat="45.87239" lon="6.43843">
        <ele>1834.6</ele>
        <time>2017-03-17T12:43:34Z</time>
      </trkpt>
      <trkpt lat="45.87237" lon="6.43841">
        <ele>1834</ele>
        <time>2017-03-17T12:43:39Z</time>
      </trkpt>
      <trkpt lat="45.87236" lon="6.43838">
        <ele>1834.4</ele>
        <time>2017-03-17T12:43:44Z</time>
      </trkpt>
      <trkpt lat="45.87237" lon="6.43838">
        <ele>1831.8</ele>
        <time>2017-03-17T12:43:49Z</time>
      </trkpt>
      <trkpt lat="45.87235" lon="6.43836">
        <ele>1834.4</ele>
        <time>2017-03-17T12:43:54Z</time>
      </trkpt>
      <trkpt lat="45.87233" lon="6.43835">
        <ele>1835</ele>
        <time>2017-03-17T12:43:59Z</time>
      </trkpt>
      <trkpt lat="45.87231" lon="6.43836">
        <ele>1836.4</ele>
        <time>2017-03-17T12:44:04Z</time>
      </trkpt>
      <trkpt lat="45.87229" lon="6.43835">
        <ele>1834.6</ele>
        <time>2017-03-17T12:44:09Z</time>
      </trkpt>
      <trkpt lat="45.87228" lon="6.43832">
        <ele>1835.4</ele>
        <time>2017-03-17T12:44:14Z</time>
      </trkpt>
      <trkpt lat="45.87227" lon="6.43829">
        <ele>1837.6</ele>
        <time>2017-03-17T12:44:19Z</time>
      </trkpt>
      <trkpt lat="45.87225" lon="6.43827">
        <ele>1834.6</ele>
        <time>2017-03-17T12:44:24Z</time>
      </trkpt>
      <trkpt lat="45.87223" lon="6.43828">
        <ele>1838.4</ele>
        <time>2017-03-17T12:44:29Z</time>
      </trkpt>
      <trkpt lat="45.87221" lon="6.43828">
        <ele>1839.2</ele>
        <time>2017-03-17T12:44:34Z</time>
      </trkpt>
      <trkpt lat="45.87219" lon="6.43826">
        <ele>1838</ele>
        <time>2017-03-17T12:44:39Z</time>
      </trkpt>
      <trkpt lat="45.87219" lon="6.43823">
        <ele>1838.6</ele>
        <time>2017-03-17T12:44:44Z</time>
      </trkpt>
      <trkpt lat="45.87218" lon="6.43819">
        <ele>1838.8</ele>
        <time>2017-03-17T12:44:49Z</time>
      </trkpt>
      <trkpt lat="45.87218" lon="6.43817">
        <ele>1842</ele>
        <time>2017-03-17T12:44:54Z</time>
      </trkpt>
      <trkpt lat="45.87216" lon="6.43815">
        <ele>1844.4</ele>
        <time>2017-03-17T12:44:59Z</time>
      </trkpt>
      <trkpt lat="45.87213" lon="6.43815">
        <ele>1845.6</ele>
        <time>2017-03-17T12:45:04Z</time>
      </trkpt>
      <trkpt lat="45.87211" lon="6.43815">
        <ele>1843.8</ele>
        <time>2017-03-17T12:45:09Z</time>
      </trkpt>
      <trkpt lat="45.8721" lon="6.43813">
        <ele>1845.6</ele>
        <time>2017-03-17T12:45:14Z</time>
      </trkpt>
      <trkpt lat="45.8721" lon="6.4381">
        <ele>1845.6</ele>
        <time>2017-03-17T12:45:19Z</time>
      </trkpt>
      <trkpt lat="45.87209" lon="6.43807">
        <ele>1847.2</ele>
        <time>2017-03-17T12:45:24Z</time>
      </trkpt>
      <trkpt lat="45.87207" lon="6.43805">
        <ele>1844.6</ele>
        <time>2017-03-17T12:45:29Z</time>
      </trkpt>
      <trkpt lat="45.87205" lon="6.43804">
        <ele>1846</ele>
        <time>2017-03-17T12:45:34Z</time>
      </trkpt>
      <trkpt lat="45.87203" lon="6.43804">
        <ele>1845.6</ele>
        <time>2017-03-17T12:45:39Z</time>
      </trkpt>
      <trkpt lat="45.87198" lon="6.43804">
        <ele>1847.2</ele>
        <time>2017-03-17T12:45:49Z</time>
      </trkpt>
      <trkpt lat="45.87197" lon="6.43802">
        <ele>1846.6</ele>
        <time>2017-03-17T12:45:54Z</time>
      </trkpt>
      <trkpt lat="45.87197" lon="6.43799">
        <ele>1848.6</ele>
        <time>2017-03-17T12:45:59Z</time>
      </trkpt>
      <trkpt lat="45.87196" lon="6.43795">
        <ele>1851.2</ele>
        <time>2017-03-17T12:46:04Z</time>
      </trkpt>
      <trkpt lat="45.87194" lon="6.43794">
        <ele>1849.8</ele>
        <time>2017-03-17T12:46:09Z</time>
      </trkpt>
      <trkpt lat="45.87191" lon="6.43795">
        <ele>1851.6</ele>
        <time>2017-03-17T12:46:14Z</time>
      </trkpt>
      <trkpt lat="45.87189" lon="6.43796">
        <ele>1850</ele>
        <time>2017-03-17T12:46:19Z</time>
      </trkpt>
      <trkpt lat="45.87187" lon="6.43794">
        <ele>1851.8</ele>
        <time>2017-03-17T12:46:24Z</time>
      </trkpt>
      <trkpt lat="45.87186" lon="6.43791">
        <ele>1854</ele>
        <time>2017-03-17T12:46:29Z</time>
      </trkpt>
      <trkpt lat="45.87185" lon="6.43788">
        <ele>1852.2</ele>
        <time>2017-03-17T12:46:34Z</time>
      </trkpt>
      <trkpt lat="45.87183" lon="6.43787">
        <ele>1854.4</ele>
        <time>2017-03-17T12:46:39Z</time>
      </trkpt>
      <trkpt lat="45.87181" lon="6.43788">
        <ele>1856.8</ele>
        <time>2017-03-17T12:46:44Z</time>
      </trkpt>
      <trkpt lat="45.87179" lon="6.43789">
        <ele>1856</ele>
        <time>2017-03-17T12:46:49Z</time>
      </trkpt>
      <trkpt lat="45.87177" lon="6.43788">
        <ele>1855.4</ele>
        <time>2017-03-17T12:46:54Z</time>
      </trkpt>
      <trkpt lat="45.87176" lon="6.43785">
        <ele>1859.6</ele>
        <time>2017-03-17T12:46:59Z</time>
      </trkpt>
      <trkpt lat="45.87175" lon="6.43783">
        <ele>1857.8</ele>
        <time>2017-03-17T12:47:04Z</time>
      </trkpt>
      <trkpt lat="45.87174" lon="6.4378">
        <ele>1860.2</ele>
        <time>2017-03-17T12:47:09Z</time>
      </trkpt>
      <trkpt lat="45.87173" lon="6.43778">
        <ele>1862.4</ele>
        <time>2017-03-17T12:47:14Z</time>
      </trkpt>
      <trkpt lat="45.8717" lon="6.43779">
        <ele>1860.4</ele>
        <time>2017-03-17T12:47:19Z</time>
      </trkpt>
      <trkpt lat="45.87168" lon="6.4378">
        <ele>1860.4</ele>
        <time>2017-03-17T12:47:24Z</time>
      </trkpt>
      <trkpt lat="45.87165" lon="6.43778">
        <ele>1862</ele>
        <time>2017-03-17T12:47:34Z</time>
      </trkpt>
      <trkpt lat="45.87163" lon="6.43775">
        <ele>1862.4</ele>
        <time>2017-03-17T12:47:39Z</time>
      </trkpt>
      <trkpt lat="45.8716" lon="6.43775">
        <ele>1865.8</ele>
        <time>2017-03-17T12:47:44Z</time>
      </trkpt>
      <trkpt lat="45.87159" lon="6.43775">
        <ele>1864.8</ele>
        <time>2017-03-17T12:47:49Z</time>
      </trkpt>
      <trkpt lat="45.87156" lon="6.43777">
        <ele>1864</ele>
        <time>2017-03-17T12:47:54Z</time>
      </trkpt>
      <trkpt lat="45.87155" lon="6.43779">
        <ele>1867.8</ele>
        <time>2017-03-17T12:47:59Z</time>
      </trkpt>
      <trkpt lat="45.87154" lon="6.43782">
        <ele>1866</ele>
        <time>2017-03-17T12:48:04Z</time>
      </trkpt>
      <trkpt lat="45.87153" lon="6.43783">
        <ele>1866.6</ele>
        <time>2017-03-17T12:48:09Z</time>
      </trkpt>
      <trkpt lat="45.87153" lon="6.43783">
        <ele>1866.4</ele>
        <time>2017-03-17T12:48:14Z</time>
      </trkpt>
      <trkpt lat="45.87153" lon="6.43782">
        <ele>1865.4</ele>
        <time>2017-03-17T12:49:19Z</time>
      </trkpt>
      <trkpt lat="45.87153" lon="6.43783">
        <ele>1865.2</ele>
        <time>2017-03-17T12:50:19Z</time>
      </trkpt>
      <trkpt lat="45.87153" lon="6.43786">
        <ele>1865</ele>
        <time>2017-03-17T12:50:24Z</time>
      </trkpt>
      <trkpt lat="45.87153" lon="6.4379">
        <ele>1862.4</ele>
        <time>2017-03-17T12:50:29Z</time>
      </trkpt>
      <trkpt lat="45.87154" lon="6.43793">
        <ele>1865.8</ele>
        <time>2017-03-17T12:50:34Z</time>
      </trkpt>
      <trkpt lat="45.87155" lon="6.43796">
        <ele>1866</ele>
        <time>2017-03-17T12:50:39Z</time>
      </trkpt>
      <trkpt lat="45.87156" lon="6.43799">
        <ele>1867</ele>
        <time>2017-03-17T12:50:44Z</time>
      </trkpt>
      <trkpt lat="45.87157" lon="6.43802">
        <ele>1868.6</ele>
        <time>2017-03-17T12:50:49Z</time>
      </trkpt>
      <trkpt lat="45.87157" lon="6.43805">
        <ele>1868.4</ele>
        <time>2017-03-17T12:50:54Z</time>
      </trkpt>
      <trkpt lat="45.87157" lon="6.43808">
        <ele>1867</ele>
        <time>2017-03-17T12:50:59Z</time>
      </trkpt>
      <trkpt lat="45.87157" lon="6.43812">
        <ele>1866</ele>
        <time>2017-03-17T12:51:04Z</time>
      </trkpt>
      <trkpt lat="45.87156" lon="6.43815">
        <ele>1868</ele>
        <time>2017-03-17T12:51:09Z</time>
      </trkpt>
      <trkpt lat="45.87156" lon="6.43818">
        <ele>1869.6</ele>
        <time>2017-03-17T12:51:14Z</time>
      </trkpt>
      <trkpt lat="45.87156" lon="6.43821">
        <ele>1868.8</ele>
        <time>2017-03-17T12:51:19Z</time>
      </trkpt>
      <trkpt lat="45.87156" lon="6.43822">
        <ele>1871</ele>
        <time>2017-03-17T12:51:24Z</time>
      </trkpt>
      <trkpt lat="45.87156" lon="6.43824">
        <ele>1874.6</ele>
        <time>2017-03-17T12:51:29Z</time>
      </trkpt>
      <trkpt lat="45.87156" lon="6.43827">
        <ele>1873.6</ele>
        <time>2017-03-17T12:51:34Z</time>
      </trkpt>
      <trkpt lat="45.87156" lon="6.4383">
        <ele>1877.4</ele>
        <time>2017-03-17T12:51:39Z</time>
      </trkpt>
      <trkpt lat="45.87155" lon="6.43833">
        <ele>1875.2</ele>
        <time>2017-03-17T12:51:44Z</time>
      </trkpt>
      <trkpt lat="45.87155" lon="6.43837">
        <ele>1874.4</ele>
        <time>2017-03-17T12:51:49Z</time>
      </trkpt>
      <trkpt lat="45.87154" lon="6.4384">
        <ele>1876.4</ele>
        <time>2017-03-17T12:51:54Z</time>
      </trkpt>
      <trkpt lat="45.87154" lon="6.43844">
        <ele>1878.4</ele>
        <time>2017-03-17T12:51:59Z</time>
      </trkpt>
      <trkpt lat="45.87154" lon="6.43848">
        <ele>1876.8</ele>
        <time>2017-03-17T12:52:04Z</time>
      </trkpt>
      <trkpt lat="45.87153" lon="6.43851">
        <ele>1877.2</ele>
        <time>2017-03-17T12:52:09Z</time>
      </trkpt>
      <trkpt lat="45.87153" lon="6.43854">
        <ele>1879</ele>
        <time>2017-03-17T12:52:14Z</time>
      </trkpt>
      <trkpt lat="45.87153" lon="6.43855">
        <ele>1879.8</ele>
        <time>2017-03-17T12:52:19Z</time>
      </trkpt>
      <trkpt lat="45.87153" lon="6.43856">
        <ele>1879</ele>
        <time>2017-03-17T12:52:29Z</time>
      </trkpt>
      <trkpt lat="45.87151" lon="6.43859">
        <ele>1880.6</ele>
        <time>2017-03-17T12:52:34Z</time>
      </trkpt>
      <trkpt lat="45.87149" lon="6.43861">
        <ele>1882.2</ele>
        <time>2017-03-17T12:52:39Z</time>
      </trkpt>
      <trkpt lat="45.87147" lon="6.43862">
        <ele>1884</ele>
        <time>2017-03-17T12:52:44Z</time>
      </trkpt>
      <trkpt lat="45.87145" lon="6.43862">
        <ele>1884</ele>
        <time>2017-03-17T12:52:49Z</time>
      </trkpt>
      <trkpt lat="45.87143" lon="6.43862">
        <ele>1885.6</ele>
        <time>2017-03-17T12:52:54Z</time>
      </trkpt>
      <trkpt lat="45.87141" lon="6.43861">
        <ele>1888.8</ele>
        <time>2017-03-17T12:52:59Z</time>
      </trkpt>
      <trkpt lat="45.87139" lon="6.43859">
        <ele>1886</ele>
        <time>2017-03-17T12:53:04Z</time>
      </trkpt>
      <trkpt lat="45.87137" lon="6.43858">
        <ele>1886.2</ele>
        <time>2017-03-17T12:53:09Z</time>
      </trkpt>
      <trkpt lat="45.87135" lon="6.43857">
        <ele>1887.2</ele>
        <time>2017-03-17T12:53:14Z</time>
      </trkpt>
      <trkpt lat="45.87132" lon="6.43855">
        <ele>1887</ele>
        <time>2017-03-17T12:53:19Z</time>
      </trkpt>
      <trkpt lat="45.8713" lon="6.43854">
        <ele>1888.6</ele>
        <time>2017-03-17T12:53:24Z</time>
      </trkpt>
      <trkpt lat="45.87128" lon="6.43853">
        <ele>1891.2</ele>
        <time>2017-03-17T12:53:29Z</time>
      </trkpt>
      <trkpt lat="45.87126" lon="6.43852">
        <ele>1892.8</ele>
        <time>2017-03-17T12:53:34Z</time>
      </trkpt>
      <trkpt lat="45.87123" lon="6.43852">
        <ele>1890.8</ele>
        <time>2017-03-17T12:53:39Z</time>
      </trkpt>
      <trkpt lat="45.87121" lon="6.43851">
        <ele>1894</ele>
        <time>2017-03-17T12:53:44Z</time>
      </trkpt>
      <trkpt lat="45.87118" lon="6.43851">
        <ele>1893.8</ele>
        <time>2017-03-17T12:53:49Z</time>
      </trkpt>
      <trkpt lat="45.87116" lon="6.4385">
        <ele>1894.8</ele>
        <time>2017-03-17T12:53:54Z</time>
      </trkpt>
      <trkpt lat="45.87113" lon="6.43849">
        <ele>1895.6</ele>
        <time>2017-03-17T12:53:59Z</time>
      </trkpt>
      <trkpt lat="45.87111" lon="6.43849">
        <ele>1898.4</ele>
        <time>2017-03-17T12:54:04Z</time>
      </trkpt>
      <trkpt lat="45.87109" lon="6.43848">
        <ele>1897.2</ele>
        <time>2017-03-17T12:54:09Z</time>
      </trkpt>
      <trkpt lat="45.87107" lon="6.43847">
        <ele>1898.2</ele>
        <time>2017-03-17T12:54:14Z</time>
      </trkpt>
      <trkpt lat="45.87105" lon="6.43846">
        <ele>1896.4</ele>
        <time>2017-03-17T12:54:19Z</time>
      </trkpt>
      <trkpt lat="45.87103" lon="6.43845">
        <ele>1898.6</ele>
        <time>2017-03-17T12:54:24Z</time>
      </trkpt>
      <trkpt lat="45.871" lon="6.43845">
        <ele>1899.2</ele>
        <time>2017-03-17T12:54:29Z</time>
      </trkpt>
      <trkpt lat="45.87098" lon="6.43844">
        <ele>1899.4</ele>
        <time>2017-03-17T12:54:34Z</time>
      </trkpt>
      <trkpt lat="45.87093" lon="6.43847">
        <ele>1899.4</ele>
        <time>2017-03-17T12:54:44Z</time>
      </trkpt>
      <trkpt lat="45.87093" lon="6.4385">
        <ele>1902</ele>
        <time>2017-03-17T12:54:49Z</time>
      </trkpt>
      <trkpt lat="45.87094" lon="6.43853">
        <ele>1900.4</ele>
        <time>2017-03-17T12:54:54Z</time>
      </trkpt>
      <trkpt lat="45.87094" lon="6.43855">
        <ele>1900.4</ele>
        <time>2017-03-17T12:54:59Z</time>
      </trkpt>
      <trkpt lat="45.87094" lon="6.43856">
        <ele>1900.6</ele>
        <time>2017-03-17T12:55:04Z</time>
      </trkpt>
      <trkpt lat="45.87094" lon="6.43856">
        <ele>1900.8</ele>
        <time>2017-03-17T12:55:09Z</time>
      </trkpt>
      <trkpt lat="45.87094" lon="6.43856">
        <ele>1901</ele>
        <time>2017-03-17T12:55:19Z</time>
      </trkpt>
      <trkpt lat="45.87095" lon="6.43858">
        <ele>1903.2</ele>
        <time>2017-03-17T12:55:29Z</time>
      </trkpt>
      <trkpt lat="45.87096" lon="6.4386">
        <ele>1903.6</ele>
        <time>2017-03-17T12:55:34Z</time>
      </trkpt>
      <trkpt lat="45.87096" lon="6.43861">
        <ele>1903</ele>
        <time>2017-03-17T12:55:39Z</time>
      </trkpt>
      <trkpt lat="45.87096" lon="6.43863">
        <ele>1904.6</ele>
        <time>2017-03-17T12:55:44Z</time>
      </trkpt>
      <trkpt lat="45.87097" lon="6.43865">
        <ele>1908.2</ele>
        <time>2017-03-17T12:55:49Z</time>
      </trkpt>
      <trkpt lat="45.87097" lon="6.43867">
        <ele>1905.8</ele>
        <time>2017-03-17T12:55:54Z</time>
      </trkpt>
      <trkpt lat="45.87099" lon="6.43869">
        <ele>1904.8</ele>
        <time>2017-03-17T12:56:05Z</time>
      </trkpt>
      <trkpt lat="45.87101" lon="6.43873">
        <ele>1905.4</ele>
        <time>2017-03-17T12:56:10Z</time>
      </trkpt>
      <trkpt lat="45.87103" lon="6.43876">
        <ele>1905.4</ele>
        <time>2017-03-17T12:56:15Z</time>
      </trkpt>
      <trkpt lat="45.87105" lon="6.4388">
        <ele>1906.4</ele>
        <time>2017-03-17T12:56:20Z</time>
      </trkpt>
      <trkpt lat="45.87106" lon="6.43882">
        <ele>1906.8</ele>
        <time>2017-03-17T12:56:25Z</time>
      </trkpt>
      <trkpt lat="45.87107" lon="6.43883">
        <ele>1905.4</ele>
        <time>2017-03-17T12:56:30Z</time>
      </trkpt>
      <trkpt lat="45.87106" lon="6.43883">
        <ele>1904.6</ele>
        <time>2017-03-17T12:56:40Z</time>
      </trkpt>
      <trkpt lat="45.87104" lon="6.43882">
        <ele>1908</ele>
        <time>2017-03-17T12:56:45Z</time>
      </trkpt>
      <trkpt lat="45.87104" lon="6.43881">
        <ele>1907.6</ele>
        <time>2017-03-17T12:56:50Z</time>
      </trkpt>
      <trkpt lat="45.87104" lon="6.43882">
        <ele>1906.6</ele>
        <time>2017-03-17T12:57:10Z</time>
      </trkpt>
      <trkpt lat="45.87104" lon="6.43882">
        <ele>1906.8</ele>
        <time>2017-03-17T12:57:20Z</time>
      </trkpt>
      <trkpt lat="45.87103" lon="6.43882">
        <ele>1907.2</ele>
        <time>2017-03-17T12:57:30Z</time>
      </trkpt>
      <trkpt lat="45.87104" lon="6.43881">
        <ele>1907.6</ele>
        <time>2017-03-17T12:57:40Z</time>
      </trkpt>
      <trkpt lat="45.87104" lon="6.43881">
        <ele>1908</ele>
        <time>2017-03-17T12:57:50Z</time>
      </trkpt>
      <trkpt lat="45.87104" lon="6.43881">
        <ele>1908</ele>
        <time>2017-03-17T12:57:55Z</time>
      </trkpt>
      <trkpt lat="45.87104" lon="6.43881">
        <ele>1908.6</ele>
        <time>2017-03-17T12:58:20Z</time>
      </trkpt>
      <trkpt lat="45.87104" lon="6.43881">
        <ele>1909</ele>
        <time>2017-03-17T12:58:25Z</time>
      </trkpt>
      <trkpt lat="45.87103" lon="6.43881">
        <ele>1909</ele>
        <time>2017-03-17T12:58:30Z</time>
      </trkpt>
      <trkpt lat="45.87103" lon="6.43882">
        <ele>1910.4</ele>
        <time>2017-03-17T12:58:45Z</time>
      </trkpt>
      <trkpt lat="45.87103" lon="6.43881">
        <ele>1910.6</ele>
        <time>2017-03-17T12:58:50Z</time>
      </trkpt>
      <trkpt lat="45.87103" lon="6.4388">
        <ele>1911</ele>
        <time>2017-03-17T12:59:10Z</time>
      </trkpt>
      <trkpt lat="45.87103" lon="6.43881">
        <ele>1911.6</ele>
        <time>2017-03-17T12:59:20Z</time>
      </trkpt>
      <trkpt lat="45.87105" lon="6.43884">
        <ele>1916</ele>
        <time>2017-03-17T12:59:25Z</time>
      </trkpt>
      <trkpt lat="45.87106" lon="6.43887">
        <ele>1913.6</ele>
        <time>2017-03-17T12:59:30Z</time>
      </trkpt>
      <trkpt lat="45.87108" lon="6.4389">
        <ele>1912.8</ele>
        <time>2017-03-17T12:59:35Z</time>
      </trkpt>
      <trkpt lat="45.87109" lon="6.43894">
        <ele>1912.6</ele>
        <time>2017-03-17T12:59:40Z</time>
      </trkpt>
      <trkpt lat="45.87111" lon="6.43898">
        <ele>1914.2</ele>
        <time>2017-03-17T12:59:45Z</time>
      </trkpt>
      <trkpt lat="45.87113" lon="6.43902">
        <ele>1912.8</ele>
        <time>2017-03-17T12:59:50Z</time>
      </trkpt>
      <trkpt lat="45.87115" lon="6.43906">
        <ele>1913.2</ele>
        <time>2017-03-17T12:59:55Z</time>
      </trkpt>
      <trkpt lat="45.87116" lon="6.43908">
        <ele>1910.8</ele>
        <time>2017-03-17T13:00:01Z</time>
      </trkpt>
      <trkpt lat="45.87116" lon="6.43912">
        <ele>1911.8</ele>
        <time>2017-03-17T13:00:06Z</time>
      </trkpt>
      <trkpt lat="45.87117" lon="6.43916">
        <ele>1909.8</ele>
        <time>2017-03-17T13:00:11Z</time>
      </trkpt>
      <trkpt lat="45.87117" lon="6.43922">
        <ele>1912.4</ele>
        <time>2017-03-17T13:00:21Z</time>
      </trkpt>
      <trkpt lat="45.87117" lon="6.43925">
        <ele>1914</ele>
        <time>2017-03-17T13:00:26Z</time>
      </trkpt>
      <trkpt lat="45.87117" lon="6.43928">
        <ele>1914.4</ele>
        <time>2017-03-17T13:00:31Z</time>
      </trkpt>
      <trkpt lat="45.87116" lon="6.43928">
        <ele>1917.2</ele>
        <time>2017-03-17T13:00:36Z</time>
      </trkpt>
      <trkpt lat="45.87114" lon="6.43925">
        <ele>1916</ele>
        <time>2017-03-17T13:00:41Z</time>
      </trkpt>
      <trkpt lat="45.87112" lon="6.43923">
        <ele>1917</ele>
        <time>2017-03-17T13:00:46Z</time>
      </trkpt>
      <trkpt lat="45.8711" lon="6.43921">
        <ele>1919.4</ele>
        <time>2017-03-17T13:00:51Z</time>
      </trkpt>
      <trkpt lat="45.8711" lon="6.4392">
        <ele>1918.6</ele>
        <time>2017-03-17T13:00:56Z</time>
      </trkpt>
      <trkpt lat="45.87108" lon="6.43917">
        <ele>1920.4</ele>
        <time>2017-03-17T13:01:01Z</time>
      </trkpt>
      <trkpt lat="45.87106" lon="6.43915">
        <ele>1921</ele>
        <time>2017-03-17T13:01:06Z</time>
      </trkpt>
      <trkpt lat="45.87106" lon="6.43914">
        <ele>1921.6</ele>
        <time>2017-03-17T13:01:11Z</time>
      </trkpt>
      <trkpt lat="45.87105" lon="6.43913">
        <ele>1920.6</ele>
        <time>2017-03-17T13:01:16Z</time>
      </trkpt>
      <trkpt lat="45.87102" lon="6.43911">
        <ele>1922</ele>
        <time>2017-03-17T13:01:21Z</time>
      </trkpt>
      <trkpt lat="45.87099" lon="6.43909">
        <ele>1922.6</ele>
        <time>2017-03-17T13:01:26Z</time>
      </trkpt>
      <trkpt lat="45.87097" lon="6.43907">
        <ele>1925.4</ele>
        <time>2017-03-17T13:01:31Z</time>
      </trkpt>
      <trkpt lat="45.87097" lon="6.43908">
        <ele>1925</ele>
        <time>2017-03-17T13:01:36Z</time>
      </trkpt>
      <trkpt lat="45.87097" lon="6.4391">
        <ele>1926.2</ele>
        <time>2017-03-17T13:01:41Z</time>
      </trkpt>
      <trkpt lat="45.87097" lon="6.43911">
        <ele>1925.4</ele>
        <time>2017-03-17T13:01:46Z</time>
      </trkpt>
      <trkpt lat="45.87097" lon="6.43913">
        <ele>1924.4</ele>
        <time>2017-03-17T13:02:01Z</time>
      </trkpt>
      <trkpt lat="45.87098" lon="6.43917">
        <ele>1925.8</ele>
        <time>2017-03-17T13:02:06Z</time>
      </trkpt>
      <trkpt lat="45.87098" lon="6.43921">
        <ele>1925.6</ele>
        <time>2017-03-17T13:02:11Z</time>
      </trkpt>
      <trkpt lat="45.87099" lon="6.43924">
        <ele>1925.8</ele>
        <time>2017-03-17T13:02:16Z</time>
      </trkpt>
      <trkpt lat="45.87099" lon="6.43928">
        <ele>1928.2</ele>
        <time>2017-03-17T13:02:21Z</time>
      </trkpt>
      <trkpt lat="45.871" lon="6.43932">
        <ele>1928.6</ele>
        <time>2017-03-17T13:02:26Z</time>
      </trkpt>
      <trkpt lat="45.871" lon="6.43935">
        <ele>1928</ele>
        <time>2017-03-17T13:02:31Z</time>
      </trkpt>
      <trkpt lat="45.87101" lon="6.43939">
        <ele>1929.6</ele>
        <time>2017-03-17T13:02:36Z</time>
      </trkpt>
      <trkpt lat="45.87101" lon="6.43942">
        <ele>1927.4</ele>
        <time>2017-03-17T13:02:41Z</time>
      </trkpt>
      <trkpt lat="45.87101" lon="6.43944">
        <ele>1929.4</ele>
        <time>2017-03-17T13:02:46Z</time>
      </trkpt>
      <trkpt lat="45.87101" lon="6.4395">
        <ele>1930.6</ele>
        <time>2017-03-17T13:02:56Z</time>
      </trkpt>
      <trkpt lat="45.87101" lon="6.43952">
        <ele>1931.2</ele>
        <time>2017-03-17T13:03:01Z</time>
      </trkpt>
      <trkpt lat="45.87101" lon="6.43953">
        <ele>1931.6</ele>
        <time>2017-03-17T13:03:06Z</time>
      </trkpt>
      <trkpt lat="45.87099" lon="6.43952">
        <ele>1935.6</ele>
        <time>2017-03-17T13:03:11Z</time>
      </trkpt>
      <trkpt lat="45.87097" lon="6.4395">
        <ele>1935.6</ele>
        <time>2017-03-17T13:03:16Z</time>
      </trkpt>
      <trkpt lat="45.87096" lon="6.43949">
        <ele>1934.6</ele>
        <time>2017-03-17T13:03:26Z</time>
      </trkpt>
      <trkpt lat="45.87094" lon="6.43947">
        <ele>1936.4</ele>
        <time>2017-03-17T13:03:31Z</time>
      </trkpt>
      <trkpt lat="45.87092" lon="6.43944">
        <ele>1935</ele>
        <time>2017-03-17T13:03:36Z</time>
      </trkpt>
      <trkpt lat="45.8709" lon="6.43942">
        <ele>1937.4</ele>
        <time>2017-03-17T13:03:41Z</time>
      </trkpt>
      <trkpt lat="45.87088" lon="6.43941">
        <ele>1936.6</ele>
        <time>2017-03-17T13:03:46Z</time>
      </trkpt>
      <trkpt lat="45.87086" lon="6.43939">
        <ele>1938.8</ele>
        <time>2017-03-17T13:03:51Z</time>
      </trkpt>
      <trkpt lat="45.87083" lon="6.43937">
        <ele>1936.8</ele>
        <time>2017-03-17T13:03:56Z</time>
      </trkpt>
      <trkpt lat="45.87081" lon="6.43936">
        <ele>1937.8</ele>
        <time>2017-03-17T13:04:01Z</time>
      </trkpt>
      <trkpt lat="45.87079" lon="6.43934">
        <ele>1939.4</ele>
        <time>2017-03-17T13:04:06Z</time>
      </trkpt>
      <trkpt lat="45.87076" lon="6.43933">
        <ele>1940.2</ele>
        <time>2017-03-17T13:04:11Z</time>
      </trkpt>
      <trkpt lat="45.87074" lon="6.43932">
        <ele>1941.6</ele>
        <time>2017-03-17T13:04:16Z</time>
      </trkpt>
      <trkpt lat="45.87071" lon="6.43931">
        <ele>1942</ele>
        <time>2017-03-17T13:04:21Z</time>
      </trkpt>
      <trkpt lat="45.8707" lon="6.43931">
        <ele>1942.2</ele>
        <time>2017-03-17T13:04:26Z</time>
      </trkpt>
      <trkpt lat="45.87071" lon="6.43933">
        <ele>1946.2</ele>
        <time>2017-03-17T13:04:31Z</time>
      </trkpt>
      <trkpt lat="45.87071" lon="6.43933">
        <ele>1943.8</ele>
        <time>2017-03-17T13:04:58Z</time>
      </trkpt>
      <trkpt lat="45.87071" lon="6.43935">
        <ele>1940.2</ele>
        <time>2017-03-17T13:05:08Z</time>
      </trkpt>
      <trkpt lat="45.87072" lon="6.43935">
        <ele>1941</ele>
        <time>2017-03-17T13:05:13Z</time>
      </trkpt>
      <trkpt lat="45.87073" lon="6.43939">
        <ele>1942.2</ele>
        <time>2017-03-17T13:05:18Z</time>
      </trkpt>
      <trkpt lat="45.87075" lon="6.43942">
        <ele>1944.6</ele>
        <time>2017-03-17T13:05:23Z</time>
      </trkpt>
      <trkpt lat="45.87076" lon="6.43945">
        <ele>1943.2</ele>
        <time>2017-03-17T13:05:28Z</time>
      </trkpt>
      <trkpt lat="45.87077" lon="6.43949">
        <ele>1944.2</ele>
        <time>2017-03-17T13:05:33Z</time>
      </trkpt>
      <trkpt lat="45.87078" lon="6.4395">
        <ele>1946.2</ele>
        <time>2017-03-17T13:05:38Z</time>
      </trkpt>
      <trkpt lat="45.87076" lon="6.43951">
        <ele>1947.4</ele>
        <time>2017-03-17T13:05:43Z</time>
      </trkpt>
      <trkpt lat="45.87074" lon="6.4395">
        <ele>1944.8</ele>
        <time>2017-03-17T13:05:48Z</time>
      </trkpt>
      <trkpt lat="45.87072" lon="6.43949">
        <ele>1947.8</ele>
        <time>2017-03-17T13:05:53Z</time>
      </trkpt>
      <trkpt lat="45.87069" lon="6.43948">
        <ele>1946.2</ele>
        <time>2017-03-17T13:05:58Z</time>
      </trkpt>
      <trkpt lat="45.87067" lon="6.43948">
        <ele>1948.2</ele>
        <time>2017-03-17T13:06:03Z</time>
      </trkpt>
      <trkpt lat="45.87065" lon="6.43948">
        <ele>1954.2</ele>
        <time>2017-03-17T13:06:08Z</time>
      </trkpt>
      <trkpt lat="45.87063" lon="6.43947">
        <ele>1950.6</ele>
        <time>2017-03-17T13:06:13Z</time>
      </trkpt>
      <trkpt lat="45.87061" lon="6.43948">
        <ele>1951.6</ele>
        <time>2017-03-17T13:06:18Z</time>
      </trkpt>
      <trkpt lat="45.87059" lon="6.43949">
        <ele>1952.2</ele>
        <time>2017-03-17T13:06:23Z</time>
      </trkpt>
      <trkpt lat="45.87056" lon="6.43949">
        <ele>1952</ele>
        <time>2017-03-17T13:06:28Z</time>
      </trkpt>
      <trkpt lat="45.87057" lon="6.43948">
        <ele>1950</ele>
        <time>2017-03-17T13:06:33Z</time>
      </trkpt>
      <trkpt lat="45.87057" lon="6.43949">
        <ele>1951</ele>
        <time>2017-03-17T13:06:38Z</time>
      </trkpt>
      <trkpt lat="45.87058" lon="6.43953">
        <ele>1951.8</ele>
        <time>2017-03-17T13:06:43Z</time>
      </trkpt>
      <trkpt lat="45.87059" lon="6.43956">
        <ele>1951.6</ele>
        <time>2017-03-17T13:06:48Z</time>
      </trkpt>
      <trkpt lat="45.8706" lon="6.4396">
        <ele>1955.2</ele>
        <time>2017-03-17T13:06:53Z</time>
      </trkpt>
      <trkpt lat="45.8706" lon="6.43963">
        <ele>1954.2</ele>
        <time>2017-03-17T13:06:58Z</time>
      </trkpt>
      <trkpt lat="45.8706" lon="6.43966">
        <ele>1954.8</ele>
        <time>2017-03-17T13:07:03Z</time>
      </trkpt>
      <trkpt lat="45.87059" lon="6.43969">
        <ele>1953.8</ele>
        <time>2017-03-17T13:07:08Z</time>
      </trkpt>
      <trkpt lat="45.87059" lon="6.43976">
        <ele>1956.6</ele>
        <time>2017-03-17T13:07:18Z</time>
      </trkpt>
      <trkpt lat="45.87059" lon="6.43978">
        <ele>1958.2</ele>
        <time>2017-03-17T13:07:33Z</time>
      </trkpt>
      <trkpt lat="45.87059" lon="6.43981">
        <ele>1961.4</ele>
        <time>2017-03-17T13:07:38Z</time>
      </trkpt>
      <trkpt lat="45.87059" lon="6.43987">
        <ele>1960.6</ele>
        <time>2017-03-17T13:07:48Z</time>
      </trkpt>
      <trkpt lat="45.87058" lon="6.43993">
        <ele>1962.2</ele>
        <time>2017-03-17T13:07:58Z</time>
      </trkpt>
      <trkpt lat="45.87057" lon="6.43996">
        <ele>1963.4</ele>
        <time>2017-03-17T13:08:03Z</time>
      </trkpt>
      <trkpt lat="45.87055" lon="6.43996">
        <ele>1964.4</ele>
        <time>2017-03-17T13:08:08Z</time>
      </trkpt>
      <trkpt lat="45.87053" lon="6.43994">
        <ele>1965.2</ele>
        <time>2017-03-17T13:08:13Z</time>
      </trkpt>
      <trkpt lat="45.87051" lon="6.43993">
        <ele>1967.2</ele>
        <time>2017-03-17T13:08:18Z</time>
      </trkpt>
      <trkpt lat="45.87049" lon="6.43995">
        <ele>1965.8</ele>
        <time>2017-03-17T13:08:23Z</time>
      </trkpt>
      <trkpt lat="45.87048" lon="6.43997">
        <ele>1967</ele>
        <time>2017-03-17T13:08:28Z</time>
      </trkpt>
      <trkpt lat="45.87047" lon="6.44">
        <ele>1966.6</ele>
        <time>2017-03-17T13:08:33Z</time>
      </trkpt>
      <trkpt lat="45.87046" lon="6.44003">
        <ele>1969.4</ele>
        <time>2017-03-17T13:08:38Z</time>
      </trkpt>
      <trkpt lat="45.87046" lon="6.44007">
        <ele>1968</ele>
        <time>2017-03-17T13:08:43Z</time>
      </trkpt>
      <trkpt lat="45.87045" lon="6.44008">
        <ele>1969.4</ele>
        <time>2017-03-17T13:08:48Z</time>
      </trkpt>
      <trkpt lat="45.87044" lon="6.44012">
        <ele>1969.2</ele>
        <time>2017-03-17T13:08:58Z</time>
      </trkpt>
      <trkpt lat="45.87043" lon="6.44014">
        <ele>1971.6</ele>
        <time>2017-03-17T13:09:03Z</time>
      </trkpt>
      <trkpt lat="45.87041" lon="6.44016">
        <ele>1971.2</ele>
        <time>2017-03-17T13:09:08Z</time>
      </trkpt>
      <trkpt lat="45.87039" lon="6.44018">
        <ele>1972.6</ele>
        <time>2017-03-17T13:09:13Z</time>
      </trkpt>
      <trkpt lat="45.87039" lon="6.44018">
        <ele>1972.4</ele>
        <time>2017-03-17T13:09:18Z</time>
      </trkpt>
      <trkpt lat="45.87039" lon="6.4402">
        <ele>1973.4</ele>
        <time>2017-03-17T13:09:23Z</time>
      </trkpt>
      <trkpt lat="45.87039" lon="6.4402">
        <ele>1973.4</ele>
        <time>2017-03-17T13:09:28Z</time>
      </trkpt>
      <trkpt lat="45.87038" lon="6.44024">
        <ele>1975.8</ele>
        <time>2017-03-17T13:09:33Z</time>
      </trkpt>
      <trkpt lat="45.87036" lon="6.44027">
        <ele>1974.4</ele>
        <time>2017-03-17T13:09:38Z</time>
      </trkpt>
      <trkpt lat="45.87036" lon="6.44028">
        <ele>1975.2</ele>
        <time>2017-03-17T13:09:43Z</time>
      </trkpt>
      <trkpt lat="45.87035" lon="6.4403">
        <ele>1975</ele>
        <time>2017-03-17T13:09:53Z</time>
      </trkpt>
      <trkpt lat="45.87033" lon="6.44033">
        <ele>1975.6</ele>
        <time>2017-03-17T13:09:58Z</time>
      </trkpt>
      <trkpt lat="45.87032" lon="6.44037">
        <ele>1974.8</ele>
        <time>2017-03-17T13:10:03Z</time>
      </trkpt>
      <trkpt lat="45.87031" lon="6.4404">
        <ele>1974.2</ele>
        <time>2017-03-17T13:10:08Z</time>
      </trkpt>
      <trkpt lat="45.87031" lon="6.44043">
        <ele>1975.2</ele>
        <time>2017-03-17T13:10:14Z</time>
      </trkpt>
      <trkpt lat="45.87031" lon="6.44047">
        <ele>1975.8</ele>
        <time>2017-03-17T13:10:19Z</time>
      </trkpt>
      <trkpt lat="45.87032" lon="6.44051">
        <ele>1972.2</ele>
        <time>2017-03-17T13:10:24Z</time>
      </trkpt>
      <trkpt lat="45.87032" lon="6.44056">
        <ele>1976</ele>
        <time>2017-03-17T13:10:29Z</time>
      </trkpt>
      <trkpt lat="45.87033" lon="6.44061">
        <ele>1976.6</ele>
        <time>2017-03-17T13:10:34Z</time>
      </trkpt>
      <trkpt lat="45.87034" lon="6.44066">
        <ele>1975.8</ele>
        <time>2017-03-17T13:10:39Z</time>
      </trkpt>
      <trkpt lat="45.87036" lon="6.4407">
        <ele>1976.8</ele>
        <time>2017-03-17T13:10:44Z</time>
      </trkpt>
      <trkpt lat="45.87038" lon="6.44074">
        <ele>1975.2</ele>
        <time>2017-03-17T13:10:49Z</time>
      </trkpt>
      <trkpt lat="45.8704" lon="6.44078">
        <ele>1978.4</ele>
        <time>2017-03-17T13:10:54Z</time>
      </trkpt>
      <trkpt lat="45.87043" lon="6.44081">
        <ele>1982.6</ele>
        <time>2017-03-17T13:10:59Z</time>
      </trkpt>
      <trkpt lat="45.87046" lon="6.44085">
        <ele>1981.6</ele>
        <time>2017-03-17T13:11:04Z</time>
      </trkpt>
      <trkpt lat="45.87049" lon="6.44089">
        <ele>1980.2</ele>
        <time>2017-03-17T13:11:09Z</time>
      </trkpt>
      <trkpt lat="45.87052" lon="6.44093">
        <ele>1981.6</ele>
        <time>2017-03-17T13:11:14Z</time>
      </trkpt>
      <trkpt lat="45.87055" lon="6.44096">
        <ele>1981.4</ele>
        <time>2017-03-17T13:11:19Z</time>
      </trkpt>
      <trkpt lat="45.87057" lon="6.441">
        <ele>1981.6</ele>
        <time>2017-03-17T13:11:24Z</time>
      </trkpt>
      <trkpt lat="45.87059" lon="6.44104">
        <ele>1982</ele>
        <time>2017-03-17T13:11:29Z</time>
      </trkpt>
      <trkpt lat="45.87062" lon="6.44108">
        <ele>1982.6</ele>
        <time>2017-03-17T13:11:34Z</time>
      </trkpt>
      <trkpt lat="45.87064" lon="6.44112">
        <ele>1985.8</ele>
        <time>2017-03-17T13:11:39Z</time>
      </trkpt>
      <trkpt lat="45.87066" lon="6.44116">
        <ele>1984</ele>
        <time>2017-03-17T13:11:44Z</time>
      </trkpt>
      <trkpt lat="45.87067" lon="6.4412">
        <ele>1983.4</ele>
        <time>2017-03-17T13:11:49Z</time>
      </trkpt>
      <trkpt lat="45.87067" lon="6.4412">
        <ele>1983.2</ele>
        <time>2017-03-17T13:11:54Z</time>
      </trkpt>
      <trkpt lat="45.87067" lon="6.4412">
        <ele>1983.8</ele>
        <time>2017-03-17T13:12:04Z</time>
      </trkpt>
      <trkpt lat="45.87067" lon="6.44121">
        <ele>1985.6</ele>
        <time>2017-03-17T13:12:09Z</time>
      </trkpt>
      <trkpt lat="45.87067" lon="6.44122">
        <ele>1986.2</ele>
        <time>2017-03-17T13:12:14Z</time>
      </trkpt>
      <trkpt lat="45.87067" lon="6.44125">
        <ele>1984.4</ele>
        <time>2017-03-17T13:12:19Z</time>
      </trkpt>
      <trkpt lat="45.87067" lon="6.44125">
        <ele>1985</ele>
        <time>2017-03-17T13:12:24Z</time>
      </trkpt>
      <trkpt lat="45.87067" lon="6.44125">
        <ele>1985.2</ele>
        <time>2017-03-17T13:12:29Z</time>
      </trkpt>
      <trkpt lat="45.87067" lon="6.44125">
        <ele>1985.8</ele>
        <time>2017-03-17T13:12:39Z</time>
      </trkpt>
      <trkpt lat="45.87067" lon="6.44125">
        <ele>1986</ele>
        <time>2017-03-17T13:12:49Z</time>
      </trkpt>
      <trkpt lat="45.87067" lon="6.44125">
        <ele>1986.6</ele>
        <time>2017-03-17T13:13:34Z</time>
      </trkpt>
      <trkpt lat="45.87067" lon="6.44125">
        <ele>1986.6</ele>
        <time>2017-03-17T13:13:54Z</time>
      </trkpt>
      <trkpt lat="45.87067" lon="6.44124">
        <ele>1986.6</ele>
        <time>2017-03-17T13:13:59Z</time>
      </trkpt>
      <trkpt lat="45.87067" lon="6.44124">
        <ele>1986.8</ele>
        <time>2017-03-17T13:14:14Z</time>
      </trkpt>
      <trkpt lat="45.87067" lon="6.44123">
        <ele>1986.8</ele>
        <time>2017-03-17T13:14:19Z</time>
      </trkpt>
      <trkpt lat="45.87067" lon="6.44124">
        <ele>1986.8</ele>
        <time>2017-03-17T13:14:34Z</time>
      </trkpt>
      <trkpt lat="45.87067" lon="6.44124">
        <ele>1987</ele>
        <time>2017-03-17T13:15:19Z</time>
      </trkpt>
      <trkpt lat="45.87068" lon="6.44124">
        <ele>1987</ele>
        <time>2017-03-17T13:15:24Z</time>
      </trkpt>
      <trkpt lat="45.87068" lon="6.44124">
        <ele>1987</ele>
        <time>2017-03-17T13:15:29Z</time>
      </trkpt>
      <trkpt lat="45.87068" lon="6.44124">
        <ele>1987.2</ele>
        <time>2017-03-17T13:15:34Z</time>
      </trkpt>
      <trkpt lat="45.87068" lon="6.44124">
        <ele>1987.2</ele>
        <time>2017-03-17T13:15:44Z</time>
      </trkpt>
      <trkpt lat="45.87068" lon="6.4412">
        <ele>1987.4</ele>
        <time>2017-03-17T13:15:49Z</time>
      </trkpt>
      <trkpt lat="45.87069" lon="6.44119">
        <ele>1985.8</ele>
        <time>2017-03-17T13:15:54Z</time>
      </trkpt>
      <trkpt lat="45.87069" lon="6.4412">
        <ele>1986</ele>
        <time>2017-03-17T13:15:59Z</time>
      </trkpt>
      <trkpt lat="45.87069" lon="6.4412">
        <ele>1986.2</ele>
        <time>2017-03-17T13:16:04Z</time>
      </trkpt>
      <trkpt lat="45.87069" lon="6.4412">
        <ele>1986.4</ele>
        <time>2017-03-17T13:16:09Z</time>
      </trkpt>
      <trkpt lat="45.87069" lon="6.4412">
        <ele>1986.4</ele>
        <time>2017-03-17T13:16:14Z</time>
      </trkpt>
      <trkpt lat="45.87069" lon="6.4412">
        <ele>1986.8</ele>
        <time>2017-03-17T13:17:19Z</time>
      </trkpt>
      <trkpt lat="45.87069" lon="6.44121">
        <ele>1986.8</ele>
        <time>2017-03-17T13:19:14Z</time>
      </trkpt>
      <trkpt lat="45.87068" lon="6.44121">
        <ele>1987</ele>
        <time>2017-03-17T13:20:10Z</time>
      </trkpt>
      <trkpt lat="45.87068" lon="6.44121">
        <ele>1986.8</ele>
        <time>2017-03-17T13:20:15Z</time>
      </trkpt>
      <trkpt lat="45.87068" lon="6.44122">
        <ele>1986.6</ele>
        <time>2017-03-17T13:21:56Z</time>
      </trkpt>
      <trkpt lat="45.87068" lon="6.44123">
        <ele>1985.8</ele>
        <time>2017-03-17T13:22:01Z</time>
      </trkpt>
      <trkpt lat="45.87068" lon="6.44123">
        <ele>1985.8</ele>
        <time>2017-03-17T13:22:11Z</time>
      </trkpt>
      <trkpt lat="45.87067" lon="6.44123">
        <ele>1986.6</ele>
        <time>2017-03-17T13:22:16Z</time>
      </trkpt>
      <trkpt lat="45.87067" lon="6.44124">
        <ele>1985.8</ele>
        <time>2017-03-17T13:22:21Z</time>
      </trkpt>
      <trkpt lat="45.87067" lon="6.44124">
        <ele>1985.8</ele>
        <time>2017-03-17T13:22:36Z</time>
      </trkpt>
      <trkpt lat="45.87067" lon="6.44123">
        <ele>1987.8</ele>
        <time>2017-03-17T13:22:46Z</time>
      </trkpt>
      <trkpt lat="45.87067" lon="6.44122">
        <ele>1987.2</ele>
        <time>2017-03-17T13:22:51Z</time>
      </trkpt>
      <trkpt lat="45.87068" lon="6.44121">
        <ele>1986</ele>
        <time>2017-03-17T13:23:06Z</time>
      </trkpt>
      <trkpt lat="45.87067" lon="6.44121">
        <ele>1985.6</ele>
        <time>2017-03-17T13:23:16Z</time>
      </trkpt>
      <trkpt lat="45.87067" lon="6.44121">
        <ele>1983.8</ele>
        <time>2017-03-17T13:23:26Z</time>
      </trkpt>
      <trkpt lat="45.87068" lon="6.44121">
        <ele>1985.4</ele>
        <time>2017-03-17T13:23:56Z</time>
      </trkpt>
      <trkpt lat="45.87067" lon="6.44121">
        <ele>1986.6</ele>
        <time>2017-03-17T13:24:01Z</time>
      </trkpt>
      <trkpt lat="45.87065" lon="6.44117">
        <ele>1985.4</ele>
        <time>2017-03-17T13:24:06Z</time>
      </trkpt>
      <trkpt lat="45.87058" lon="6.44106">
        <ele>1984.6</ele>
        <time>2017-03-17T13:24:11Z</time>
      </trkpt>
      <trkpt lat="45.87049" lon="6.44092">
        <ele>1984.4</ele>
        <time>2017-03-17T13:24:16Z</time>
      </trkpt>
      <trkpt lat="45.87036" lon="6.44068">
        <ele>1978.4</ele>
        <time>2017-03-17T13:24:21Z</time>
      </trkpt>
      <trkpt lat="45.87037" lon="6.44052">
        <ele>1975.4</ele>
        <time>2017-03-17T13:24:26Z</time>
      </trkpt>
      <trkpt lat="45.87037" lon="6.44052">
        <ele>1976.6</ele>
        <time>2017-03-17T13:24:31Z</time>
      </trkpt>
      <trkpt lat="45.87038" lon="6.44053">
        <ele>1976.8</ele>
        <time>2017-03-17T13:24:36Z</time>
      </trkpt>
      <trkpt lat="45.87043" lon="6.44039">
        <ele>1972</ele>
        <time>2017-03-17T13:24:41Z</time>
      </trkpt>
      <trkpt lat="45.87059" lon="6.4404">
        <ele>1967.4</ele>
        <time>2017-03-17T13:24:46Z</time>
      </trkpt>
      <trkpt lat="45.87069" lon="6.44006">
        <ele>1961.4</ele>
        <time>2017-03-17T13:24:51Z</time>
      </trkpt>
      <trkpt lat="45.87075" lon="6.43977">
        <ele>1958.6</ele>
        <time>2017-03-17T13:24:56Z</time>
      </trkpt>
      <trkpt lat="45.87089" lon="6.43989">
        <ele>1948.4</ele>
        <time>2017-03-17T13:25:01Z</time>
      </trkpt>
      <trkpt lat="45.87101" lon="6.43977">
        <ele>1946</ele>
        <time>2017-03-17T13:25:06Z</time>
      </trkpt>
      <trkpt lat="45.87115" lon="6.43984">
        <ele>1938.2</ele>
        <time>2017-03-17T13:25:11Z</time>
      </trkpt>
      <trkpt lat="45.87118" lon="6.43965">
        <ele>1933.8</ele>
        <time>2017-03-17T13:25:16Z</time>
      </trkpt>
      <trkpt lat="45.87134" lon="6.43974">
        <ele>1928.2</ele>
        <time>2017-03-17T13:25:21Z</time>
      </trkpt>
      <trkpt lat="45.87143" lon="6.43956">
        <ele>1921.2</ele>
        <time>2017-03-17T13:25:26Z</time>
      </trkpt>
      <trkpt lat="45.87151" lon="6.43955">
        <ele>1914.8</ele>
        <time>2017-03-17T13:25:31Z</time>
      </trkpt>
      <trkpt lat="45.87151" lon="6.43955">
        <ele>1911.2</ele>
        <time>2017-03-17T13:25:36Z</time>
      </trkpt>
      <trkpt lat="45.87151" lon="6.43954">
        <ele>1909</ele>
        <time>2017-03-17T13:25:41Z</time>
      </trkpt>
      <trkpt lat="45.8715" lon="6.43955">
        <ele>1907.4</ele>
        <time>2017-03-17T13:25:46Z</time>
      </trkpt>
      <trkpt lat="45.8715" lon="6.43955">
        <ele>1906.2</ele>
        <time>2017-03-17T13:25:51Z</time>
      </trkpt>
      <trkpt lat="45.8715" lon="6.43954">
        <ele>1905.2</ele>
        <time>2017-03-17T13:25:56Z</time>
      </trkpt>
      <trkpt lat="45.87152" lon="6.43941">
        <ele>1897.6</ele>
        <time>2017-03-17T13:26:01Z</time>
      </trkpt>
      <trkpt lat="45.87162" lon="6.43922">
        <ele>1893</ele>
        <time>2017-03-17T13:26:06Z</time>
      </trkpt>
      <trkpt lat="45.87177" lon="6.4393">
        <ele>1886.2</ele>
        <time>2017-03-17T13:26:11Z</time>
      </trkpt>
      <trkpt lat="45.87176" lon="6.43925">
        <ele>1889.8</ele>
        <time>2017-03-17T13:26:16Z</time>
      </trkpt>
      <trkpt lat="45.87176" lon="6.43923">
        <ele>1893</ele>
        <time>2017-03-17T13:26:26Z</time>
      </trkpt>
      <trkpt lat="45.87185" lon="6.43917">
        <ele>1883.8</ele>
        <time>2017-03-17T13:26:31Z</time>
      </trkpt>
      <trkpt lat="45.87196" lon="6.43896">
        <ele>1876.2</ele>
        <time>2017-03-17T13:26:36Z</time>
      </trkpt>
      <trkpt lat="45.87209" lon="6.43894">
        <ele>1868.6</ele>
        <time>2017-03-17T13:26:41Z</time>
      </trkpt>
      <trkpt lat="45.8722" lon="6.43871">
        <ele>1861.4</ele>
        <time>2017-03-17T13:26:46Z</time>
      </trkpt>
      <trkpt lat="45.87241" lon="6.43869">
        <ele>1854</ele>
        <time>2017-03-17T13:26:51Z</time>
      </trkpt>
      <trkpt lat="45.87246" lon="6.43843">
        <ele>1839</ele>
        <time>2017-03-17T13:26:56Z</time>
      </trkpt>
      <trkpt lat="45.8726" lon="6.43845">
        <ele>1832.8</ele>
        <time>2017-03-17T13:27:01Z</time>
      </trkpt>
      <trkpt lat="45.87259" lon="6.43846">
        <ele>1832.2</ele>
        <time>2017-03-17T13:27:06Z</time>
      </trkpt>
      <trkpt lat="45.87261" lon="6.43845">
        <ele>1831.2</ele>
        <time>2017-03-17T13:27:16Z</time>
      </trkpt>
      <trkpt lat="45.87263" lon="6.43818">
        <ele>1823.6</ele>
        <time>2017-03-17T13:27:21Z</time>
      </trkpt>
      <trkpt lat="45.87284" lon="6.43821">
        <ele>1815</ele>
        <time>2017-03-17T13:27:26Z</time>
      </trkpt>
      <trkpt lat="45.87303" lon="6.43804">
        <ele>1804.8</ele>
        <time>2017-03-17T13:27:31Z</time>
      </trkpt>
      <trkpt lat="45.8732" lon="6.43808">
        <ele>1793.6</ele>
        <time>2017-03-17T13:27:36Z</time>
      </trkpt>
      <trkpt lat="45.87333" lon="6.43798">
        <ele>1786.2</ele>
        <time>2017-03-17T13:27:41Z</time>
      </trkpt>
      <trkpt lat="45.87332" lon="6.43798">
        <ele>1785.4</ele>
        <time>2017-03-17T13:27:47Z</time>
      </trkpt>
      <trkpt lat="45.87332" lon="6.43798">
        <ele>1784.8</ele>
        <time>2017-03-17T13:27:52Z</time>
      </trkpt>
      <trkpt lat="45.87331" lon="6.43795">
        <ele>1784.4</ele>
        <time>2017-03-17T13:28:07Z</time>
      </trkpt>
      <trkpt lat="45.8733" lon="6.43778">
        <ele>1781.8</ele>
        <time>2017-03-17T13:28:12Z</time>
      </trkpt>
      <trkpt lat="45.87347" lon="6.43775">
        <ele>1775.2</ele>
        <time>2017-03-17T13:28:17Z</time>
      </trkpt>
      <trkpt lat="45.8735" lon="6.43745">
        <ele>1767.4</ele>
        <time>2017-03-17T13:28:22Z</time>
      </trkpt>
      <trkpt lat="45.87346" lon="6.43721">
        <ele>1763</ele>
        <time>2017-03-17T13:28:27Z</time>
      </trkpt>
      <trkpt lat="45.87363" lon="6.43728">
        <ele>1758.4</ele>
        <time>2017-03-17T13:28:32Z</time>
      </trkpt>
      <trkpt lat="45.87377" lon="6.43706">
        <ele>1747</ele>
        <time>2017-03-17T13:28:37Z</time>
      </trkpt>
      <trkpt lat="45.87385" lon="6.43686">
        <ele>1735.2</ele>
        <time>2017-03-17T13:28:42Z</time>
      </trkpt>
      <trkpt lat="45.8741" lon="6.43701">
        <ele>1731.2</ele>
        <time>2017-03-17T13:28:47Z</time>
      </trkpt>
      <trkpt lat="45.87425" lon="6.43696">
        <ele>1722.4</ele>
        <time>2017-03-17T13:28:52Z</time>
      </trkpt>
      <trkpt lat="45.87443" lon="6.4369">
        <ele>1712.4</ele>
        <time>2017-03-17T13:28:57Z</time>
      </trkpt>
      <trkpt lat="45.87464" lon="6.43689">
        <ele>1703.8</ele>
        <time>2017-03-17T13:29:02Z</time>
      </trkpt>
      <trkpt lat="45.87463" lon="6.43684">
        <ele>1702.2</ele>
        <time>2017-03-17T13:29:07Z</time>
      </trkpt>
      <trkpt lat="45.87463" lon="6.43685">
        <ele>1702.6</ele>
        <time>2017-03-17T13:29:12Z</time>
      </trkpt>
      <trkpt lat="45.87462" lon="6.43678">
        <ele>1702.6</ele>
        <time>2017-03-17T13:29:17Z</time>
      </trkpt>
      <trkpt lat="45.87464" lon="6.43671">
        <ele>1700.8</ele>
        <time>2017-03-17T13:29:27Z</time>
      </trkpt>
      <trkpt lat="45.87487" lon="6.43679">
        <ele>1692.8</ele>
        <time>2017-03-17T13:29:32Z</time>
      </trkpt>
      <trkpt lat="45.875" lon="6.43665">
        <ele>1689.2</ele>
        <time>2017-03-17T13:29:37Z</time>
      </trkpt>
      <trkpt lat="45.87518" lon="6.43657">
        <ele>1678.6</ele>
        <time>2017-03-17T13:29:42Z</time>
      </trkpt>
      <trkpt lat="45.87528" lon="6.43643">
        <ele>1668.4</ele>
        <time>2017-03-17T13:29:47Z</time>
      </trkpt>
      <trkpt lat="45.87547" lon="6.4365">
        <ele>1659.4</ele>
        <time>2017-03-17T13:29:52Z</time>
      </trkpt>
      <trkpt lat="45.87556" lon="6.43634">
        <ele>1654.2</ele>
        <time>2017-03-17T13:29:57Z</time>
      </trkpt>
      <trkpt lat="45.87571" lon="6.43644">
        <ele>1649.2</ele>
        <time>2017-03-17T13:30:02Z</time>
      </trkpt>
      <trkpt lat="45.87584" lon="6.4363">
        <ele>1646.2</ele>
        <time>2017-03-17T13:30:07Z</time>
      </trkpt>
      <trkpt lat="45.87603" lon="6.43631">
        <ele>1632.2</ele>
        <time>2017-03-17T13:30:12Z</time>
      </trkpt>
      <trkpt lat="45.87622" lon="6.43621">
        <ele>1625.4</ele>
        <time>2017-03-17T13:30:17Z</time>
      </trkpt>
      <trkpt lat="45.87622" lon="6.43602">
        <ele>1621.8</ele>
        <time>2017-03-17T13:30:22Z</time>
      </trkpt>
      <trkpt lat="45.8762" lon="6.43599">
        <ele>1620.6</ele>
        <time>2017-03-17T13:30:27Z</time>
      </trkpt>
      <trkpt lat="45.8762" lon="6.43599">
        <ele>1619.8</ele>
        <time>2017-03-17T13:30:32Z</time>
      </trkpt>
      <trkpt lat="45.8762" lon="6.43599">
        <ele>1619</ele>
        <time>2017-03-17T13:30:37Z</time>
      </trkpt>
      <trkpt lat="45.87619" lon="6.43598">
        <ele>1617.4</ele>
        <time>2017-03-17T13:30:47Z</time>
      </trkpt>
      <trkpt lat="45.87619" lon="6.43592">
        <ele>1617.2</ele>
        <time>2017-03-17T13:30:52Z</time>
      </trkpt>
      <trkpt lat="45.8762" lon="6.43576">
        <ele>1610.4</ele>
        <time>2017-03-17T13:30:57Z</time>
      </trkpt>
      <trkpt lat="45.87635" lon="6.43583">
        <ele>1609.6</ele>
        <time>2017-03-17T13:31:02Z</time>
      </trkpt>
      <trkpt lat="45.87647" lon="6.43572">
        <ele>1602</ele>
        <time>2017-03-17T13:31:07Z</time>
      </trkpt>
      <trkpt lat="45.8764" lon="6.43535">
        <ele>1598</ele>
        <time>2017-03-17T13:31:12Z</time>
      </trkpt>
      <trkpt lat="45.8765" lon="6.43523">
        <ele>1592.6</ele>
        <time>2017-03-17T13:31:22Z</time>
      </trkpt>
      <trkpt lat="45.87644" lon="6.435">
        <ele>1584</ele>
        <time>2017-03-17T13:31:27Z</time>
      </trkpt>
      <trkpt lat="45.87644" lon="6.43462">
        <ele>1580.2</ele>
        <time>2017-03-17T13:31:32Z</time>
      </trkpt>
      <trkpt lat="45.87642" lon="6.43456">
        <ele>1581.6</ele>
        <time>2017-03-17T13:31:37Z</time>
      </trkpt>
      <trkpt lat="45.87645" lon="6.4346">
        <ele>1579.8</ele>
        <time>2017-03-17T13:31:42Z</time>
      </trkpt>
      <trkpt lat="45.87657" lon="6.43476">
        <ele>1582.2</ele>
        <time>2017-03-17T13:31:47Z</time>
      </trkpt>
      <trkpt lat="45.87662" lon="6.43445">
        <ele>1575.2</ele>
        <time>2017-03-17T13:31:52Z</time>
      </trkpt>
      <trkpt lat="45.87664" lon="6.43412">
        <ele>1573.6</ele>
        <time>2017-03-17T13:31:57Z</time>
      </trkpt>
      <trkpt lat="45.87662" lon="6.43399">
        <ele>1574</ele>
        <time>2017-03-17T13:32:02Z</time>
      </trkpt>
      <trkpt lat="45.87652" lon="6.4338">
        <ele>1570.2</ele>
        <time>2017-03-17T13:32:07Z</time>
      </trkpt>
      <trkpt lat="45.87643" lon="6.43367">
        <ele>1569.6</ele>
        <time>2017-03-17T13:32:12Z</time>
      </trkpt>
      <trkpt lat="45.87638" lon="6.4336">
        <ele>1564.2</ele>
        <time>2017-03-17T13:32:17Z</time>
      </trkpt>
      <trkpt lat="45.87635" lon="6.43356">
        <ele>1565.2</ele>
        <time>2017-03-17T13:32:22Z</time>
      </trkpt>
      <trkpt lat="45.87633" lon="6.43353">
        <ele>1565.8</ele>
        <time>2017-03-17T13:32:27Z</time>
      </trkpt>
      <trkpt lat="45.87631" lon="6.43351">
        <ele>1565</ele>
        <time>2017-03-17T13:32:32Z</time>
      </trkpt>
      <trkpt lat="45.87628" lon="6.43351">
        <ele>1561.4</ele>
        <time>2017-03-17T13:32:38Z</time>
      </trkpt>
      <trkpt lat="45.87624" lon="6.43349">
        <ele>1565</ele>
        <time>2017-03-17T13:32:43Z</time>
      </trkpt>
      <trkpt lat="45.87622" lon="6.43348">
        <ele>1561.6</ele>
        <time>2017-03-17T13:32:48Z</time>
      </trkpt>
      <trkpt lat="45.87621" lon="6.43348">
        <ele>1563.2</ele>
        <time>2017-03-17T13:32:54Z</time>
      </trkpt>
      <trkpt lat="45.87619" lon="6.43347">
        <ele>1563.2</ele>
        <time>2017-03-17T13:32:59Z</time>
      </trkpt>
      <trkpt lat="45.87618" lon="6.43345">
        <ele>1563.4</ele>
        <time>2017-03-17T13:33:04Z</time>
      </trkpt>
      <trkpt lat="45.87616" lon="6.43343">
        <ele>1565.8</ele>
        <time>2017-03-17T13:33:09Z</time>
      </trkpt>
      <trkpt lat="45.87616" lon="6.43343">
        <ele>1565.8</ele>
        <time>2017-03-17T13:33:14Z</time>
      </trkpt>
      <trkpt lat="45.87614" lon="6.43342">
        <ele>1562.4</ele>
        <time>2017-03-17T13:33:19Z</time>
      </trkpt>
      <trkpt lat="45.87613" lon="6.4334">
        <ele>1562.2</ele>
        <time>2017-03-17T13:33:24Z</time>
      </trkpt>
      <trkpt lat="45.87612" lon="6.43339">
        <ele>1564</ele>
        <time>2017-03-17T13:33:29Z</time>
      </trkpt>
      <trkpt lat="45.87612" lon="6.43339">
        <ele>1564.8</ele>
        <time>2017-03-17T13:33:34Z</time>
      </trkpt>
      <trkpt lat="45.8761" lon="6.43339">
        <ele>1563</ele>
        <time>2017-03-17T13:33:39Z</time>
      </trkpt>
      <trkpt lat="45.87605" lon="6.43333">
        <ele>1565.2</ele>
        <time>2017-03-17T13:33:44Z</time>
      </trkpt>
      <trkpt lat="45.87598" lon="6.43315">
        <ele>1565.4</ele>
        <time>2017-03-17T13:33:49Z</time>
      </trkpt>
      <trkpt lat="45.87592" lon="6.43297">
        <ele>1564</ele>
        <time>2017-03-17T13:33:54Z</time>
      </trkpt>
      <trkpt lat="45.87591" lon="6.43286">
        <ele>1564</ele>
        <time>2017-03-17T13:33:59Z</time>
      </trkpt>
      <trkpt lat="45.8759" lon="6.43282">
        <ele>1565.4</ele>
        <time>2017-03-17T13:34:04Z</time>
      </trkpt>
      <trkpt lat="45.87589" lon="6.43277">
        <ele>1566</ele>
        <time>2017-03-17T13:34:09Z</time>
      </trkpt>
      <trkpt lat="45.87586" lon="6.4327">
        <ele>1562.8</ele>
        <time>2017-03-17T13:34:14Z</time>
      </trkpt>
      <trkpt lat="45.87582" lon="6.43261">
        <ele>1563</ele>
        <time>2017-03-17T13:34:19Z</time>
      </trkpt>
      <trkpt lat="45.87578" lon="6.43255">
        <ele>1563.4</ele>
        <time>2017-03-17T13:34:24Z</time>
      </trkpt>
      <trkpt lat="45.87578" lon="6.43255">
        <ele>1562.4</ele>
        <time>2017-03-17T13:34:29Z</time>
      </trkpt>
      <trkpt lat="45.87576" lon="6.43252">
        <ele>1560</ele>
        <time>2017-03-17T13:34:49Z</time>
      </trkpt>
      <trkpt lat="45.87573" lon="6.43246">
        <ele>1561.6</ele>
        <time>2017-03-17T13:34:54Z</time>
      </trkpt>
      <trkpt lat="45.87566" lon="6.43232">
        <ele>1562</ele>
        <time>2017-03-17T13:34:59Z</time>
      </trkpt>
      <trkpt lat="45.87559" lon="6.43216">
        <ele>1559</ele>
        <time>2017-03-17T13:35:04Z</time>
      </trkpt>
      <trkpt lat="45.87552" lon="6.43199">
        <ele>1553</ele>
        <time>2017-03-17T13:35:09Z</time>
      </trkpt>
      <trkpt lat="45.87547" lon="6.43182">
        <ele>1549.8</ele>
        <time>2017-03-17T13:35:14Z</time>
      </trkpt>
      <trkpt lat="45.87552" lon="6.43167">
        <ele>1553.4</ele>
        <time>2017-03-17T13:35:19Z</time>
      </trkpt>
      <trkpt lat="45.87555" lon="6.43159">
        <ele>1556.4</ele>
        <time>2017-03-17T13:35:24Z</time>
      </trkpt>
      <trkpt lat="45.87555" lon="6.43147">
        <ele>1554.6</ele>
        <time>2017-03-17T13:35:29Z</time>
      </trkpt>
      <trkpt lat="45.87554" lon="6.43135">
        <ele>1556.2</ele>
        <time>2017-03-17T13:35:34Z</time>
      </trkpt>
      <trkpt lat="45.87552" lon="6.43125">
        <ele>1555</ele>
        <time>2017-03-17T13:35:39Z</time>
      </trkpt>
      <trkpt lat="45.87549" lon="6.43114">
        <ele>1554</ele>
        <time>2017-03-17T13:35:44Z</time>
      </trkpt>
      <trkpt lat="45.87544" lon="6.43103">
        <ele>1554.6</ele>
        <time>2017-03-17T13:35:49Z</time>
      </trkpt>
      <trkpt lat="45.87542" lon="6.431">
        <ele>1554.4</ele>
        <time>2017-03-17T13:35:54Z</time>
      </trkpt>
      <trkpt lat="45.87541" lon="6.43099">
        <ele>1552.2</ele>
        <time>2017-03-17T13:35:59Z</time>
      </trkpt>
      <trkpt lat="45.87541" lon="6.43099">
        <ele>1552.6</ele>
        <time>2017-03-17T13:36:09Z</time>
      </trkpt>
      <trkpt lat="45.87541" lon="6.43099">
        <ele>1552.8</ele>
        <time>2017-03-17T13:36:14Z</time>
      </trkpt>
      <trkpt lat="45.87541" lon="6.43099">
        <ele>1553</ele>
        <time>2017-03-17T13:36:19Z</time>
      </trkpt>
      <trkpt lat="45.87541" lon="6.43099">
        <ele>1553</ele>
        <time>2017-03-17T13:36:24Z</time>
      </trkpt>
      <trkpt lat="45.87541" lon="6.43098">
        <ele>1553</ele>
        <time>2017-03-17T13:36:29Z</time>
      </trkpt>
      <trkpt lat="45.8754" lon="6.43098">
        <ele>1552.8</ele>
        <time>2017-03-17T13:36:34Z</time>
      </trkpt>
      <trkpt lat="45.87539" lon="6.43099">
        <ele>1552.2</ele>
        <time>2017-03-17T13:36:49Z</time>
      </trkpt>
      <trkpt lat="45.87536" lon="6.43098">
        <ele>1554.2</ele>
        <time>2017-03-17T13:37:04Z</time>
      </trkpt>
      <trkpt lat="45.87532" lon="6.43095">
        <ele>1556.2</ele>
        <time>2017-03-17T13:37:09Z</time>
      </trkpt>
      <trkpt lat="45.87527" lon="6.43093">
        <ele>1555.2</ele>
        <time>2017-03-17T13:37:14Z</time>
      </trkpt>
      <trkpt lat="45.87522" lon="6.4309">
        <ele>1558.2</ele>
        <time>2017-03-17T13:37:19Z</time>
      </trkpt>
      <trkpt lat="45.87517" lon="6.43085">
        <ele>1556.6</ele>
        <time>2017-03-17T13:37:24Z</time>
      </trkpt>
      <trkpt lat="45.87513" lon="6.43082">
        <ele>1556.8</ele>
        <time>2017-03-17T13:37:29Z</time>
      </trkpt>
      <trkpt lat="45.87511" lon="6.43075">
        <ele>1554.4</ele>
        <time>2017-03-17T13:37:34Z</time>
      </trkpt>
      <trkpt lat="45.8751" lon="6.43067">
        <ele>1555</ele>
        <time>2017-03-17T13:37:39Z</time>
      </trkpt>
      <trkpt lat="45.87511" lon="6.43061">
        <ele>1553.2</ele>
        <time>2017-03-17T13:37:44Z</time>
      </trkpt>
      <trkpt lat="45.87513" lon="6.43055">
        <ele>1555.8</ele>
        <time>2017-03-17T13:37:49Z</time>
      </trkpt>
      <trkpt lat="45.87514" lon="6.43049">
        <ele>1554.8</ele>
        <time>2017-03-17T13:37:54Z</time>
      </trkpt>
      <trkpt lat="45.87516" lon="6.43048">
        <ele>1556.6</ele>
        <time>2017-03-17T13:37:59Z</time>
      </trkpt>
      <trkpt lat="45.87516" lon="6.43048">
        <ele>1556.2</ele>
        <time>2017-03-17T13:38:19Z</time>
      </trkpt>
      <trkpt lat="45.87517" lon="6.43042">
        <ele>1552.8</ele>
        <time>2017-03-17T13:38:24Z</time>
      </trkpt>
      <trkpt lat="45.87521" lon="6.43043">
        <ele>1558</ele>
        <time>2017-03-17T13:38:29Z</time>
      </trkpt>
      <trkpt lat="45.87525" lon="6.43042">
        <ele>1558.6</ele>
        <time>2017-03-17T13:38:34Z</time>
      </trkpt>
      <trkpt lat="45.87526" lon="6.43043">
        <ele>1557.2</ele>
        <time>2017-03-17T13:38:39Z</time>
      </trkpt>
      <trkpt lat="45.87525" lon="6.43043">
        <ele>1556.4</ele>
        <time>2017-03-17T13:39:44Z</time>
      </trkpt>
      <trkpt lat="45.87525" lon="6.43043">
        <ele>1556.4</ele>
        <time>2017-03-17T13:39:49Z</time>
      </trkpt>
      <trkpt lat="45.87525" lon="6.43043">
        <ele>1556.4</ele>
        <time>2017-03-17T13:39:54Z</time>
      </trkpt>
      <trkpt lat="45.87525" lon="6.43043">
        <ele>1556.2</ele>
        <time>2017-03-17T13:39:59Z</time>
      </trkpt>
      <trkpt lat="45.87525" lon="6.43043">
        <ele>1556.2</ele>
        <time>2017-03-17T13:40:04Z</time>
      </trkpt>
      <trkpt lat="45.87525" lon="6.43043">
        <ele>1555.6</ele>
        <time>2017-03-17T13:42:00Z</time>
      </trkpt>
      <trkpt lat="45.87524" lon="6.43044">
        <ele>1555.6</ele>
        <time>2017-03-17T13:42:35Z</time>
      </trkpt>
      <trkpt lat="45.87525" lon="6.43044">
        <ele>1554.8</ele>
        <time>2017-03-17T13:47:45Z</time>
      </trkpt>
      <trkpt lat="45.87525" lon="6.43044">
        <ele>1554.8</ele>
        <time>2017-03-17T13:50:30Z</time>
      </trkpt>
      <trkpt lat="45.87524" lon="6.43044">
        <ele>1554.8</ele>
        <time>2017-03-17T13:51:35Z</time>
      </trkpt>
      <trkpt lat="45.87524" lon="6.43044">
        <ele>1554.4</ele>
        <time>2017-03-17T13:52:55Z</time>
      </trkpt>
      <trkpt lat="45.87524" lon="6.43044">
        <ele>1554.2</ele>
        <time>2017-03-17T13:54:10Z</time>
      </trkpt>
      <trkpt lat="45.87524" lon="6.43044">
        <ele>1554</ele>
        <time>2017-03-17T13:55:20Z</time>
      </trkpt>
      <trkpt lat="45.87524" lon="6.43044">
        <ele>1554</ele>
        <time>2017-03-17T13:55:45Z</time>
      </trkpt>
      <trkpt lat="45.87524" lon="6.43044">
        <ele>1554</ele>
        <time>2017-03-17T13:56:20Z</time>
      </trkpt>
      <trkpt lat="45.87524" lon="6.43044">
        <ele>1554</ele>
        <time>2017-03-17T13:56:40Z</time>
      </trkpt>
      <trkpt lat="45.87524" lon="6.43044">
        <ele>1554</ele>
        <time>2017-03-17T13:57:15Z</time>
      </trkpt>
      <trkpt lat="45.87523" lon="6.43044">
        <ele>1554</ele>
        <time>2017-03-17T13:57:40Z</time>
      </trkpt>
      <trkpt lat="45.87523" lon="6.43044">
        <ele>1553.6</ele>
        <time>2017-03-17T13:59:20Z</time>
      </trkpt>
      <trkpt lat="45.87523" lon="6.43044">
        <ele>1553.6</ele>
        <time>2017-03-17T13:59:45Z</time>
      </trkpt>
      <trkpt lat="45.87523" lon="6.43045">
        <ele>1553.6</ele>
        <time>2017-03-17T14:00:15Z</time>
      </trkpt>
      <trkpt lat="45.87523" lon="6.43045">
        <ele>1553.6</ele>
        <time>2017-03-17T14:00:45Z</time>
      </trkpt>
      <trkpt lat="45.87523" lon="6.43045">
        <ele>1553.8</ele>
        <time>2017-03-17T14:01:45Z</time>
      </trkpt>
      <trkpt lat="45.87522" lon="6.43045">
        <ele>1553.8</ele>
        <time>2017-03-17T14:02:55Z</time>
      </trkpt>
      <trkpt lat="45.87522" lon="6.43045">
        <ele>1553.6</ele>
        <time>2017-03-17T14:03:10Z</time>
      </trkpt>
      <trkpt lat="45.87522" lon="6.43046">
        <ele>1553.6</ele>
        <time>2017-03-17T14:03:15Z</time>
      </trkpt>
      <trkpt lat="45.87522" lon="6.43046">
        <ele>1553.6</ele>
        <time>2017-03-17T14:04:41Z</time>
      </trkpt>
      <trkpt lat="45.87521" lon="6.43046">
        <ele>1553.6</ele>
        <time>2017-03-17T14:04:46Z</time>
      </trkpt>
      <trkpt lat="45.87521" lon="6.43046">
        <ele>1553.6</ele>
        <time>2017-03-17T14:04:51Z</time>
      </trkpt>
      <trkpt lat="45.87521" lon="6.43046">
        <ele>1553.8</ele>
        <time>2017-03-17T14:06:16Z</time>
      </trkpt>
      <trkpt lat="45.87522" lon="6.43046">
        <ele>1553.8</ele>
        <time>2017-03-17T14:07:21Z</time>
      </trkpt>
      <trkpt lat="45.87522" lon="6.43046">
        <ele>1553.6</ele>
        <time>2017-03-17T14:08:16Z</time>
      </trkpt>
      <trkpt lat="45.87522" lon="6.43046">
        <ele>1553.6</ele>
        <time>2017-03-17T14:09:01Z</time>
      </trkpt>
      <trkpt lat="45.87522" lon="6.43045">
        <ele>1553.6</ele>
        <time>2017-03-17T14:10:22Z</time>
      </trkpt>
      <trkpt lat="45.87522" lon="6.43045">
        <ele>1553.6</ele>
        <time>2017-03-17T14:10:37Z</time>
      </trkpt>
      <trkpt lat="45.87522" lon="6.43045">
        <ele>1553.4</ele>
        <time>2017-03-17T14:10:42Z</time>
      </trkpt>
      <trkpt lat="45.87521" lon="6.43046">
        <ele>1553.2</ele>
        <time>2017-03-17T14:10:47Z</time>
      </trkpt>
      <trkpt lat="45.87521" lon="6.43046">
        <ele>1552.8</ele>
        <time>2017-03-17T14:10:57Z</time>
      </trkpt>
      <trkpt lat="45.87522" lon="6.43046">
        <ele>1552.6</ele>
        <time>2017-03-17T14:11:12Z</time>
      </trkpt>
      <trkpt lat="45.87522" lon="6.43046">
        <ele>1552.4</ele>
        <time>2017-03-17T14:11:27Z</time>
      </trkpt>
      <trkpt lat="45.87522" lon="6.43046">
        <ele>1552.6</ele>
        <time>2017-03-17T14:11:37Z</time>
      </trkpt>
      <trkpt lat="45.87522" lon="6.43046">
        <ele>1552.6</ele>
        <time>2017-03-17T14:11:57Z</time>
      </trkpt>
      <trkpt lat="45.87522" lon="6.43046">
        <ele>1552.6</ele>
        <time>2017-03-17T14:12:02Z</time>
      </trkpt>
      <trkpt lat="45.87523" lon="6.43045">
        <ele>1552.6</ele>
        <time>2017-03-17T14:12:17Z</time>
      </trkpt>
      <trkpt lat="45.87523" lon="6.43045">
        <ele>1552.6</ele>
        <time>2017-03-17T14:12:52Z</time>
      </trkpt>
      <trkpt lat="45.87523" lon="6.43045">
        <ele>1552.8</ele>
        <time>2017-03-17T14:13:27Z</time>
      </trkpt>
      <trkpt lat="45.87524" lon="6.43045">
        <ele>1552.8</ele>
        <time>2017-03-17T14:13:47Z</time>
      </trkpt>
      <trkpt lat="45.87524" lon="6.43045">
        <ele>1553</ele>
        <time>2017-03-17T14:14:02Z</time>
      </trkpt>
      <trkpt lat="45.87524" lon="6.43045">
        <ele>1553</ele>
        <time>2017-03-17T14:14:12Z</time>
      </trkpt>
      <trkpt lat="45.87524" lon="6.43044">
        <ele>1551.2</ele>
        <time>2017-03-17T14:14:17Z</time>
      </trkpt>
      <trkpt lat="45.87525" lon="6.43044">
        <ele>1551</ele>
        <time>2017-03-17T14:14:27Z</time>
      </trkpt>
      <trkpt lat="45.87524" lon="6.43044">
        <ele>1550.6</ele>
        <time>2017-03-17T14:14:32Z</time>
      </trkpt>
      <trkpt lat="45.87525" lon="6.43044">
        <ele>1550.4</ele>
        <time>2017-03-17T14:14:37Z</time>
      </trkpt>
      <trkpt lat="45.87524" lon="6.43043">
        <ele>1548.6</ele>
        <time>2017-03-17T14:14:47Z</time>
      </trkpt>
      <trkpt lat="45.87525" lon="6.43043">
        <ele>1549</ele>
        <time>2017-03-17T14:14:52Z</time>
      </trkpt>
      <trkpt lat="45.87524" lon="6.43043">
        <ele>1550.6</ele>
        <time>2017-03-17T14:15:32Z</time>
      </trkpt>
      <trkpt lat="45.87522" lon="6.43044">
        <ele>1553</ele>
        <time>2017-03-17T14:15:37Z</time>
      </trkpt>
      <trkpt lat="45.87519" lon="6.43044">
        <ele>1554.6</ele>
        <time>2017-03-17T14:15:42Z</time>
      </trkpt>
      <trkpt lat="45.87516" lon="6.43046">
        <ele>1552.4</ele>
        <time>2017-03-17T14:15:47Z</time>
      </trkpt>
      <trkpt lat="45.87514" lon="6.43049">
        <ele>1551.6</ele>
        <time>2017-03-17T14:15:52Z</time>
      </trkpt>
      <trkpt lat="45.87514" lon="6.43051">
        <ele>1553.4</ele>
        <time>2017-03-17T14:15:57Z</time>
      </trkpt>
      <trkpt lat="45.87513" lon="6.43049">
        <ele>1554</ele>
        <time>2017-03-17T14:16:07Z</time>
      </trkpt>
      <trkpt lat="45.87513" lon="6.4305">
        <ele>1555</ele>
        <time>2017-03-17T14:16:17Z</time>
      </trkpt>
      <trkpt lat="45.87514" lon="6.4305">
        <ele>1553</ele>
        <time>2017-03-17T14:16:22Z</time>
      </trkpt>
      <trkpt lat="45.87514" lon="6.4305">
        <ele>1553</ele>
        <time>2017-03-17T14:16:27Z</time>
      </trkpt>
      <trkpt lat="45.87513" lon="6.43047">
        <ele>1551.2</ele>
        <time>2017-03-17T14:16:32Z</time>
      </trkpt>
      <trkpt lat="45.87512" lon="6.43046">
        <ele>1549.4</ele>
        <time>2017-03-17T14:16:37Z</time>
      </trkpt>
      <trkpt lat="45.87512" lon="6.43046">
        <ele>1550.8</ele>
        <time>2017-03-17T14:16:42Z</time>
      </trkpt>
      <trkpt lat="45.87512" lon="6.43046">
        <ele>1551.8</ele>
        <time>2017-03-17T14:16:47Z</time>
      </trkpt>
      <trkpt lat="45.87512" lon="6.43045">
        <ele>1553</ele>
        <time>2017-03-17T14:16:57Z</time>
      </trkpt>
      <trkpt lat="45.87512" lon="6.43046">
        <ele>1553.2</ele>
        <time>2017-03-17T14:17:07Z</time>
      </trkpt>
      <trkpt lat="45.87512" lon="6.43046">
        <ele>1553.4</ele>
        <time>2017-03-17T14:17:12Z</time>
      </trkpt>
      <trkpt lat="45.87512" lon="6.43046">
        <ele>1553.6</ele>
        <time>2017-03-17T14:17:32Z</time>
      </trkpt>
      <trkpt lat="45.87511" lon="6.43046">
        <ele>1553.6</ele>
        <time>2017-03-17T14:17:42Z</time>
      </trkpt>
      <trkpt lat="45.8751" lon="6.43046">
        <ele>1553.4</ele>
        <time>2017-03-17T14:17:47Z</time>
      </trkpt>
      <trkpt lat="45.8751" lon="6.43045">
        <ele>1557</ele>
        <time>2017-03-17T14:17:52Z</time>
      </trkpt>
      <trkpt lat="45.8751" lon="6.43046">
        <ele>1556</ele>
        <time>2017-03-17T14:18:02Z</time>
      </trkpt>
      <trkpt lat="45.8751" lon="6.43048">
        <ele>1555</ele>
        <time>2017-03-17T14:18:07Z</time>
      </trkpt>
      <trkpt lat="45.87509" lon="6.43048">
        <ele>1552.6</ele>
        <time>2017-03-17T14:18:42Z</time>
      </trkpt>
      <trkpt lat="45.87508" lon="6.43048">
        <ele>1552.6</ele>
        <time>2017-03-17T14:18:47Z</time>
      </trkpt>
      <trkpt lat="45.87508" lon="6.43046">
        <ele>1552.4</ele>
        <time>2017-03-17T14:18:52Z</time>
      </trkpt>
      <trkpt lat="45.87503" lon="6.4304">
        <ele>1555.4</ele>
        <time>2017-03-17T14:18:57Z</time>
      </trkpt>
      <trkpt lat="45.87497" lon="6.43034">
        <ele>1554.4</ele>
        <time>2017-03-17T14:19:02Z</time>
      </trkpt>
      <trkpt lat="45.87491" lon="6.43029">
        <ele>1553.8</ele>
        <time>2017-03-17T14:19:07Z</time>
      </trkpt>
      <trkpt lat="45.87484" lon="6.43025">
        <ele>1552.6</ele>
        <time>2017-03-17T14:19:12Z</time>
      </trkpt>
      <trkpt lat="45.87474" lon="6.4302">
        <ele>1552.4</ele>
        <time>2017-03-17T14:19:17Z</time>
      </trkpt>
      <trkpt lat="45.87463" lon="6.43012">
        <ele>1553.8</ele>
        <time>2017-03-17T14:19:22Z</time>
      </trkpt>
      <trkpt lat="45.87454" lon="6.42998">
        <ele>1551</ele>
        <time>2017-03-17T14:19:27Z</time>
      </trkpt>
      <trkpt lat="45.87452" lon="6.4299">
        <ele>1551</ele>
        <time>2017-03-17T14:19:32Z</time>
      </trkpt>
      <trkpt lat="45.87451" lon="6.42981">
        <ele>1550.4</ele>
        <time>2017-03-17T14:19:37Z</time>
      </trkpt>
      <trkpt lat="45.87451" lon="6.42976">
        <ele>1548.4</ele>
        <time>2017-03-17T14:19:42Z</time>
      </trkpt>
      <trkpt lat="45.87451" lon="6.42965">
        <ele>1551.6</ele>
        <time>2017-03-17T14:19:47Z</time>
      </trkpt>
      <trkpt lat="45.87453" lon="6.42952">
        <ele>1550.4</ele>
        <time>2017-03-17T14:19:52Z</time>
      </trkpt>
      <trkpt lat="45.87448" lon="6.42924">
        <ele>1538.6</ele>
        <time>2017-03-17T14:19:57Z</time>
      </trkpt>
      <trkpt lat="45.87473" lon="6.42892">
        <ele>1538.4</ele>
        <time>2017-03-17T14:20:02Z</time>
      </trkpt>
      <trkpt lat="45.87488" lon="6.42865">
        <ele>1536</ele>
        <time>2017-03-17T14:20:07Z</time>
      </trkpt>
      <trkpt lat="45.875" lon="6.42856">
        <ele>1535.2</ele>
        <time>2017-03-17T14:20:12Z</time>
      </trkpt>
      <trkpt lat="45.87502" lon="6.42856">
        <ele>1534.6</ele>
        <time>2017-03-17T14:20:17Z</time>
      </trkpt>
      <trkpt lat="45.87502" lon="6.42856">
        <ele>1534.2</ele>
        <time>2017-03-17T14:20:22Z</time>
      </trkpt>
      <trkpt lat="45.87501" lon="6.42857">
        <ele>1533.8</ele>
        <time>2017-03-17T14:20:27Z</time>
      </trkpt>
      <trkpt lat="45.87504" lon="6.42859">
        <ele>1533.2</ele>
        <time>2017-03-17T14:20:32Z</time>
      </trkpt>
      <trkpt lat="45.87512" lon="6.42851">
        <ele>1534.2</ele>
        <time>2017-03-17T14:20:37Z</time>
      </trkpt>
      <trkpt lat="45.87525" lon="6.42836">
        <ele>1529.6</ele>
        <time>2017-03-17T14:20:42Z</time>
      </trkpt>
      <trkpt lat="45.87542" lon="6.42829">
        <ele>1526</ele>
        <time>2017-03-17T14:20:47Z</time>
      </trkpt>
      <trkpt lat="45.87561" lon="6.42822">
        <ele>1512.8</ele>
        <time>2017-03-17T14:20:52Z</time>
      </trkpt>
      <trkpt lat="45.87583" lon="6.42811">
        <ele>1505.6</ele>
        <time>2017-03-17T14:20:57Z</time>
      </trkpt>
      <trkpt lat="45.87607" lon="6.42809">
        <ele>1501.6</ele>
        <time>2017-03-17T14:21:02Z</time>
      </trkpt>
      <trkpt lat="45.87632" lon="6.4281">
        <ele>1493</ele>
        <time>2017-03-17T14:21:07Z</time>
      </trkpt>
      <trkpt lat="45.87657" lon="6.42815">
        <ele>1485</ele>
        <time>2017-03-17T14:21:12Z</time>
      </trkpt>
      <trkpt lat="45.87677" lon="6.42819">
        <ele>1476</ele>
        <time>2017-03-17T14:21:17Z</time>
      </trkpt>
      <trkpt lat="45.87684" lon="6.42834">
        <ele>1475.6</ele>
        <time>2017-03-17T14:21:22Z</time>
      </trkpt>
      <trkpt lat="45.87684" lon="6.42835">
        <ele>1474.2</ele>
        <time>2017-03-17T14:21:37Z</time>
      </trkpt>
      <trkpt lat="45.87691" lon="6.42829">
        <ele>1471</ele>
        <time>2017-03-17T14:21:42Z</time>
      </trkpt>
      <trkpt lat="45.87714" lon="6.42828">
        <ele>1465.8</ele>
        <time>2017-03-17T14:21:47Z</time>
      </trkpt>
      <trkpt lat="45.87741" lon="6.42814">
        <ele>1452.6</ele>
        <time>2017-03-17T14:21:52Z</time>
      </trkpt>
      <trkpt lat="45.87772" lon="6.42809">
        <ele>1448.6</ele>
        <time>2017-03-17T14:21:57Z</time>
      </trkpt>
      <trkpt lat="45.87804" lon="6.42819">
        <ele>1433.4</ele>
        <time>2017-03-17T14:22:02Z</time>
      </trkpt>
      <trkpt lat="45.87832" lon="6.42845">
        <ele>1427.6</ele>
        <time>2017-03-17T14:22:07Z</time>
      </trkpt>
      <trkpt lat="45.87872" lon="6.42846">
        <ele>1417.8</ele>
        <time>2017-03-17T14:22:12Z</time>
      </trkpt>
      <trkpt lat="45.87903" lon="6.42833">
        <ele>1409</ele>
        <time>2017-03-17T14:22:17Z</time>
      </trkpt>
      <trkpt lat="45.87935" lon="6.42847">
        <ele>1403</ele>
        <time>2017-03-17T14:22:22Z</time>
      </trkpt>
      <trkpt lat="45.87962" lon="6.4283">
        <ele>1394.4</ele>
        <time>2017-03-17T14:22:27Z</time>
      </trkpt>
      <trkpt lat="45.87985" lon="6.42838">
        <ele>1391.2</ele>
        <time>2017-03-17T14:22:32Z</time>
      </trkpt>
      <trkpt lat="45.88001" lon="6.42859">
        <ele>1382.8</ele>
        <time>2017-03-17T14:22:37Z</time>
      </trkpt>
      <trkpt lat="45.88002" lon="6.42866">
        <ele>1383.6</ele>
        <time>2017-03-17T14:22:42Z</time>
      </trkpt>
      <trkpt lat="45.88002" lon="6.42866">
        <ele>1383.2</ele>
        <time>2017-03-17T14:23:02Z</time>
      </trkpt>
      <trkpt lat="45.88004" lon="6.42867">
        <ele>1383.4</ele>
        <time>2017-03-17T14:23:07Z</time>
      </trkpt>
      <trkpt lat="45.88024" lon="6.42869">
        <ele>1375.8</ele>
        <time>2017-03-17T14:23:12Z</time>
      </trkpt>
      <trkpt lat="45.88047" lon="6.42864">
        <ele>1367.2</ele>
        <time>2017-03-17T14:23:17Z</time>
      </trkpt>
      <trkpt lat="45.88072" lon="6.42863">
        <ele>1360.6</ele>
        <time>2017-03-17T14:23:22Z</time>
      </trkpt>
      <trkpt lat="45.88098" lon="6.42862">
        <ele>1349.2</ele>
        <time>2017-03-17T14:23:27Z</time>
      </trkpt>
      <trkpt lat="45.88122" lon="6.42868">
        <ele>1339.2</ele>
        <time>2017-03-17T14:23:32Z</time>
      </trkpt>
      <trkpt lat="45.88146" lon="6.42868">
        <ele>1333.2</ele>
        <time>2017-03-17T14:23:37Z</time>
      </trkpt>
      <trkpt lat="45.88174" lon="6.42868">
        <ele>1323.8</ele>
        <time>2017-03-17T14:23:42Z</time>
      </trkpt>
      <trkpt lat="45.88207" lon="6.42869">
        <ele>1317.6</ele>
        <time>2017-03-17T14:23:47Z</time>
      </trkpt>
      <trkpt lat="45.88238" lon="6.4288">
        <ele>1306</ele>
        <time>2017-03-17T14:23:52Z</time>
      </trkpt>
      <trkpt lat="45.88263" lon="6.42901">
        <ele>1298.8</ele>
        <time>2017-03-17T14:23:57Z</time>
      </trkpt>
      <trkpt lat="45.88277" lon="6.4294">
        <ele>1294.8</ele>
        <time>2017-03-17T14:24:02Z</time>
      </trkpt>
      <trkpt lat="45.883" lon="6.42971">
        <ele>1287.4</ele>
        <time>2017-03-17T14:24:07Z</time>
      </trkpt>
      <trkpt lat="45.88316" lon="6.43015">
        <ele>1281.4</ele>
        <time>2017-03-17T14:24:12Z</time>
      </trkpt>
      <trkpt lat="45.8832" lon="6.43046">
        <ele>1280</ele>
        <time>2017-03-17T14:24:17Z</time>
      </trkpt>
      <trkpt lat="45.88327" lon="6.43045">
        <ele>1279.8</ele>
        <time>2017-03-17T14:24:22Z</time>
      </trkpt>
      <trkpt lat="45.88327" lon="6.43044">
        <ele>1280.2</ele>
        <time>2017-03-17T14:24:32Z</time>
      </trkpt>
      <trkpt lat="45.88327" lon="6.43044">
        <ele>1277</ele>
        <time>2017-03-17T14:24:37Z</time>
      </trkpt>
      <trkpt lat="45.8833" lon="6.43051">
        <ele>1276.6</ele>
        <time>2017-03-17T14:24:42Z</time>
      </trkpt>
      <trkpt lat="45.88344" lon="6.43066">
        <ele>1272.4</ele>
        <time>2017-03-17T14:24:47Z</time>
      </trkpt>
      <trkpt lat="45.88365" lon="6.43088">
        <ele>1270</ele>
        <time>2017-03-17T14:24:52Z</time>
      </trkpt>
      <trkpt lat="45.88383" lon="6.43066">
        <ele>1263.6</ele>
        <time>2017-03-17T14:24:57Z</time>
      </trkpt>
      <trkpt lat="45.88393" lon="6.43023">
        <ele>1263</ele>
        <time>2017-03-17T14:25:02Z</time>
      </trkpt>
      <trkpt lat="45.88398" lon="6.4298">
        <ele>1260.6</ele>
        <time>2017-03-17T14:25:08Z</time>
      </trkpt>
      <trkpt lat="45.88399" lon="6.42962">
        <ele>1262.6</ele>
        <time>2017-03-17T14:25:13Z</time>
      </trkpt>
      <trkpt lat="45.88402" lon="6.42942">
        <ele>1261.2</ele>
        <time>2017-03-17T14:25:18Z</time>
      </trkpt>
      <trkpt lat="45.88406" lon="6.42924">
        <ele>1259.6</ele>
        <time>2017-03-17T14:25:23Z</time>
      </trkpt>
      <trkpt lat="45.88411" lon="6.42908">
        <ele>1257.4</ele>
        <time>2017-03-17T14:25:28Z</time>
      </trkpt>
      <trkpt lat="45.88419" lon="6.42896">
        <ele>1251.4</ele>
        <time>2017-03-17T14:25:33Z</time>
      </trkpt>
      <trkpt lat="45.88432" lon="6.42891">
        <ele>1249.8</ele>
        <time>2017-03-17T14:25:38Z</time>
      </trkpt>
      <trkpt lat="45.88445" lon="6.42894">
        <ele>1246.6</ele>
        <time>2017-03-17T14:25:43Z</time>
      </trkpt>
      <trkpt lat="45.88456" lon="6.42895">
        <ele>1245.2</ele>
        <time>2017-03-17T14:25:48Z</time>
      </trkpt>
      <trkpt lat="45.88479" lon="6.42898">
        <ele>1243.6</ele>
        <time>2017-03-17T14:25:53Z</time>
      </trkpt>
      <trkpt lat="45.88501" lon="6.42899">
        <ele>1238.8</ele>
        <time>2017-03-17T14:25:58Z</time>
      </trkpt>
      <trkpt lat="45.88517" lon="6.42891">
        <ele>1238.8</ele>
        <time>2017-03-17T14:26:03Z</time>
      </trkpt>
      <trkpt lat="45.88535" lon="6.42893">
        <ele>1231.6</ele>
        <time>2017-03-17T14:26:08Z</time>
      </trkpt>
      <trkpt lat="45.88558" lon="6.4288">
        <ele>1229</ele>
        <time>2017-03-17T14:26:13Z</time>
      </trkpt>
      <trkpt lat="45.88583" lon="6.42869">
        <ele>1220.4</ele>
        <time>2017-03-17T14:26:18Z</time>
      </trkpt>
      <trkpt lat="45.88608" lon="6.42858">
        <ele>1215</ele>
        <time>2017-03-17T14:26:23Z</time>
      </trkpt>
      <trkpt lat="45.88634" lon="6.42856">
        <ele>1207.2</ele>
        <time>2017-03-17T14:26:28Z</time>
      </trkpt>
      <trkpt lat="45.88658" lon="6.42837">
        <ele>1201.4</ele>
        <time>2017-03-17T14:26:33Z</time>
      </trkpt>
      <trkpt lat="45.88674" lon="6.428">
        <ele>1195.8</ele>
        <time>2017-03-17T14:26:38Z</time>
      </trkpt>
      <trkpt lat="45.8869" lon="6.4279">
        <ele>1196</ele>
        <time>2017-03-17T14:26:43Z</time>
      </trkpt>
      <trkpt lat="45.88704" lon="6.42784">
        <ele>1198.4</ele>
        <time>2017-03-17T14:26:48Z</time>
      </trkpt>
      <trkpt lat="45.88713" lon="6.42782">
        <ele>1193.2</ele>
        <time>2017-03-17T14:26:53Z</time>
      </trkpt>
      <trkpt lat="45.88713" lon="6.42782">
        <ele>1193</ele>
        <time>2017-03-17T14:26:58Z</time>
      </trkpt>
      <trkpt lat="45.88713" lon="6.42781">
        <ele>1191.8</ele>
        <time>2017-03-17T14:27:18Z</time>
      </trkpt>
      <trkpt lat="45.88713" lon="6.4278">
        <ele>1189.6</ele>
        <time>2017-03-17T14:27:33Z</time>
      </trkpt>
      <trkpt lat="45.88719" lon="6.42779">
        <ele>1192</ele>
        <time>2017-03-17T14:27:38Z</time>
      </trkpt>
      <trkpt lat="45.88725" lon="6.42776">
        <ele>1188.2</ele>
        <time>2017-03-17T14:27:43Z</time>
      </trkpt>
      <trkpt lat="45.88727" lon="6.42775">
        <ele>1187.6</ele>
        <time>2017-03-17T14:27:48Z</time>
      </trkpt>
      <trkpt lat="45.88728" lon="6.42775">
        <ele>1188.6</ele>
        <time>2017-03-17T14:27:53Z</time>
      </trkpt>
      <trkpt lat="45.88728" lon="6.42775">
        <ele>1188.8</ele>
        <time>2017-03-17T14:27:58Z</time>
      </trkpt>
      <trkpt lat="45.88728" lon="6.42774">
        <ele>1189</ele>
        <time>2017-03-17T14:28:03Z</time>
      </trkpt>
      <trkpt lat="45.88729" lon="6.42773">
        <ele>1188.8</ele>
        <time>2017-03-17T14:28:08Z</time>
      </trkpt>
      <trkpt lat="45.88729" lon="6.42773">
        <ele>1188.6</ele>
        <time>2017-03-17T14:28:13Z</time>
      </trkpt>
      <trkpt lat="45.88729" lon="6.42772">
        <ele>1188</ele>
        <time>2017-03-17T14:28:23Z</time>
      </trkpt>
      <trkpt lat="45.88728" lon="6.42772">
        <ele>1187.8</ele>
        <time>2017-03-17T14:28:28Z</time>
      </trkpt>
      <trkpt lat="45.88728" lon="6.42773">
        <ele>1187.6</ele>
        <time>2017-03-17T14:28:33Z</time>
      </trkpt>
      <trkpt lat="45.88728" lon="6.42773">
        <ele>1187.2</ele>
        <time>2017-03-17T14:28:38Z</time>
      </trkpt>
      <trkpt lat="45.88728" lon="6.42773">
        <ele>1187</ele>
        <time>2017-03-17T14:28:43Z</time>
      </trkpt>
      <trkpt lat="45.88727" lon="6.42773">
        <ele>1186.6</ele>
        <time>2017-03-17T14:28:53Z</time>
      </trkpt>
      <trkpt lat="45.8873" lon="6.42772">
        <ele>1188.2</ele>
        <time>2017-03-17T14:29:23Z</time>
      </trkpt>
      <trkpt lat="45.88733" lon="6.42772">
        <ele>1188</ele>
        <time>2017-03-17T14:29:28Z</time>
      </trkpt>
      <trkpt lat="45.88736" lon="6.42771">
        <ele>1186.8</ele>
        <time>2017-03-17T14:29:33Z</time>
      </trkpt>
      <trkpt lat="45.88739" lon="6.42772">
        <ele>1189.4</ele>
        <time>2017-03-17T14:29:38Z</time>
      </trkpt>
      <trkpt lat="45.88743" lon="6.42771">
        <ele>1190.2</ele>
        <time>2017-03-17T14:29:43Z</time>
      </trkpt>
      <trkpt lat="45.8875" lon="6.4277">
        <ele>1189.6</ele>
        <time>2017-03-17T14:29:48Z</time>
      </trkpt>
      <trkpt lat="45.88761" lon="6.42761">
        <ele>1189.2</ele>
        <time>2017-03-17T14:29:54Z</time>
      </trkpt>
      <trkpt lat="45.88769" lon="6.42749">
        <ele>1188.6</ele>
        <time>2017-03-17T14:29:59Z</time>
      </trkpt>
      <trkpt lat="45.88775" lon="6.42738">
        <ele>1187.4</ele>
        <time>2017-03-17T14:30:04Z</time>
      </trkpt>
      <trkpt lat="45.8878" lon="6.42725">
        <ele>1188.2</ele>
        <time>2017-03-17T14:30:09Z</time>
      </trkpt>
      <trkpt lat="45.88789" lon="6.4271">
        <ele>1187.8</ele>
        <time>2017-03-17T14:30:14Z</time>
      </trkpt>
      <trkpt lat="45.88802" lon="6.42698">
        <ele>1187.8</ele>
        <time>2017-03-17T14:30:19Z</time>
      </trkpt>
      <trkpt lat="45.88807" lon="6.42696">
        <ele>1187</ele>
        <time>2017-03-17T14:30:24Z</time>
      </trkpt>
      <trkpt lat="45.88819" lon="6.42695">
        <ele>1184.6</ele>
        <time>2017-03-17T14:30:29Z</time>
      </trkpt>
      <trkpt lat="45.88838" lon="6.4269">
        <ele>1182.8</ele>
        <time>2017-03-17T14:30:34Z</time>
      </trkpt>
      <trkpt lat="45.88857" lon="6.42689">
        <ele>1183.8</ele>
        <time>2017-03-17T14:30:39Z</time>
      </trkpt>
      <trkpt lat="45.8887" lon="6.42688">
        <ele>1180.8</ele>
        <time>2017-03-17T14:30:44Z</time>
      </trkpt>
      <trkpt lat="45.88874" lon="6.42691">
        <ele>1179.8</ele>
        <time>2017-03-17T14:30:49Z</time>
      </trkpt>
      <trkpt lat="45.88877" lon="6.42694">
        <ele>1178</ele>
        <time>2017-03-17T14:30:54Z</time>
      </trkpt>
      <trkpt lat="45.88887" lon="6.42697">
        <ele>1176.2</ele>
        <time>2017-03-17T14:30:59Z</time>
      </trkpt>
      <trkpt lat="45.88899" lon="6.42694">
        <ele>1178.2</ele>
        <time>2017-03-17T14:31:04Z</time>
      </trkpt>
      <trkpt lat="45.8891" lon="6.42685">
        <ele>1177.4</ele>
        <time>2017-03-17T14:31:09Z</time>
      </trkpt>
      <trkpt lat="45.88923" lon="6.42673">
        <ele>1176.8</ele>
        <time>2017-03-17T14:31:14Z</time>
      </trkpt>
      <trkpt lat="45.88938" lon="6.42666">
        <ele>1175.2</ele>
        <time>2017-03-17T14:31:19Z</time>
      </trkpt>
      <trkpt lat="45.88949" lon="6.4266">
        <ele>1173.8</ele>
        <time>2017-03-17T14:31:24Z</time>
      </trkpt>
      <trkpt lat="45.88959" lon="6.42655">
        <ele>1175.4</ele>
        <time>2017-03-17T14:31:29Z</time>
      </trkpt>
      <trkpt lat="45.8897" lon="6.42649">
        <ele>1176.6</ele>
        <time>2017-03-17T14:31:34Z</time>
      </trkpt>
      <trkpt lat="45.88977" lon="6.42646">
        <ele>1174.2</ele>
        <time>2017-03-17T14:31:39Z</time>
      </trkpt>
      <trkpt lat="45.88978" lon="6.42647">
        <ele>1172.2</ele>
        <time>2017-03-17T14:31:44Z</time>
      </trkpt>
      <trkpt lat="45.88979" lon="6.42649">
        <ele>1172.8</ele>
        <time>2017-03-17T14:31:49Z</time>
      </trkpt>
      <trkpt lat="45.88983" lon="6.42645">
        <ele>1172</ele>
        <time>2017-03-17T14:31:54Z</time>
      </trkpt>
      <trkpt lat="45.88991" lon="6.42642">
        <ele>1171.8</ele>
        <time>2017-03-17T14:31:59Z</time>
      </trkpt>
      <trkpt lat="45.89001" lon="6.42636">
        <ele>1169.6</ele>
        <time>2017-03-17T14:32:04Z</time>
      </trkpt>
      <trkpt lat="45.89015" lon="6.42629">
        <ele>1167.8</ele>
        <time>2017-03-17T14:32:09Z</time>
      </trkpt>
      <trkpt lat="45.89035" lon="6.42618">
        <ele>1167</ele>
        <time>2017-03-17T14:32:14Z</time>
      </trkpt>
      <trkpt lat="45.89057" lon="6.42606">
        <ele>1165.2</ele>
        <time>2017-03-17T14:32:19Z</time>
      </trkpt>
      <trkpt lat="45.89081" lon="6.42599">
        <ele>1165.4</ele>
        <time>2017-03-17T14:32:24Z</time>
      </trkpt>
      <trkpt lat="45.89103" lon="6.42591">
        <ele>1166.6</ele>
        <time>2017-03-17T14:32:29Z</time>
      </trkpt>
      <trkpt lat="45.89124" lon="6.42583">
        <ele>1166.8</ele>
        <time>2017-03-17T14:32:34Z</time>
      </trkpt>
      <trkpt lat="45.89144" lon="6.42575">
        <ele>1161.6</ele>
        <time>2017-03-17T14:32:39Z</time>
      </trkpt>
      <trkpt lat="45.89162" lon="6.42567">
        <ele>1159.8</ele>
        <time>2017-03-17T14:32:44Z</time>
      </trkpt>
      <trkpt lat="45.89178" lon="6.42561">
        <ele>1159</ele>
        <time>2017-03-17T14:32:49Z</time>
      </trkpt>
      <trkpt lat="45.8919" lon="6.42557">
        <ele>1157</ele>
        <time>2017-03-17T14:32:54Z</time>
      </trkpt>
      <trkpt lat="45.89203" lon="6.42551">
        <ele>1156.2</ele>
        <time>2017-03-17T14:32:59Z</time>
      </trkpt>
      <trkpt lat="45.89218" lon="6.42543">
        <ele>1156.8</ele>
        <time>2017-03-17T14:33:04Z</time>
      </trkpt>
      <trkpt lat="45.89235" lon="6.42532">
        <ele>1156.2</ele>
        <time>2017-03-17T14:33:09Z</time>
      </trkpt>
      <trkpt lat="45.89254" lon="6.42522">
        <ele>1154.2</ele>
        <time>2017-03-17T14:33:14Z</time>
      </trkpt>
      <trkpt lat="45.89273" lon="6.42513">
        <ele>1154.4</ele>
        <time>2017-03-17T14:33:19Z</time>
      </trkpt>
      <trkpt lat="45.89291" lon="6.42504">
        <ele>1153.4</ele>
        <time>2017-03-17T14:33:24Z</time>
      </trkpt>
      <trkpt lat="45.89311" lon="6.42496">
        <ele>1150.6</ele>
        <time>2017-03-17T14:33:29Z</time>
      </trkpt>
      <trkpt lat="45.89333" lon="6.42488">
        <ele>1147</ele>
        <time>2017-03-17T14:33:34Z</time>
      </trkpt>
      <trkpt lat="45.89357" lon="6.42484">
        <ele>1145</ele>
        <time>2017-03-17T14:33:39Z</time>
      </trkpt>
      <trkpt lat="45.89379" lon="6.42483">
        <ele>1140.4</ele>
        <time>2017-03-17T14:33:44Z</time>
      </trkpt>
      <trkpt lat="45.89403" lon="6.42477">
        <ele>1135.2</ele>
        <time>2017-03-17T14:33:49Z</time>
      </trkpt>
      <trkpt lat="45.89437" lon="6.42473">
        <ele>1134.2</ele>
        <time>2017-03-17T14:33:54Z</time>
      </trkpt>
      <trkpt lat="45.89464" lon="6.42481">
        <ele>1133.2</ele>
        <time>2017-03-17T14:33:59Z</time>
      </trkpt>
      <trkpt lat="45.89484" lon="6.42483">
        <ele>1129.8</ele>
        <time>2017-03-17T14:34:04Z</time>
      </trkpt>
      <trkpt lat="45.89504" lon="6.4248">
        <ele>1127</ele>
        <time>2017-03-17T14:34:09Z</time>
      </trkpt>
      <trkpt lat="45.89524" lon="6.42475">
        <ele>1126.8</ele>
        <time>2017-03-17T14:34:14Z</time>
      </trkpt>
      <trkpt lat="45.89544" lon="6.42464">
        <ele>1123.8</ele>
        <time>2017-03-17T14:34:19Z</time>
      </trkpt>
      <trkpt lat="45.89568" lon="6.42451">
        <ele>1122</ele>
        <time>2017-03-17T14:34:24Z</time>
      </trkpt>
      <trkpt lat="45.89583" lon="6.42442">
        <ele>1122.4</ele>
        <time>2017-03-17T14:34:29Z</time>
      </trkpt>
      <trkpt lat="45.89601" lon="6.42434">
        <ele>1122.6</ele>
        <time>2017-03-17T14:34:34Z</time>
      </trkpt>
      <trkpt lat="45.89617" lon="6.4243">
        <ele>1124.4</ele>
        <time>2017-03-17T14:34:39Z</time>
      </trkpt>
      <trkpt lat="45.8963" lon="6.42425">
        <ele>1120.4</ele>
        <time>2017-03-17T14:34:44Z</time>
      </trkpt>
      <trkpt lat="45.89645" lon="6.42417">
        <ele>1122.2</ele>
        <time>2017-03-17T14:34:49Z</time>
      </trkpt>
      <trkpt lat="45.8966" lon="6.42413">
        <ele>1119.4</ele>
        <time>2017-03-17T14:34:54Z</time>
      </trkpt>
      <trkpt lat="45.89673" lon="6.42408">
        <ele>1120.4</ele>
        <time>2017-03-17T14:34:59Z</time>
      </trkpt>
      <trkpt lat="45.89684" lon="6.42407">
        <ele>1121.6</ele>
        <time>2017-03-17T14:35:04Z</time>
      </trkpt>
      <trkpt lat="45.89695" lon="6.42401">
        <ele>1118.8</ele>
        <time>2017-03-17T14:35:09Z</time>
      </trkpt>
      <trkpt lat="45.89704" lon="6.42396">
        <ele>1119.6</ele>
        <time>2017-03-17T14:35:14Z</time>
      </trkpt>
      <trkpt lat="45.89709" lon="6.42394">
        <ele>1119.4</ele>
        <time>2017-03-17T14:35:19Z</time>
      </trkpt>
      <trkpt lat="45.89716" lon="6.42394">
        <ele>1118.8</ele>
        <time>2017-03-17T14:35:24Z</time>
      </trkpt>
      <trkpt lat="45.89715" lon="6.42397">
        <ele>1116.4</ele>
        <time>2017-03-17T14:35:29Z</time>
      </trkpt>
      <trkpt lat="45.89707" lon="6.42403">
        <ele>1117.8</ele>
        <time>2017-03-17T14:35:34Z</time>
      </trkpt>
      <trkpt lat="45.897" lon="6.42408">
        <ele>1114.6</ele>
        <time>2017-03-17T14:35:39Z</time>
      </trkpt>
      <trkpt lat="45.89697" lon="6.42409">
        <ele>1114.6</ele>
        <time>2017-03-17T14:35:49Z</time>
      </trkpt>
      <trkpt lat="45.89696" lon="6.42409">
        <ele>1114</ele>
        <time>2017-03-17T14:35:54Z</time>
      </trkpt>
      <trkpt lat="45.89696" lon="6.42409">
        <ele>1113.2</ele>
        <time>2017-03-17T14:35:59Z</time>
      </trkpt>
      <trkpt lat="45.89695" lon="6.42409">
        <ele>1112.4</ele>
        <time>2017-03-17T14:36:04Z</time>
      </trkpt>
      <trkpt lat="45.89695" lon="6.42408">
        <ele>1111.2</ele>
        <time>2017-03-17T14:36:14Z</time>
      </trkpt>
      <trkpt lat="45.89695" lon="6.42409">
        <ele>1110.6</ele>
        <time>2017-03-17T14:36:19Z</time>
      </trkpt>
      <trkpt lat="45.89695" lon="6.42409">
        <ele>1108.6</ele>
        <time>2017-03-17T14:36:24Z</time>
      </trkpt>
      <trkpt lat="45.89695" lon="6.42408">
        <ele>1108.8</ele>
        <time>2017-03-17T14:36:29Z</time>
      </trkpt>
      <trkpt lat="45.89694" lon="6.42409">
        <ele>1108.4</ele>
        <time>2017-03-17T14:36:34Z</time>
      </trkpt>
      <trkpt lat="45.89694" lon="6.42408">
        <ele>1108.6</ele>
        <time>2017-03-17T14:36:39Z</time>
      </trkpt>
      <trkpt lat="45.89693" lon="6.42409">
        <ele>1109.2</ele>
        <time>2017-03-17T14:36:49Z</time>
      </trkpt>
      <trkpt lat="45.89693" lon="6.4241">
        <ele>1107.2</ele>
        <time>2017-03-17T14:36:54Z</time>
      </trkpt>
      <trkpt lat="45.89691" lon="6.42411">
        <ele>1109</ele>
        <time>2017-03-17T14:36:59Z</time>
      </trkpt>
      <trkpt lat="45.8969" lon="6.42414">
        <ele>1107.6</ele>
        <time>2017-03-17T14:37:04Z</time>
      </trkpt>
      <trkpt lat="45.89687" lon="6.42416">
        <ele>1111.4</ele>
        <time>2017-03-17T14:37:09Z</time>
      </trkpt>
      <trkpt lat="45.89684" lon="6.42421">
        <ele>1110</ele>
        <time>2017-03-17T14:37:14Z</time>
      </trkpt>
      <trkpt lat="45.8968" lon="6.42425">
        <ele>1111.4</ele>
        <time>2017-03-17T14:37:19Z</time>
      </trkpt>
      <trkpt lat="45.89675" lon="6.42429">
        <ele>1108</ele>
        <time>2017-03-17T14:37:24Z</time>
      </trkpt>
      <trkpt lat="45.89674" lon="6.42433">
        <ele>1107.2</ele>
        <time>2017-03-17T14:37:29Z</time>
      </trkpt>
      <trkpt lat="45.89674" lon="6.42433">
        <ele>1107</ele>
        <time>2017-03-17T14:37:34Z</time>
      </trkpt>
      <trkpt lat="45.89673" lon="6.42433">
        <ele>1106.4</ele>
        <time>2017-03-17T14:37:44Z</time>
      </trkpt>
      <trkpt lat="45.89671" lon="6.42435">
        <ele>1105</ele>
        <time>2017-03-17T14:37:49Z</time>
      </trkpt>
      <trkpt lat="45.8967" lon="6.42437">
        <ele>1104.6</ele>
        <time>2017-03-17T14:37:54Z</time>
      </trkpt>
      <trkpt lat="45.89669" lon="6.42441">
        <ele>1104.6</ele>
        <time>2017-03-17T14:37:59Z</time>
      </trkpt>
      <trkpt lat="45.89663" lon="6.42448">
        <ele>1105.2</ele>
        <time>2017-03-17T14:38:04Z</time>
      </trkpt>
      <trkpt lat="45.89658" lon="6.42452">
        <ele>1105.4</ele>
        <time>2017-03-17T14:38:09Z</time>
      </trkpt>
      <trkpt lat="45.89652" lon="6.42458">
        <ele>1105.6</ele>
        <time>2017-03-17T14:38:14Z</time>
      </trkpt>
      <trkpt lat="45.89646" lon="6.42465">
        <ele>1102.4</ele>
        <time>2017-03-17T14:38:19Z</time>
      </trkpt>
      <trkpt lat="45.89642" lon="6.42473">
        <ele>1104</ele>
        <time>2017-03-17T14:38:24Z</time>
      </trkpt>
      <trkpt lat="45.89643" lon="6.42478">
        <ele>1102.8</ele>
        <time>2017-03-17T14:38:29Z</time>
      </trkpt>
      <trkpt lat="45.89643" lon="6.42479">
        <ele>1101.4</ele>
        <time>2017-03-17T14:38:34Z</time>
      </trkpt>
      <trkpt lat="45.89641" lon="6.42482">
        <ele>1102.4</ele>
        <time>2017-03-17T14:38:39Z</time>
      </trkpt>
      <trkpt lat="45.89641" lon="6.42483">
        <ele>1099.6</ele>
        <time>2017-03-17T14:38:44Z</time>
      </trkpt>
      <trkpt lat="45.8964" lon="6.42484">
        <ele>1100.4</ele>
        <time>2017-03-17T14:38:49Z</time>
      </trkpt>
      <trkpt lat="45.89643" lon="6.42485">
        <ele>1098.8</ele>
        <time>2017-03-17T14:38:54Z</time>
      </trkpt>
      <trkpt lat="45.89646" lon="6.42483">
        <ele>1097.8</ele>
        <time>2017-03-17T14:39:00Z</time>
      </trkpt>
      <trkpt lat="45.89651" lon="6.42481">
        <ele>1095.2</ele>
        <time>2017-03-17T14:39:05Z</time>
      </trkpt>
      <trkpt lat="45.89656" lon="6.42482">
        <ele>1094.4</ele>
        <time>2017-03-17T14:39:11Z</time>
      </trkpt>
      <trkpt lat="45.89664" lon="6.42482">
        <ele>1094</ele>
        <time>2017-03-17T14:39:26Z</time>
      </trkpt>
      <trkpt lat="45.8967" lon="6.42484">
        <ele>1096</ele>
        <time>2017-03-17T14:39:31Z</time>
      </trkpt>
      <trkpt lat="45.89675" lon="6.42482">
        <ele>1095.6</ele>
        <time>2017-03-17T14:39:36Z</time>
      </trkpt>
      <trkpt lat="45.89681" lon="6.42484">
        <ele>1089.6</ele>
        <time>2017-03-17T14:39:41Z</time>
      </trkpt>
      <trkpt lat="45.89686" lon="6.42484">
        <ele>1095</ele>
        <time>2017-03-17T14:39:46Z</time>
      </trkpt>
      <trkpt lat="45.8969" lon="6.42485">
        <ele>1094.4</ele>
        <time>2017-03-17T14:39:51Z</time>
      </trkpt>
      <trkpt lat="45.89695" lon="6.42487">
        <ele>1097</ele>
        <time>2017-03-17T14:39:56Z</time>
      </trkpt>
      <trkpt lat="45.89701" lon="6.42489">
        <ele>1095.4</ele>
        <time>2017-03-17T14:40:01Z</time>
      </trkpt>
      <trkpt lat="45.89704" lon="6.42493">
        <ele>1098.4</ele>
        <time>2017-03-17T14:40:06Z</time>
      </trkpt>
      <trkpt lat="45.89702" lon="6.42499">
        <ele>1097</ele>
        <time>2017-03-17T14:40:11Z</time>
      </trkpt>
      <trkpt lat="45.897" lon="6.42505">
        <ele>1097.4</ele>
        <time>2017-03-17T14:40:16Z</time>
      </trkpt>
      <trkpt lat="45.89698" lon="6.42512">
        <ele>1097</ele>
        <time>2017-03-17T14:40:21Z</time>
      </trkpt>
      <trkpt lat="45.89696" lon="6.42517">
        <ele>1096</ele>
        <time>2017-03-17T14:40:26Z</time>
      </trkpt>
      <trkpt lat="45.89694" lon="6.42523">
        <ele>1096</ele>
        <time>2017-03-17T14:40:31Z</time>
      </trkpt>
      <trkpt lat="45.89691" lon="6.42529">
        <ele>1095.4</ele>
        <time>2017-03-17T14:40:36Z</time>
      </trkpt>
      <trkpt lat="45.89689" lon="6.42534">
        <ele>1093.4</ele>
        <time>2017-03-17T14:40:41Z</time>
      </trkpt>
      <trkpt lat="45.89684" lon="6.42537">
        <ele>1096.2</ele>
        <time>2017-03-17T14:40:46Z</time>
      </trkpt>
      <trkpt lat="45.89678" lon="6.42537">
        <ele>1093.6</ele>
        <time>2017-03-17T14:40:51Z</time>
      </trkpt>
      <trkpt lat="45.89673" lon="6.42539">
        <ele>1096</ele>
        <time>2017-03-17T14:40:56Z</time>
      </trkpt>
      <trkpt lat="45.89668" lon="6.42542">
        <ele>1094.6</ele>
        <time>2017-03-17T14:41:01Z</time>
      </trkpt>
      <trkpt lat="45.89663" lon="6.42545">
        <ele>1095.6</ele>
        <time>2017-03-17T14:41:06Z</time>
      </trkpt>
      <trkpt lat="45.89657" lon="6.42548">
        <ele>1096.2</ele>
        <time>2017-03-17T14:41:11Z</time>
      </trkpt>
      <trkpt lat="45.89653" lon="6.42551">
        <ele>1093.6</ele>
        <time>2017-03-17T14:41:16Z</time>
      </trkpt>
      <trkpt lat="45.89648" lon="6.42554">
        <ele>1098</ele>
        <time>2017-03-17T14:41:21Z</time>
      </trkpt>
      <trkpt lat="45.89643" lon="6.42556">
        <ele>1099.2</ele>
        <time>2017-03-17T14:41:26Z</time>
      </trkpt>
      <trkpt lat="45.89638" lon="6.42558">
        <ele>1099.4</ele>
        <time>2017-03-17T14:41:31Z</time>
      </trkpt>
      <trkpt lat="45.89635" lon="6.42559">
        <ele>1100</ele>
        <time>2017-03-17T14:41:36Z</time>
      </trkpt>
      <trkpt lat="45.89633" lon="6.42559">
        <ele>1099.6</ele>
        <time>2017-03-17T14:41:41Z</time>
      </trkpt>
      <trkpt lat="45.89633" lon="6.42559">
        <ele>1099.2</ele>
        <time>2017-03-17T14:41:46Z</time>
      </trkpt>
      <trkpt lat="45.89634" lon="6.42557">
        <ele>1099</ele>
        <time>2017-03-17T14:41:51Z</time>
      </trkpt>
      <trkpt lat="45.89633" lon="6.42557">
        <ele>1098.6</ele>
        <time>2017-03-17T14:41:56Z</time>
      </trkpt>
      <trkpt lat="45.89633" lon="6.42557">
        <ele>1098.2</ele>
        <time>2017-03-17T14:42:01Z</time>
      </trkpt>
      <trkpt lat="45.89634" lon="6.42558">
        <ele>1098.8</ele>
        <time>2017-03-17T14:42:06Z</time>
      </trkpt>
      <trkpt lat="45.89634" lon="6.42559">
        <ele>1098</ele>
        <time>2017-03-17T14:42:41Z</time>
      </trkpt>
      <trkpt lat="45.89634" lon="6.42559">
        <ele>1097.8</ele>
        <time>2017-03-17T14:43:01Z</time>
      </trkpt>
      <trkpt lat="45.89634" lon="6.42559">
        <ele>1097.6</ele>
        <time>2017-03-17T14:43:11Z</time>
      </trkpt>
      <trkpt lat="45.89634" lon="6.42559">
        <ele>1097.6</ele>
        <time>2017-03-17T14:43:17Z</time>
      </trkpt>
    </trkseg>
  </trk>
</gpx>